<?xml version="1.0" encoding="UTF-8" standalone="no" ?>
<gpx xmlns="http://www.topografix.com/GPX/1/1" creator="www.cicloide.com" version="1.1" xmlns:xsi="http://www.w3.org/2001/XMLSchema-instance" xsi:schemaLocation="http://www.topografix.com/GPX/1/1 http://www.topografix.com/GPX/1/1/gpx.xsd">
  <trk>
    <name>www.cicloide.com 31018</name>
    <desc>www.cicloide.com 31018</desc>
    <trkseg>
      <trkpt lat="41.605813360" lon="2.540290120">
        <ele>109.73</ele>
        <time>2015-10-18T06:01:37Z</time>
      </trkpt>
      <trkpt lat="41.605804140" lon="2.540288780">
        <ele>109.73</ele>
        <time>2015-10-18T06:01:48Z</time>
      </trkpt>
      <trkpt lat="41.605782850" lon="2.540303360">
        <ele>109.73</ele>
        <time>2015-10-18T06:02:02Z</time>
      </trkpt>
      <trkpt lat="41.605787370" lon="2.540328260">
        <ele>109.73</ele>
        <time>2015-10-18T06:02:17Z</time>
      </trkpt>
      <trkpt lat="41.605793160" lon="2.540339570">
        <ele>109.73</ele>
        <time>2015-10-18T06:02:32Z</time>
      </trkpt>
      <trkpt lat="41.605787790" lon="2.540343010">
        <ele>109.73</ele>
        <time>2015-10-18T06:02:42Z</time>
      </trkpt>
      <trkpt lat="41.605801370" lon="2.540356170">
        <ele>109.73</ele>
        <time>2015-10-18T06:02:55Z</time>
      </trkpt>
      <trkpt lat="41.605807240" lon="2.540366230">
        <ele>109.73</ele>
        <time>2015-10-18T06:03:03Z</time>
      </trkpt>
      <trkpt lat="41.605814950" lon="2.540375870">
        <ele>109.73</ele>
        <time>2015-10-18T06:03:09Z</time>
      </trkpt>
      <trkpt lat="41.605865070" lon="2.540399170">
        <ele>109.73</ele>
        <time>2015-10-18T06:03:13Z</time>
      </trkpt>
      <trkpt lat="41.606002870" lon="2.540381070">
        <ele>110.21</ele>
        <time>2015-10-18T06:03:21Z</time>
      </trkpt>
      <trkpt lat="41.606191630" lon="2.540416350">
        <ele>110.21</ele>
        <time>2015-10-18T06:03:27Z</time>
      </trkpt>
      <trkpt lat="41.606404870" lon="2.540524900">
        <ele>110.21</ele>
        <time>2015-10-18T06:03:36Z</time>
      </trkpt>
      <trkpt lat="41.606576030" lon="2.540622380">
        <ele>110.69</ele>
        <time>2015-10-18T06:03:43Z</time>
      </trkpt>
      <trkpt lat="41.606759590" lon="2.540701170">
        <ele>111.17</ele>
        <time>2015-10-18T06:03:50Z</time>
      </trkpt>
      <trkpt lat="41.607008620" lon="2.540781640">
        <ele>112.13</ele>
        <time>2015-10-18T06:04:00Z</time>
      </trkpt>
      <trkpt lat="41.607271980" lon="2.540847430">
        <ele>113.09</ele>
        <time>2015-10-18T06:04:10Z</time>
      </trkpt>
      <trkpt lat="41.607501140" lon="2.540866550">
        <ele>113.57</ele>
        <time>2015-10-18T06:04:18Z</time>
      </trkpt>
      <trkpt lat="41.607709260" lon="2.540851710">
        <ele>114.53</ele>
        <time>2015-10-18T06:04:26Z</time>
      </trkpt>
      <trkpt lat="41.607860550" lon="2.540832600">
        <ele>115.01</ele>
        <time>2015-10-18T06:04:32Z</time>
      </trkpt>
      <trkpt lat="41.608075720" lon="2.540832180">
        <ele>115.50</ele>
        <time>2015-10-18T06:04:40Z</time>
      </trkpt>
      <trkpt lat="41.608279150" lon="2.540791280">
        <ele>116.46</ele>
        <time>2015-10-18T06:04:48Z</time>
      </trkpt>
      <trkpt lat="41.608436810" lon="2.540760010">
        <ele>117.42</ele>
        <time>2015-10-18T06:04:55Z</time>
      </trkpt>
      <trkpt lat="41.608622220" lon="2.540725980">
        <ele>117.90</ele>
        <time>2015-10-18T06:05:02Z</time>
      </trkpt>
      <trkpt lat="41.608862190" lon="2.540685160">
        <ele>118.86</ele>
        <time>2015-10-18T06:05:11Z</time>
      </trkpt>
      <trkpt lat="41.609022700" lon="2.540670320">
        <ele>119.82</ele>
        <time>2015-10-18T06:05:18Z</time>
      </trkpt>
      <trkpt lat="41.609180200" lon="2.540663030">
        <ele>120.30</ele>
        <time>2015-10-18T06:05:25Z</time>
      </trkpt>
      <trkpt lat="41.609376920" lon="2.540635710">
        <ele>121.74</ele>
        <time>2015-10-18T06:05:31Z</time>
      </trkpt>
      <trkpt lat="41.609657890" lon="2.540587430">
        <ele>122.71</ele>
        <time>2015-10-18T06:05:39Z</time>
      </trkpt>
      <trkpt lat="41.609877490" lon="2.540514090">
        <ele>123.19</ele>
        <time>2015-10-18T06:05:46Z</time>
      </trkpt>
      <trkpt lat="41.609981090" lon="2.540461870">
        <ele>123.67</ele>
        <time>2015-10-18T06:05:51Z</time>
      </trkpt>
      <trkpt lat="41.610153760" lon="2.540370840">
        <ele>125.11</ele>
        <time>2015-10-18T06:05:59Z</time>
      </trkpt>
      <trkpt lat="41.610343780" lon="2.540258520">
        <ele>125.59</ele>
        <time>2015-10-18T06:06:06Z</time>
      </trkpt>
      <trkpt lat="41.610476210" lon="2.540196750">
        <ele>126.07</ele>
        <time>2015-10-18T06:06:11Z</time>
      </trkpt>
      <trkpt lat="41.610697410" lon="2.540073620">
        <ele>127.51</ele>
        <time>2015-10-18T06:06:18Z</time>
      </trkpt>
      <trkpt lat="41.610892540" lon="2.539974960">
        <ele>127.99</ele>
        <time>2015-10-18T06:06:24Z</time>
      </trkpt>
      <trkpt lat="41.611039310" lon="2.539894500">
        <ele>128.47</ele>
        <time>2015-10-18T06:06:29Z</time>
      </trkpt>
      <trkpt lat="41.611265620" lon="2.539771780">
        <ele>129.43</ele>
        <time>2015-10-18T06:06:36Z</time>
      </trkpt>
      <trkpt lat="41.611380620" lon="2.539701210">
        <ele>129.43</ele>
        <time>2015-10-18T06:06:39Z</time>
      </trkpt>
      <trkpt lat="41.611489080" lon="2.539576320">
        <ele>130.40</ele>
        <time>2015-10-18T06:06:43Z</time>
      </trkpt>
      <trkpt lat="41.611688480" lon="2.539390070">
        <ele>130.88</ele>
        <time>2015-10-18T06:06:50Z</time>
      </trkpt>
      <trkpt lat="41.611875490" lon="2.539173480">
        <ele>132.32</ele>
        <time>2015-10-18T06:06:58Z</time>
      </trkpt>
      <trkpt lat="41.611968360" lon="2.539052110">
        <ele>133.28</ele>
        <time>2015-10-18T06:07:04Z</time>
      </trkpt>
      <trkpt lat="41.612023090" lon="2.538950190">
        <ele>133.76</ele>
        <time>2015-10-18T06:07:08Z</time>
      </trkpt>
      <trkpt lat="41.612153090" lon="2.538677020">
        <ele>134.72</ele>
        <time>2015-10-18T06:07:16Z</time>
      </trkpt>
      <trkpt lat="41.612276390" lon="2.538503850">
        <ele>135.20</ele>
        <time>2015-10-18T06:07:23Z</time>
      </trkpt>
      <trkpt lat="41.612360710" lon="2.538380050">
        <ele>135.68</ele>
        <time>2015-10-18T06:07:27Z</time>
      </trkpt>
      <trkpt lat="41.612444280" lon="2.538250970">
        <ele>136.16</ele>
        <time>2015-10-18T06:07:31Z</time>
      </trkpt>
      <trkpt lat="41.612610910" lon="2.538061630">
        <ele>137.13</ele>
        <time>2015-10-18T06:07:39Z</time>
      </trkpt>
      <trkpt lat="41.612717870" lon="2.537932960">
        <ele>137.61</ele>
        <time>2015-10-18T06:07:45Z</time>
      </trkpt>
      <trkpt lat="41.612897410" lon="2.537728030">
        <ele>138.57</ele>
        <time>2015-10-18T06:07:53Z</time>
      </trkpt>
      <trkpt lat="41.613029340" lon="2.537582100">
        <ele>139.05</ele>
        <time>2015-10-18T06:07:59Z</time>
      </trkpt>
      <trkpt lat="41.613204270" lon="2.537374730">
        <ele>140.01</ele>
        <time>2015-10-18T06:08:07Z</time>
      </trkpt>
      <trkpt lat="41.613390680" lon="2.537150090">
        <ele>141.45</ele>
        <time>2015-10-18T06:08:16Z</time>
      </trkpt>
      <trkpt lat="41.613531830" lon="2.536955550">
        <ele>141.93</ele>
        <time>2015-10-18T06:08:23Z</time>
      </trkpt>
      <trkpt lat="41.613713890" lon="2.536681630">
        <ele>142.41</ele>
        <time>2015-10-18T06:08:31Z</time>
      </trkpt>
      <trkpt lat="41.613858060" lon="2.536399410">
        <ele>143.37</ele>
        <time>2015-10-18T06:08:39Z</time>
      </trkpt>
      <trkpt lat="41.613953690" lon="2.536151140">
        <ele>143.85</ele>
        <time>2015-10-18T06:08:46Z</time>
      </trkpt>
      <trkpt lat="41.614056710" lon="2.535821560">
        <ele>145.30</ele>
        <time>2015-10-18T06:08:55Z</time>
      </trkpt>
      <trkpt lat="41.614139940" lon="2.535575970">
        <ele>145.78</ele>
        <time>2015-10-18T06:09:02Z</time>
      </trkpt>
      <trkpt lat="41.614244380" lon="2.535262820">
        <ele>146.74</ele>
        <time>2015-10-18T06:09:11Z</time>
      </trkpt>
      <trkpt lat="41.614363070" lon="2.534901480">
        <ele>148.18</ele>
        <time>2015-10-18T06:09:21Z</time>
      </trkpt>
      <trkpt lat="41.614513350" lon="2.534471070">
        <ele>149.14</ele>
        <time>2015-10-18T06:09:33Z</time>
      </trkpt>
      <trkpt lat="41.614626010" lon="2.534147530">
        <ele>150.10</ele>
        <time>2015-10-18T06:09:42Z</time>
      </trkpt>
      <trkpt lat="41.614730780" lon="2.533795320">
        <ele>151.06</ele>
        <time>2015-10-18T06:09:52Z</time>
      </trkpt>
      <trkpt lat="41.614839490" lon="2.533479240">
        <ele>152.03</ele>
        <time>2015-10-18T06:10:01Z</time>
      </trkpt>
      <trkpt lat="41.614943850" lon="2.533117980">
        <ele>153.47</ele>
        <time>2015-10-18T06:10:11Z</time>
      </trkpt>
      <trkpt lat="41.615053650" lon="2.532726210">
        <ele>154.91</ele>
        <time>2015-10-18T06:10:22Z</time>
      </trkpt>
      <trkpt lat="41.615171250" lon="2.532344750">
        <ele>155.87</ele>
        <time>2015-10-18T06:10:32Z</time>
      </trkpt>
      <trkpt lat="41.615242660" lon="2.531929010">
        <ele>156.83</ele>
        <time>2015-10-18T06:10:42Z</time>
      </trkpt>
      <trkpt lat="41.615229500" lon="2.531628600">
        <ele>157.79</ele>
        <time>2015-10-18T06:10:50Z</time>
      </trkpt>
      <trkpt lat="41.615154070" lon="2.531379740">
        <ele>159.24</ele>
        <time>2015-10-18T06:10:58Z</time>
      </trkpt>
      <trkpt lat="41.615142580" lon="2.531145720">
        <ele>160.20</ele>
        <time>2015-10-18T06:11:04Z</time>
      </trkpt>
      <trkpt lat="41.615171330" lon="2.530842380">
        <ele>160.68</ele>
        <time>2015-10-18T06:11:12Z</time>
      </trkpt>
      <trkpt lat="41.615190190" lon="2.530576590">
        <ele>161.64</ele>
        <time>2015-10-18T06:11:19Z</time>
      </trkpt>
      <trkpt lat="41.615199580" lon="2.530208200">
        <ele>162.60</ele>
        <time>2015-10-18T06:11:29Z</time>
      </trkpt>
      <trkpt lat="41.615193040" lon="2.529953060">
        <ele>163.56</ele>
        <time>2015-10-18T06:11:36Z</time>
      </trkpt>
      <trkpt lat="41.615203690" lon="2.529635550">
        <ele>164.52</ele>
        <time>2015-10-18T06:11:44Z</time>
      </trkpt>
      <trkpt lat="41.615219450" lon="2.529377140">
        <ele>165.00</ele>
        <time>2015-10-18T06:11:51Z</time>
      </trkpt>
      <trkpt lat="41.615220870" lon="2.529095920">
        <ele>166.93</ele>
        <time>2015-10-18T06:11:59Z</time>
      </trkpt>
      <trkpt lat="41.615259680" lon="2.528777410">
        <ele>166.93</ele>
        <time>2015-10-18T06:12:07Z</time>
      </trkpt>
      <trkpt lat="41.615341820" lon="2.528368540">
        <ele>167.41</ele>
        <time>2015-10-18T06:12:18Z</time>
      </trkpt>
      <trkpt lat="41.615399660" lon="2.528077940">
        <ele>168.85</ele>
        <time>2015-10-18T06:12:26Z</time>
      </trkpt>
      <trkpt lat="41.615464950" lon="2.527701510">
        <ele>169.81</ele>
        <time>2015-10-18T06:12:36Z</time>
      </trkpt>
      <trkpt lat="41.615515910" lon="2.527463040">
        <ele>170.77</ele>
        <time>2015-10-18T06:12:43Z</time>
      </trkpt>
      <trkpt lat="41.615565700" lon="2.527174040">
        <ele>171.73</ele>
        <time>2015-10-18T06:12:51Z</time>
      </trkpt>
      <trkpt lat="41.615605600" lon="2.526897850">
        <ele>172.21</ele>
        <time>2015-10-18T06:12:59Z</time>
      </trkpt>
      <trkpt lat="41.615606020" lon="2.526638940">
        <ele>174.62</ele>
        <time>2015-10-18T06:13:07Z</time>
      </trkpt>
      <trkpt lat="41.615588500" lon="2.526421680">
        <ele>175.10</ele>
        <time>2015-10-18T06:13:13Z</time>
      </trkpt>
      <trkpt lat="41.615558580" lon="2.526191510">
        <ele>175.58</ele>
        <time>2015-10-18T06:13:20Z</time>
      </trkpt>
      <trkpt lat="41.615554550" lon="2.525943740">
        <ele>176.06</ele>
        <time>2015-10-18T06:13:26Z</time>
      </trkpt>
      <trkpt lat="41.615554470" lon="2.525579880">
        <ele>177.02</ele>
        <time>2015-10-18T06:13:34Z</time>
      </trkpt>
      <trkpt lat="41.615552630" lon="2.525207140">
        <ele>178.46</ele>
        <time>2015-10-18T06:13:43Z</time>
      </trkpt>
      <trkpt lat="41.615571570" lon="2.524904890">
        <ele>179.42</ele>
        <time>2015-10-18T06:13:51Z</time>
      </trkpt>
      <trkpt lat="41.615605850" lon="2.524574140">
        <ele>180.38</ele>
        <time>2015-10-18T06:14:00Z</time>
      </trkpt>
      <trkpt lat="41.615625300" lon="2.524297700">
        <ele>181.35</ele>
        <time>2015-10-18T06:14:08Z</time>
      </trkpt>
      <trkpt lat="41.615641730" lon="2.524082960">
        <ele>183.27</ele>
        <time>2015-10-18T06:14:14Z</time>
      </trkpt>
      <trkpt lat="41.615651530" lon="2.523808790">
        <ele>184.71</ele>
        <time>2015-10-18T06:14:22Z</time>
      </trkpt>
      <trkpt lat="41.615680950" lon="2.523577280">
        <ele>184.71</ele>
        <time>2015-10-18T06:14:28Z</time>
      </trkpt>
      <trkpt lat="41.615708950" lon="2.523273520">
        <ele>185.67</ele>
        <time>2015-10-18T06:14:36Z</time>
      </trkpt>
      <trkpt lat="41.615744490" lon="2.522988950">
        <ele>186.63</ele>
        <time>2015-10-18T06:14:44Z</time>
      </trkpt>
      <trkpt lat="41.615782960" lon="2.522715370">
        <ele>188.08</ele>
        <time>2015-10-18T06:14:52Z</time>
      </trkpt>
      <trkpt lat="41.615806930" lon="2.522476310">
        <ele>189.04</ele>
        <time>2015-10-18T06:14:59Z</time>
      </trkpt>
      <trkpt lat="41.615825210" lon="2.522251680">
        <ele>190.00</ele>
        <time>2015-10-18T06:15:05Z</time>
      </trkpt>
      <trkpt lat="41.615845570" lon="2.521986810">
        <ele>190.96</ele>
        <time>2015-10-18T06:15:12Z</time>
      </trkpt>
      <trkpt lat="41.615905340" lon="2.521694950">
        <ele>191.44</ele>
        <time>2015-10-18T06:15:19Z</time>
      </trkpt>
      <trkpt lat="41.615961240" lon="2.521366720">
        <ele>191.92</ele>
        <time>2015-10-18T06:15:27Z</time>
      </trkpt>
      <trkpt lat="41.616012620" lon="2.521021630">
        <ele>192.40</ele>
        <time>2015-10-18T06:15:36Z</time>
      </trkpt>
      <trkpt lat="41.616068360" lon="2.520771270">
        <ele>193.36</ele>
        <time>2015-10-18T06:15:43Z</time>
      </trkpt>
      <trkpt lat="41.616146990" lon="2.520510340">
        <ele>193.84</ele>
        <time>2015-10-18T06:15:50Z</time>
      </trkpt>
      <trkpt lat="41.616217310" lon="2.520259720">
        <ele>194.80</ele>
        <time>2015-10-18T06:15:58Z</time>
      </trkpt>
      <trkpt lat="41.616284530" lon="2.520029390">
        <ele>196.25</ele>
        <time>2015-10-18T06:16:05Z</time>
      </trkpt>
      <trkpt lat="41.616356790" lon="2.519830900">
        <ele>196.25</ele>
        <time>2015-10-18T06:16:11Z</time>
      </trkpt>
      <trkpt lat="41.616427450" lon="2.519533340">
        <ele>197.21</ele>
        <time>2015-10-18T06:16:19Z</time>
      </trkpt>
      <trkpt lat="41.616470360" lon="2.519301750">
        <ele>198.17</ele>
        <time>2015-10-18T06:16:26Z</time>
      </trkpt>
      <trkpt lat="41.616523670" lon="2.519047360">
        <ele>199.13</ele>
        <time>2015-10-18T06:16:33Z</time>
      </trkpt>
      <trkpt lat="41.616591560" lon="2.518774700">
        <ele>199.61</ele>
        <time>2015-10-18T06:16:40Z</time>
      </trkpt>
      <trkpt lat="41.616679990" lon="2.518547630">
        <ele>199.61</ele>
        <time>2015-10-18T06:16:45Z</time>
      </trkpt>
      <trkpt lat="41.616724750" lon="2.518316790">
        <ele>199.61</ele>
        <time>2015-10-18T06:16:51Z</time>
      </trkpt>
      <trkpt lat="41.616750480" lon="2.518295340">
        <ele>199.61</ele>
        <time>2015-10-18T06:16:56Z</time>
      </trkpt>
      <trkpt lat="41.616752160" lon="2.518318970">
        <ele>199.61</ele>
        <time>2015-10-18T06:16:59Z</time>
      </trkpt>
      <trkpt lat="41.616745370" lon="2.518386280">
        <ele>199.61</ele>
        <time>2015-10-18T06:17:03Z</time>
      </trkpt>
      <trkpt lat="41.616670940" lon="2.518615270">
        <ele>198.65</ele>
        <time>2015-10-18T06:17:11Z</time>
      </trkpt>
      <trkpt lat="41.616579160" lon="2.518833620">
        <ele>198.65</ele>
        <time>2015-10-18T06:17:19Z</time>
      </trkpt>
      <trkpt lat="41.616504390" lon="2.519174180">
        <ele>198.65</ele>
        <time>2015-10-18T06:17:27Z</time>
      </trkpt>
      <trkpt lat="41.616433650" lon="2.519458240">
        <ele>198.17</ele>
        <time>2015-10-18T06:17:33Z</time>
      </trkpt>
      <trkpt lat="41.616359800" lon="2.519751110">
        <ele>197.21</ele>
        <time>2015-10-18T06:17:39Z</time>
      </trkpt>
      <trkpt lat="41.616336590" lon="2.519813130">
        <ele>196.73</ele>
        <time>2015-10-18T06:17:41Z</time>
      </trkpt>
      <trkpt lat="41.616344130" lon="2.519893930">
        <ele>195.77</ele>
        <time>2015-10-18T06:17:44Z</time>
      </trkpt>
      <trkpt lat="41.616463990" lon="2.519848000">
        <ele>194.80</ele>
        <time>2015-10-18T06:17:50Z</time>
      </trkpt>
      <trkpt lat="41.616625090" lon="2.519791420">
        <ele>194.80</ele>
        <time>2015-10-18T06:17:57Z</time>
      </trkpt>
      <trkpt lat="41.616751150" lon="2.519757310">
        <ele>196.25</ele>
        <time>2015-10-18T06:18:03Z</time>
      </trkpt>
      <trkpt lat="41.616773280" lon="2.519750520">
        <ele>196.25</ele>
        <time>2015-10-18T06:18:04Z</time>
      </trkpt>
      <trkpt lat="41.616947460" lon="2.519715730">
        <ele>197.21</ele>
        <time>2015-10-18T06:18:11Z</time>
      </trkpt>
      <trkpt lat="41.617142840" lon="2.519678430">
        <ele>197.69</ele>
        <time>2015-10-18T06:18:19Z</time>
      </trkpt>
      <trkpt lat="41.617320960" lon="2.519650860">
        <ele>199.13</ele>
        <time>2015-10-18T06:18:26Z</time>
      </trkpt>
      <trkpt lat="41.617536200" lon="2.519627810">
        <ele>199.61</ele>
        <time>2015-10-18T06:18:35Z</time>
      </trkpt>
      <trkpt lat="41.617656570" lon="2.519614560">
        <ele>200.57</ele>
        <time>2015-10-18T06:18:41Z</time>
      </trkpt>
      <trkpt lat="41.617810210" lon="2.519600320">
        <ele>201.05</ele>
        <time>2015-10-18T06:18:49Z</time>
      </trkpt>
      <trkpt lat="41.617829740" lon="2.519609450">
        <ele>201.53</ele>
        <time>2015-10-18T06:18:54Z</time>
      </trkpt>
      <trkpt lat="41.617831160" lon="2.519641470">
        <ele>202.49</ele>
        <time>2015-10-18T06:19:02Z</time>
      </trkpt>
      <trkpt lat="41.617829910" lon="2.519669470">
        <ele>202.49</ele>
        <time>2015-10-18T06:19:05Z</time>
      </trkpt>
      <trkpt lat="41.617861590" lon="2.519739120">
        <ele>202.49</ele>
        <time>2015-10-18T06:19:09Z</time>
      </trkpt>
      <trkpt lat="41.617933670" lon="2.519884630">
        <ele>203.46</ele>
        <time>2015-10-18T06:19:15Z</time>
      </trkpt>
      <trkpt lat="41.617856560" lon="2.520039280">
        <ele>205.38</ele>
        <time>2015-10-18T06:19:22Z</time>
      </trkpt>
      <trkpt lat="41.617785730" lon="2.520088310">
        <ele>206.34</ele>
        <time>2015-10-18T06:19:27Z</time>
      </trkpt>
      <trkpt lat="41.617709960" lon="2.520232230">
        <ele>208.74</ele>
        <time>2015-10-18T06:19:35Z</time>
      </trkpt>
      <trkpt lat="41.617723120" lon="2.520456280">
        <ele>210.19</ele>
        <time>2015-10-18T06:19:43Z</time>
      </trkpt>
      <trkpt lat="41.617718850" lon="2.520486030">
        <ele>210.19</ele>
        <time>2015-10-18T06:19:44Z</time>
      </trkpt>
      <trkpt lat="41.617680460" lon="2.520613600">
        <ele>210.67</ele>
        <time>2015-10-18T06:19:49Z</time>
      </trkpt>
      <trkpt lat="41.617710880" lon="2.520855840">
        <ele>211.15</ele>
        <time>2015-10-18T06:19:57Z</time>
      </trkpt>
      <trkpt lat="41.617777690" lon="2.521069160">
        <ele>212.59</ele>
        <time>2015-10-18T06:20:05Z</time>
      </trkpt>
      <trkpt lat="41.617847170" lon="2.521340480">
        <ele>214.03</ele>
        <time>2015-10-18T06:20:15Z</time>
      </trkpt>
      <trkpt lat="41.617891600" lon="2.521547850">
        <ele>215.47</ele>
        <time>2015-10-18T06:20:24Z</time>
      </trkpt>
      <trkpt lat="41.617916570" lon="2.521610040">
        <ele>216.43</ele>
        <time>2015-10-18T06:20:27Z</time>
      </trkpt>
      <trkpt lat="41.618013390" lon="2.521588340">
        <ele>217.40</ele>
        <time>2015-10-18T06:20:33Z</time>
      </trkpt>
      <trkpt lat="41.618020850" lon="2.521570820">
        <ele>217.88</ele>
        <time>2015-10-18T06:20:34Z</time>
      </trkpt>
      <trkpt lat="41.618101400" lon="2.521371500">
        <ele>219.80</ele>
        <time>2015-10-18T06:20:45Z</time>
      </trkpt>
      <trkpt lat="41.618183540" lon="2.521246690">
        <ele>221.24</ele>
        <time>2015-10-18T06:20:53Z</time>
      </trkpt>
      <trkpt lat="41.618254200" lon="2.521093640">
        <ele>223.16</ele>
        <time>2015-10-18T06:21:01Z</time>
      </trkpt>
      <trkpt lat="41.618309100" lon="2.520927250">
        <ele>225.57</ele>
        <time>2015-10-18T06:21:10Z</time>
      </trkpt>
      <trkpt lat="41.618354190" lon="2.520741680">
        <ele>227.49</ele>
        <time>2015-10-18T06:21:19Z</time>
      </trkpt>
      <trkpt lat="41.618442870" lon="2.520631120">
        <ele>228.93</ele>
        <time>2015-10-18T06:21:27Z</time>
      </trkpt>
      <trkpt lat="41.618565330" lon="2.520593490">
        <ele>230.85</ele>
        <time>2015-10-18T06:21:36Z</time>
      </trkpt>
      <trkpt lat="41.618750660" lon="2.520565410">
        <ele>232.78</ele>
        <time>2015-10-18T06:21:47Z</time>
      </trkpt>
      <trkpt lat="41.618918970" lon="2.520493910">
        <ele>235.18</ele>
        <time>2015-10-18T06:21:58Z</time>
      </trkpt>
      <trkpt lat="41.619034220" lon="2.520437750">
        <ele>236.62</ele>
        <time>2015-10-18T06:22:06Z</time>
      </trkpt>
      <trkpt lat="41.619140670" lon="2.520384280">
        <ele>238.06</ele>
        <time>2015-10-18T06:22:14Z</time>
      </trkpt>
      <trkpt lat="41.619288520" lon="2.520315710">
        <ele>240.47</ele>
        <time>2015-10-18T06:22:23Z</time>
      </trkpt>
      <trkpt lat="41.619463620" lon="2.520327450">
        <ele>243.35</ele>
        <time>2015-10-18T06:22:34Z</time>
      </trkpt>
      <trkpt lat="41.619522710" lon="2.520343870">
        <ele>244.31</ele>
        <time>2015-10-18T06:22:38Z</time>
      </trkpt>
      <trkpt lat="41.619624720" lon="2.520339260">
        <ele>245.75</ele>
        <time>2015-10-18T06:22:45Z</time>
      </trkpt>
      <trkpt lat="41.619758330" lon="2.520301960">
        <ele>248.16</ele>
        <time>2015-10-18T06:22:55Z</time>
      </trkpt>
      <trkpt lat="41.619878610" lon="2.520243290">
        <ele>250.08</ele>
        <time>2015-10-18T06:23:04Z</time>
      </trkpt>
      <trkpt lat="41.620012640" lon="2.520178420">
        <ele>252.00</ele>
        <time>2015-10-18T06:23:14Z</time>
      </trkpt>
      <trkpt lat="41.620150770" lon="2.520137930">
        <ele>253.93</ele>
        <time>2015-10-18T06:23:23Z</time>
      </trkpt>
      <trkpt lat="41.620282110" lon="2.520134160">
        <ele>255.37</ele>
        <time>2015-10-18T06:23:31Z</time>
      </trkpt>
      <trkpt lat="41.620426030" lon="2.520156870">
        <ele>256.81</ele>
        <time>2015-10-18T06:23:40Z</time>
      </trkpt>
      <trkpt lat="41.620521670" lon="2.520188470">
        <ele>257.77</ele>
        <time>2015-10-18T06:23:47Z</time>
      </trkpt>
      <trkpt lat="41.620648910" lon="2.520208170">
        <ele>259.69</ele>
        <time>2015-10-18T06:23:56Z</time>
      </trkpt>
      <trkpt lat="41.620804730" lon="2.520214370">
        <ele>261.62</ele>
        <time>2015-10-18T06:24:06Z</time>
      </trkpt>
      <trkpt lat="41.620926100" lon="2.520223430">
        <ele>263.06</ele>
        <time>2015-10-18T06:24:13Z</time>
      </trkpt>
      <trkpt lat="41.621081250" lon="2.520259220">
        <ele>264.50</ele>
        <time>2015-10-18T06:24:23Z</time>
      </trkpt>
      <trkpt lat="41.621243020" lon="2.520297940">
        <ele>265.94</ele>
        <time>2015-10-18T06:24:33Z</time>
      </trkpt>
      <trkpt lat="41.621395480" lon="2.520296010">
        <ele>267.86</ele>
        <time>2015-10-18T06:24:43Z</time>
      </trkpt>
      <trkpt lat="41.621509310" lon="2.520306070">
        <ele>269.79</ele>
        <time>2015-10-18T06:24:51Z</time>
      </trkpt>
      <trkpt lat="41.621612660" lon="2.520367850">
        <ele>271.71</ele>
        <time>2015-10-18T06:24:59Z</time>
      </trkpt>
      <trkpt lat="41.621724980" lon="2.520386370">
        <ele>273.63</ele>
        <time>2015-10-18T06:25:08Z</time>
      </trkpt>
      <trkpt lat="41.621874090" lon="2.520411430">
        <ele>276.52</ele>
        <time>2015-10-18T06:25:18Z</time>
      </trkpt>
      <trkpt lat="41.621989010" lon="2.520433640">
        <ele>278.92</ele>
        <time>2015-10-18T06:25:27Z</time>
      </trkpt>
      <trkpt lat="41.622116410" lon="2.520434900">
        <ele>280.36</ele>
        <time>2015-10-18T06:25:35Z</time>
      </trkpt>
      <trkpt lat="41.622257310" lon="2.520386790">
        <ele>283.25</ele>
        <time>2015-10-18T06:25:46Z</time>
      </trkpt>
      <trkpt lat="41.622373900" lon="2.520359800">
        <ele>284.21</ele>
        <time>2015-10-18T06:25:54Z</time>
      </trkpt>
      <trkpt lat="41.622477250" lon="2.520382010">
        <ele>285.65</ele>
        <time>2015-10-18T06:26:01Z</time>
      </trkpt>
      <trkpt lat="41.622487980" lon="2.520396680">
        <ele>285.65</ele>
        <time>2015-10-18T06:26:02Z</time>
      </trkpt>
      <trkpt lat="41.622461070" lon="2.520494580">
        <ele>287.09</ele>
        <time>2015-10-18T06:26:08Z</time>
      </trkpt>
      <trkpt lat="41.622321680" lon="2.520518130">
        <ele>289.49</ele>
        <time>2015-10-18T06:26:18Z</time>
      </trkpt>
      <trkpt lat="41.622208360" lon="2.520611090">
        <ele>290.46</ele>
        <time>2015-10-18T06:26:27Z</time>
      </trkpt>
      <trkpt lat="41.622140220" lon="2.520663390">
        <ele>291.42</ele>
        <time>2015-10-18T06:26:32Z</time>
      </trkpt>
      <trkpt lat="41.622008790" lon="2.520760960">
        <ele>293.82</ele>
        <time>2015-10-18T06:26:43Z</time>
      </trkpt>
      <trkpt lat="41.621898230" lon="2.520851900">
        <ele>295.26</ele>
        <time>2015-10-18T06:26:51Z</time>
      </trkpt>
      <trkpt lat="41.621760350" lon="2.520984840">
        <ele>296.22</ele>
        <time>2015-10-18T06:27:01Z</time>
      </trkpt>
      <trkpt lat="41.621633190" lon="2.520980230">
        <ele>297.18</ele>
        <time>2015-10-18T06:27:08Z</time>
      </trkpt>
      <trkpt lat="41.621505200" lon="2.520956420">
        <ele>298.15</ele>
        <time>2015-10-18T06:27:16Z</time>
      </trkpt>
      <trkpt lat="41.621362040" lon="2.520952990">
        <ele>299.11</ele>
        <time>2015-10-18T06:27:24Z</time>
      </trkpt>
      <trkpt lat="41.621196660" lon="2.520996570">
        <ele>300.07</ele>
        <time>2015-10-18T06:27:34Z</time>
      </trkpt>
      <trkpt lat="41.621126340" lon="2.521058100">
        <ele>301.03</ele>
        <time>2015-10-18T06:27:39Z</time>
      </trkpt>
      <trkpt lat="41.621179650" lon="2.521110060">
        <ele>301.99</ele>
        <time>2015-10-18T06:27:45Z</time>
      </trkpt>
      <trkpt lat="41.621217870" lon="2.521104280">
        <ele>302.95</ele>
        <time>2015-10-18T06:27:48Z</time>
      </trkpt>
      <trkpt lat="41.621336560" lon="2.521156670">
        <ele>304.88</ele>
        <time>2015-10-18T06:27:58Z</time>
      </trkpt>
      <trkpt lat="41.621405790" lon="2.521270580">
        <ele>306.32</ele>
        <time>2015-10-18T06:28:06Z</time>
      </trkpt>
      <trkpt lat="41.621488940" lon="2.521393040">
        <ele>308.24</ele>
        <time>2015-10-18T06:28:15Z</time>
      </trkpt>
      <trkpt lat="41.621578710" lon="2.521556900">
        <ele>309.68</ele>
        <time>2015-10-18T06:28:24Z</time>
      </trkpt>
      <trkpt lat="41.621660100" lon="2.521701490">
        <ele>311.60</ele>
        <time>2015-10-18T06:28:33Z</time>
      </trkpt>
      <trkpt lat="41.621715170" lon="2.521804090">
        <ele>312.57</ele>
        <time>2015-10-18T06:28:40Z</time>
      </trkpt>
      <trkpt lat="41.621784990" lon="2.521970470">
        <ele>314.97</ele>
        <time>2015-10-18T06:28:49Z</time>
      </trkpt>
      <trkpt lat="41.621844170" lon="2.522115560">
        <ele>316.41</ele>
        <time>2015-10-18T06:28:57Z</time>
      </trkpt>
      <trkpt lat="41.621893870" lon="2.522219580">
        <ele>317.37</ele>
        <time>2015-10-18T06:29:03Z</time>
      </trkpt>
      <trkpt lat="41.621967130" lon="2.522187810">
        <ele>318.81</ele>
        <time>2015-10-18T06:29:10Z</time>
      </trkpt>
      <trkpt lat="41.621952960" lon="2.522062420">
        <ele>320.74</ele>
        <time>2015-10-18T06:29:17Z</time>
      </trkpt>
      <trkpt lat="41.621963020" lon="2.521947160">
        <ele>321.70</ele>
        <time>2015-10-18T06:29:23Z</time>
      </trkpt>
      <trkpt lat="41.621998480" lon="2.521777010">
        <ele>322.66</ele>
        <time>2015-10-18T06:29:31Z</time>
      </trkpt>
      <trkpt lat="41.622032260" lon="2.521644660">
        <ele>323.62</ele>
        <time>2015-10-18T06:29:38Z</time>
      </trkpt>
      <trkpt lat="41.622100990" lon="2.521528150">
        <ele>324.58</ele>
        <time>2015-10-18T06:29:45Z</time>
      </trkpt>
      <trkpt lat="41.622253870" lon="2.521521030">
        <ele>326.02</ele>
        <time>2015-10-18T06:29:55Z</time>
      </trkpt>
      <trkpt lat="41.622351190" lon="2.521592270">
        <ele>326.99</ele>
        <time>2015-10-18T06:30:02Z</time>
      </trkpt>
      <trkpt lat="41.622479180" lon="2.521688160">
        <ele>328.43</ele>
        <time>2015-10-18T06:30:11Z</time>
      </trkpt>
      <trkpt lat="41.622605240" lon="2.521766700">
        <ele>330.35</ele>
        <time>2015-10-18T06:30:20Z</time>
      </trkpt>
      <trkpt lat="41.622645730" lon="2.521790000">
        <ele>330.83</ele>
        <time>2015-10-18T06:30:23Z</time>
      </trkpt>
      <trkpt lat="41.622783690" lon="2.521822190">
        <ele>332.27</ele>
        <time>2015-10-18T06:30:32Z</time>
      </trkpt>
      <trkpt lat="41.622905900" lon="2.521825880">
        <ele>333.71</ele>
        <time>2015-10-18T06:30:40Z</time>
      </trkpt>
      <trkpt lat="41.623049650" lon="2.521802240">
        <ele>335.16</ele>
        <time>2015-10-18T06:30:49Z</time>
      </trkpt>
      <trkpt lat="41.623218710" lon="2.521789670">
        <ele>337.08</ele>
        <time>2015-10-18T06:30:59Z</time>
      </trkpt>
      <trkpt lat="41.623321060" lon="2.521917330">
        <ele>337.56</ele>
        <time>2015-10-18T06:31:07Z</time>
      </trkpt>
      <trkpt lat="41.623434720" lon="2.522063510">
        <ele>338.04</ele>
        <time>2015-10-18T06:31:16Z</time>
      </trkpt>
      <trkpt lat="41.623555920" lon="2.522121420">
        <ele>339.00</ele>
        <time>2015-10-18T06:31:24Z</time>
      </trkpt>
      <trkpt lat="41.623653990" lon="2.522063590">
        <ele>340.44</ele>
        <time>2015-10-18T06:31:32Z</time>
      </trkpt>
      <trkpt lat="41.623738310" lon="2.521937440">
        <ele>341.89</ele>
        <time>2015-10-18T06:31:41Z</time>
      </trkpt>
      <trkpt lat="41.623823640" lon="2.521810040">
        <ele>344.29</ele>
        <time>2015-10-18T06:31:51Z</time>
      </trkpt>
      <trkpt lat="41.623880550" lon="2.521679280">
        <ele>345.73</ele>
        <time>2015-10-18T06:31:59Z</time>
      </trkpt>
      <trkpt lat="41.623914080" lon="2.521568140">
        <ele>346.69</ele>
        <time>2015-10-18T06:32:06Z</time>
      </trkpt>
      <trkpt lat="41.623979620" lon="2.521432010">
        <ele>348.62</ele>
        <time>2015-10-18T06:32:14Z</time>
      </trkpt>
      <trkpt lat="41.624081880" lon="2.521352470">
        <ele>350.06</ele>
        <time>2015-10-18T06:32:23Z</time>
      </trkpt>
      <trkpt lat="41.624205770" lon="2.521271580">
        <ele>351.98</ele>
        <time>2015-10-18T06:32:32Z</time>
      </trkpt>
      <trkpt lat="41.624316740" lon="2.521215090">
        <ele>353.42</ele>
        <time>2015-10-18T06:32:40Z</time>
      </trkpt>
      <trkpt lat="41.624490420" lon="2.521234030">
        <ele>355.83</ele>
        <time>2015-10-18T06:32:51Z</time>
      </trkpt>
      <trkpt lat="41.624616650" lon="2.521295050">
        <ele>358.23</ele>
        <time>2015-10-18T06:33:00Z</time>
      </trkpt>
      <trkpt lat="41.624734920" lon="2.521343840">
        <ele>360.15</ele>
        <time>2015-10-18T06:33:09Z</time>
      </trkpt>
      <trkpt lat="41.624852680" lon="2.521336120">
        <ele>362.07</ele>
        <time>2015-10-18T06:33:17Z</time>
      </trkpt>
      <trkpt lat="41.625005400" lon="2.521299660">
        <ele>364.96</ele>
        <time>2015-10-18T06:33:28Z</time>
      </trkpt>
      <trkpt lat="41.625131470" lon="2.521278880">
        <ele>366.88</ele>
        <time>2015-10-18T06:33:37Z</time>
      </trkpt>
      <trkpt lat="41.625279070" lon="2.521245850">
        <ele>368.32</ele>
        <time>2015-10-18T06:33:47Z</time>
      </trkpt>
      <trkpt lat="41.625377640" lon="2.521177960">
        <ele>370.24</ele>
        <time>2015-10-18T06:33:55Z</time>
      </trkpt>
      <trkpt lat="41.625513180" lon="2.521075200">
        <ele>371.69</ele>
        <time>2015-10-18T06:34:05Z</time>
      </trkpt>
      <trkpt lat="41.625559190" lon="2.520930020">
        <ele>372.65</ele>
        <time>2015-10-18T06:34:12Z</time>
      </trkpt>
      <trkpt lat="41.625524490" lon="2.520742600">
        <ele>373.61</ele>
        <time>2015-10-18T06:34:21Z</time>
      </trkpt>
      <trkpt lat="41.625511330" lon="2.520710670">
        <ele>373.61</ele>
        <time>2015-10-18T06:34:23Z</time>
      </trkpt>
      <trkpt lat="41.625469930" lon="2.520536570">
        <ele>375.05</ele>
        <time>2015-10-18T06:34:32Z</time>
      </trkpt>
      <trkpt lat="41.625457020" lon="2.520334400">
        <ele>376.49</ele>
        <time>2015-10-18T06:34:41Z</time>
      </trkpt>
      <trkpt lat="41.625429940" lon="2.520162150">
        <ele>377.45</ele>
        <time>2015-10-18T06:34:49Z</time>
      </trkpt>
      <trkpt lat="41.625402280" lon="2.519950180">
        <ele>377.45</ele>
        <time>2015-10-18T06:34:57Z</time>
      </trkpt>
      <trkpt lat="41.625465230" lon="2.519814810">
        <ele>377.45</ele>
        <time>2015-10-18T06:35:03Z</time>
      </trkpt>
      <trkpt lat="41.625658770" lon="2.519683300">
        <ele>377.45</ele>
        <time>2015-10-18T06:35:12Z</time>
      </trkpt>
      <trkpt lat="41.625793130" lon="2.519562600">
        <ele>377.94</ele>
        <time>2015-10-18T06:35:19Z</time>
      </trkpt>
      <trkpt lat="41.625874600" lon="2.519388420">
        <ele>377.94</ele>
        <time>2015-10-18T06:35:25Z</time>
      </trkpt>
      <trkpt lat="41.625860860" lon="2.519162530">
        <ele>377.94</ele>
        <time>2015-10-18T06:35:31Z</time>
      </trkpt>
      <trkpt lat="41.625820710" lon="2.519092880">
        <ele>377.94</ele>
        <time>2015-10-18T06:35:33Z</time>
      </trkpt>
      <trkpt lat="41.625768910" lon="2.519003110">
        <ele>376.97</ele>
        <time>2015-10-18T06:35:35Z</time>
      </trkpt>
      <trkpt lat="41.625691040" lon="2.518829180">
        <ele>375.53</ele>
        <time>2015-10-18T06:35:38Z</time>
      </trkpt>
      <trkpt lat="41.625613680" lon="2.518414610">
        <ele>372.17</ele>
        <time>2015-10-18T06:35:45Z</time>
      </trkpt>
      <trkpt lat="41.625605040" lon="2.518364150">
        <ele>372.17</ele>
        <time>2015-10-18T06:35:46Z</time>
      </trkpt>
      <trkpt lat="41.625496330" lon="2.518159890">
        <ele>370.24</ele>
        <time>2015-10-18T06:35:51Z</time>
      </trkpt>
      <trkpt lat="41.625452660" lon="2.517911190">
        <ele>367.84</ele>
        <time>2015-10-18T06:35:56Z</time>
      </trkpt>
      <trkpt lat="41.625358360" lon="2.517647330">
        <ele>365.44</ele>
        <time>2015-10-18T06:36:02Z</time>
      </trkpt>
      <trkpt lat="41.625186530" lon="2.517532330">
        <ele>363.04</ele>
        <time>2015-10-18T06:36:06Z</time>
      </trkpt>
      <trkpt lat="41.624845470" lon="2.517325970">
        <ele>362.55</ele>
        <time>2015-10-18T06:36:15Z</time>
      </trkpt>
      <trkpt lat="41.624665100" lon="2.517291440">
        <ele>363.04</ele>
        <time>2015-10-18T06:36:22Z</time>
      </trkpt>
      <trkpt lat="41.624472400" lon="2.517284900">
        <ele>364.00</ele>
        <time>2015-10-18T06:36:30Z</time>
      </trkpt>
      <trkpt lat="41.624302910" lon="2.517271570">
        <ele>364.96</ele>
        <time>2015-10-18T06:36:38Z</time>
      </trkpt>
      <trkpt lat="41.624200320" lon="2.517278950">
        <ele>365.44</ele>
        <time>2015-10-18T06:36:44Z</time>
      </trkpt>
      <trkpt lat="41.624170140" lon="2.517271240">
        <ele>365.92</ele>
        <time>2015-10-18T06:36:47Z</time>
      </trkpt>
      <trkpt lat="41.624188420" lon="2.517171490">
        <ele>367.36</ele>
        <time>2015-10-18T06:36:53Z</time>
      </trkpt>
      <trkpt lat="41.624197550" lon="2.517165290">
        <ele>367.36</ele>
        <time>2015-10-18T06:36:54Z</time>
      </trkpt>
      <trkpt lat="41.624315320" lon="2.517130420">
        <ele>369.28</ele>
        <time>2015-10-18T06:37:03Z</time>
      </trkpt>
      <trkpt lat="41.624414730" lon="2.517095050">
        <ele>371.21</ele>
        <time>2015-10-18T06:37:11Z</time>
      </trkpt>
      <trkpt lat="41.624532160" lon="2.517070740">
        <ele>373.13</ele>
        <time>2015-10-18T06:37:19Z</time>
      </trkpt>
      <trkpt lat="41.624649340" lon="2.517044670">
        <ele>375.05</ele>
        <time>2015-10-18T06:37:27Z</time>
      </trkpt>
      <trkpt lat="41.624781270" lon="2.517022960">
        <ele>376.01</ele>
        <time>2015-10-18T06:37:35Z</time>
      </trkpt>
      <trkpt lat="41.624943380" lon="2.517029420">
        <ele>377.45</ele>
        <time>2015-10-18T06:37:45Z</time>
      </trkpt>
      <trkpt lat="41.625100790" lon="2.517093710">
        <ele>378.90</ele>
        <time>2015-10-18T06:37:55Z</time>
      </trkpt>
      <trkpt lat="41.625212270" lon="2.517147520">
        <ele>380.82</ele>
        <time>2015-10-18T06:38:03Z</time>
      </trkpt>
      <trkpt lat="41.625339760" lon="2.517230750">
        <ele>382.26</ele>
        <time>2015-10-18T06:38:12Z</time>
      </trkpt>
      <trkpt lat="41.625351990" lon="2.517240140">
        <ele>382.26</ele>
        <time>2015-10-18T06:38:13Z</time>
      </trkpt>
      <trkpt lat="41.625494400" lon="2.517314740">
        <ele>384.18</ele>
        <time>2015-10-18T06:38:22Z</time>
      </trkpt>
      <trkpt lat="41.625594310" lon="2.517385480">
        <ele>386.59</ele>
        <time>2015-10-18T06:38:30Z</time>
      </trkpt>
      <trkpt lat="41.625661540" lon="2.517439210">
        <ele>388.03</ele>
        <time>2015-10-18T06:38:38Z</time>
      </trkpt>
      <trkpt lat="41.625670340" lon="2.517448680">
        <ele>388.03</ele>
        <time>2015-10-18T06:38:48Z</time>
      </trkpt>
      <trkpt lat="41.625687270" lon="2.517499810">
        <ele>388.51</ele>
        <time>2015-10-18T06:38:55Z</time>
      </trkpt>
      <trkpt lat="41.625720630" lon="2.517539120">
        <ele>388.99</ele>
        <time>2015-10-18T06:39:04Z</time>
      </trkpt>
      <trkpt lat="41.625751730" lon="2.517596960">
        <ele>390.43</ele>
        <time>2015-10-18T06:39:11Z</time>
      </trkpt>
      <trkpt lat="41.625784830" lon="2.517647920">
        <ele>390.91</ele>
        <time>2015-10-18T06:39:18Z</time>
      </trkpt>
      <trkpt lat="41.625820630" lon="2.517732580">
        <ele>391.87</ele>
        <time>2015-10-18T06:39:27Z</time>
      </trkpt>
      <trkpt lat="41.625860770" lon="2.517867360">
        <ele>393.80</ele>
        <time>2015-10-18T06:39:34Z</time>
      </trkpt>
      <trkpt lat="41.625878290" lon="2.518008840">
        <ele>395.72</ele>
        <time>2015-10-18T06:39:42Z</time>
      </trkpt>
      <trkpt lat="41.625934620" lon="2.518174050">
        <ele>397.64</ele>
        <time>2015-10-18T06:39:51Z</time>
      </trkpt>
      <trkpt lat="41.625994130" lon="2.518359040">
        <ele>400.05</ele>
        <time>2015-10-18T06:40:00Z</time>
      </trkpt>
      <trkpt lat="41.626060180" lon="2.518509910">
        <ele>401.97</ele>
        <time>2015-10-18T06:40:08Z</time>
      </trkpt>
      <trkpt lat="41.626107870" lon="2.518636980">
        <ele>403.89</ele>
        <time>2015-10-18T06:40:16Z</time>
      </trkpt>
      <trkpt lat="41.626126480" lon="2.518685770">
        <ele>404.37</ele>
        <time>2015-10-18T06:40:19Z</time>
      </trkpt>
      <trkpt lat="41.626175100" lon="2.518739330">
        <ele>405.81</ele>
        <time>2015-10-18T06:40:24Z</time>
      </trkpt>
      <trkpt lat="41.626225890" lon="2.518840410">
        <ele>407.26</ele>
        <time>2015-10-18T06:40:32Z</time>
      </trkpt>
      <trkpt lat="41.626280790" lon="2.518945270">
        <ele>409.66</ele>
        <time>2015-10-18T06:40:41Z</time>
      </trkpt>
      <trkpt lat="41.626294200" lon="2.518967480">
        <ele>409.66</ele>
        <time>2015-10-18T06:40:43Z</time>
      </trkpt>
      <trkpt lat="41.626333510" lon="2.519050800">
        <ele>410.62</ele>
        <time>2015-10-18T06:40:48Z</time>
      </trkpt>
      <trkpt lat="41.626417000" lon="2.519203520">
        <ele>412.54</ele>
        <time>2015-10-18T06:40:57Z</time>
      </trkpt>
      <trkpt lat="41.626456560" lon="2.519299150">
        <ele>413.98</ele>
        <time>2015-10-18T06:41:04Z</time>
      </trkpt>
      <trkpt lat="41.626503250" lon="2.519388840">
        <ele>415.91</ele>
        <time>2015-10-18T06:41:12Z</time>
      </trkpt>
      <trkpt lat="41.626571560" lon="2.519539460">
        <ele>418.31</ele>
        <time>2015-10-18T06:41:22Z</time>
      </trkpt>
      <trkpt lat="41.626620680" lon="2.519685140">
        <ele>420.71</ele>
        <time>2015-10-18T06:41:31Z</time>
      </trkpt>
      <trkpt lat="41.626631740" lon="2.519819750">
        <ele>422.64</ele>
        <time>2015-10-18T06:41:39Z</time>
      </trkpt>
      <trkpt lat="41.626628470" lon="2.519865520">
        <ele>422.64</ele>
        <time>2015-10-18T06:41:41Z</time>
      </trkpt>
      <trkpt lat="41.626620090" lon="2.520006500">
        <ele>424.56</ele>
        <time>2015-10-18T06:41:50Z</time>
      </trkpt>
      <trkpt lat="41.626589250" lon="2.520093840">
        <ele>426.00</ele>
        <time>2015-10-18T06:41:56Z</time>
      </trkpt>
      <trkpt lat="41.626610790" lon="2.520129970">
        <ele>426.48</ele>
        <time>2015-10-18T06:41:59Z</time>
      </trkpt>
      <trkpt lat="41.626652360" lon="2.520090990">
        <ele>426.48</ele>
        <time>2015-10-18T06:42:03Z</time>
      </trkpt>
      <trkpt lat="41.626699130" lon="2.519987640">
        <ele>426.48</ele>
        <time>2015-10-18T06:42:08Z</time>
      </trkpt>
      <trkpt lat="41.626775490" lon="2.519787400">
        <ele>426.48</ele>
        <time>2015-10-18T06:42:16Z</time>
      </trkpt>
      <trkpt lat="41.626786810" lon="2.519614310">
        <ele>426.48</ele>
        <time>2015-10-18T06:42:24Z</time>
      </trkpt>
      <trkpt lat="41.626763420" lon="2.519449020">
        <ele>426.96</ele>
        <time>2015-10-18T06:42:31Z</time>
      </trkpt>
      <trkpt lat="41.626748500" lon="2.519250040">
        <ele>428.40</ele>
        <time>2015-10-18T06:42:40Z</time>
      </trkpt>
      <trkpt lat="41.626729730" lon="2.519071670">
        <ele>429.85</ele>
        <time>2015-10-18T06:42:48Z</time>
      </trkpt>
      <trkpt lat="41.626682120" lon="2.518912830">
        <ele>430.33</ele>
        <time>2015-10-18T06:42:55Z</time>
      </trkpt>
      <trkpt lat="41.626583800" lon="2.518653410">
        <ele>430.33</ele>
        <time>2015-10-18T06:43:03Z</time>
      </trkpt>
      <trkpt lat="41.626574490" lon="2.518607060">
        <ele>428.89</ele>
        <time>2015-10-18T06:43:04Z</time>
      </trkpt>
      <trkpt lat="41.626591590" lon="2.518178330">
        <ele>428.40</ele>
        <time>2015-10-18T06:43:11Z</time>
      </trkpt>
      <trkpt lat="41.626582460" lon="2.517924270">
        <ele>428.40</ele>
        <time>2015-10-18T06:43:17Z</time>
      </trkpt>
      <trkpt lat="41.626575330" lon="2.517664430">
        <ele>428.40</ele>
        <time>2015-10-18T06:43:24Z</time>
      </trkpt>
      <trkpt lat="41.626586560" lon="2.517431250">
        <ele>430.33</ele>
        <time>2015-10-18T06:43:32Z</time>
      </trkpt>
      <trkpt lat="41.626625540" lon="2.517196050">
        <ele>431.77</ele>
        <time>2015-10-18T06:43:39Z</time>
      </trkpt>
      <trkpt lat="41.626673900" lon="2.516913160">
        <ele>433.21</ele>
        <time>2015-10-18T06:43:48Z</time>
      </trkpt>
      <trkpt lat="41.626700390" lon="2.516611750">
        <ele>434.65</ele>
        <time>2015-10-18T06:43:58Z</time>
      </trkpt>
      <trkpt lat="41.626731740" lon="2.516401610">
        <ele>435.61</ele>
        <time>2015-10-18T06:44:05Z</time>
      </trkpt>
      <trkpt lat="41.626771550" lon="2.516207910">
        <ele>436.58</ele>
        <time>2015-10-18T06:44:12Z</time>
      </trkpt>
      <trkpt lat="41.626801310" lon="2.515971870">
        <ele>438.02</ele>
        <time>2015-10-18T06:44:20Z</time>
      </trkpt>
      <trkpt lat="41.626857130" lon="2.515774140">
        <ele>438.98</ele>
        <time>2015-10-18T06:44:27Z</time>
      </trkpt>
      <trkpt lat="41.626961320" lon="2.515640120">
        <ele>440.90</ele>
        <time>2015-10-18T06:44:34Z</time>
      </trkpt>
      <trkpt lat="41.627095340" lon="2.515493430">
        <ele>441.38</ele>
        <time>2015-10-18T06:44:42Z</time>
      </trkpt>
      <trkpt lat="41.627247230" lon="2.515379690">
        <ele>443.79</ele>
        <time>2015-10-18T06:44:51Z</time>
      </trkpt>
      <trkpt lat="41.627359040" lon="2.515318090">
        <ele>445.71</ele>
        <time>2015-10-18T06:44:58Z</time>
      </trkpt>
      <trkpt lat="41.627424750" lon="2.515237120">
        <ele>447.15</ele>
        <time>2015-10-18T06:45:04Z</time>
      </trkpt>
      <trkpt lat="41.627444450" lon="2.515208280">
        <ele>447.63</ele>
        <time>2015-10-18T06:45:06Z</time>
      </trkpt>
      <trkpt lat="41.627470690" lon="2.515191600">
        <ele>448.11</ele>
        <time>2015-10-18T06:45:08Z</time>
      </trkpt>
      <trkpt lat="41.627513770" lon="2.515152630">
        <ele>449.07</ele>
        <time>2015-10-18T06:45:12Z</time>
      </trkpt>
      <trkpt lat="41.627629270" lon="2.515060430">
        <ele>451.96</ele>
        <time>2015-10-18T06:45:22Z</time>
      </trkpt>
      <trkpt lat="41.627731700" lon="2.514991860">
        <ele>453.88</ele>
        <time>2015-10-18T06:45:30Z</time>
      </trkpt>
      <trkpt lat="41.627863710" lon="2.514964620">
        <ele>454.36</ele>
        <time>2015-10-18T06:45:39Z</time>
      </trkpt>
      <trkpt lat="41.628033870" lon="2.514957910">
        <ele>454.36</ele>
        <time>2015-10-18T06:45:48Z</time>
      </trkpt>
      <trkpt lat="41.628244250" lon="2.514955820">
        <ele>452.92</ele>
        <time>2015-10-18T06:45:55Z</time>
      </trkpt>
      <trkpt lat="41.628280040" lon="2.514961100">
        <ele>452.92</ele>
        <time>2015-10-18T06:45:56Z</time>
      </trkpt>
      <trkpt lat="41.628435610" lon="2.515017850">
        <ele>451.96</ele>
        <time>2015-10-18T06:46:02Z</time>
      </trkpt>
      <trkpt lat="41.628541640" lon="2.515145500">
        <ele>450.52</ele>
        <time>2015-10-18T06:46:08Z</time>
      </trkpt>
      <trkpt lat="41.628694610" lon="2.515261510">
        <ele>446.67</ele>
        <time>2015-10-18T06:46:13Z</time>
      </trkpt>
      <trkpt lat="41.628729400" lon="2.515287240">
        <ele>446.67</ele>
        <time>2015-10-18T06:46:14Z</time>
      </trkpt>
      <trkpt lat="41.628876500" lon="2.515410370">
        <ele>443.79</ele>
        <time>2015-10-18T06:46:19Z</time>
      </trkpt>
      <trkpt lat="41.628903570" lon="2.515428390">
        <ele>442.34</ele>
        <time>2015-10-18T06:46:20Z</time>
      </trkpt>
      <trkpt lat="41.628970290" lon="2.515450600">
        <ele>441.38</ele>
        <time>2015-10-18T06:46:23Z</time>
      </trkpt>
      <trkpt lat="41.629066600" lon="2.515506760">
        <ele>438.50</ele>
        <time>2015-10-18T06:46:29Z</time>
      </trkpt>
      <trkpt lat="41.629174220" lon="2.515537690">
        <ele>436.58</ele>
        <time>2015-10-18T06:46:35Z</time>
      </trkpt>
      <trkpt lat="41.629286370" lon="2.515604490">
        <ele>434.65</ele>
        <time>2015-10-18T06:46:40Z</time>
      </trkpt>
      <trkpt lat="41.629366840" lon="2.515593350">
        <ele>433.69</ele>
        <time>2015-10-18T06:46:43Z</time>
      </trkpt>
      <trkpt lat="41.629448900" lon="2.515595530">
        <ele>432.73</ele>
        <time>2015-10-18T06:46:45Z</time>
      </trkpt>
      <trkpt lat="41.629602200" lon="2.515619670">
        <ele>431.29</ele>
        <time>2015-10-18T06:46:48Z</time>
      </trkpt>
      <trkpt lat="41.629883590" lon="2.515563420">
        <ele>428.89</ele>
        <time>2015-10-18T06:46:54Z</time>
      </trkpt>
      <trkpt lat="41.630120040" lon="2.515580940">
        <ele>427.44</ele>
        <time>2015-10-18T06:46:59Z</time>
      </trkpt>
      <trkpt lat="41.630204190" lon="2.515686220">
        <ele>426.00</ele>
        <time>2015-10-18T06:47:02Z</time>
      </trkpt>
      <trkpt lat="41.630295050" lon="2.515883530">
        <ele>423.12</ele>
        <time>2015-10-18T06:47:06Z</time>
      </trkpt>
      <trkpt lat="41.630454810" lon="2.515966930">
        <ele>419.27</ele>
        <time>2015-10-18T06:47:11Z</time>
      </trkpt>
      <trkpt lat="41.630556740" lon="2.515936170">
        <ele>417.83</ele>
        <time>2015-10-18T06:47:13Z</time>
      </trkpt>
      <trkpt lat="41.630743990" lon="2.515868440">
        <ele>416.39</ele>
        <time>2015-10-18T06:47:17Z</time>
      </trkpt>
      <trkpt lat="41.630788580" lon="2.515839270">
        <ele>414.95</ele>
        <time>2015-10-18T06:47:18Z</time>
      </trkpt>
      <trkpt lat="41.630963930" lon="2.515596620">
        <ele>411.10</ele>
        <time>2015-10-18T06:47:22Z</time>
      </trkpt>
      <trkpt lat="41.631099130" lon="2.515240890">
        <ele>406.77</ele>
        <time>2015-10-18T06:47:27Z</time>
      </trkpt>
      <trkpt lat="41.631126790" lon="2.515177350">
        <ele>406.77</ele>
        <time>2015-10-18T06:47:28Z</time>
      </trkpt>
      <trkpt lat="41.631262070" lon="2.515006030">
        <ele>404.37</ele>
        <time>2015-10-18T06:47:32Z</time>
      </trkpt>
      <trkpt lat="41.631441530" lon="2.514883900">
        <ele>400.53</ele>
        <time>2015-10-18T06:47:37Z</time>
      </trkpt>
      <trkpt lat="41.631648980" lon="2.514726740">
        <ele>397.16</ele>
        <time>2015-10-18T06:47:42Z</time>
      </trkpt>
      <trkpt lat="41.631862800" lon="2.514643010">
        <ele>394.28</ele>
        <time>2015-10-18T06:47:47Z</time>
      </trkpt>
      <trkpt lat="41.632142760" lon="2.514607890">
        <ele>391.87</ele>
        <time>2015-10-18T06:47:55Z</time>
      </trkpt>
      <trkpt lat="41.632251310" lon="2.514615930">
        <ele>390.43</ele>
        <time>2015-10-18T06:47:58Z</time>
      </trkpt>
      <trkpt lat="41.632445180" lon="2.514695480">
        <ele>388.51</ele>
        <time>2015-10-18T06:48:02Z</time>
      </trkpt>
      <trkpt lat="41.632698810" lon="2.514892700">
        <ele>386.11</ele>
        <time>2015-10-18T06:48:07Z</time>
      </trkpt>
      <trkpt lat="41.633022100" lon="2.515032510">
        <ele>383.70</ele>
        <time>2015-10-18T06:48:13Z</time>
      </trkpt>
      <trkpt lat="41.633380770" lon="2.515074590">
        <ele>381.30</ele>
        <time>2015-10-18T06:48:20Z</time>
      </trkpt>
      <trkpt lat="41.633602380" lon="2.514950710">
        <ele>380.34</ele>
        <time>2015-10-18T06:48:25Z</time>
      </trkpt>
      <trkpt lat="41.633720070" lon="2.514829170">
        <ele>378.90</ele>
        <time>2015-10-18T06:48:28Z</time>
      </trkpt>
      <trkpt lat="41.633883180" lon="2.514788770">
        <ele>376.97</ele>
        <time>2015-10-18T06:48:32Z</time>
      </trkpt>
      <trkpt lat="41.634176880" lon="2.514834280">
        <ele>374.57</ele>
        <time>2015-10-18T06:48:38Z</time>
      </trkpt>
      <trkpt lat="41.634282830" lon="2.514834280">
        <ele>373.61</ele>
        <time>2015-10-18T06:48:40Z</time>
      </trkpt>
      <trkpt lat="41.634433620" lon="2.514758090">
        <ele>371.69</ele>
        <time>2015-10-18T06:48:43Z</time>
      </trkpt>
      <trkpt lat="41.634656490" lon="2.514665050">
        <ele>370.24</ele>
        <time>2015-10-18T06:48:48Z</time>
      </trkpt>
      <trkpt lat="41.634911390" lon="2.514694890">
        <ele>366.40</ele>
        <time>2015-10-18T06:48:53Z</time>
      </trkpt>
      <trkpt lat="41.634994450" lon="2.514703690">
        <ele>365.44</ele>
        <time>2015-10-18T06:48:55Z</time>
      </trkpt>
      <trkpt lat="41.635031160" lon="2.514698750">
        <ele>364.96</ele>
        <time>2015-10-18T06:48:56Z</time>
      </trkpt>
      <trkpt lat="41.635219000" lon="2.514876530">
        <ele>360.63</ele>
        <time>2015-10-18T06:49:01Z</time>
      </trkpt>
      <trkpt lat="41.635251360" lon="2.514970990">
        <ele>360.15</ele>
        <time>2015-10-18T06:49:03Z</time>
      </trkpt>
      <trkpt lat="41.635253280" lon="2.515029240">
        <ele>359.19</ele>
        <time>2015-10-18T06:49:04Z</time>
      </trkpt>
      <trkpt lat="41.635248670" lon="2.515227730">
        <ele>355.34</ele>
        <time>2015-10-18T06:49:07Z</time>
      </trkpt>
      <trkpt lat="41.635339370" lon="2.515355970">
        <ele>351.98</ele>
        <time>2015-10-18T06:49:11Z</time>
      </trkpt>
      <trkpt lat="41.635455620" lon="2.515169470">
        <ele>350.06</ele>
        <time>2015-10-18T06:49:15Z</time>
      </trkpt>
      <trkpt lat="41.635606580" lon="2.514998820">
        <ele>346.21</ele>
        <time>2015-10-18T06:49:18Z</time>
      </trkpt>
      <trkpt lat="41.635783360" lon="2.514970400">
        <ele>344.29</ele>
        <time>2015-10-18T06:49:21Z</time>
      </trkpt>
      <trkpt lat="41.636076640" lon="2.515022870">
        <ele>341.41</ele>
        <time>2015-10-18T06:49:26Z</time>
      </trkpt>
      <trkpt lat="41.636238910" lon="2.515177770">
        <ele>338.52</ele>
        <time>2015-10-18T06:49:31Z</time>
      </trkpt>
      <trkpt lat="41.636501600" lon="2.515375920">
        <ele>336.12</ele>
        <time>2015-10-18T06:49:36Z</time>
      </trkpt>
      <trkpt lat="41.636583160" lon="2.515385390">
        <ele>335.64</ele>
        <time>2015-10-18T06:49:37Z</time>
      </trkpt>
      <trkpt lat="41.636912150" lon="2.515398970">
        <ele>333.71</ele>
        <time>2015-10-18T06:49:41Z</time>
      </trkpt>
      <trkpt lat="41.637148520" lon="2.515351030">
        <ele>333.71</ele>
        <time>2015-10-18T06:49:44Z</time>
      </trkpt>
      <trkpt lat="41.637326550" lon="2.515262180">
        <ele>332.75</ele>
        <time>2015-10-18T06:49:47Z</time>
      </trkpt>
      <trkpt lat="41.637487480" lon="2.515119100">
        <ele>334.20</ele>
        <time>2015-10-18T06:49:52Z</time>
      </trkpt>
      <trkpt lat="41.637567440" lon="2.515102590">
        <ele>335.16</ele>
        <time>2015-10-18T06:49:56Z</time>
      </trkpt>
      <trkpt lat="41.637721920" lon="2.515124040">
        <ele>335.16</ele>
        <time>2015-10-18T06:50:01Z</time>
      </trkpt>
      <trkpt lat="41.637850500" lon="2.515105860">
        <ele>335.16</ele>
        <time>2015-10-18T06:50:04Z</time>
      </trkpt>
      <trkpt lat="41.638013190" lon="2.515146930">
        <ele>333.71</ele>
        <time>2015-10-18T06:50:08Z</time>
      </trkpt>
      <trkpt lat="41.638222990" lon="2.515260330">
        <ele>332.75</ele>
        <time>2015-10-18T06:50:16Z</time>
      </trkpt>
      <trkpt lat="41.638349220" lon="2.515352530">
        <ele>332.75</ele>
        <time>2015-10-18T06:50:22Z</time>
      </trkpt>
      <trkpt lat="41.638460950" lon="2.515486390">
        <ele>332.27</ele>
        <time>2015-10-18T06:50:28Z</time>
      </trkpt>
      <trkpt lat="41.638552900" lon="2.515578010">
        <ele>332.75</ele>
        <time>2015-10-18T06:50:32Z</time>
      </trkpt>
      <trkpt lat="41.638703440" lon="2.515453450">
        <ele>331.79</ele>
        <time>2015-10-18T06:50:37Z</time>
      </trkpt>
      <trkpt lat="41.638811150" lon="2.515234600">
        <ele>330.83</ele>
        <time>2015-10-18T06:50:41Z</time>
      </trkpt>
      <trkpt lat="41.638944340" lon="2.515062770">
        <ele>329.87</ele>
        <time>2015-10-18T06:50:45Z</time>
      </trkpt>
      <trkpt lat="41.639057080" lon="2.514955820">
        <ele>328.91</ele>
        <time>2015-10-18T06:50:48Z</time>
      </trkpt>
      <trkpt lat="41.639250610" lon="2.514950540">
        <ele>327.47</ele>
        <time>2015-10-18T06:50:52Z</time>
      </trkpt>
      <trkpt lat="41.639514980" lon="2.514910810">
        <ele>325.54</ele>
        <time>2015-10-18T06:50:58Z</time>
      </trkpt>
      <trkpt lat="41.639584630" lon="2.514780220">
        <ele>325.06</ele>
        <time>2015-10-18T06:51:00Z</time>
      </trkpt>
      <trkpt lat="41.639686300" lon="2.514592210">
        <ele>323.62</ele>
        <time>2015-10-18T06:51:03Z</time>
      </trkpt>
      <trkpt lat="41.639908760" lon="2.514318880">
        <ele>320.26</ele>
        <time>2015-10-18T06:51:09Z</time>
      </trkpt>
      <trkpt lat="41.640111940" lon="2.514293650">
        <ele>317.85</ele>
        <time>2015-10-18T06:51:13Z</time>
      </trkpt>
      <trkpt lat="41.640285950" lon="2.514516940">
        <ele>315.93</ele>
        <time>2015-10-18T06:51:17Z</time>
      </trkpt>
      <trkpt lat="41.640528020" lon="2.514990770">
        <ele>312.57</ele>
        <time>2015-10-18T06:51:25Z</time>
      </trkpt>
      <trkpt lat="41.640622810" lon="2.515207860">
        <ele>309.20</ele>
        <time>2015-10-18T06:51:28Z</time>
      </trkpt>
      <trkpt lat="41.640656170" lon="2.515275000">
        <ele>307.76</ele>
        <time>2015-10-18T06:51:29Z</time>
      </trkpt>
      <trkpt lat="41.640783240" lon="2.515360500">
        <ele>306.32</ele>
        <time>2015-10-18T06:51:32Z</time>
      </trkpt>
      <trkpt lat="41.640971080" lon="2.515195210">
        <ele>304.39</ele>
        <time>2015-10-18T06:51:36Z</time>
      </trkpt>
      <trkpt lat="41.641031850" lon="2.515035280">
        <ele>303.43</ele>
        <time>2015-10-18T06:51:38Z</time>
      </trkpt>
      <trkpt lat="41.641076530" lon="2.514885160">
        <ele>301.99</ele>
        <time>2015-10-18T06:51:40Z</time>
      </trkpt>
      <trkpt lat="41.641281880" lon="2.514745350">
        <ele>298.63</ele>
        <time>2015-10-18T06:51:45Z</time>
      </trkpt>
      <trkpt lat="41.641405680" lon="2.514779800">
        <ele>296.70</ele>
        <time>2015-10-18T06:51:47Z</time>
      </trkpt>
      <trkpt lat="41.641695450" lon="2.514889600">
        <ele>292.38</ele>
        <time>2015-10-18T06:51:51Z</time>
      </trkpt>
      <trkpt lat="41.641832240" lon="2.514954230">
        <ele>289.49</ele>
        <time>2015-10-18T06:51:53Z</time>
      </trkpt>
      <trkpt lat="41.642062160" lon="2.515128070">
        <ele>286.13</ele>
        <time>2015-10-18T06:51:57Z</time>
      </trkpt>
      <trkpt lat="41.642277740" lon="2.515211800">
        <ele>283.25</ele>
        <time>2015-10-18T06:52:01Z</time>
      </trkpt>
      <trkpt lat="41.642472280" lon="2.515216500">
        <ele>278.44</ele>
        <time>2015-10-18T06:52:04Z</time>
      </trkpt>
      <trkpt lat="41.642655850" lon="2.515091770">
        <ele>275.07</ele>
        <time>2015-10-18T06:52:08Z</time>
      </trkpt>
      <trkpt lat="41.642674030" lon="2.515018100">
        <ele>275.07</ele>
        <time>2015-10-18T06:52:09Z</time>
      </trkpt>
      <trkpt lat="41.642630700" lon="2.514828000">
        <ele>274.11</ele>
        <time>2015-10-18T06:52:12Z</time>
      </trkpt>
      <trkpt lat="41.642590210" lon="2.514770410">
        <ele>274.59</ele>
        <time>2015-10-18T06:52:13Z</time>
      </trkpt>
      <trkpt lat="41.642356110" lon="2.514381740">
        <ele>271.23</ele>
        <time>2015-10-18T06:52:19Z</time>
      </trkpt>
      <trkpt lat="41.642223930" lon="2.514192140">
        <ele>268.35</ele>
        <time>2015-10-18T06:52:22Z</time>
      </trkpt>
      <trkpt lat="41.642219320" lon="2.513968350">
        <ele>267.38</ele>
        <time>2015-10-18T06:52:26Z</time>
      </trkpt>
      <trkpt lat="41.642391400" lon="2.513887380">
        <ele>267.38</ele>
        <time>2015-10-18T06:52:31Z</time>
      </trkpt>
      <trkpt lat="41.642476720" lon="2.513953180">
        <ele>266.42</ele>
        <time>2015-10-18T06:52:33Z</time>
      </trkpt>
      <trkpt lat="41.642644190" lon="2.514125010">
        <ele>264.02</ele>
        <time>2015-10-18T06:52:36Z</time>
      </trkpt>
      <trkpt lat="41.642855170" lon="2.514253250">
        <ele>261.62</ele>
        <time>2015-10-18T06:52:39Z</time>
      </trkpt>
      <trkpt lat="41.643083240" lon="2.514328690">
        <ele>258.73</ele>
        <time>2015-10-18T06:52:42Z</time>
      </trkpt>
      <trkpt lat="41.643336790" lon="2.514437570">
        <ele>256.81</ele>
        <time>2015-10-18T06:52:45Z</time>
      </trkpt>
      <trkpt lat="41.643791340" lon="2.514551480">
        <ele>252.48</ele>
        <time>2015-10-18T06:52:50Z</time>
      </trkpt>
      <trkpt lat="41.644108510" lon="2.514621470">
        <ele>248.64</ele>
        <time>2015-10-18T06:52:53Z</time>
      </trkpt>
      <trkpt lat="41.644529450" lon="2.514594220">
        <ele>243.83</ele>
        <time>2015-10-18T06:52:57Z</time>
      </trkpt>
      <trkpt lat="41.644881240" lon="2.514767560">
        <ele>240.95</ele>
        <time>2015-10-18T06:53:02Z</time>
      </trkpt>
      <trkpt lat="41.645029260" lon="2.514927240">
        <ele>238.54</ele>
        <time>2015-10-18T06:53:04Z</time>
      </trkpt>
      <trkpt lat="41.645373010" lon="2.515409870">
        <ele>232.78</ele>
        <time>2015-10-18T06:53:10Z</time>
      </trkpt>
      <trkpt lat="41.645469400" lon="2.515427130">
        <ele>232.30</ele>
        <time>2015-10-18T06:53:12Z</time>
      </trkpt>
      <trkpt lat="41.645564450" lon="2.515358650">
        <ele>231.33</ele>
        <time>2015-10-18T06:53:14Z</time>
      </trkpt>
      <trkpt lat="41.645798390" lon="2.515056150">
        <ele>230.85</ele>
        <time>2015-10-18T06:53:19Z</time>
      </trkpt>
      <trkpt lat="41.645930400" lon="2.514761280">
        <ele>230.37</ele>
        <time>2015-10-18T06:53:23Z</time>
      </trkpt>
      <trkpt lat="41.646050100" lon="2.514507720">
        <ele>230.85</ele>
        <time>2015-10-18T06:53:27Z</time>
      </trkpt>
      <trkpt lat="41.646205080" lon="2.514313350">
        <ele>230.85</ele>
        <time>2015-10-18T06:53:32Z</time>
      </trkpt>
      <trkpt lat="41.646323600" lon="2.514018640">
        <ele>230.37</ele>
        <time>2015-10-18T06:53:37Z</time>
      </trkpt>
      <trkpt lat="41.646378420" lon="2.513900030">
        <ele>229.89</ele>
        <time>2015-10-18T06:53:39Z</time>
      </trkpt>
      <trkpt lat="41.646470870" lon="2.513460490">
        <ele>228.93</ele>
        <time>2015-10-18T06:53:46Z</time>
      </trkpt>
      <trkpt lat="41.646596850" lon="2.513213890">
        <ele>228.45</ele>
        <time>2015-10-18T06:53:51Z</time>
      </trkpt>
      <trkpt lat="41.646772700" lon="2.513033260">
        <ele>227.97</ele>
        <time>2015-10-18T06:53:57Z</time>
      </trkpt>
      <trkpt lat="41.646843780" lon="2.512996880">
        <ele>227.97</ele>
        <time>2015-10-18T06:53:59Z</time>
      </trkpt>
      <trkpt lat="41.646915700" lon="2.513081290">
        <ele>229.89</ele>
        <time>2015-10-18T06:54:04Z</time>
      </trkpt>
      <trkpt lat="41.646913430" lon="2.513167120">
        <ele>230.37</ele>
        <time>2015-10-18T06:54:07Z</time>
      </trkpt>
      <trkpt lat="41.646995320" lon="2.513174410">
        <ele>231.81</ele>
        <time>2015-10-18T06:54:12Z</time>
      </trkpt>
      <trkpt lat="41.647194980" lon="2.513025220">
        <ele>233.26</ele>
        <time>2015-10-18T06:54:21Z</time>
      </trkpt>
      <trkpt lat="41.647309900" lon="2.512910890">
        <ele>234.70</ele>
        <time>2015-10-18T06:54:28Z</time>
      </trkpt>
      <trkpt lat="41.647390950" lon="2.512783730">
        <ele>236.14</ele>
        <time>2015-10-18T06:54:34Z</time>
      </trkpt>
      <trkpt lat="41.647446350" lon="2.512719360">
        <ele>236.62</ele>
        <time>2015-10-18T06:54:38Z</time>
      </trkpt>
      <trkpt lat="41.647482310" lon="2.512639480">
        <ele>237.58</ele>
        <time>2015-10-18T06:54:42Z</time>
      </trkpt>
      <trkpt lat="41.647541660" lon="2.512443760">
        <ele>237.58</ele>
        <time>2015-10-18T06:54:49Z</time>
      </trkpt>
      <trkpt lat="41.647602090" lon="2.512135060">
        <ele>237.58</ele>
        <time>2015-10-18T06:54:57Z</time>
      </trkpt>
      <trkpt lat="41.647674930" lon="2.511697270">
        <ele>237.58</ele>
        <time>2015-10-18T06:55:06Z</time>
      </trkpt>
      <trkpt lat="41.647727650" lon="2.511364680">
        <ele>236.14</ele>
        <time>2015-10-18T06:55:12Z</time>
      </trkpt>
      <trkpt lat="41.647795800" lon="2.511054380">
        <ele>235.18</ele>
        <time>2015-10-18T06:55:17Z</time>
      </trkpt>
      <trkpt lat="41.647852790" lon="2.510874920">
        <ele>233.74</ele>
        <time>2015-10-18T06:55:20Z</time>
      </trkpt>
      <trkpt lat="41.648019510" lon="2.510559180">
        <ele>229.89</ele>
        <time>2015-10-18T06:55:25Z</time>
      </trkpt>
      <trkpt lat="41.648048760" lon="2.510498570">
        <ele>228.45</ele>
        <time>2015-10-18T06:55:26Z</time>
      </trkpt>
      <trkpt lat="41.648147170" lon="2.510416100">
        <ele>226.53</ele>
        <time>2015-10-18T06:55:29Z</time>
      </trkpt>
      <trkpt lat="41.648220590" lon="2.510473510">
        <ele>226.05</ele>
        <time>2015-10-18T06:55:32Z</time>
      </trkpt>
      <trkpt lat="41.648423010" lon="2.510660260">
        <ele>226.53</ele>
        <time>2015-10-18T06:55:40Z</time>
      </trkpt>
      <trkpt lat="41.648619320" lon="2.510802000">
        <ele>226.53</ele>
        <time>2015-10-18T06:55:46Z</time>
      </trkpt>
      <trkpt lat="41.648807410" lon="2.510817590">
        <ele>226.05</ele>
        <time>2015-10-18T06:55:50Z</time>
      </trkpt>
      <trkpt lat="41.648993070" lon="2.510653560">
        <ele>225.09</ele>
        <time>2015-10-18T06:55:54Z</time>
      </trkpt>
      <trkpt lat="41.649192470" lon="2.510496400">
        <ele>225.57</ele>
        <time>2015-10-18T06:56:00Z</time>
      </trkpt>
      <trkpt lat="41.649222310" lon="2.510502430">
        <ele>225.57</ele>
        <time>2015-10-18T06:56:01Z</time>
      </trkpt>
      <trkpt lat="41.649444350" lon="2.510604860">
        <ele>227.01</ele>
        <time>2015-10-18T06:56:09Z</time>
      </trkpt>
      <trkpt lat="41.649667640" lon="2.510723460">
        <ele>228.93</ele>
        <time>2015-10-18T06:56:18Z</time>
      </trkpt>
      <trkpt lat="41.649905270" lon="2.510801920">
        <ele>229.89</ele>
        <time>2015-10-18T06:56:27Z</time>
      </trkpt>
      <trkpt lat="41.650088920" lon="2.510842650">
        <ele>231.81</ele>
        <time>2015-10-18T06:56:35Z</time>
      </trkpt>
      <trkpt lat="41.650320930" lon="2.510900490">
        <ele>233.26</ele>
        <time>2015-10-18T06:56:44Z</time>
      </trkpt>
      <trkpt lat="41.650502730" lon="2.511056730">
        <ele>234.70</ele>
        <time>2015-10-18T06:56:52Z</time>
      </trkpt>
      <trkpt lat="41.650653100" lon="2.511197960">
        <ele>235.66</ele>
        <time>2015-10-18T06:56:59Z</time>
      </trkpt>
      <trkpt lat="41.650854180" lon="2.511281360">
        <ele>237.10</ele>
        <time>2015-10-18T06:57:07Z</time>
      </trkpt>
      <trkpt lat="41.651078400" lon="2.511182450">
        <ele>237.58</ele>
        <time>2015-10-18T06:57:15Z</time>
      </trkpt>
      <trkpt lat="41.651286440" lon="2.510997630">
        <ele>239.02</ele>
        <time>2015-10-18T06:57:24Z</time>
      </trkpt>
      <trkpt lat="41.651426170" lon="2.510975170">
        <ele>239.51</ele>
        <time>2015-10-18T06:57:30Z</time>
      </trkpt>
      <trkpt lat="41.651622550" lon="2.511077180">
        <ele>241.43</ele>
        <time>2015-10-18T06:57:38Z</time>
      </trkpt>
      <trkpt lat="41.651821120" lon="2.511105010">
        <ele>241.91</ele>
        <time>2015-10-18T06:57:45Z</time>
      </trkpt>
      <trkpt lat="41.652035030" lon="2.511140290">
        <ele>242.87</ele>
        <time>2015-10-18T06:57:53Z</time>
      </trkpt>
      <trkpt lat="41.652286480" lon="2.511251190">
        <ele>243.83</ele>
        <time>2015-10-18T06:58:02Z</time>
      </trkpt>
      <trkpt lat="41.652506510" lon="2.511235850">
        <ele>245.75</ele>
        <time>2015-10-18T06:58:10Z</time>
      </trkpt>
      <trkpt lat="41.652650010" lon="2.511283790">
        <ele>247.68</ele>
        <time>2015-10-18T06:58:17Z</time>
      </trkpt>
      <trkpt lat="41.652813200" lon="2.511340700">
        <ele>249.60</ele>
        <time>2015-10-18T06:58:25Z</time>
      </trkpt>
      <trkpt lat="41.652975230" lon="2.511395020">
        <ele>252.00</ele>
        <time>2015-10-18T06:58:33Z</time>
      </trkpt>
      <trkpt lat="41.653130120" lon="2.511428550">
        <ele>254.41</ele>
        <time>2015-10-18T06:58:41Z</time>
      </trkpt>
      <trkpt lat="41.653166420" lon="2.511429470">
        <ele>254.41</ele>
        <time>2015-10-18T06:58:43Z</time>
      </trkpt>
      <trkpt lat="41.653408990" lon="2.511307680">
        <ele>255.85</ele>
        <time>2015-10-18T06:58:56Z</time>
      </trkpt>
      <trkpt lat="41.653525920" lon="2.511185640">
        <ele>257.29</ele>
        <time>2015-10-18T06:59:04Z</time>
      </trkpt>
      <trkpt lat="41.653649210" lon="2.510999230">
        <ele>259.21</ele>
        <time>2015-10-18T06:59:13Z</time>
      </trkpt>
      <trkpt lat="41.653762120" lon="2.510871150">
        <ele>260.65</ele>
        <time>2015-10-18T06:59:21Z</time>
      </trkpt>
      <trkpt lat="41.653889610" lon="2.510728150">
        <ele>262.58</ele>
        <time>2015-10-18T06:59:30Z</time>
      </trkpt>
      <trkpt lat="41.653998570" lon="2.510580880">
        <ele>264.02</ele>
        <time>2015-10-18T06:59:38Z</time>
      </trkpt>
      <trkpt lat="41.654100580" lon="2.510418110">
        <ele>265.94</ele>
        <time>2015-10-18T06:59:46Z</time>
      </trkpt>
      <trkpt lat="41.654187420" lon="2.510231610">
        <ele>266.42</ele>
        <time>2015-10-18T06:59:54Z</time>
      </trkpt>
      <trkpt lat="41.654242490" lon="2.510010660">
        <ele>267.86</ele>
        <time>2015-10-18T07:00:02Z</time>
      </trkpt>
      <trkpt lat="41.654284650" lon="2.509836820">
        <ele>268.83</ele>
        <time>2015-10-18T07:00:09Z</time>
      </trkpt>
      <trkpt lat="41.654369390" lon="2.509774550">
        <ele>268.83</ele>
        <time>2015-10-18T07:00:13Z</time>
      </trkpt>
      <trkpt lat="41.654543560" lon="2.509837070">
        <ele>269.79</ele>
        <time>2015-10-18T07:00:21Z</time>
      </trkpt>
      <trkpt lat="41.654731570" lon="2.509847800">
        <ele>270.27</ele>
        <time>2015-10-18T07:00:28Z</time>
      </trkpt>
      <trkpt lat="41.654902980" lon="2.509699440">
        <ele>270.75</ele>
        <time>2015-10-18T07:00:36Z</time>
      </trkpt>
      <trkpt lat="41.655062400" lon="2.509611940">
        <ele>271.23</ele>
        <time>2015-10-18T07:00:43Z</time>
      </trkpt>
      <trkpt lat="41.655290560" lon="2.509621160">
        <ele>272.19</ele>
        <time>2015-10-18T07:00:52Z</time>
      </trkpt>
      <trkpt lat="41.655421150" lon="2.509457710">
        <ele>272.67</ele>
        <time>2015-10-18T07:00:59Z</time>
      </trkpt>
      <trkpt lat="41.655461050" lon="2.509233750">
        <ele>273.15</ele>
        <time>2015-10-18T07:01:06Z</time>
      </trkpt>
      <trkpt lat="41.655499440" lon="2.508998550">
        <ele>273.63</ele>
        <time>2015-10-18T07:01:14Z</time>
      </trkpt>
      <trkpt lat="41.655615110" lon="2.508945660">
        <ele>275.07</ele>
        <time>2015-10-18T07:01:21Z</time>
      </trkpt>
      <trkpt lat="41.655784250" lon="2.508918750">
        <ele>276.52</ele>
        <time>2015-10-18T07:01:30Z</time>
      </trkpt>
      <trkpt lat="41.655959180" lon="2.508886900">
        <ele>278.92</ele>
        <time>2015-10-18T07:01:39Z</time>
      </trkpt>
      <trkpt lat="41.656083490" lon="2.508853540">
        <ele>280.36</ele>
        <time>2015-10-18T07:01:46Z</time>
      </trkpt>
      <trkpt lat="41.656139310" lon="2.508872150">
        <ele>280.84</ele>
        <time>2015-10-18T07:01:49Z</time>
      </trkpt>
      <trkpt lat="41.656168480" lon="2.508899980">
        <ele>281.32</ele>
        <time>2015-10-18T07:01:51Z</time>
      </trkpt>
      <trkpt lat="41.656229750" lon="2.509122770">
        <ele>283.25</ele>
        <time>2015-10-18T07:02:00Z</time>
      </trkpt>
      <trkpt lat="41.656369730" lon="2.509251180">
        <ele>285.17</ele>
        <time>2015-10-18T07:02:09Z</time>
      </trkpt>
      <trkpt lat="41.656570060" lon="2.509264260">
        <ele>287.09</ele>
        <time>2015-10-18T07:02:19Z</time>
      </trkpt>
      <trkpt lat="41.656730650" lon="2.509260570">
        <ele>288.53</ele>
        <time>2015-10-18T07:02:28Z</time>
      </trkpt>
      <trkpt lat="41.656754790" lon="2.509235760">
        <ele>289.49</ele>
        <time>2015-10-18T07:02:30Z</time>
      </trkpt>
      <trkpt lat="41.656737950" lon="2.509018830">
        <ele>290.94</ele>
        <time>2015-10-18T07:02:39Z</time>
      </trkpt>
      <trkpt lat="41.656730230" lon="2.508816240">
        <ele>293.34</ele>
        <time>2015-10-18T07:02:49Z</time>
      </trkpt>
      <trkpt lat="41.656758310" lon="2.508568050">
        <ele>294.78</ele>
        <time>2015-10-18T07:02:59Z</time>
      </trkpt>
      <trkpt lat="41.656780360" lon="2.508398740">
        <ele>295.26</ele>
        <time>2015-10-18T07:03:06Z</time>
      </trkpt>
      <trkpt lat="41.656759910" lon="2.508197830">
        <ele>296.22</ele>
        <time>2015-10-18T07:03:14Z</time>
      </trkpt>
      <trkpt lat="41.656741550" lon="2.508030520">
        <ele>297.67</ele>
        <time>2015-10-18T07:03:21Z</time>
      </trkpt>
      <trkpt lat="41.656716240" lon="2.507889290">
        <ele>299.11</ele>
        <time>2015-10-18T07:03:28Z</time>
      </trkpt>
      <trkpt lat="41.656685140" lon="2.507817540">
        <ele>300.07</ele>
        <time>2015-10-18T07:03:33Z</time>
      </trkpt>
      <trkpt lat="41.656601660" lon="2.507732210">
        <ele>300.55</ele>
        <time>2015-10-18T07:03:38Z</time>
      </trkpt>
      <trkpt lat="41.656523960" lon="2.507671610">
        <ele>301.51</ele>
        <time>2015-10-18T07:03:42Z</time>
      </trkpt>
      <trkpt lat="41.656428400" lon="2.507636410">
        <ele>301.51</ele>
        <time>2015-10-18T07:03:47Z</time>
      </trkpt>
      <trkpt lat="41.656266380" lon="2.507641600">
        <ele>301.99</ele>
        <time>2015-10-18T07:03:54Z</time>
      </trkpt>
      <trkpt lat="41.656152550" lon="2.507783760">
        <ele>303.43</ele>
        <time>2015-10-18T07:04:02Z</time>
      </trkpt>
      <trkpt lat="41.656049460" lon="2.507916030">
        <ele>303.91</ele>
        <time>2015-10-18T07:04:09Z</time>
      </trkpt>
      <trkpt lat="41.655846780" lon="2.507965230">
        <ele>305.36</ele>
        <time>2015-10-18T07:04:18Z</time>
      </trkpt>
      <trkpt lat="41.655699760" lon="2.507879310">
        <ele>306.32</ele>
        <time>2015-10-18T07:04:25Z</time>
      </trkpt>
      <trkpt lat="41.655681740" lon="2.507862050">
        <ele>306.32</ele>
        <time>2015-10-18T07:04:26Z</time>
      </trkpt>
      <trkpt lat="41.655588870" lon="2.507586450">
        <ele>306.80</ele>
        <time>2015-10-18T07:04:36Z</time>
      </trkpt>
      <trkpt lat="41.655489960" lon="2.507354190">
        <ele>307.76</ele>
        <time>2015-10-18T07:04:45Z</time>
      </trkpt>
      <trkpt lat="41.655358870" lon="2.507291160">
        <ele>308.72</ele>
        <time>2015-10-18T07:04:51Z</time>
      </trkpt>
      <trkpt lat="41.655172040" lon="2.507383780">
        <ele>309.68</ele>
        <time>2015-10-18T07:05:00Z</time>
      </trkpt>
      <trkpt lat="41.654976910" lon="2.507491480">
        <ele>311.12</ele>
        <time>2015-10-18T07:05:10Z</time>
      </trkpt>
      <trkpt lat="41.654818150" lon="2.507489970">
        <ele>311.60</ele>
        <time>2015-10-18T07:05:17Z</time>
      </trkpt>
      <trkpt lat="41.654619750" lon="2.507456530">
        <ele>308.24</ele>
        <time>2015-10-18T07:05:23Z</time>
      </trkpt>
      <trkpt lat="41.654589330" lon="2.507446810">
        <ele>307.28</ele>
        <time>2015-10-18T07:05:24Z</time>
      </trkpt>
      <trkpt lat="41.654539540" lon="2.507340110">
        <ele>306.32</ele>
        <time>2015-10-18T07:05:29Z</time>
      </trkpt>
      <trkpt lat="41.654545990" lon="2.507319150">
        <ele>306.32</ele>
        <time>2015-10-18T07:05:30Z</time>
      </trkpt>
      <trkpt lat="41.654609530" lon="2.507136340">
        <ele>307.76</ele>
        <time>2015-10-18T07:05:37Z</time>
      </trkpt>
      <trkpt lat="41.654695440" lon="2.506893690">
        <ele>308.24</ele>
        <time>2015-10-18T07:05:45Z</time>
      </trkpt>
      <trkpt lat="41.654780850" lon="2.506599560">
        <ele>309.20</ele>
        <time>2015-10-18T07:05:53Z</time>
      </trkpt>
      <trkpt lat="41.654789240" lon="2.506568220">
        <ele>309.20</ele>
        <time>2015-10-18T07:05:54Z</time>
      </trkpt>
      <trkpt lat="41.654933820" lon="2.506539550">
        <ele>309.68</ele>
        <time>2015-10-18T07:06:00Z</time>
      </trkpt>
      <trkpt lat="41.655034490" lon="2.506597720">
        <ele>309.68</ele>
        <time>2015-10-18T07:06:03Z</time>
      </trkpt>
      <trkpt lat="41.655323750" lon="2.506693940">
        <ele>308.24</ele>
        <time>2015-10-18T07:06:10Z</time>
      </trkpt>
      <trkpt lat="41.655624660" lon="2.506733170">
        <ele>305.84</ele>
        <time>2015-10-18T07:06:14Z</time>
      </trkpt>
      <trkpt lat="41.656065210" lon="2.506664610">
        <ele>303.43</ele>
        <time>2015-10-18T07:06:19Z</time>
      </trkpt>
      <trkpt lat="41.656137890" lon="2.506630330">
        <ele>303.43</ele>
        <time>2015-10-18T07:06:20Z</time>
      </trkpt>
      <trkpt lat="41.656266630" lon="2.506551790">
        <ele>303.43</ele>
        <time>2015-10-18T07:06:22Z</time>
      </trkpt>
      <trkpt lat="41.656511720" lon="2.506338300">
        <ele>305.36</ele>
        <time>2015-10-18T07:06:28Z</time>
      </trkpt>
      <trkpt lat="41.656664020" lon="2.506187590">
        <ele>306.80</ele>
        <time>2015-10-18T07:06:34Z</time>
      </trkpt>
      <trkpt lat="41.656798630" lon="2.506017190">
        <ele>309.20</ele>
        <time>2015-10-18T07:06:41Z</time>
      </trkpt>
      <trkpt lat="41.656891420" lon="2.505800690">
        <ele>310.64</ele>
        <time>2015-10-18T07:06:49Z</time>
      </trkpt>
      <trkpt lat="41.656980010" lon="2.505569760">
        <ele>312.57</ele>
        <time>2015-10-18T07:06:57Z</time>
      </trkpt>
      <trkpt lat="41.657060900" lon="2.505359130">
        <ele>314.01</ele>
        <time>2015-10-18T07:07:04Z</time>
      </trkpt>
      <trkpt lat="41.657208000" lon="2.505152260">
        <ele>314.01</ele>
        <time>2015-10-18T07:07:12Z</time>
      </trkpt>
      <trkpt lat="41.657369100" lon="2.504969700">
        <ele>314.97</ele>
        <time>2015-10-18T07:07:20Z</time>
      </trkpt>
      <trkpt lat="41.657515530" lon="2.504891840">
        <ele>315.45</ele>
        <time>2015-10-18T07:07:26Z</time>
      </trkpt>
      <trkpt lat="41.657772360" lon="2.504884380">
        <ele>316.41</ele>
        <time>2015-10-18T07:07:35Z</time>
      </trkpt>
      <trkpt lat="41.658014930" lon="2.504909610">
        <ele>316.89</ele>
        <time>2015-10-18T07:07:43Z</time>
      </trkpt>
      <trkpt lat="41.658287840" lon="2.504937600">
        <ele>317.85</ele>
        <time>2015-10-18T07:07:52Z</time>
      </trkpt>
      <trkpt lat="41.658443160" lon="2.505081180">
        <ele>319.30</ele>
        <time>2015-10-18T07:07:59Z</time>
      </trkpt>
      <trkpt lat="41.658619350" lon="2.505285790">
        <ele>319.30</ele>
        <time>2015-10-18T07:08:06Z</time>
      </trkpt>
      <trkpt lat="41.658722860" lon="2.505367930">
        <ele>319.30</ele>
        <time>2015-10-18T07:08:09Z</time>
      </trkpt>
      <trkpt lat="41.658912130" lon="2.505541770">
        <ele>319.30</ele>
        <time>2015-10-18T07:08:14Z</time>
      </trkpt>
      <trkpt lat="41.659094430" lon="2.505648890">
        <ele>317.85</ele>
        <time>2015-10-18T07:08:18Z</time>
      </trkpt>
      <trkpt lat="41.659236510" lon="2.505665740">
        <ele>317.85</ele>
        <time>2015-10-18T07:08:21Z</time>
      </trkpt>
      <trkpt lat="41.659470190" lon="2.505519050">
        <ele>317.85</ele>
        <time>2015-10-18T07:08:27Z</time>
      </trkpt>
      <trkpt lat="41.659490060" lon="2.505463900">
        <ele>317.85</ele>
        <time>2015-10-18T07:08:28Z</time>
      </trkpt>
      <trkpt lat="41.659789040" lon="2.505142450">
        <ele>316.41</ele>
        <time>2015-10-18T07:08:35Z</time>
      </trkpt>
      <trkpt lat="41.659896500" lon="2.505143880">
        <ele>315.93</ele>
        <time>2015-10-18T07:08:37Z</time>
      </trkpt>
      <trkpt lat="41.660001610" lon="2.505161820">
        <ele>315.93</ele>
        <time>2015-10-18T07:08:39Z</time>
      </trkpt>
      <trkpt lat="41.660135550" lon="2.505139440">
        <ele>314.49</ele>
        <time>2015-10-18T07:08:43Z</time>
      </trkpt>
      <trkpt lat="41.660172350" lon="2.505131140">
        <ele>314.49</ele>
        <time>2015-10-18T07:08:50Z</time>
      </trkpt>
      <trkpt lat="41.660359510" lon="2.505097280">
        <ele>314.49</ele>
        <time>2015-10-18T07:08:56Z</time>
      </trkpt>
      <trkpt lat="41.660718680" lon="2.505065760">
        <ele>314.49</ele>
        <time>2015-10-18T07:09:05Z</time>
      </trkpt>
      <trkpt lat="41.660940550" lon="2.505125360">
        <ele>314.01</ele>
        <time>2015-10-18T07:09:11Z</time>
      </trkpt>
      <trkpt lat="41.661162330" lon="2.505147900">
        <ele>314.01</ele>
        <time>2015-10-18T07:09:17Z</time>
      </trkpt>
      <trkpt lat="41.661418650" lon="2.505151000">
        <ele>314.01</ele>
        <time>2015-10-18T07:09:25Z</time>
      </trkpt>
      <trkpt lat="41.661455280" lon="2.505162490">
        <ele>314.01</ele>
        <time>2015-10-18T07:09:26Z</time>
      </trkpt>
      <trkpt lat="41.661586120" lon="2.505254270">
        <ele>313.05</ele>
        <time>2015-10-18T07:09:29Z</time>
      </trkpt>
      <trkpt lat="41.661670110" lon="2.505344210">
        <ele>312.09</ele>
        <time>2015-10-18T07:09:31Z</time>
      </trkpt>
      <trkpt lat="41.661831540" lon="2.505543610">
        <ele>311.60</ele>
        <time>2015-10-18T07:09:35Z</time>
      </trkpt>
      <trkpt lat="41.661902790" lon="2.505659450">
        <ele>311.12</ele>
        <time>2015-10-18T07:09:37Z</time>
      </trkpt>
      <trkpt lat="41.662061040" lon="2.506035210">
        <ele>310.64</ele>
        <time>2015-10-18T07:09:43Z</time>
      </trkpt>
      <trkpt lat="41.662302690" lon="2.506239980">
        <ele>310.16</ele>
        <time>2015-10-18T07:09:49Z</time>
      </trkpt>
      <trkpt lat="41.662422550" lon="2.506226820">
        <ele>310.16</ele>
        <time>2015-10-18T07:09:52Z</time>
      </trkpt>
      <trkpt lat="41.662563450" lon="2.506199250">
        <ele>309.68</ele>
        <time>2015-10-18T07:09:56Z</time>
      </trkpt>
      <trkpt lat="41.662824210" lon="2.506175110">
        <ele>308.24</ele>
        <time>2015-10-18T07:10:03Z</time>
      </trkpt>
      <trkpt lat="41.662928650" lon="2.505988100">
        <ele>306.80</ele>
        <time>2015-10-18T07:10:10Z</time>
      </trkpt>
      <trkpt lat="41.662981210" lon="2.505739500">
        <ele>304.88</ele>
        <time>2015-10-18T07:10:17Z</time>
      </trkpt>
      <trkpt lat="41.662972410" lon="2.505473710">
        <ele>302.95</ele>
        <time>2015-10-18T07:10:24Z</time>
      </trkpt>
      <trkpt lat="41.662961420" lon="2.505236750">
        <ele>301.51</ele>
        <time>2015-10-18T07:10:30Z</time>
      </trkpt>
      <trkpt lat="41.662958160" lon="2.505151260">
        <ele>300.55</ele>
        <time>2015-10-18T07:10:32Z</time>
      </trkpt>
      <trkpt lat="41.663048930" lon="2.504906090">
        <ele>297.67</ele>
        <time>2015-10-18T07:10:39Z</time>
      </trkpt>
      <trkpt lat="41.663078440" lon="2.504831650">
        <ele>297.67</ele>
        <time>2015-10-18T07:10:41Z</time>
      </trkpt>
      <trkpt lat="41.663231990" lon="2.504482040">
        <ele>295.74</ele>
        <time>2015-10-18T07:10:49Z</time>
      </trkpt>
      <trkpt lat="41.663331900" lon="2.504230920">
        <ele>293.82</ele>
        <time>2015-10-18T07:10:55Z</time>
      </trkpt>
      <trkpt lat="41.663452690" lon="2.504077790">
        <ele>291.90</ele>
        <time>2015-10-18T07:11:00Z</time>
      </trkpt>
      <trkpt lat="41.663483530" lon="2.504064880">
        <ele>291.90</ele>
        <time>2015-10-18T07:11:01Z</time>
      </trkpt>
      <trkpt lat="41.663650170" lon="2.503920210">
        <ele>289.97</ele>
        <time>2015-10-18T07:11:07Z</time>
      </trkpt>
      <trkpt lat="41.663807160" lon="2.503727000">
        <ele>288.53</ele>
        <time>2015-10-18T07:11:13Z</time>
      </trkpt>
      <trkpt lat="41.663986110" lon="2.503654160">
        <ele>286.61</ele>
        <time>2015-10-18T07:11:18Z</time>
      </trkpt>
      <trkpt lat="41.664188540" lon="2.503692130">
        <ele>285.65</ele>
        <time>2015-10-18T07:11:23Z</time>
      </trkpt>
      <trkpt lat="41.664351560" lon="2.503893380">
        <ele>283.73</ele>
        <time>2015-10-18T07:11:29Z</time>
      </trkpt>
      <trkpt lat="41.664510900" lon="2.503997400">
        <ele>281.80</ele>
        <time>2015-10-18T07:11:34Z</time>
      </trkpt>
      <trkpt lat="41.664701680" lon="2.503916180">
        <ele>279.40</ele>
        <time>2015-10-18T07:11:39Z</time>
      </trkpt>
      <trkpt lat="41.664843250" lon="2.503642260">
        <ele>277.00</ele>
        <time>2015-10-18T07:11:46Z</time>
      </trkpt>
      <trkpt lat="41.664962100" lon="2.503313020">
        <ele>274.11</ele>
        <time>2015-10-18T07:11:53Z</time>
      </trkpt>
      <trkpt lat="41.665100650" lon="2.503215790">
        <ele>271.71</ele>
        <time>2015-10-18T07:11:58Z</time>
      </trkpt>
      <trkpt lat="41.665269800" lon="2.503054860">
        <ele>269.79</ele>
        <time>2015-10-18T07:12:04Z</time>
      </trkpt>
      <trkpt lat="41.665404410" lon="2.502816060">
        <ele>268.35</ele>
        <time>2015-10-18T07:12:09Z</time>
      </trkpt>
      <trkpt lat="41.665596860" lon="2.502818070">
        <ele>266.42</ele>
        <time>2015-10-18T07:12:14Z</time>
      </trkpt>
      <trkpt lat="41.665817310" lon="2.502873810">
        <ele>264.98</ele>
        <time>2015-10-18T07:12:20Z</time>
      </trkpt>
      <trkpt lat="41.666022830" lon="2.502964080">
        <ele>263.54</ele>
        <time>2015-10-18T07:12:25Z</time>
      </trkpt>
      <trkpt lat="41.666047310" lon="2.503068940">
        <ele>262.10</ele>
        <time>2015-10-18T07:12:27Z</time>
      </trkpt>
      <trkpt lat="41.666030790" lon="2.503319560">
        <ele>261.14</ele>
        <time>2015-10-18T07:12:32Z</time>
      </trkpt>
      <trkpt lat="41.665929540" lon="2.503535810">
        <ele>259.69</ele>
        <time>2015-10-18T07:12:36Z</time>
      </trkpt>
      <trkpt lat="41.665920740" lon="2.503727590">
        <ele>258.25</ele>
        <time>2015-10-18T07:12:40Z</time>
      </trkpt>
      <trkpt lat="41.666060050" lon="2.503721390">
        <ele>256.81</ele>
        <time>2015-10-18T07:12:43Z</time>
      </trkpt>
      <trkpt lat="41.666174040" lon="2.503707890">
        <ele>255.85</ele>
        <time>2015-10-18T07:12:45Z</time>
      </trkpt>
      <trkpt lat="41.666296750" lon="2.503703530">
        <ele>254.89</ele>
        <time>2015-10-18T07:12:47Z</time>
      </trkpt>
      <trkpt lat="41.666424910" lon="2.503732530">
        <ele>253.93</ele>
        <time>2015-10-18T07:12:49Z</time>
      </trkpt>
      <trkpt lat="41.666563800" lon="2.503798170">
        <ele>252.48</ele>
        <time>2015-10-18T07:12:51Z</time>
      </trkpt>
      <trkpt lat="41.666852970" lon="2.503789450">
        <ele>250.56</ele>
        <time>2015-10-18T07:12:55Z</time>
      </trkpt>
      <trkpt lat="41.667076100" lon="2.503825660">
        <ele>248.64</ele>
        <time>2015-10-18T07:12:58Z</time>
      </trkpt>
      <trkpt lat="41.667255390" lon="2.504100000">
        <ele>246.72</ele>
        <time>2015-10-18T07:13:02Z</time>
      </trkpt>
      <trkpt lat="41.667474580" lon="2.504541140">
        <ele>244.79</ele>
        <time>2015-10-18T07:13:08Z</time>
      </trkpt>
      <trkpt lat="41.667487820" lon="2.504805590">
        <ele>242.87</ele>
        <time>2015-10-18T07:13:11Z</time>
      </trkpt>
      <trkpt lat="41.667404920" lon="2.504957550">
        <ele>241.91</ele>
        <time>2015-10-18T07:13:13Z</time>
      </trkpt>
      <trkpt lat="41.667297300" lon="2.505086970">
        <ele>240.47</ele>
        <time>2015-10-18T07:13:15Z</time>
      </trkpt>
      <trkpt lat="41.667245500" lon="2.505347980">
        <ele>238.54</ele>
        <time>2015-10-18T07:13:19Z</time>
      </trkpt>
      <trkpt lat="41.667331330" lon="2.505417720">
        <ele>238.54</ele>
        <time>2015-10-18T07:13:21Z</time>
      </trkpt>
      <trkpt lat="41.667640450" lon="2.505573790">
        <ele>236.62</ele>
        <time>2015-10-18T07:13:26Z</time>
      </trkpt>
      <trkpt lat="41.667856460" lon="2.505796330">
        <ele>235.66</ele>
        <time>2015-10-18T07:13:30Z</time>
      </trkpt>
      <trkpt lat="41.668083350" lon="2.505955830">
        <ele>234.70</ele>
        <time>2015-10-18T07:13:34Z</time>
      </trkpt>
      <trkpt lat="41.668207660" lon="2.506151720">
        <ele>235.18</ele>
        <time>2015-10-18T07:13:38Z</time>
      </trkpt>
      <trkpt lat="41.668195500" lon="2.506451540">
        <ele>235.18</ele>
        <time>2015-10-18T07:13:43Z</time>
      </trkpt>
      <trkpt lat="41.668183020" lon="2.506574000">
        <ele>235.18</ele>
        <time>2015-10-18T07:13:45Z</time>
      </trkpt>
      <trkpt lat="41.668109420" lon="2.506788910">
        <ele>234.70</ele>
        <time>2015-10-18T07:13:49Z</time>
      </trkpt>
      <trkpt lat="41.668039770" lon="2.506880440">
        <ele>234.70</ele>
        <time>2015-10-18T07:13:51Z</time>
      </trkpt>
      <trkpt lat="41.667861650" lon="2.507129050">
        <ele>233.26</ele>
        <time>2015-10-18T07:13:57Z</time>
      </trkpt>
      <trkpt lat="41.667948070" lon="2.507298700">
        <ele>233.26</ele>
        <time>2015-10-18T07:14:02Z</time>
      </trkpt>
      <trkpt lat="41.667974890" lon="2.507312450">
        <ele>233.26</ele>
        <time>2015-10-18T07:14:03Z</time>
      </trkpt>
      <trkpt lat="41.668267420" lon="2.507431380">
        <ele>233.74</ele>
        <time>2015-10-18T07:14:12Z</time>
      </trkpt>
      <trkpt lat="41.668443020" lon="2.507541020">
        <ele>233.74</ele>
        <time>2015-10-18T07:14:18Z</time>
      </trkpt>
      <trkpt lat="41.668458190" lon="2.507583940">
        <ele>233.74</ele>
        <time>2015-10-18T07:14:19Z</time>
      </trkpt>
      <trkpt lat="41.668479060" lon="2.507761210">
        <ele>233.74</ele>
        <time>2015-10-18T07:14:22Z</time>
      </trkpt>
      <trkpt lat="41.668481580" lon="2.507939080">
        <ele>233.26</ele>
        <time>2015-10-18T07:14:25Z</time>
      </trkpt>
      <trkpt lat="41.668525420" lon="2.508122140">
        <ele>232.30</ele>
        <time>2015-10-18T07:14:28Z</time>
      </trkpt>
      <trkpt lat="41.668546960" lon="2.508334700">
        <ele>230.85</ele>
        <time>2015-10-18T07:14:31Z</time>
      </trkpt>
      <trkpt lat="41.668567830" lon="2.508758410">
        <ele>228.45</ele>
        <time>2015-10-18T07:14:36Z</time>
      </trkpt>
      <trkpt lat="41.668568160" lon="2.508837530">
        <ele>227.49</ele>
        <time>2015-10-18T07:14:37Z</time>
      </trkpt>
      <trkpt lat="41.668647040" lon="2.509119080">
        <ele>226.05</ele>
        <time>2015-10-18T07:14:41Z</time>
      </trkpt>
      <trkpt lat="41.668745940" lon="2.509183450">
        <ele>225.09</ele>
        <time>2015-10-18T07:14:43Z</time>
      </trkpt>
      <trkpt lat="41.668855910" lon="2.509251430">
        <ele>224.12</ele>
        <time>2015-10-18T07:14:45Z</time>
      </trkpt>
      <trkpt lat="41.669035450" lon="2.509562570">
        <ele>222.68</ele>
        <time>2015-10-18T07:14:50Z</time>
      </trkpt>
      <trkpt lat="41.669026740" lon="2.509793660">
        <ele>220.76</ele>
        <time>2015-10-18T07:14:54Z</time>
      </trkpt>
      <trkpt lat="41.669027240" lon="2.509872700">
        <ele>220.28</ele>
        <time>2015-10-18T07:14:56Z</time>
      </trkpt>
      <trkpt lat="41.669110720" lon="2.509886280">
        <ele>218.84</ele>
        <time>2015-10-18T07:15:01Z</time>
      </trkpt>
      <trkpt lat="41.669111560" lon="2.509783180">
        <ele>218.36</ele>
        <time>2015-10-18T07:15:03Z</time>
      </trkpt>
      <trkpt lat="41.669107370" lon="2.509518730">
        <ele>217.88</ele>
        <time>2015-10-18T07:15:08Z</time>
      </trkpt>
      <trkpt lat="41.669172250" lon="2.509277080">
        <ele>215.95</ele>
        <time>2015-10-18T07:15:12Z</time>
      </trkpt>
      <trkpt lat="41.669189010" lon="2.509122100">
        <ele>215.47</ele>
        <time>2015-10-18T07:15:14Z</time>
      </trkpt>
      <trkpt lat="41.669153050" lon="2.508912470">
        <ele>214.99</ele>
        <time>2015-10-18T07:15:17Z</time>
      </trkpt>
      <trkpt lat="41.669092620" lon="2.508437630">
        <ele>214.99</ele>
        <time>2015-10-18T07:15:25Z</time>
      </trkpt>
      <trkpt lat="41.669007630" lon="2.508275440">
        <ele>214.99</ele>
        <time>2015-10-18T07:15:29Z</time>
      </trkpt>
      <trkpt lat="41.668985830" lon="2.508111410">
        <ele>214.99</ele>
        <time>2015-10-18T07:15:33Z</time>
      </trkpt>
      <trkpt lat="41.669032770" lon="2.507794070">
        <ele>215.95</ele>
        <time>2015-10-18T07:15:39Z</time>
      </trkpt>
      <trkpt lat="41.669095800" lon="2.507501790">
        <ele>217.88</ele>
        <time>2015-10-18T07:15:46Z</time>
      </trkpt>
      <trkpt lat="41.669094630" lon="2.507296020">
        <ele>219.32</ele>
        <time>2015-10-18T07:15:52Z</time>
      </trkpt>
      <trkpt lat="41.669037380" lon="2.507126950">
        <ele>219.80</ele>
        <time>2015-10-18T07:15:58Z</time>
      </trkpt>
      <trkpt lat="41.668880390" lon="2.506905340">
        <ele>219.80</ele>
        <time>2015-10-18T07:16:04Z</time>
      </trkpt>
      <trkpt lat="41.668845270" lon="2.506654470">
        <ele>219.80</ele>
        <time>2015-10-18T07:16:10Z</time>
      </trkpt>
      <trkpt lat="41.668897740" lon="2.506403510">
        <ele>221.72</ele>
        <time>2015-10-18T07:16:17Z</time>
      </trkpt>
      <trkpt lat="41.668906540" lon="2.506241660">
        <ele>220.28</ele>
        <time>2015-10-18T07:16:20Z</time>
      </trkpt>
      <trkpt lat="41.668903360" lon="2.506105790">
        <ele>219.80</ele>
        <time>2015-10-18T07:16:22Z</time>
      </trkpt>
      <trkpt lat="41.668845770" lon="2.505654670">
        <ele>217.40</ele>
        <time>2015-10-18T07:16:28Z</time>
      </trkpt>
      <trkpt lat="41.668855410" lon="2.505316550">
        <ele>215.47</ele>
        <time>2015-10-18T07:16:32Z</time>
      </trkpt>
      <trkpt lat="41.668832280" lon="2.505012620">
        <ele>212.59</ele>
        <time>2015-10-18T07:16:36Z</time>
      </trkpt>
      <trkpt lat="41.668794220" lon="2.504869040">
        <ele>210.19</ele>
        <time>2015-10-18T07:16:38Z</time>
      </trkpt>
      <trkpt lat="41.668777210" lon="2.504726130">
        <ele>208.26</ele>
        <time>2015-10-18T07:16:40Z</time>
      </trkpt>
      <trkpt lat="41.668821210" lon="2.504317090">
        <ele>205.38</ele>
        <time>2015-10-18T07:16:45Z</time>
      </trkpt>
      <trkpt lat="41.668839320" lon="2.504226150">
        <ele>204.90</ele>
        <time>2015-10-18T07:16:46Z</time>
      </trkpt>
      <trkpt lat="41.668888440" lon="2.504047950">
        <ele>204.42</ele>
        <time>2015-10-18T07:16:48Z</time>
      </trkpt>
      <trkpt lat="41.668929510" lon="2.503724820">
        <ele>204.42</ele>
        <time>2015-10-18T07:16:52Z</time>
      </trkpt>
      <trkpt lat="41.668868990" lon="2.503415110">
        <ele>203.94</ele>
        <time>2015-10-18T07:16:55Z</time>
      </trkpt>
      <trkpt lat="41.668730190" lon="2.502931220">
        <ele>204.42</ele>
        <time>2015-10-18T07:17:02Z</time>
      </trkpt>
      <trkpt lat="41.668668750" lon="2.502702820">
        <ele>203.46</ele>
        <time>2015-10-18T07:17:05Z</time>
      </trkpt>
      <trkpt lat="41.668564390" lon="2.502282130">
        <ele>202.98</ele>
        <time>2015-10-18T07:17:11Z</time>
      </trkpt>
      <trkpt lat="41.668550390" lon="2.502218090">
        <ele>202.98</ele>
        <time>2015-10-18T07:17:12Z</time>
      </trkpt>
      <trkpt lat="41.668490710" lon="2.501836380">
        <ele>202.98</ele>
        <time>2015-10-18T07:17:18Z</time>
      </trkpt>
      <trkpt lat="41.668358950" lon="2.501335730">
        <ele>202.49</ele>
        <time>2015-10-18T07:17:26Z</time>
      </trkpt>
      <trkpt lat="41.668281080" lon="2.500902720">
        <ele>202.01</ele>
        <time>2015-10-18T07:17:33Z</time>
      </trkpt>
      <trkpt lat="41.668233640" lon="2.500594690">
        <ele>201.05</ele>
        <time>2015-10-18T07:17:38Z</time>
      </trkpt>
      <trkpt lat="41.668214700" lon="2.500088250">
        <ele>200.57</ele>
        <time>2015-10-18T07:17:45Z</time>
      </trkpt>
      <trkpt lat="41.668157200" lon="2.499883730">
        <ele>200.09</ele>
        <time>2015-10-18T07:17:48Z</time>
      </trkpt>
      <trkpt lat="41.668109590" lon="2.499534120">
        <ele>199.13</ele>
        <time>2015-10-18T07:17:54Z</time>
      </trkpt>
      <trkpt lat="41.668095090" lon="2.499451480">
        <ele>198.65</ele>
        <time>2015-10-18T07:17:56Z</time>
      </trkpt>
      <trkpt lat="41.668055020" lon="2.499223570">
        <ele>199.13</ele>
        <time>2015-10-18T07:18:01Z</time>
      </trkpt>
      <trkpt lat="41.668056030" lon="2.499162220">
        <ele>199.13</ele>
        <time>2015-10-18T07:18:03Z</time>
      </trkpt>
      <trkpt lat="41.668133560" lon="2.499055180">
        <ele>199.13</ele>
        <time>2015-10-18T07:18:08Z</time>
      </trkpt>
      <trkpt lat="41.668276310" lon="2.498891570">
        <ele>199.13</ele>
        <time>2015-10-18T07:18:14Z</time>
      </trkpt>
      <trkpt lat="41.668432460" lon="2.498793330">
        <ele>198.17</ele>
        <time>2015-10-18T07:18:19Z</time>
      </trkpt>
      <trkpt lat="41.668532960" lon="2.498774890">
        <ele>196.73</ele>
        <time>2015-10-18T07:18:23Z</time>
      </trkpt>
      <trkpt lat="41.668727760" lon="2.498646820">
        <ele>196.73</ele>
        <time>2015-10-18T07:18:30Z</time>
      </trkpt>
      <trkpt lat="41.668929170" lon="2.498575570">
        <ele>196.25</ele>
        <time>2015-10-18T07:18:35Z</time>
      </trkpt>
      <trkpt lat="41.669221450" lon="2.498518740">
        <ele>196.25</ele>
        <time>2015-10-18T07:18:42Z</time>
      </trkpt>
      <trkpt lat="41.669393530" lon="2.498479430">
        <ele>196.25</ele>
        <time>2015-10-18T07:18:47Z</time>
      </trkpt>
      <trkpt lat="41.669570720" lon="2.498477750">
        <ele>195.77</ele>
        <time>2015-10-18T07:18:51Z</time>
      </trkpt>
      <trkpt lat="41.669824020" lon="2.498434670">
        <ele>195.28</ele>
        <time>2015-10-18T07:18:57Z</time>
      </trkpt>
      <trkpt lat="41.670047900" lon="2.498324360">
        <ele>195.30</ele>
        <time>2015-10-18T07:19:03Z</time>
      </trkpt>
      <trkpt lat="41.670236920" lon="2.498256890">
        <ele>195.30</ele>
        <time>2015-10-18T07:19:09Z</time>
      </trkpt>
      <trkpt lat="41.670377060" lon="2.498265860">
        <ele>194.30</ele>
        <time>2015-10-18T07:19:13Z</time>
      </trkpt>
      <trkpt lat="41.670394410" lon="2.498254880">
        <ele>194.30</ele>
        <time>2015-10-18T07:19:14Z</time>
      </trkpt>
      <trkpt lat="41.670497680" lon="2.498133420">
        <ele>194.30</ele>
        <time>2015-10-18T07:19:18Z</time>
      </trkpt>
      <trkpt lat="41.670530950" lon="2.498107190">
        <ele>194.30</ele>
        <time>2015-10-18T07:19:19Z</time>
      </trkpt>
      <trkpt lat="41.670621980" lon="2.497919850">
        <ele>194.30</ele>
        <time>2015-10-18T07:19:23Z</time>
      </trkpt>
      <trkpt lat="41.670649560" lon="2.497866800">
        <ele>193.80</ele>
        <time>2015-10-18T07:19:24Z</time>
      </trkpt>
      <trkpt lat="41.670709150" lon="2.497783560">
        <ele>193.80</ele>
        <time>2015-10-18T07:19:26Z</time>
      </trkpt>
      <trkpt lat="41.670826500" lon="2.497424230">
        <ele>193.80</ele>
        <time>2015-10-18T07:19:32Z</time>
      </trkpt>
      <trkpt lat="41.670894900" lon="2.497178890">
        <ele>193.40</ele>
        <time>2015-10-18T07:19:36Z</time>
      </trkpt>
      <trkpt lat="41.671087850" lon="2.496883090">
        <ele>192.90</ele>
        <time>2015-10-18T07:19:41Z</time>
      </trkpt>
      <trkpt lat="41.671423960" lon="2.496568940">
        <ele>191.00</ele>
        <time>2015-10-18T07:19:48Z</time>
      </trkpt>
      <trkpt lat="41.671505100" lon="2.496499620">
        <ele>191.00</ele>
        <time>2015-10-18T07:19:50Z</time>
      </trkpt>
      <trkpt lat="41.671600990" lon="2.496458720">
        <ele>190.50</ele>
        <time>2015-10-18T07:19:52Z</time>
      </trkpt>
      <trkpt lat="41.671910030" lon="2.496299550">
        <ele>190.00</ele>
        <time>2015-10-18T07:19:58Z</time>
      </trkpt>
      <trkpt lat="41.672116390" lon="2.496227970">
        <ele>190.00</ele>
        <time>2015-10-18T07:20:03Z</time>
      </trkpt>
      <trkpt lat="41.672210520" lon="2.496213800">
        <ele>190.00</ele>
        <time>2015-10-18T07:20:05Z</time>
      </trkpt>
      <trkpt lat="41.672446720" lon="2.495969800">
        <ele>190.00</ele>
        <time>2015-10-18T07:20:12Z</time>
      </trkpt>
      <trkpt lat="41.672658030" lon="2.495687160">
        <ele>190.50</ele>
        <time>2015-10-18T07:20:18Z</time>
      </trkpt>
      <trkpt lat="41.672970840" lon="2.495255580">
        <ele>190.50</ele>
        <time>2015-10-18T07:20:27Z</time>
      </trkpt>
      <trkpt lat="41.673034800" lon="2.495155000">
        <ele>190.50</ele>
        <time>2015-10-18T07:20:29Z</time>
      </trkpt>
      <trkpt lat="41.673198240" lon="2.494988870">
        <ele>190.50</ele>
        <time>2015-10-18T07:20:34Z</time>
      </trkpt>
      <trkpt lat="41.673233360" lon="2.494970010">
        <ele>190.50</ele>
        <time>2015-10-18T07:20:39Z</time>
      </trkpt>
      <trkpt lat="41.673242330" lon="2.494963470">
        <ele>190.50</ele>
        <time>2015-10-18T07:20:53Z</time>
      </trkpt>
      <trkpt lat="41.673259850" lon="2.494969090">
        <ele>191.00</ele>
        <time>2015-10-18T07:21:02Z</time>
      </trkpt>
      <trkpt lat="41.673265800" lon="2.494942680">
        <ele>191.00</ele>
        <time>2015-10-18T07:21:12Z</time>
      </trkpt>
      <trkpt lat="41.673259260" lon="2.494933460">
        <ele>191.00</ele>
        <time>2015-10-18T07:21:20Z</time>
      </trkpt>
      <trkpt lat="41.673248120" lon="2.494916870">
        <ele>190.50</ele>
        <time>2015-10-18T07:21:31Z</time>
      </trkpt>
      <trkpt lat="41.673237810" lon="2.494905640">
        <ele>190.50</ele>
        <time>2015-10-18T07:21:46Z</time>
      </trkpt>
      <trkpt lat="41.673243920" lon="2.494908910">
        <ele>191.00</ele>
        <time>2015-10-18T07:21:56Z</time>
      </trkpt>
      <trkpt lat="41.673276360" lon="2.494936650">
        <ele>191.00</ele>
        <time>2015-10-18T07:22:06Z</time>
      </trkpt>
      <trkpt lat="41.673391450" lon="2.495035970">
        <ele>189.00</ele>
        <time>2015-10-18T07:22:12Z</time>
      </trkpt>
      <trkpt lat="41.673457240" lon="2.495090710">
        <ele>189.00</ele>
        <time>2015-10-18T07:22:14Z</time>
      </trkpt>
      <trkpt lat="41.673669220" lon="2.495241080">
        <ele>189.00</ele>
        <time>2015-10-18T07:22:21Z</time>
      </trkpt>
      <trkpt lat="41.673880700" lon="2.495424560">
        <ele>189.00</ele>
        <time>2015-10-18T07:22:28Z</time>
      </trkpt>
      <trkpt lat="41.674166770" lon="2.495651210">
        <ele>189.00</ele>
        <time>2015-10-18T07:22:36Z</time>
      </trkpt>
      <trkpt lat="41.674288310" lon="2.495861170">
        <ele>189.00</ele>
        <time>2015-10-18T07:22:42Z</time>
      </trkpt>
      <trkpt lat="41.674355780" lon="2.495965030">
        <ele>189.00</ele>
        <time>2015-10-18T07:22:47Z</time>
      </trkpt>
      <trkpt lat="41.674549070" lon="2.495995540">
        <ele>189.00</ele>
        <time>2015-10-18T07:22:54Z</time>
      </trkpt>
      <trkpt lat="41.674592070" lon="2.496027220">
        <ele>188.10</ele>
        <time>2015-10-18T07:22:56Z</time>
      </trkpt>
      <trkpt lat="41.674613190" lon="2.496157470">
        <ele>186.20</ele>
        <time>2015-10-18T07:23:00Z</time>
      </trkpt>
      <trkpt lat="41.674701710" lon="2.496435750">
        <ele>182.30</ele>
        <time>2015-10-18T07:23:06Z</time>
      </trkpt>
      <trkpt lat="41.674790130" lon="2.496631220">
        <ele>179.90</ele>
        <time>2015-10-18T07:23:11Z</time>
      </trkpt>
      <trkpt lat="41.674786190" lon="2.496867250">
        <ele>177.00</ele>
        <time>2015-10-18T07:23:16Z</time>
      </trkpt>
      <trkpt lat="41.674782760" lon="2.496976890">
        <ele>176.50</ele>
        <time>2015-10-18T07:23:18Z</time>
      </trkpt>
      <trkpt lat="41.674848390" lon="2.497160280">
        <ele>179.40</ele>
        <time>2015-10-18T07:23:24Z</time>
      </trkpt>
      <trkpt lat="41.674873700" lon="2.497266730">
        <ele>180.40</ele>
        <time>2015-10-18T07:23:29Z</time>
      </trkpt>
      <trkpt lat="41.674890720" lon="2.497417530">
        <ele>180.40</ele>
        <time>2015-10-18T07:23:33Z</time>
      </trkpt>
      <trkpt lat="41.674918710" lon="2.497674010">
        <ele>180.40</ele>
        <time>2015-10-18T07:23:38Z</time>
      </trkpt>
      <trkpt lat="41.674916450" lon="2.497803180">
        <ele>180.40</ele>
        <time>2015-10-18T07:23:40Z</time>
      </trkpt>
      <trkpt lat="41.674901780" lon="2.497879790">
        <ele>180.40</ele>
        <time>2015-10-18T07:23:41Z</time>
      </trkpt>
      <trkpt lat="41.674874880" lon="2.497975170">
        <ele>180.40</ele>
        <time>2015-10-18T07:23:43Z</time>
      </trkpt>
      <trkpt lat="41.674719810" lon="2.498234760">
        <ele>175.10</ele>
        <time>2015-10-18T07:23:48Z</time>
      </trkpt>
      <trkpt lat="41.674589810" lon="2.498336770">
        <ele>172.70</ele>
        <time>2015-10-18T07:23:51Z</time>
      </trkpt>
      <trkpt lat="41.674389730" lon="2.498603060">
        <ele>174.10</ele>
        <time>2015-10-18T07:23:56Z</time>
      </trkpt>
      <trkpt lat="41.674291830" lon="2.498730130">
        <ele>174.60</ele>
        <time>2015-10-18T07:24:01Z</time>
      </trkpt>
      <trkpt lat="41.674219490" lon="2.498886620">
        <ele>176.50</ele>
        <time>2015-10-18T07:24:07Z</time>
      </trkpt>
      <trkpt lat="41.674131740" lon="2.499188870">
        <ele>177.00</ele>
        <time>2015-10-18T07:24:13Z</time>
      </trkpt>
      <trkpt lat="41.674097960" lon="2.499478050">
        <ele>177.00</ele>
        <time>2015-10-18T07:24:19Z</time>
      </trkpt>
      <trkpt lat="41.674128380" lon="2.499622380">
        <ele>177.50</ele>
        <time>2015-10-18T07:24:22Z</time>
      </trkpt>
      <trkpt lat="41.674298030" lon="2.499808380">
        <ele>178.50</ele>
        <time>2015-10-18T07:24:28Z</time>
      </trkpt>
      <trkpt lat="41.674497770" lon="2.499977860">
        <ele>179.90</ele>
        <time>2015-10-18T07:24:34Z</time>
      </trkpt>
      <trkpt lat="41.674545630" lon="2.500001410">
        <ele>177.50</ele>
        <time>2015-10-18T07:24:35Z</time>
      </trkpt>
      <trkpt lat="41.674666250" lon="2.500043660">
        <ele>175.60</ele>
        <time>2015-10-18T07:24:37Z</time>
      </trkpt>
      <trkpt lat="41.674915950" lon="2.500020440">
        <ele>174.10</ele>
        <time>2015-10-18T07:24:41Z</time>
      </trkpt>
      <trkpt lat="41.675032370" lon="2.500007280">
        <ele>174.10</ele>
        <time>2015-10-18T07:24:43Z</time>
      </trkpt>
      <trkpt lat="41.675231530" lon="2.499874430">
        <ele>174.10</ele>
        <time>2015-10-18T07:24:48Z</time>
      </trkpt>
      <trkpt lat="41.675286510" lon="2.499857410">
        <ele>174.10</ele>
        <time>2015-10-18T07:24:49Z</time>
      </trkpt>
      <trkpt lat="41.675613990" lon="2.499732860">
        <ele>170.80</ele>
        <time>2015-10-18T07:24:55Z</time>
      </trkpt>
      <trkpt lat="41.675868380" lon="2.499630100">
        <ele>168.40</ele>
        <time>2015-10-18T07:24:59Z</time>
      </trkpt>
      <trkpt lat="41.676082540" lon="2.499711480">
        <ele>167.40</ele>
        <time>2015-10-18T07:25:03Z</time>
      </trkpt>
      <trkpt lat="41.676135680" lon="2.499700840">
        <ele>167.40</ele>
        <time>2015-10-18T07:25:04Z</time>
      </trkpt>
      <trkpt lat="41.676320750" lon="2.499600590">
        <ele>167.40</ele>
        <time>2015-10-18T07:25:08Z</time>
      </trkpt>
      <trkpt lat="41.676521840" lon="2.499287610">
        <ele>167.40</ele>
        <time>2015-10-18T07:25:14Z</time>
      </trkpt>
      <trkpt lat="41.676554940" lon="2.499274200">
        <ele>167.40</ele>
        <time>2015-10-18T07:25:15Z</time>
      </trkpt>
      <trkpt lat="41.676612610" lon="2.499290130">
        <ele>166.90</ele>
        <time>2015-10-18T07:25:17Z</time>
      </trkpt>
      <trkpt lat="41.676802960" lon="2.499313010">
        <ele>166.90</ele>
        <time>2015-10-18T07:25:21Z</time>
      </trkpt>
      <trkpt lat="41.676875640" lon="2.499241090">
        <ele>166.90</ele>
        <time>2015-10-18T07:25:23Z</time>
      </trkpt>
      <trkpt lat="41.676970350" lon="2.499124420">
        <ele>166.90</ele>
        <time>2015-10-18T07:25:26Z</time>
      </trkpt>
      <trkpt lat="41.677106640" lon="2.498859630">
        <ele>166.90</ele>
        <time>2015-10-18T07:25:32Z</time>
      </trkpt>
      <trkpt lat="41.677274780" lon="2.498816880">
        <ele>166.90</ele>
        <time>2015-10-18T07:25:36Z</time>
      </trkpt>
      <trkpt lat="41.677402770" lon="2.498790650">
        <ele>166.90</ele>
        <time>2015-10-18T07:25:39Z</time>
      </trkpt>
      <trkpt lat="41.677577120" lon="2.498743630">
        <ele>166.50</ele>
        <time>2015-10-18T07:25:43Z</time>
      </trkpt>
      <trkpt lat="41.677971900" lon="2.498729210">
        <ele>166.00</ele>
        <time>2015-10-18T07:25:52Z</time>
      </trkpt>
      <trkpt lat="41.678090010" lon="2.498791910">
        <ele>165.00</ele>
        <time>2015-10-18T07:25:55Z</time>
      </trkpt>
      <trkpt lat="41.678176670" lon="2.498861390">
        <ele>163.60</ele>
        <time>2015-10-18T07:25:57Z</time>
      </trkpt>
      <trkpt lat="41.678336100" lon="2.499237400">
        <ele>159.70</ele>
        <time>2015-10-18T07:26:03Z</time>
      </trkpt>
      <trkpt lat="41.678363090" lon="2.499300600">
        <ele>159.70</ele>
        <time>2015-10-18T07:26:04Z</time>
      </trkpt>
      <trkpt lat="41.678547740" lon="2.499407980">
        <ele>158.80</ele>
        <time>2015-10-18T07:26:08Z</time>
      </trkpt>
      <trkpt lat="41.678718900" lon="2.499291630">
        <ele>156.80</ele>
        <time>2015-10-18T07:26:12Z</time>
      </trkpt>
      <trkpt lat="41.678739520" lon="2.499220050">
        <ele>156.40</ele>
        <time>2015-10-18T07:26:13Z</time>
      </trkpt>
      <trkpt lat="41.678847480" lon="2.498585630">
        <ele>155.40</ele>
        <time>2015-10-18T07:26:21Z</time>
      </trkpt>
      <trkpt lat="41.678910090" lon="2.498209950">
        <ele>154.90</ele>
        <time>2015-10-18T07:26:26Z</time>
      </trkpt>
      <trkpt lat="41.678977480" lon="2.497973160">
        <ele>154.90</ele>
        <time>2015-10-18T07:26:30Z</time>
      </trkpt>
      <trkpt lat="41.679062390" lon="2.497798730">
        <ele>154.00</ele>
        <time>2015-10-18T07:26:33Z</time>
      </trkpt>
      <trkpt lat="41.679281740" lon="2.497508220">
        <ele>154.00</ele>
        <time>2015-10-18T07:26:39Z</time>
      </trkpt>
      <trkpt lat="41.679359530" lon="2.497343760">
        <ele>154.00</ele>
        <time>2015-10-18T07:26:42Z</time>
      </trkpt>
      <trkpt lat="41.679459860" lon="2.497025250">
        <ele>154.00</ele>
        <time>2015-10-18T07:26:48Z</time>
      </trkpt>
      <trkpt lat="41.679629680" lon="2.496782010">
        <ele>154.00</ele>
        <time>2015-10-18T07:26:54Z</time>
      </trkpt>
      <trkpt lat="41.679811150" lon="2.496746220">
        <ele>154.00</ele>
        <time>2015-10-18T07:26:58Z</time>
      </trkpt>
      <trkpt lat="41.679914660" lon="2.496773960">
        <ele>154.00</ele>
        <time>2015-10-18T07:27:00Z</time>
      </trkpt>
      <trkpt lat="41.680239460" lon="2.496711940">
        <ele>154.00</ele>
        <time>2015-10-18T07:27:06Z</time>
      </trkpt>
      <trkpt lat="41.680277680" lon="2.496666420">
        <ele>154.00</ele>
        <time>2015-10-18T07:27:07Z</time>
      </trkpt>
      <trkpt lat="41.680407770" lon="2.496506500">
        <ele>154.00</ele>
        <time>2015-10-18T07:27:10Z</time>
      </trkpt>
      <trkpt lat="41.680617900" lon="2.496380600">
        <ele>153.50</ele>
        <time>2015-10-18T07:27:14Z</time>
      </trkpt>
      <trkpt lat="41.680729300" lon="2.496351430">
        <ele>153.00</ele>
        <time>2015-10-18T07:27:16Z</time>
      </trkpt>
      <trkpt lat="41.681092740" lon="2.496237860">
        <ele>152.50</ele>
        <time>2015-10-18T07:27:22Z</time>
      </trkpt>
      <trkpt lat="41.681150570" lon="2.496216060">
        <ele>152.50</ele>
        <time>2015-10-18T07:27:23Z</time>
      </trkpt>
      <trkpt lat="41.681542010" lon="2.496115230">
        <ele>152.50</ele>
        <time>2015-10-18T07:27:30Z</time>
      </trkpt>
      <trkpt lat="41.682026480" lon="2.496182030">
        <ele>152.00</ele>
        <time>2015-10-18T07:27:39Z</time>
      </trkpt>
      <trkpt lat="41.682118770" lon="2.496207680">
        <ele>151.50</ele>
        <time>2015-10-18T07:27:43Z</time>
      </trkpt>
      <trkpt lat="41.682110300" lon="2.496177170">
        <ele>151.50</ele>
        <time>2015-10-18T07:27:53Z</time>
      </trkpt>
      <trkpt lat="41.682116920" lon="2.496173730">
        <ele>151.50</ele>
        <time>2015-10-18T07:28:02Z</time>
      </trkpt>
      <trkpt lat="41.682123960" lon="2.496178430">
        <ele>151.50</ele>
        <time>2015-10-18T07:28:17Z</time>
      </trkpt>
      <trkpt lat="41.682142990" lon="2.496182620">
        <ele>151.50</ele>
        <time>2015-10-18T07:28:21Z</time>
      </trkpt>
      <trkpt lat="41.682240140" lon="2.496212460">
        <ele>151.50</ele>
        <time>2015-10-18T07:28:27Z</time>
      </trkpt>
      <trkpt lat="41.682315910" lon="2.496240870">
        <ele>151.50</ele>
        <time>2015-10-18T07:28:31Z</time>
      </trkpt>
      <trkpt lat="41.682503160" lon="2.496413120">
        <ele>150.60</ele>
        <time>2015-10-18T07:28:39Z</time>
      </trkpt>
      <trkpt lat="41.682766440" lon="2.496631890">
        <ele>150.60</ele>
        <time>2015-10-18T07:28:47Z</time>
      </trkpt>
      <trkpt lat="41.682849170" lon="2.496681590">
        <ele>150.60</ele>
        <time>2015-10-18T07:28:49Z</time>
      </trkpt>
      <trkpt lat="41.683059300" lon="2.496918130">
        <ele>150.60</ele>
        <time>2015-10-18T07:28:55Z</time>
      </trkpt>
      <trkpt lat="41.683233310" lon="2.497119300">
        <ele>150.60</ele>
        <time>2015-10-18T07:29:00Z</time>
      </trkpt>
      <trkpt lat="41.683314950" lon="2.497179140">
        <ele>150.60</ele>
        <time>2015-10-18T07:29:02Z</time>
      </trkpt>
      <trkpt lat="41.683573110" lon="2.497317280">
        <ele>150.60</ele>
        <time>2015-10-18T07:29:08Z</time>
      </trkpt>
      <trkpt lat="41.683729520" lon="2.497275870">
        <ele>149.60</ele>
        <time>2015-10-18T07:29:13Z</time>
      </trkpt>
      <trkpt lat="41.683817360" lon="2.497012260">
        <ele>147.70</ele>
        <time>2015-10-18T07:29:19Z</time>
      </trkpt>
      <trkpt lat="41.683903440" lon="2.496853760">
        <ele>146.30</ele>
        <time>2015-10-18T07:29:25Z</time>
      </trkpt>
      <trkpt lat="41.683879720" lon="2.496787290">
        <ele>146.30</ele>
        <time>2015-10-18T07:29:27Z</time>
      </trkpt>
      <trkpt lat="41.683743180" lon="2.496422680">
        <ele>145.30</ele>
        <time>2015-10-18T07:29:36Z</time>
      </trkpt>
      <trkpt lat="41.683530360" lon="2.495999140">
        <ele>143.90</ele>
        <time>2015-10-18T07:29:44Z</time>
      </trkpt>
      <trkpt lat="41.683403040" lon="2.495766290">
        <ele>142.40</ele>
        <time>2015-10-18T07:29:48Z</time>
      </trkpt>
      <trkpt lat="41.683352500" lon="2.495499080">
        <ele>141.00</ele>
        <time>2015-10-18T07:29:53Z</time>
      </trkpt>
      <trkpt lat="41.683412850" lon="2.495426240">
        <ele>140.50</ele>
        <time>2015-10-18T07:29:55Z</time>
      </trkpt>
      <trkpt lat="41.683636980" lon="2.495248460">
        <ele>140.00</ele>
        <time>2015-10-18T07:30:01Z</time>
      </trkpt>
      <trkpt lat="41.683669170" lon="2.495224990">
        <ele>140.00</ele>
        <time>2015-10-18T07:30:02Z</time>
      </trkpt>
      <trkpt lat="41.683827840" lon="2.495304530">
        <ele>139.10</ele>
        <time>2015-10-18T07:30:07Z</time>
      </trkpt>
      <trkpt lat="41.683884420" lon="2.495432440">
        <ele>139.10</ele>
        <time>2015-10-18T07:30:10Z</time>
      </trkpt>
      <trkpt lat="41.683928250" lon="2.495533360">
        <ele>138.60</ele>
        <time>2015-10-18T07:30:12Z</time>
      </trkpt>
      <trkpt lat="41.684128750" lon="2.495989170">
        <ele>139.50</ele>
        <time>2015-10-18T07:30:22Z</time>
      </trkpt>
      <trkpt lat="41.684225480" lon="2.496213130">
        <ele>139.50</ele>
        <time>2015-10-18T07:30:27Z</time>
      </trkpt>
      <trkpt lat="41.684309880" lon="2.496359900">
        <ele>139.50</ele>
        <time>2015-10-18T07:30:30Z</time>
      </trkpt>
      <trkpt lat="41.684484560" lon="2.496456040">
        <ele>139.50</ele>
        <time>2015-10-18T07:30:34Z</time>
      </trkpt>
      <trkpt lat="41.684631660" lon="2.496455200">
        <ele>138.10</ele>
        <time>2015-10-18T07:30:37Z</time>
      </trkpt>
      <trkpt lat="41.684768870" lon="2.496437090">
        <ele>137.10</ele>
        <time>2015-10-18T07:30:41Z</time>
      </trkpt>
      <trkpt lat="41.684917900" lon="2.496427290">
        <ele>137.10</ele>
        <time>2015-10-18T07:30:46Z</time>
      </trkpt>
      <trkpt lat="41.685186290" lon="2.496561980">
        <ele>137.10</ele>
        <time>2015-10-18T07:30:54Z</time>
      </trkpt>
      <trkpt lat="41.685251000" lon="2.496582520">
        <ele>138.10</ele>
        <time>2015-10-18T07:30:56Z</time>
      </trkpt>
      <trkpt lat="41.685435150" lon="2.496396360">
        <ele>138.60</ele>
        <time>2015-10-18T07:31:03Z</time>
      </trkpt>
      <trkpt lat="41.685656940" lon="2.496128300">
        <ele>138.60</ele>
        <time>2015-10-18T07:31:12Z</time>
      </trkpt>
      <trkpt lat="41.685756930" lon="2.496065690">
        <ele>137.60</ele>
        <time>2015-10-18T07:31:18Z</time>
      </trkpt>
      <trkpt lat="41.685785260" lon="2.496064100">
        <ele>137.60</ele>
        <time>2015-10-18T07:31:20Z</time>
      </trkpt>
      <trkpt lat="41.685821560" lon="2.496133170">
        <ele>137.10</ele>
        <time>2015-10-18T07:31:24Z</time>
      </trkpt>
      <trkpt lat="41.685873610" lon="2.496232490">
        <ele>137.10</ele>
        <time>2015-10-18T07:31:30Z</time>
      </trkpt>
      <trkpt lat="41.685890120" lon="2.496251690">
        <ele>137.10</ele>
        <time>2015-10-18T07:31:31Z</time>
      </trkpt>
      <trkpt lat="41.686039320" lon="2.496494930">
        <ele>137.10</ele>
        <time>2015-10-18T07:31:39Z</time>
      </trkpt>
      <trkpt lat="41.686225820" lon="2.496758790">
        <ele>137.10</ele>
        <time>2015-10-18T07:31:46Z</time>
      </trkpt>
      <trkpt lat="41.686345850" lon="2.496872790">
        <ele>137.10</ele>
        <time>2015-10-18T07:31:50Z</time>
      </trkpt>
      <trkpt lat="41.686540640" lon="2.496739010">
        <ele>137.10</ele>
        <time>2015-10-18T07:31:56Z</time>
      </trkpt>
      <trkpt lat="41.686755550" lon="2.496482940">
        <ele>138.60</ele>
        <time>2015-10-18T07:32:04Z</time>
      </trkpt>
      <trkpt lat="41.686951770" lon="2.496252440">
        <ele>138.60</ele>
        <time>2015-10-18T07:32:11Z</time>
      </trkpt>
      <trkpt lat="41.687222840" lon="2.495942730">
        <ele>140.00</ele>
        <time>2015-10-18T07:32:21Z</time>
      </trkpt>
      <trkpt lat="41.687347730" lon="2.495972740">
        <ele>140.00</ele>
        <time>2015-10-18T07:32:25Z</time>
      </trkpt>
      <trkpt lat="41.687585280" lon="2.496318070">
        <ele>140.00</ele>
        <time>2015-10-18T07:32:32Z</time>
      </trkpt>
      <trkpt lat="41.687909150" lon="2.496784360">
        <ele>138.60</ele>
        <time>2015-10-18T07:32:41Z</time>
      </trkpt>
      <trkpt lat="41.687949220" lon="2.496835070">
        <ele>138.60</ele>
        <time>2015-10-18T07:32:42Z</time>
      </trkpt>
      <trkpt lat="41.688255750" lon="2.497276290">
        <ele>138.10</ele>
        <time>2015-10-18T07:32:50Z</time>
      </trkpt>
      <trkpt lat="41.688626230" lon="2.497804940">
        <ele>137.10</ele>
        <time>2015-10-18T07:32:59Z</time>
      </trkpt>
      <trkpt lat="41.688713060" lon="2.497927400">
        <ele>136.60</ele>
        <time>2015-10-18T07:33:01Z</time>
      </trkpt>
      <trkpt lat="41.689157640" lon="2.498571380">
        <ele>135.70</ele>
        <time>2015-10-18T07:33:11Z</time>
      </trkpt>
      <trkpt lat="41.689580760" lon="2.499159700">
        <ele>135.20</ele>
        <time>2015-10-18T07:33:19Z</time>
      </trkpt>
      <trkpt lat="41.690086440" lon="2.499865800">
        <ele>134.70</ele>
        <time>2015-10-18T07:33:29Z</time>
      </trkpt>
      <trkpt lat="41.690644760" lon="2.500665180">
        <ele>134.20</ele>
        <time>2015-10-18T07:33:40Z</time>
      </trkpt>
      <trkpt lat="41.691048430" lon="2.501230790">
        <ele>133.80</ele>
        <time>2015-10-18T07:33:48Z</time>
      </trkpt>
      <trkpt lat="41.691658210" lon="2.502102170">
        <ele>132.30</ele>
        <time>2015-10-18T07:34:00Z</time>
      </trkpt>
      <trkpt lat="41.692053500" lon="2.502669370">
        <ele>132.30</ele>
        <time>2015-10-18T07:34:08Z</time>
      </trkpt>
      <trkpt lat="41.692445610" lon="2.503244460">
        <ele>131.80</ele>
        <time>2015-10-18T07:34:16Z</time>
      </trkpt>
      <trkpt lat="41.692841740" lon="2.503785760">
        <ele>131.40</ele>
        <time>2015-10-18T07:34:24Z</time>
      </trkpt>
      <trkpt lat="41.692892030" lon="2.503844350">
        <ele>131.40</ele>
        <time>2015-10-18T07:34:25Z</time>
      </trkpt>
      <trkpt lat="41.692995380" lon="2.503936630">
        <ele>130.90</ele>
        <time>2015-10-18T07:34:27Z</time>
      </trkpt>
      <trkpt lat="41.693172650" lon="2.504058170">
        <ele>130.40</ele>
        <time>2015-10-18T07:34:30Z</time>
      </trkpt>
      <trkpt lat="41.693527120" lon="2.504531830">
        <ele>129.90</ele>
        <time>2015-10-18T07:34:37Z</time>
      </trkpt>
      <trkpt lat="41.694006990" lon="2.505191150">
        <ele>130.40</ele>
        <time>2015-10-18T07:34:47Z</time>
      </trkpt>
      <trkpt lat="41.694455250" lon="2.505726000">
        <ele>130.40</ele>
        <time>2015-10-18T07:34:56Z</time>
      </trkpt>
      <trkpt lat="41.694935280" lon="2.506272750">
        <ele>129.40</ele>
        <time>2015-10-18T07:35:05Z</time>
      </trkpt>
      <trkpt lat="41.695484800" lon="2.506907180">
        <ele>128.50</ele>
        <time>2015-10-18T07:35:15Z</time>
      </trkpt>
      <trkpt lat="41.695979750" lon="2.507467850">
        <ele>128.00</ele>
        <time>2015-10-18T07:35:24Z</time>
      </trkpt>
      <trkpt lat="41.696442690" lon="2.507971600">
        <ele>128.00</ele>
        <time>2015-10-18T07:35:32Z</time>
      </trkpt>
      <trkpt lat="41.697069570" lon="2.508652380">
        <ele>127.00</ele>
        <time>2015-10-18T07:35:43Z</time>
      </trkpt>
      <trkpt lat="41.697633250" lon="2.509274820">
        <ele>127.00</ele>
        <time>2015-10-18T07:35:53Z</time>
      </trkpt>
      <trkpt lat="41.698131140" lon="2.509718390">
        <ele>125.60</ele>
        <time>2015-10-18T07:36:01Z</time>
      </trkpt>
      <trkpt lat="41.698412430" lon="2.509998680">
        <ele>125.10</ele>
        <time>2015-10-18T07:36:06Z</time>
      </trkpt>
      <trkpt lat="41.698496000" lon="2.510096240">
        <ele>125.10</ele>
        <time>2015-10-18T07:36:08Z</time>
      </trkpt>
      <trkpt lat="41.698642600" lon="2.510130020">
        <ele>124.20</ele>
        <time>2015-10-18T07:36:13Z</time>
      </trkpt>
      <trkpt lat="41.698850300" lon="2.509890220">
        <ele>124.60</ele>
        <time>2015-10-18T07:36:22Z</time>
      </trkpt>
      <trkpt lat="41.698881820" lon="2.509840010">
        <ele>125.60</ele>
        <time>2015-10-18T07:36:24Z</time>
      </trkpt>
      <trkpt lat="41.699014840" lon="2.509675300">
        <ele>127.00</ele>
        <time>2015-10-18T07:36:32Z</time>
      </trkpt>
      <trkpt lat="41.699112070" lon="2.509506330">
        <ele>128.50</ele>
        <time>2015-10-18T07:36:39Z</time>
      </trkpt>
      <trkpt lat="41.699267640" lon="2.509313290">
        <ele>129.90</ele>
        <time>2015-10-18T07:36:47Z</time>
      </trkpt>
      <trkpt lat="41.699418180" lon="2.509130480">
        <ele>131.40</ele>
        <time>2015-10-18T07:36:54Z</time>
      </trkpt>
      <trkpt lat="41.699557320" lon="2.508925460">
        <ele>132.30</ele>
        <time>2015-10-18T07:37:01Z</time>
      </trkpt>
      <trkpt lat="41.699581790" lon="2.508668720">
        <ele>134.20</ele>
        <time>2015-10-18T07:37:08Z</time>
      </trkpt>
      <trkpt lat="41.699528060" lon="2.508451800">
        <ele>135.70</ele>
        <time>2015-10-18T07:37:15Z</time>
      </trkpt>
      <trkpt lat="41.699417670" lon="2.508169080">
        <ele>136.60</ele>
        <time>2015-10-18T07:37:23Z</time>
      </trkpt>
      <trkpt lat="41.699328320" lon="2.507875710">
        <ele>138.60</ele>
        <time>2015-10-18T07:37:32Z</time>
      </trkpt>
      <trkpt lat="41.699295550" lon="2.507566590">
        <ele>141.50</ele>
        <time>2015-10-18T07:37:41Z</time>
      </trkpt>
      <trkpt lat="41.699330080" lon="2.507229130">
        <ele>143.40</ele>
        <time>2015-10-18T07:37:51Z</time>
      </trkpt>
      <trkpt lat="41.699377610" lon="2.507022430">
        <ele>143.90</ele>
        <time>2015-10-18T07:37:58Z</time>
      </trkpt>
      <trkpt lat="41.699438130" lon="2.506744400">
        <ele>143.90</ele>
        <time>2015-10-18T07:38:06Z</time>
      </trkpt>
      <trkpt lat="41.699476430" lon="2.506492530">
        <ele>144.30</ele>
        <time>2015-10-18T07:38:13Z</time>
      </trkpt>
      <trkpt lat="41.699483220" lon="2.506457070">
        <ele>144.30</ele>
        <time>2015-10-18T07:38:18Z</time>
      </trkpt>
      <trkpt lat="41.699480960" lon="2.506452800">
        <ele>144.30</ele>
        <time>2015-10-18T07:38:21Z</time>
      </trkpt>
      <trkpt lat="41.699368140" lon="2.506369480">
        <ele>144.30</ele>
        <time>2015-10-18T07:38:27Z</time>
      </trkpt>
      <trkpt lat="41.699199580" lon="2.506343410">
        <ele>142.90</ele>
        <time>2015-10-18T07:38:31Z</time>
      </trkpt>
      <trkpt lat="41.698928000" lon="2.506043340">
        <ele>141.00</ele>
        <time>2015-10-18T07:38:38Z</time>
      </trkpt>
      <trkpt lat="41.698634720" lon="2.505555600">
        <ele>139.10</ele>
        <time>2015-10-18T07:38:46Z</time>
      </trkpt>
      <trkpt lat="41.698289390" lon="2.505014800">
        <ele>138.10</ele>
        <time>2015-10-18T07:38:56Z</time>
      </trkpt>
      <trkpt lat="41.698258040" lon="2.504952350">
        <ele>138.10</ele>
        <time>2015-10-18T07:38:57Z</time>
      </trkpt>
      <trkpt lat="41.698191820" lon="2.504850430">
        <ele>137.60</ele>
        <time>2015-10-18T07:38:59Z</time>
      </trkpt>
      <trkpt lat="41.697875490" lon="2.504222790">
        <ele>135.20</ele>
        <time>2015-10-18T07:39:09Z</time>
      </trkpt>
      <trkpt lat="41.697726960" lon="2.503826160">
        <ele>134.20</ele>
        <time>2015-10-18T07:39:14Z</time>
      </trkpt>
      <trkpt lat="41.697659400" lon="2.503451070">
        <ele>133.80</ele>
        <time>2015-10-18T07:39:20Z</time>
      </trkpt>
      <trkpt lat="41.697586140" lon="2.503172120">
        <ele>135.20</ele>
        <time>2015-10-18T07:39:26Z</time>
      </trkpt>
      <trkpt lat="41.697470390" lon="2.503143710">
        <ele>135.70</ele>
        <time>2015-10-18T07:39:31Z</time>
      </trkpt>
      <trkpt lat="41.697448930" lon="2.503232050">
        <ele>137.10</ele>
        <time>2015-10-18T07:39:34Z</time>
      </trkpt>
      <trkpt lat="41.697451870" lon="2.503366750">
        <ele>138.10</ele>
        <time>2015-10-18T07:39:38Z</time>
      </trkpt>
      <trkpt lat="41.697381210" lon="2.503398680">
        <ele>139.10</ele>
        <time>2015-10-18T07:39:42Z</time>
      </trkpt>
      <trkpt lat="41.697357070" lon="2.503331630">
        <ele>139.50</ele>
        <time>2015-10-18T07:39:44Z</time>
      </trkpt>
      <trkpt lat="41.697314400" lon="2.503123840">
        <ele>141.50</ele>
        <time>2015-10-18T07:39:51Z</time>
      </trkpt>
      <trkpt lat="41.697262770" lon="2.502956710">
        <ele>142.40</ele>
        <time>2015-10-18T07:39:58Z</time>
      </trkpt>
      <trkpt lat="41.697183980" lon="2.502832230">
        <ele>145.80</ele>
        <time>2015-10-18T07:40:04Z</time>
      </trkpt>
      <trkpt lat="41.697061270" lon="2.502634760">
        <ele>147.70</ele>
        <time>2015-10-18T07:40:13Z</time>
      </trkpt>
      <trkpt lat="41.696938140" lon="2.502440880">
        <ele>148.70</ele>
        <time>2015-10-18T07:40:21Z</time>
      </trkpt>
      <trkpt lat="41.696829260" lon="2.502266040">
        <ele>150.60</ele>
        <time>2015-10-18T07:40:29Z</time>
      </trkpt>
      <trkpt lat="41.696733290" lon="2.502092360">
        <ele>151.50</ele>
        <time>2015-10-18T07:40:37Z</time>
      </trkpt>
      <trkpt lat="41.696649050" lon="2.501947360">
        <ele>153.00</ele>
        <time>2015-10-18T07:40:44Z</time>
      </trkpt>
      <trkpt lat="41.696636980" lon="2.501815680">
        <ele>154.40</ele>
        <time>2015-10-18T07:40:50Z</time>
      </trkpt>
      <trkpt lat="41.696654080" lon="2.501800760">
        <ele>154.90</ele>
        <time>2015-10-18T07:40:51Z</time>
      </trkpt>
      <trkpt lat="41.696847950" lon="2.501742420">
        <ele>155.40</ele>
        <time>2015-10-18T07:40:59Z</time>
      </trkpt>
      <trkpt lat="41.697126730" lon="2.501596160">
        <ele>156.40</ele>
        <time>2015-10-18T07:41:09Z</time>
      </trkpt>
      <trkpt lat="41.697253550" lon="2.501496750">
        <ele>158.80</ele>
        <time>2015-10-18T07:41:16Z</time>
      </trkpt>
      <trkpt lat="41.697315410" lon="2.501302200">
        <ele>159.70</ele>
        <time>2015-10-18T07:41:23Z</time>
      </trkpt>
      <trkpt lat="41.697379870" lon="2.501005400">
        <ele>161.60</ele>
        <time>2015-10-18T07:41:33Z</time>
      </trkpt>
      <trkpt lat="41.697407190" lon="2.500746730">
        <ele>163.60</ele>
        <time>2015-10-18T07:41:41Z</time>
      </trkpt>
      <trkpt lat="41.697452790" lon="2.500455460">
        <ele>165.00</ele>
        <time>2015-10-18T07:41:51Z</time>
      </trkpt>
      <trkpt lat="41.697493270" lon="2.500221610">
        <ele>166.90</ele>
        <time>2015-10-18T07:41:59Z</time>
      </trkpt>
      <trkpt lat="41.697599470" lon="2.499972500">
        <ele>168.90</ele>
        <time>2015-10-18T07:42:09Z</time>
      </trkpt>
      <trkpt lat="41.697741880" lon="2.499810980">
        <ele>168.90</ele>
        <time>2015-10-18T07:42:16Z</time>
      </trkpt>
      <trkpt lat="41.697918320" lon="2.499636720">
        <ele>168.90</ele>
        <time>2015-10-18T07:42:23Z</time>
      </trkpt>
      <trkpt lat="41.698163490" lon="2.499318120">
        <ele>168.90</ele>
        <time>2015-10-18T07:42:32Z</time>
      </trkpt>
      <trkpt lat="41.698225350" lon="2.499037750">
        <ele>169.30</ele>
        <time>2015-10-18T07:42:39Z</time>
      </trkpt>
      <trkpt lat="41.698245210" lon="2.498788890">
        <ele>171.30</ele>
        <time>2015-10-18T07:42:47Z</time>
      </trkpt>
      <trkpt lat="41.698279160" lon="2.498582950">
        <ele>172.20</ele>
        <time>2015-10-18T07:42:54Z</time>
      </trkpt>
      <trkpt lat="41.698334150" lon="2.498460070">
        <ele>172.70</ele>
        <time>2015-10-18T07:43:00Z</time>
      </trkpt>
      <trkpt lat="41.698347560" lon="2.498448000">
        <ele>173.20</ele>
        <time>2015-10-18T07:43:01Z</time>
      </trkpt>
      <trkpt lat="41.698482590" lon="2.498408270">
        <ele>174.60</ele>
        <time>2015-10-18T07:43:09Z</time>
      </trkpt>
      <trkpt lat="41.698639750" lon="2.498355120">
        <ele>175.10</ele>
        <time>2015-10-18T07:43:15Z</time>
      </trkpt>
      <trkpt lat="41.698826250" lon="2.498197460">
        <ele>176.10</ele>
        <time>2015-10-18T07:43:23Z</time>
      </trkpt>
      <trkpt lat="41.698921880" lon="2.497980540">
        <ele>177.50</ele>
        <time>2015-10-18T07:43:30Z</time>
      </trkpt>
      <trkpt lat="41.699005540" lon="2.497828240">
        <ele>178.50</ele>
        <time>2015-10-18T07:43:37Z</time>
      </trkpt>
      <trkpt lat="41.699169650" lon="2.497832850">
        <ele>179.40</ele>
        <time>2015-10-18T07:43:44Z</time>
      </trkpt>
      <trkpt lat="41.699367630" lon="2.497784480">
        <ele>180.40</ele>
        <time>2015-10-18T07:43:52Z</time>
      </trkpt>
      <trkpt lat="41.699558240" lon="2.497617430">
        <ele>182.30</ele>
        <time>2015-10-18T07:44:00Z</time>
      </trkpt>
      <trkpt lat="41.699678350" lon="2.497480470">
        <ele>183.30</ele>
        <time>2015-10-18T07:44:06Z</time>
      </trkpt>
      <trkpt lat="41.699825620" lon="2.497477120">
        <ele>184.20</ele>
        <time>2015-10-18T07:44:12Z</time>
      </trkpt>
      <trkpt lat="41.700011870" lon="2.497434880">
        <ele>184.70</ele>
        <time>2015-10-18T07:44:19Z</time>
      </trkpt>
      <trkpt lat="41.700217220" lon="2.497326330">
        <ele>186.20</ele>
        <time>2015-10-18T07:44:27Z</time>
      </trkpt>
      <trkpt lat="41.700406490" lon="2.497151900">
        <ele>187.10</ele>
        <time>2015-10-18T07:44:35Z</time>
      </trkpt>
      <trkpt lat="41.700524760" lon="2.497012180">
        <ele>187.60</ele>
        <time>2015-10-18T07:44:41Z</time>
      </trkpt>
      <trkpt lat="41.700714940" lon="2.496903970">
        <ele>189.00</ele>
        <time>2015-10-18T07:44:49Z</time>
      </trkpt>
      <trkpt lat="41.700897250" lon="2.496741520">
        <ele>191.00</ele>
        <time>2015-10-18T07:44:57Z</time>
      </trkpt>
      <trkpt lat="41.701036140" lon="2.496629960">
        <ele>191.90</ele>
        <time>2015-10-18T07:45:04Z</time>
      </trkpt>
      <trkpt lat="41.701184080" lon="2.496482690">
        <ele>192.90</ele>
        <time>2015-10-18T07:45:12Z</time>
      </trkpt>
      <trkpt lat="41.701331010" lon="2.496418150">
        <ele>193.80</ele>
        <time>2015-10-18T07:45:18Z</time>
      </trkpt>
      <trkpt lat="41.701499320" lon="2.496329720">
        <ele>194.30</ele>
        <time>2015-10-18T07:45:25Z</time>
      </trkpt>
      <trkpt lat="41.701653880" lon="2.496224950">
        <ele>195.80</ele>
        <time>2015-10-18T07:45:31Z</time>
      </trkpt>
      <trkpt lat="41.701837190" lon="2.496114060">
        <ele>196.30</ele>
        <time>2015-10-18T07:45:38Z</time>
      </trkpt>
      <trkpt lat="41.702038190" lon="2.495993190">
        <ele>197.70</ele>
        <time>2015-10-18T07:45:46Z</time>
      </trkpt>
      <trkpt lat="41.702173480" lon="2.495826720">
        <ele>198.70</ele>
        <time>2015-10-18T07:45:53Z</time>
      </trkpt>
      <trkpt lat="41.702301720" lon="2.495650280">
        <ele>199.60</ele>
        <time>2015-10-18T07:46:00Z</time>
      </trkpt>
      <trkpt lat="41.702422750" lon="2.495465800">
        <ele>201.10</ele>
        <time>2015-10-18T07:46:07Z</time>
      </trkpt>
      <trkpt lat="41.702506410" lon="2.495327330">
        <ele>202.50</ele>
        <time>2015-10-18T07:46:13Z</time>
      </trkpt>
      <trkpt lat="41.702603470" lon="2.495164050">
        <ele>204.40</ele>
        <time>2015-10-18T07:46:20Z</time>
      </trkpt>
      <trkpt lat="41.702713860" lon="2.495002030">
        <ele>205.90</ele>
        <time>2015-10-18T07:46:27Z</time>
      </trkpt>
      <trkpt lat="41.702809500" lon="2.494874540">
        <ele>207.30</ele>
        <time>2015-10-18T07:46:33Z</time>
      </trkpt>
      <trkpt lat="41.702909580" lon="2.494764490">
        <ele>208.70</ele>
        <time>2015-10-18T07:46:39Z</time>
      </trkpt>
      <trkpt lat="41.703060280" lon="2.494622240">
        <ele>210.20</ele>
        <time>2015-10-18T07:46:47Z</time>
      </trkpt>
      <trkpt lat="41.703209140" lon="2.494480000">
        <ele>212.10</ele>
        <time>2015-10-18T07:46:55Z</time>
      </trkpt>
      <trkpt lat="41.703307970" lon="2.494379840">
        <ele>213.60</ele>
        <time>2015-10-18T07:47:02Z</time>
      </trkpt>
      <trkpt lat="41.703469150" lon="2.494313620">
        <ele>214.50</ele>
        <time>2015-10-18T07:47:10Z</time>
      </trkpt>
      <trkpt lat="41.703487090" lon="2.494297280">
        <ele>214.50</ele>
        <time>2015-10-18T07:47:11Z</time>
      </trkpt>
      <trkpt lat="41.703671070" lon="2.494205750">
        <ele>215.00</ele>
        <time>2015-10-18T07:47:20Z</time>
      </trkpt>
      <trkpt lat="41.703818590" lon="2.494109360">
        <ele>216.90</ele>
        <time>2015-10-18T07:47:27Z</time>
      </trkpt>
      <trkpt lat="41.703970640" lon="2.494006510">
        <ele>218.40</ele>
        <time>2015-10-18T07:47:35Z</time>
      </trkpt>
      <trkpt lat="41.704148920" lon="2.493893020">
        <ele>220.30</ele>
        <time>2015-10-18T07:47:44Z</time>
      </trkpt>
      <trkpt lat="41.704316310" lon="2.493818340">
        <ele>222.20</ele>
        <time>2015-10-18T07:47:52Z</time>
      </trkpt>
      <trkpt lat="41.704490820" lon="2.493740970">
        <ele>222.70</ele>
        <time>2015-10-18T07:47:59Z</time>
      </trkpt>
      <trkpt lat="41.704691400" lon="2.493679360">
        <ele>223.20</ele>
        <time>2015-10-18T07:48:07Z</time>
      </trkpt>
      <trkpt lat="41.704879410" lon="2.493604010">
        <ele>224.60</ele>
        <time>2015-10-18T07:48:15Z</time>
      </trkpt>
      <trkpt lat="41.705048970" lon="2.493488760">
        <ele>227.00</ele>
        <time>2015-10-18T07:48:23Z</time>
      </trkpt>
      <trkpt lat="41.705163130" lon="2.493356240">
        <ele>228.50</ele>
        <time>2015-10-18T07:48:30Z</time>
      </trkpt>
      <trkpt lat="41.705266570" lon="2.493184830">
        <ele>229.90</ele>
        <time>2015-10-18T07:48:37Z</time>
      </trkpt>
      <trkpt lat="41.705387010" lon="2.493039320">
        <ele>231.30</ele>
        <time>2015-10-18T07:48:45Z</time>
      </trkpt>
      <trkpt lat="41.705545260" lon="2.492883000">
        <ele>231.80</ele>
        <time>2015-10-18T07:48:53Z</time>
      </trkpt>
      <trkpt lat="41.705742660" lon="2.492671100">
        <ele>232.30</ele>
        <time>2015-10-18T07:49:02Z</time>
      </trkpt>
      <trkpt lat="41.705908450" lon="2.492472540">
        <ele>233.30</ele>
        <time>2015-10-18T07:49:10Z</time>
      </trkpt>
      <trkpt lat="41.706079860" lon="2.492275560">
        <ele>234.70</ele>
        <time>2015-10-18T07:49:19Z</time>
      </trkpt>
      <trkpt lat="41.706210540" lon="2.492167100">
        <ele>234.70</ele>
        <time>2015-10-18T07:49:25Z</time>
      </trkpt>
      <trkpt lat="41.706418990" lon="2.491961330">
        <ele>234.70</ele>
        <time>2015-10-18T07:49:33Z</time>
      </trkpt>
      <trkpt lat="41.706621500" lon="2.491765270">
        <ele>235.20</ele>
        <time>2015-10-18T07:49:42Z</time>
      </trkpt>
      <trkpt lat="41.706775230" lon="2.491595040">
        <ele>236.10</ele>
        <time>2015-10-18T07:49:49Z</time>
      </trkpt>
      <trkpt lat="41.706941690" lon="2.491527650">
        <ele>236.60</ele>
        <time>2015-10-18T07:49:55Z</time>
      </trkpt>
      <trkpt lat="41.707164310" lon="2.491444830">
        <ele>237.60</ele>
        <time>2015-10-18T07:50:03Z</time>
      </trkpt>
      <trkpt lat="41.707365900" lon="2.491279540">
        <ele>238.50</ele>
        <time>2015-10-18T07:50:12Z</time>
      </trkpt>
      <trkpt lat="41.707508640" lon="2.491104020">
        <ele>240.00</ele>
        <time>2015-10-18T07:50:19Z</time>
      </trkpt>
      <trkpt lat="41.707594720" lon="2.491023310">
        <ele>241.00</ele>
        <time>2015-10-18T07:50:24Z</time>
      </trkpt>
      <trkpt lat="41.707739310" lon="2.490897660">
        <ele>242.40</ele>
        <time>2015-10-18T07:50:31Z</time>
      </trkpt>
      <trkpt lat="41.707911310" lon="2.490730440">
        <ele>242.90</ele>
        <time>2015-10-18T07:50:39Z</time>
      </trkpt>
      <trkpt lat="41.708083720" lon="2.490525840">
        <ele>244.80</ele>
        <time>2015-10-18T07:50:48Z</time>
      </trkpt>
      <trkpt lat="41.708205260" lon="2.490402210">
        <ele>246.70</ele>
        <time>2015-10-18T07:50:54Z</time>
      </trkpt>
      <trkpt lat="41.708406090" lon="2.490232980">
        <ele>247.70</ele>
        <time>2015-10-18T07:51:02Z</time>
      </trkpt>
      <trkpt lat="41.708616980" lon="2.490088640">
        <ele>247.70</ele>
        <time>2015-10-18T07:51:09Z</time>
      </trkpt>
      <trkpt lat="41.708803390" lon="2.489885630">
        <ele>247.70</ele>
        <time>2015-10-18T07:51:15Z</time>
      </trkpt>
      <trkpt lat="41.708980170" lon="2.489699050">
        <ele>246.20</ele>
        <time>2015-10-18T07:51:20Z</time>
      </trkpt>
      <trkpt lat="41.709073790" lon="2.489612380">
        <ele>246.20</ele>
        <time>2015-10-18T07:51:23Z</time>
      </trkpt>
      <trkpt lat="41.709349730" lon="2.489442730">
        <ele>243.80</ele>
        <time>2015-10-18T07:51:29Z</time>
      </trkpt>
      <trkpt lat="41.709655330" lon="2.489209380">
        <ele>241.90</ele>
        <time>2015-10-18T07:51:34Z</time>
      </trkpt>
      <trkpt lat="41.709710230" lon="2.489172250">
        <ele>241.00</ele>
        <time>2015-10-18T07:51:35Z</time>
      </trkpt>
      <trkpt lat="41.709865210" lon="2.488948530">
        <ele>241.00</ele>
        <time>2015-10-18T07:51:40Z</time>
      </trkpt>
      <trkpt lat="41.709985490" lon="2.488691130">
        <ele>242.40</ele>
        <time>2015-10-18T07:51:47Z</time>
      </trkpt>
      <trkpt lat="41.710144250" lon="2.488457770">
        <ele>242.90</ele>
        <time>2015-10-18T07:51:54Z</time>
      </trkpt>
      <trkpt lat="41.710292440" lon="2.488192400">
        <ele>242.90</ele>
        <time>2015-10-18T07:52:01Z</time>
      </trkpt>
      <trkpt lat="41.710318840" lon="2.488133060">
        <ele>242.90</ele>
        <time>2015-10-18T07:52:02Z</time>
      </trkpt>
      <trkpt lat="41.710403330" lon="2.487769870">
        <ele>242.90</ele>
        <time>2015-10-18T07:52:09Z</time>
      </trkpt>
      <trkpt lat="41.710557140" lon="2.487503580">
        <ele>243.40</ele>
        <time>2015-10-18T07:52:16Z</time>
      </trkpt>
      <trkpt lat="41.710737270" lon="2.487277270">
        <ele>245.30</ele>
        <time>2015-10-18T07:52:24Z</time>
      </trkpt>
      <trkpt lat="41.710836260" lon="2.487155640">
        <ele>246.70</ele>
        <time>2015-10-18T07:52:29Z</time>
      </trkpt>
      <trkpt lat="41.710962490" lon="2.487006030">
        <ele>249.10</ele>
        <time>2015-10-18T07:52:36Z</time>
      </trkpt>
      <trkpt lat="41.711095010" lon="2.486837300">
        <ele>250.60</ele>
        <time>2015-10-18T07:52:43Z</time>
      </trkpt>
      <trkpt lat="41.711304050" lon="2.486637560">
        <ele>251.00</ele>
        <time>2015-10-18T07:52:51Z</time>
      </trkpt>
      <trkpt lat="41.711496670" lon="2.486525580">
        <ele>252.00</ele>
        <time>2015-10-18T07:52:58Z</time>
      </trkpt>
      <trkpt lat="41.711645190" lon="2.486415270">
        <ele>253.00</ele>
        <time>2015-10-18T07:53:04Z</time>
      </trkpt>
      <trkpt lat="41.711839820" lon="2.486350230">
        <ele>253.90</ele>
        <time>2015-10-18T07:53:11Z</time>
      </trkpt>
      <trkpt lat="41.712085920" lon="2.486278980">
        <ele>256.80</ele>
        <time>2015-10-18T07:53:21Z</time>
      </trkpt>
      <trkpt lat="41.712196050" lon="2.486118300">
        <ele>257.30</ele>
        <time>2015-10-18T07:53:27Z</time>
      </trkpt>
      <trkpt lat="41.712346010" lon="2.485859640">
        <ele>258.70</ele>
        <time>2015-10-18T07:53:36Z</time>
      </trkpt>
      <trkpt lat="41.712517750" lon="2.485649250">
        <ele>260.70</ele>
        <time>2015-10-18T07:53:44Z</time>
      </trkpt>
      <trkpt lat="41.712659990" lon="2.485495940">
        <ele>262.60</ele>
        <time>2015-10-18T07:53:51Z</time>
      </trkpt>
      <trkpt lat="41.712802820" lon="2.485367110">
        <ele>265.50</ele>
        <time>2015-10-18T07:53:59Z</time>
      </trkpt>
      <trkpt lat="41.712956120" lon="2.485220930">
        <ele>268.40</ele>
        <time>2015-10-18T07:54:07Z</time>
      </trkpt>
      <trkpt lat="41.713126860" lon="2.485075510">
        <ele>271.70</ele>
        <time>2015-10-18T07:54:16Z</time>
      </trkpt>
      <trkpt lat="41.713279410" lon="2.484945500">
        <ele>271.70</ele>
        <time>2015-10-18T07:54:21Z</time>
      </trkpt>
      <trkpt lat="41.713528860" lon="2.484690020">
        <ele>269.80</ele>
        <time>2015-10-18T07:54:28Z</time>
      </trkpt>
      <trkpt lat="41.713746290" lon="2.484445520">
        <ele>271.20</ele>
        <time>2015-10-18T07:54:36Z</time>
      </trkpt>
      <trkpt lat="41.713977710" lon="2.484252320">
        <ele>271.70</ele>
        <time>2015-10-18T07:54:45Z</time>
      </trkpt>
      <trkpt lat="41.714093630" lon="2.484095410">
        <ele>272.20</ele>
        <time>2015-10-18T07:54:51Z</time>
      </trkpt>
      <trkpt lat="41.714236380" lon="2.483958540">
        <ele>272.70</ele>
        <time>2015-10-18T07:54:57Z</time>
      </trkpt>
      <trkpt lat="41.714459170" lon="2.483905480">
        <ele>274.10</ele>
        <time>2015-10-18T07:55:04Z</time>
      </trkpt>
      <trkpt lat="41.714619010" lon="2.483863320">
        <ele>276.50</ele>
        <time>2015-10-18T07:55:10Z</time>
      </trkpt>
      <trkpt lat="41.714746830" lon="2.483749070">
        <ele>278.00</ele>
        <time>2015-10-18T07:55:16Z</time>
      </trkpt>
      <trkpt lat="41.714885810" lon="2.483638260">
        <ele>278.90</ele>
        <time>2015-10-18T07:55:22Z</time>
      </trkpt>
      <trkpt lat="41.715090240" lon="2.483542880">
        <ele>280.80</ele>
        <time>2015-10-18T07:55:29Z</time>
      </trkpt>
      <trkpt lat="41.715257380" lon="2.483449670">
        <ele>281.30</ele>
        <time>2015-10-18T07:55:35Z</time>
      </trkpt>
      <trkpt lat="41.715412860" lon="2.483368280">
        <ele>283.70</ele>
        <time>2015-10-18T07:55:42Z</time>
      </trkpt>
      <trkpt lat="41.715530040" lon="2.483303070">
        <ele>285.20</ele>
        <time>2015-10-18T07:55:48Z</time>
      </trkpt>
      <trkpt lat="41.715683010" lon="2.483202070">
        <ele>287.60</ele>
        <time>2015-10-18T07:55:56Z</time>
      </trkpt>
      <trkpt lat="41.715833380" lon="2.483090420">
        <ele>289.50</ele>
        <time>2015-10-18T07:56:03Z</time>
      </trkpt>
      <trkpt lat="41.715948040" lon="2.482983050">
        <ele>292.40</ele>
        <time>2015-10-18T07:56:10Z</time>
      </trkpt>
      <trkpt lat="41.716061870" lon="2.482841400">
        <ele>294.80</ele>
        <time>2015-10-18T07:56:17Z</time>
      </trkpt>
      <trkpt lat="41.716169750" lon="2.482678950">
        <ele>297.20</ele>
        <time>2015-10-18T07:56:25Z</time>
      </trkpt>
      <trkpt lat="41.716325650" lon="2.482556490">
        <ele>298.60</ele>
        <time>2015-10-18T07:56:33Z</time>
      </trkpt>
      <trkpt lat="41.716499240" lon="2.482441750">
        <ele>299.10</ele>
        <time>2015-10-18T07:56:41Z</time>
      </trkpt>
      <trkpt lat="41.716598150" lon="2.482389110">
        <ele>299.60</ele>
        <time>2015-10-18T07:56:46Z</time>
      </trkpt>
      <trkpt lat="41.716794370" lon="2.482363630">
        <ele>301.00</ele>
        <time>2015-10-18T07:56:55Z</time>
      </trkpt>
      <trkpt lat="41.716955380" lon="2.482353990">
        <ele>303.00</ele>
        <time>2015-10-18T07:57:03Z</time>
      </trkpt>
      <trkpt lat="41.717116060" lon="2.482425230">
        <ele>303.40</ele>
        <time>2015-10-18T07:57:11Z</time>
      </trkpt>
      <trkpt lat="41.717243640" lon="2.482564880">
        <ele>303.90</ele>
        <time>2015-10-18T07:57:17Z</time>
      </trkpt>
      <trkpt lat="41.717393500" lon="2.482685410">
        <ele>304.40</ele>
        <time>2015-10-18T07:57:23Z</time>
      </trkpt>
      <trkpt lat="41.717606910" lon="2.482762940">
        <ele>305.80</ele>
        <time>2015-10-18T07:57:31Z</time>
      </trkpt>
      <trkpt lat="41.717757450" lon="2.482727650">
        <ele>306.80</ele>
        <time>2015-10-18T07:57:37Z</time>
      </trkpt>
      <trkpt lat="41.717841430" lon="2.482583570">
        <ele>309.20</ele>
        <time>2015-10-18T07:57:43Z</time>
      </trkpt>
      <trkpt lat="41.717932960" lon="2.482398580">
        <ele>311.10</ele>
        <time>2015-10-18T07:57:50Z</time>
      </trkpt>
      <trkpt lat="41.718018960" lon="2.482285590">
        <ele>311.60</ele>
        <time>2015-10-18T07:57:55Z</time>
      </trkpt>
      <trkpt lat="41.718156010" lon="2.482040500">
        <ele>312.60</ele>
        <time>2015-10-18T07:58:03Z</time>
      </trkpt>
      <trkpt lat="41.718255500" lon="2.481796420">
        <ele>312.60</ele>
        <time>2015-10-18T07:58:10Z</time>
      </trkpt>
      <trkpt lat="41.718425400" lon="2.481469780">
        <ele>312.60</ele>
        <time>2015-10-18T07:58:18Z</time>
      </trkpt>
      <trkpt lat="41.718565710" lon="2.481335840">
        <ele>312.60</ele>
        <time>2015-10-18T07:58:23Z</time>
      </trkpt>
      <trkpt lat="41.718771660" lon="2.481227800">
        <ele>313.10</ele>
        <time>2015-10-18T07:58:29Z</time>
      </trkpt>
      <trkpt lat="41.718887580" lon="2.481133330">
        <ele>313.10</ele>
        <time>2015-10-18T07:58:32Z</time>
      </trkpt>
      <trkpt lat="41.719112050" lon="2.480980280">
        <ele>312.10</ele>
        <time>2015-10-18T07:58:37Z</time>
      </trkpt>
      <trkpt lat="41.719294180" lon="2.480843820">
        <ele>311.60</ele>
        <time>2015-10-18T07:58:41Z</time>
      </trkpt>
      <trkpt lat="41.719567270" lon="2.480687670">
        <ele>311.60</ele>
        <time>2015-10-18T07:58:47Z</time>
      </trkpt>
      <trkpt lat="41.719691570" lon="2.480628410">
        <ele>311.60</ele>
        <time>2015-10-18T07:58:50Z</time>
      </trkpt>
      <trkpt lat="41.720008910" lon="2.480565880">
        <ele>311.60</ele>
        <time>2015-10-18T07:58:58Z</time>
      </trkpt>
      <trkpt lat="41.720264890" lon="2.480519610">
        <ele>312.60</ele>
        <time>2015-10-18T07:59:04Z</time>
      </trkpt>
      <trkpt lat="41.720437060" lon="2.480436800">
        <ele>314.50</ele>
        <time>2015-10-18T07:59:09Z</time>
      </trkpt>
      <trkpt lat="41.720591120" lon="2.480316100">
        <ele>315.50</ele>
        <time>2015-10-18T07:59:15Z</time>
      </trkpt>
      <trkpt lat="41.720838720" lon="2.480134120">
        <ele>316.40</ele>
        <time>2015-10-18T07:59:23Z</time>
      </trkpt>
      <trkpt lat="41.721122780" lon="2.480040330">
        <ele>317.40</ele>
        <time>2015-10-18T07:59:30Z</time>
      </trkpt>
      <trkpt lat="41.721360070" lon="2.479913600">
        <ele>319.30</ele>
        <time>2015-10-18T07:59:37Z</time>
      </trkpt>
      <trkpt lat="41.721652100" lon="2.479709330">
        <ele>322.20</ele>
        <time>2015-10-18T07:59:48Z</time>
      </trkpt>
      <trkpt lat="41.721899280" lon="2.479576640">
        <ele>324.10</ele>
        <time>2015-10-18T07:59:57Z</time>
      </trkpt>
      <trkpt lat="41.722091560" lon="2.479444130">
        <ele>326.00</ele>
        <time>2015-10-18T08:00:05Z</time>
      </trkpt>
      <trkpt lat="41.722238910" lon="2.479290570">
        <ele>328.90</ele>
        <time>2015-10-18T08:00:13Z</time>
      </trkpt>
      <trkpt lat="41.722366240" lon="2.479140950">
        <ele>331.30</ele>
        <time>2015-10-18T08:00:21Z</time>
      </trkpt>
      <trkpt lat="41.722480400" lon="2.478982280">
        <ele>333.20</ele>
        <time>2015-10-18T08:00:29Z</time>
      </trkpt>
      <trkpt lat="41.722550550" lon="2.478860240">
        <ele>335.20</ele>
        <time>2015-10-18T08:00:35Z</time>
      </trkpt>
      <trkpt lat="41.722715510" lon="2.478642150">
        <ele>337.10</ele>
        <time>2015-10-18T08:00:46Z</time>
      </trkpt>
      <trkpt lat="41.722865290" lon="2.478485990">
        <ele>338.50</ele>
        <time>2015-10-18T08:00:55Z</time>
      </trkpt>
      <trkpt lat="41.722969310" lon="2.478302680">
        <ele>340.00</ele>
        <time>2015-10-18T08:01:03Z</time>
      </trkpt>
      <trkpt lat="41.723096470" lon="2.478031190">
        <ele>340.90</ele>
        <time>2015-10-18T08:01:14Z</time>
      </trkpt>
      <trkpt lat="41.723208530" lon="2.477765150">
        <ele>342.40</ele>
        <time>2015-10-18T08:01:25Z</time>
      </trkpt>
      <trkpt lat="41.723315990" lon="2.477551830">
        <ele>343.30</ele>
        <time>2015-10-18T08:01:34Z</time>
      </trkpt>
      <trkpt lat="41.723424790" lon="2.477385360">
        <ele>345.30</ele>
        <time>2015-10-18T08:01:42Z</time>
      </trkpt>
      <trkpt lat="41.723577090" lon="2.477137930">
        <ele>348.10</ele>
        <time>2015-10-18T08:01:54Z</time>
      </trkpt>
      <trkpt lat="41.723685040" lon="2.476957720">
        <ele>350.50</ele>
        <time>2015-10-18T08:02:03Z</time>
      </trkpt>
      <trkpt lat="41.723772300" lon="2.476696450">
        <ele>352.50</ele>
        <time>2015-10-18T08:02:12Z</time>
      </trkpt>
      <trkpt lat="41.723836170" lon="2.476539800">
        <ele>353.40</ele>
        <time>2015-10-18T08:02:18Z</time>
      </trkpt>
      <trkpt lat="41.723930720" lon="2.476302090">
        <ele>355.30</ele>
        <time>2015-10-18T08:02:27Z</time>
      </trkpt>
      <trkpt lat="41.724000290" lon="2.476156070">
        <ele>355.80</ele>
        <time>2015-10-18T08:02:33Z</time>
      </trkpt>
      <trkpt lat="41.724070030" lon="2.475934200">
        <ele>355.80</ele>
        <time>2015-10-18T08:02:39Z</time>
      </trkpt>
      <trkpt lat="41.724137330" lon="2.475608400">
        <ele>353.90</ele>
        <time>2015-10-18T08:02:46Z</time>
      </trkpt>
      <trkpt lat="41.724188290" lon="2.475309330">
        <ele>352.90</ele>
        <time>2015-10-18T08:02:52Z</time>
      </trkpt>
      <trkpt lat="41.724216460" lon="2.475101380">
        <ele>352.00</ele>
        <time>2015-10-18T08:02:56Z</time>
      </trkpt>
      <trkpt lat="41.724318300" lon="2.474635850">
        <ele>349.10</ele>
        <time>2015-10-18T08:03:03Z</time>
      </trkpt>
      <trkpt lat="41.724340430" lon="2.474428230">
        <ele>348.10</ele>
        <time>2015-10-18T08:03:05Z</time>
      </trkpt>
      <trkpt lat="41.724332290" lon="2.473887510">
        <ele>345.30</ele>
        <time>2015-10-18T08:03:10Z</time>
      </trkpt>
      <trkpt lat="41.724422820" lon="2.473480740">
        <ele>344.30</ele>
        <time>2015-10-18T08:03:14Z</time>
      </trkpt>
      <trkpt lat="41.724481410" lon="2.473311510">
        <ele>344.30</ele>
        <time>2015-10-18T08:03:16Z</time>
      </trkpt>
      <trkpt lat="41.724505720" lon="2.473054690">
        <ele>346.20</ele>
        <time>2015-10-18T08:03:21Z</time>
      </trkpt>
      <trkpt lat="41.724472110" lon="2.472983690">
        <ele>346.70</ele>
        <time>2015-10-18T08:03:24Z</time>
      </trkpt>
      <trkpt lat="41.724380570" lon="2.472792160">
        <ele>348.60</ele>
        <time>2015-10-18T08:03:32Z</time>
      </trkpt>
      <trkpt lat="41.724265990" lon="2.472637690">
        <ele>350.50</ele>
        <time>2015-10-18T08:03:39Z</time>
      </trkpt>
      <trkpt lat="41.724093910" lon="2.472482700">
        <ele>352.00</ele>
        <time>2015-10-18T08:03:48Z</time>
      </trkpt>
      <trkpt lat="41.723929540" lon="2.472379270">
        <ele>353.90</ele>
        <time>2015-10-18T08:03:57Z</time>
      </trkpt>
      <trkpt lat="41.723846560" lon="2.472304920">
        <ele>354.90</ele>
        <time>2015-10-18T08:04:02Z</time>
      </trkpt>
      <trkpt lat="41.723855450" lon="2.472165280">
        <ele>354.90</ele>
        <time>2015-10-18T08:04:08Z</time>
      </trkpt>
      <trkpt lat="41.723868610" lon="2.472148270">
        <ele>354.90</ele>
        <time>2015-10-18T08:04:09Z</time>
      </trkpt>
      <trkpt lat="41.723953850" lon="2.471990850">
        <ele>356.30</ele>
        <time>2015-10-18T08:04:18Z</time>
      </trkpt>
      <trkpt lat="41.723996260" lon="2.471851800">
        <ele>357.30</ele>
        <time>2015-10-18T08:04:24Z</time>
      </trkpt>
      <trkpt lat="41.724069610" lon="2.471722300">
        <ele>359.20</ele>
        <time>2015-10-18T08:04:31Z</time>
      </trkpt>
      <trkpt lat="41.724093910" lon="2.471669740">
        <ele>359.70</ele>
        <time>2015-10-18T08:04:34Z</time>
      </trkpt>
      <trkpt lat="41.724146890" lon="2.471485510">
        <ele>361.10</ele>
        <time>2015-10-18T08:04:42Z</time>
      </trkpt>
      <trkpt lat="41.724232970" lon="2.471280150">
        <ele>363.50</ele>
        <time>2015-10-18T08:04:52Z</time>
      </trkpt>
      <trkpt lat="41.724246460" lon="2.471212680">
        <ele>364.00</ele>
        <time>2015-10-18T08:04:55Z</time>
      </trkpt>
      <trkpt lat="41.724286190" lon="2.471076890">
        <ele>366.40</ele>
        <time>2015-10-18T08:05:03Z</time>
      </trkpt>
      <trkpt lat="41.724323490" lon="2.470968430">
        <ele>368.80</ele>
        <time>2015-10-18T08:05:10Z</time>
      </trkpt>
      <trkpt lat="41.724370940" lon="2.470805900">
        <ele>370.70</ele>
        <time>2015-10-18T08:05:19Z</time>
      </trkpt>
      <trkpt lat="41.724417460" lon="2.470675570">
        <ele>372.70</ele>
        <time>2015-10-18T08:05:28Z</time>
      </trkpt>
      <trkpt lat="41.724422570" lon="2.470661070">
        <ele>372.70</ele>
        <time>2015-10-18T08:05:29Z</time>
      </trkpt>
      <trkpt lat="41.724444190" lon="2.470587560">
        <ele>373.10</ele>
        <time>2015-10-18T08:05:33Z</time>
      </trkpt>
      <trkpt lat="41.724456850" lon="2.470526700">
        <ele>373.10</ele>
        <time>2015-10-18T08:05:36Z</time>
      </trkpt>
      <trkpt lat="41.724379650" lon="2.470434920">
        <ele>373.60</ele>
        <time>2015-10-18T08:05:41Z</time>
      </trkpt>
      <trkpt lat="41.724328940" lon="2.470383210">
        <ele>372.70</ele>
        <time>2015-10-18T08:05:43Z</time>
      </trkpt>
      <trkpt lat="41.724201700" lon="2.470238790">
        <ele>372.70</ele>
        <time>2015-10-18T08:05:47Z</time>
      </trkpt>
      <trkpt lat="41.724101290" lon="2.470133170">
        <ele>371.70</ele>
        <time>2015-10-18T08:05:50Z</time>
      </trkpt>
      <trkpt lat="41.723969860" lon="2.469945250">
        <ele>369.76</ele>
        <time>2015-10-18T08:05:55Z</time>
      </trkpt>
      <trkpt lat="41.723682700" lon="2.469621540">
        <ele>365.92</ele>
        <time>2015-10-18T08:06:02Z</time>
      </trkpt>
      <trkpt lat="41.723644640" lon="2.469573510">
        <ele>365.92</ele>
        <time>2015-10-18T08:06:03Z</time>
      </trkpt>
      <trkpt lat="41.723580770" lon="2.469468740">
        <ele>364.48</ele>
        <time>2015-10-18T08:06:05Z</time>
      </trkpt>
      <trkpt lat="41.723480110" lon="2.469214180">
        <ele>362.07</ele>
        <time>2015-10-18T08:06:09Z</time>
      </trkpt>
      <trkpt lat="41.723326890" lon="2.468904050">
        <ele>360.15</ele>
        <time>2015-10-18T08:06:13Z</time>
      </trkpt>
      <trkpt lat="41.723235440" lon="2.468762480">
        <ele>359.67</ele>
        <time>2015-10-18T08:06:15Z</time>
      </trkpt>
      <trkpt lat="41.722960010" lon="2.468543380">
        <ele>359.19</ele>
        <time>2015-10-18T08:06:20Z</time>
      </trkpt>
      <trkpt lat="41.722587940" lon="2.468410860">
        <ele>358.23</ele>
        <time>2015-10-18T08:06:26Z</time>
      </trkpt>
      <trkpt lat="41.722317540" lon="2.468382860">
        <ele>355.83</ele>
        <time>2015-10-18T08:06:30Z</time>
      </trkpt>
      <trkpt lat="41.721868350" lon="2.468442210">
        <ele>352.46</ele>
        <time>2015-10-18T08:06:37Z</time>
      </trkpt>
      <trkpt lat="41.721813950" lon="2.468453610">
        <ele>351.98</ele>
        <time>2015-10-18T08:06:38Z</time>
      </trkpt>
      <trkpt lat="41.721578250" lon="2.468605320">
        <ele>347.65</ele>
        <time>2015-10-18T08:06:43Z</time>
      </trkpt>
      <trkpt lat="41.721436010" lon="2.468657290">
        <ele>344.77</ele>
        <time>2015-10-18T08:06:46Z</time>
      </trkpt>
      <trkpt lat="41.721339450" lon="2.468651670">
        <ele>343.33</ele>
        <time>2015-10-18T08:06:48Z</time>
      </trkpt>
      <trkpt lat="41.721184390" lon="2.468665170">
        <ele>340.44</ele>
        <time>2015-10-18T08:06:51Z</time>
      </trkpt>
      <trkpt lat="41.720999820" lon="2.468536000">
        <ele>336.12</ele>
        <time>2015-10-18T08:06:56Z</time>
      </trkpt>
      <trkpt lat="41.720982220" lon="2.468431980">
        <ele>334.20</ele>
        <time>2015-10-18T08:06:59Z</time>
      </trkpt>
      <trkpt lat="41.720929830" lon="2.468372970">
        <ele>332.27</ele>
        <time>2015-10-18T08:07:03Z</time>
      </trkpt>
      <trkpt lat="41.720897640" lon="2.468433660">
        <ele>331.79</ele>
        <time>2015-10-18T08:07:06Z</time>
      </trkpt>
      <trkpt lat="41.720895130" lon="2.468731300">
        <ele>328.43</ele>
        <time>2015-10-18T08:07:12Z</time>
      </trkpt>
      <trkpt lat="41.720870230" lon="2.468819140">
        <ele>327.47</ele>
        <time>2015-10-18T08:07:14Z</time>
      </trkpt>
      <trkpt lat="41.720709300" lon="2.468963810">
        <ele>325.06</ele>
        <time>2015-10-18T08:07:18Z</time>
      </trkpt>
      <trkpt lat="41.720345440" lon="2.469133800">
        <ele>320.74</ele>
        <time>2015-10-18T08:07:24Z</time>
      </trkpt>
      <trkpt lat="41.720226170" lon="2.469147960">
        <ele>319.78</ele>
        <time>2015-10-18T08:07:26Z</time>
      </trkpt>
      <trkpt lat="41.720058360" lon="2.469098090">
        <ele>318.33</ele>
        <time>2015-10-18T08:07:29Z</time>
      </trkpt>
      <trkpt lat="41.719702970" lon="2.468948810">
        <ele>316.89</ele>
        <time>2015-10-18T08:07:36Z</time>
      </trkpt>
      <trkpt lat="41.719671540" lon="2.468938750">
        <ele>316.89</ele>
        <time>2015-10-18T08:07:37Z</time>
      </trkpt>
      <trkpt lat="41.719607160" lon="2.468932050">
        <ele>316.41</ele>
        <time>2015-10-18T08:07:43Z</time>
      </trkpt>
      <trkpt lat="41.719600380" lon="2.468929530">
        <ele>316.41</ele>
        <time>2015-10-18T08:07:51Z</time>
      </trkpt>
      <trkpt lat="41.719612780" lon="2.468869600">
        <ele>316.41</ele>
        <time>2015-10-18T08:07:59Z</time>
      </trkpt>
      <trkpt lat="41.719606910" lon="2.468873710">
        <ele>316.41</ele>
        <time>2015-10-18T08:08:12Z</time>
      </trkpt>
      <trkpt lat="41.719611190" lon="2.468870100">
        <ele>316.41</ele>
        <time>2015-10-18T08:08:44Z</time>
      </trkpt>
      <trkpt lat="41.719612450" lon="2.468871190">
        <ele>316.41</ele>
        <time>2015-10-18T08:09:04Z</time>
      </trkpt>
      <trkpt lat="41.719615210" lon="2.468866840">
        <ele>315.93</ele>
        <time>2015-10-18T08:09:32Z</time>
      </trkpt>
      <trkpt lat="41.719625940" lon="2.468876470">
        <ele>315.93</ele>
        <time>2015-10-18T08:10:05Z</time>
      </trkpt>
      <trkpt lat="41.719632730" lon="2.468881000">
        <ele>315.93</ele>
        <time>2015-10-18T08:10:26Z</time>
      </trkpt>
      <trkpt lat="41.719635580" lon="2.468878740">
        <ele>315.93</ele>
        <time>2015-10-18T08:10:53Z</time>
      </trkpt>
      <trkpt lat="41.719632900" lon="2.468877060">
        <ele>315.93</ele>
        <time>2015-10-18T08:11:12Z</time>
      </trkpt>
      <trkpt lat="41.719632900" lon="2.468874710">
        <ele>315.45</ele>
        <time>2015-10-18T08:11:26Z</time>
      </trkpt>
      <trkpt lat="41.719638680" lon="2.468881340">
        <ele>314.97</ele>
        <time>2015-10-18T08:11:47Z</time>
      </trkpt>
      <trkpt lat="41.719644380" lon="2.468880080">
        <ele>314.97</ele>
        <time>2015-10-18T08:12:03Z</time>
      </trkpt>
      <trkpt lat="41.719643290" lon="2.468882260">
        <ele>314.97</ele>
        <time>2015-10-18T08:12:25Z</time>
      </trkpt>
      <trkpt lat="41.719641200" lon="2.468875130">
        <ele>314.97</ele>
        <time>2015-10-18T08:12:55Z</time>
      </trkpt>
      <trkpt lat="41.719643790" lon="2.468858540">
        <ele>314.97</ele>
        <time>2015-10-18T08:13:20Z</time>
      </trkpt>
      <trkpt lat="41.719650000" lon="2.468861300">
        <ele>314.97</ele>
        <time>2015-10-18T08:13:33Z</time>
      </trkpt>
      <trkpt lat="41.719647650" lon="2.468863400">
        <ele>314.97</ele>
        <time>2015-10-18T08:13:54Z</time>
      </trkpt>
      <trkpt lat="41.719644460" lon="2.468875720">
        <ele>314.49</ele>
        <time>2015-10-18T08:14:17Z</time>
      </trkpt>
      <trkpt lat="41.719658710" lon="2.468875380">
        <ele>314.49</ele>
        <time>2015-10-18T08:14:46Z</time>
      </trkpt>
      <trkpt lat="41.719662490" lon="2.468881590">
        <ele>314.49</ele>
        <time>2015-10-18T08:15:12Z</time>
      </trkpt>
      <trkpt lat="41.719658130" lon="2.468879740">
        <ele>314.49</ele>
        <time>2015-10-18T08:15:29Z</time>
      </trkpt>
      <trkpt lat="41.719654860" lon="2.468884020">
        <ele>314.49</ele>
        <time>2015-10-18T08:15:49Z</time>
      </trkpt>
      <trkpt lat="41.719645640" lon="2.468898520">
        <ele>314.49</ele>
        <time>2015-10-18T08:16:03Z</time>
      </trkpt>
      <trkpt lat="41.719638090" lon="2.468904640">
        <ele>314.49</ele>
        <time>2015-10-18T08:16:27Z</time>
      </trkpt>
      <trkpt lat="41.719638180" lon="2.468886030">
        <ele>314.49</ele>
        <time>2015-10-18T08:16:49Z</time>
      </trkpt>
      <trkpt lat="41.719628620" lon="2.468876060">
        <ele>314.49</ele>
        <time>2015-10-18T08:17:05Z</time>
      </trkpt>
      <trkpt lat="41.719631050" lon="2.468870360">
        <ele>314.49</ele>
        <time>2015-10-18T08:17:23Z</time>
      </trkpt>
      <trkpt lat="41.719635330" lon="2.468873290">
        <ele>314.49</ele>
        <time>2015-10-18T08:17:42Z</time>
      </trkpt>
      <trkpt lat="41.719632730" lon="2.468881840">
        <ele>314.49</ele>
        <time>2015-10-18T08:18:05Z</time>
      </trkpt>
      <trkpt lat="41.719637420" lon="2.468887370">
        <ele>314.49</ele>
        <time>2015-10-18T08:18:24Z</time>
      </trkpt>
      <trkpt lat="41.719644380" lon="2.468893910">
        <ele>314.49</ele>
        <time>2015-10-18T08:18:49Z</time>
      </trkpt>
      <trkpt lat="41.719641450" lon="2.468886700">
        <ele>314.49</ele>
        <time>2015-10-18T08:19:11Z</time>
      </trkpt>
      <trkpt lat="41.719632230" lon="2.468885780">
        <ele>314.49</ele>
        <time>2015-10-18T08:19:30Z</time>
      </trkpt>
      <trkpt lat="41.719630470" lon="2.468877480">
        <ele>314.49</ele>
        <time>2015-10-18T08:19:58Z</time>
      </trkpt>
      <trkpt lat="41.719625020" lon="2.468891390">
        <ele>314.49</ele>
        <time>2015-10-18T08:20:14Z</time>
      </trkpt>
      <trkpt lat="41.719608590" lon="2.468887450">
        <ele>314.49</ele>
        <time>2015-10-18T08:20:19Z</time>
      </trkpt>
      <trkpt lat="41.719609510" lon="2.468883600">
        <ele>314.49</ele>
        <time>2015-10-18T08:20:32Z</time>
      </trkpt>
      <trkpt lat="41.719602300" lon="2.468890220">
        <ele>314.49</ele>
        <time>2015-10-18T08:20:43Z</time>
      </trkpt>
      <trkpt lat="41.719597780" lon="2.468892820">
        <ele>314.49</ele>
        <time>2015-10-18T08:20:47Z</time>
      </trkpt>
      <trkpt lat="41.719576990" lon="2.468903800">
        <ele>314.49</ele>
        <time>2015-10-18T08:20:54Z</time>
      </trkpt>
      <trkpt lat="41.719550750" lon="2.468917800">
        <ele>314.49</ele>
        <time>2015-10-18T08:21:02Z</time>
      </trkpt>
      <trkpt lat="41.719444560" lon="2.468915870">
        <ele>314.49</ele>
        <time>2015-10-18T08:21:10Z</time>
      </trkpt>
      <trkpt lat="41.719410190" lon="2.468917210">
        <ele>314.49</ele>
        <time>2015-10-18T08:21:12Z</time>
      </trkpt>
      <trkpt lat="41.719245900" lon="2.468912100">
        <ele>314.01</ele>
        <time>2015-10-18T08:21:20Z</time>
      </trkpt>
      <trkpt lat="41.719088910" lon="2.468911590">
        <ele>314.01</ele>
        <time>2015-10-18T08:21:27Z</time>
      </trkpt>
      <trkpt lat="41.718893280" lon="2.468920650">
        <ele>314.01</ele>
        <time>2015-10-18T08:21:35Z</time>
      </trkpt>
      <trkpt lat="41.718742320" lon="2.468938920">
        <ele>314.01</ele>
        <time>2015-10-18T08:21:42Z</time>
      </trkpt>
      <trkpt lat="41.718586920" lon="2.468975460">
        <ele>314.97</ele>
        <time>2015-10-18T08:21:49Z</time>
      </trkpt>
      <trkpt lat="41.718317940" lon="2.469024920">
        <ele>314.97</ele>
        <time>2015-10-18T08:21:57Z</time>
      </trkpt>
      <trkpt lat="41.717964650" lon="2.469078140">
        <ele>311.60</ele>
        <time>2015-10-18T08:22:04Z</time>
      </trkpt>
      <trkpt lat="41.717702290" lon="2.469092060">
        <ele>309.68</ele>
        <time>2015-10-18T08:22:08Z</time>
      </trkpt>
      <trkpt lat="41.717484870" lon="2.469111170">
        <ele>307.28</ele>
        <time>2015-10-18T08:22:11Z</time>
      </trkpt>
      <trkpt lat="41.717280600" lon="2.469183500">
        <ele>305.84</ele>
        <time>2015-10-18T08:22:14Z</time>
      </trkpt>
      <trkpt lat="41.717074240" lon="2.469244020">
        <ele>304.39</ele>
        <time>2015-10-18T08:22:17Z</time>
      </trkpt>
      <trkpt lat="41.716963340" lon="2.469309060">
        <ele>303.43</ele>
        <time>2015-10-18T08:22:19Z</time>
      </trkpt>
      <trkpt lat="41.716627730" lon="2.469375370">
        <ele>299.59</ele>
        <time>2015-10-18T08:22:24Z</time>
      </trkpt>
      <trkpt lat="41.716507370" lon="2.469383580">
        <ele>297.67</ele>
        <time>2015-10-18T08:22:26Z</time>
      </trkpt>
      <trkpt lat="41.716250630" lon="2.469542920">
        <ele>294.30</ele>
        <time>2015-10-18T08:22:31Z</time>
      </trkpt>
      <trkpt lat="41.715967570" lon="2.469665970">
        <ele>291.90</ele>
        <time>2015-10-18T08:22:35Z</time>
      </trkpt>
      <trkpt lat="41.715531970" lon="2.469832430">
        <ele>287.57</ele>
        <time>2015-10-18T08:22:41Z</time>
      </trkpt>
      <trkpt lat="41.715228120" lon="2.469890180">
        <ele>284.69</ele>
        <time>2015-10-18T08:22:46Z</time>
      </trkpt>
      <trkpt lat="41.715060400" lon="2.469955140">
        <ele>282.28</ele>
        <time>2015-10-18T08:22:49Z</time>
      </trkpt>
      <trkpt lat="41.714956550" lon="2.469977350">
        <ele>280.84</ele>
        <time>2015-10-18T08:22:51Z</time>
      </trkpt>
      <trkpt lat="41.714731500" lon="2.469972160">
        <ele>277.48</ele>
        <time>2015-10-18T08:22:56Z</time>
      </trkpt>
      <trkpt lat="41.714712470" lon="2.470118340">
        <ele>275.10</ele>
        <time>2015-10-18T08:23:01Z</time>
      </trkpt>
      <trkpt lat="41.714724290" lon="2.470147090">
        <ele>275.60</ele>
        <time>2015-10-18T08:23:02Z</time>
      </trkpt>
      <trkpt lat="41.714841720" lon="2.470395190">
        <ele>271.70</ele>
        <time>2015-10-18T08:23:09Z</time>
      </trkpt>
      <trkpt lat="41.714996780" lon="2.470507010">
        <ele>270.30</ele>
        <time>2015-10-18T08:23:14Z</time>
      </trkpt>
      <trkpt lat="41.715126370" lon="2.470573890">
        <ele>269.80</ele>
        <time>2015-10-18T08:23:18Z</time>
      </trkpt>
      <trkpt lat="41.715340360" lon="2.470673550">
        <ele>268.80</ele>
        <time>2015-10-18T08:23:23Z</time>
      </trkpt>
      <trkpt lat="41.715548980" lon="2.470853770">
        <ele>265.50</ele>
        <time>2015-10-18T08:23:29Z</time>
      </trkpt>
      <trkpt lat="41.715662640" lon="2.470910260">
        <ele>263.10</ele>
        <time>2015-10-18T08:23:32Z</time>
      </trkpt>
      <trkpt lat="41.715917030" lon="2.470888210">
        <ele>259.70</ele>
        <time>2015-10-18T08:23:39Z</time>
      </trkpt>
      <trkpt lat="41.716007390" lon="2.470953930">
        <ele>257.80</ele>
        <time>2015-10-18T08:23:43Z</time>
      </trkpt>
      <trkpt lat="41.716099840" lon="2.470982180">
        <ele>257.30</ele>
        <time>2015-10-18T08:23:49Z</time>
      </trkpt>
      <trkpt lat="41.716114010" lon="2.470982090">
        <ele>257.30</ele>
        <time>2015-10-18T08:23:50Z</time>
      </trkpt>
      <trkpt lat="41.716204450" lon="2.470918810">
        <ele>257.30</ele>
        <time>2015-10-18T08:23:55Z</time>
      </trkpt>
      <trkpt lat="41.716225570" lon="2.470854690">
        <ele>259.70</ele>
        <time>2015-10-18T08:23:58Z</time>
      </trkpt>
      <trkpt lat="41.716299000" lon="2.470699290">
        <ele>262.10</ele>
        <time>2015-10-18T08:24:06Z</time>
      </trkpt>
      <trkpt lat="41.716368900" lon="2.470632990">
        <ele>263.50</ele>
        <time>2015-10-18T08:24:11Z</time>
      </trkpt>
      <trkpt lat="41.716524970" lon="2.470593590">
        <ele>265.90</ele>
        <time>2015-10-18T08:24:20Z</time>
      </trkpt>
      <trkpt lat="41.716624210" lon="2.470552770">
        <ele>267.90</ele>
        <time>2015-10-18T08:24:27Z</time>
      </trkpt>
      <trkpt lat="41.716745160" lon="2.470540450">
        <ele>268.80</ele>
        <time>2015-10-18T08:24:34Z</time>
      </trkpt>
      <trkpt lat="41.716898390" lon="2.470484210">
        <ele>268.80</ele>
        <time>2015-10-18T08:24:41Z</time>
      </trkpt>
      <trkpt lat="41.717051100" lon="2.470468030">
        <ele>267.40</ele>
        <time>2015-10-18T08:24:46Z</time>
      </trkpt>
      <trkpt lat="41.717089660" lon="2.470473140">
        <ele>266.90</ele>
        <time>2015-10-18T08:24:47Z</time>
      </trkpt>
      <trkpt lat="41.717348490" lon="2.470520420">
        <ele>263.50</ele>
        <time>2015-10-18T08:24:54Z</time>
      </trkpt>
      <trkpt lat="41.717504820" lon="2.470485380">
        <ele>260.20</ele>
        <time>2015-10-18T08:24:59Z</time>
      </trkpt>
      <trkpt lat="41.717594080" lon="2.470508010">
        <ele>258.70</ele>
        <time>2015-10-18T08:25:02Z</time>
      </trkpt>
      <trkpt lat="41.717686540" lon="2.470606080">
        <ele>255.90</ele>
        <time>2015-10-18T08:25:06Z</time>
      </trkpt>
      <trkpt lat="41.717795000" lon="2.470709510">
        <ele>253.00</ele>
        <time>2015-10-18T08:25:10Z</time>
      </trkpt>
      <trkpt lat="41.717811680" lon="2.470747990">
        <ele>253.00</ele>
        <time>2015-10-18T08:25:11Z</time>
      </trkpt>
      <trkpt lat="41.717822830" lon="2.470782180">
        <ele>252.00</ele>
        <time>2015-10-18T08:25:12Z</time>
      </trkpt>
      <trkpt lat="41.717752330" lon="2.470875980">
        <ele>251.50</ele>
        <time>2015-10-18T08:25:17Z</time>
      </trkpt>
      <trkpt lat="41.717641270" lon="2.470947890">
        <ele>251.50</ele>
        <time>2015-10-18T08:25:23Z</time>
      </trkpt>
      <trkpt lat="41.717623000" lon="2.471163900">
        <ele>253.00</ele>
        <time>2015-10-18T08:25:30Z</time>
      </trkpt>
      <trkpt lat="41.717535330" lon="2.471236230">
        <ele>254.40</ele>
        <time>2015-10-18T08:25:35Z</time>
      </trkpt>
      <trkpt lat="41.717364920" lon="2.471327590">
        <ele>257.80</ele>
        <time>2015-10-18T08:25:45Z</time>
      </trkpt>
      <trkpt lat="41.717257470" lon="2.471471510">
        <ele>259.20</ele>
        <time>2015-10-18T08:25:53Z</time>
      </trkpt>
      <trkpt lat="41.717192250" lon="2.471631100">
        <ele>260.70</ele>
        <time>2015-10-18T08:26:00Z</time>
      </trkpt>
      <trkpt lat="41.717102740" lon="2.471773760">
        <ele>262.60</ele>
        <time>2015-10-18T08:26:07Z</time>
      </trkpt>
      <trkpt lat="41.717049180" lon="2.471955480">
        <ele>264.50</ele>
        <time>2015-10-18T08:26:15Z</time>
      </trkpt>
      <trkpt lat="41.717068450" lon="2.472168220">
        <ele>265.90</ele>
        <time>2015-10-18T08:26:24Z</time>
      </trkpt>
      <trkpt lat="41.717151940" lon="2.472346750">
        <ele>267.90</ele>
        <time>2015-10-18T08:26:33Z</time>
      </trkpt>
      <trkpt lat="41.717274400" lon="2.472468040">
        <ele>269.80</ele>
        <time>2015-10-18T08:26:42Z</time>
      </trkpt>
      <trkpt lat="41.717374390" lon="2.472616310">
        <ele>270.80</ele>
        <time>2015-10-18T08:26:50Z</time>
      </trkpt>
      <trkpt lat="41.717410270" lon="2.472695190">
        <ele>271.70</ele>
        <time>2015-10-18T08:26:54Z</time>
      </trkpt>
      <trkpt lat="41.717472210" lon="2.472879500">
        <ele>273.20</ele>
        <time>2015-10-18T08:27:03Z</time>
      </trkpt>
      <trkpt lat="41.717520660" lon="2.473020400">
        <ele>273.60</ele>
        <time>2015-10-18T08:27:10Z</time>
      </trkpt>
      <trkpt lat="41.717568850" lon="2.473198690">
        <ele>274.60</ele>
        <time>2015-10-18T08:27:18Z</time>
      </trkpt>
      <trkpt lat="41.717584360" lon="2.473365740">
        <ele>276.00</ele>
        <time>2015-10-18T08:27:26Z</time>
      </trkpt>
      <trkpt lat="41.717580170" lon="2.473531030">
        <ele>277.50</ele>
        <time>2015-10-18T08:27:34Z</time>
      </trkpt>
      <trkpt lat="41.717588130" lon="2.473714840">
        <ele>279.40</ele>
        <time>2015-10-18T08:27:43Z</time>
      </trkpt>
      <trkpt lat="41.717596260" lon="2.473892540">
        <ele>279.90</ele>
        <time>2015-10-18T08:27:51Z</time>
      </trkpt>
      <trkpt lat="41.717597690" lon="2.473915510">
        <ele>279.90</ele>
        <time>2015-10-18T08:27:52Z</time>
      </trkpt>
      <trkpt lat="41.717608080" lon="2.473959430">
        <ele>280.40</ele>
        <time>2015-10-18T08:27:54Z</time>
      </trkpt>
      <trkpt lat="41.717648310" lon="2.474065880">
        <ele>281.30</ele>
        <time>2015-10-18T08:28:00Z</time>
      </trkpt>
      <trkpt lat="41.717616300" lon="2.474130500">
        <ele>281.80</ele>
        <time>2015-10-18T08:28:04Z</time>
      </trkpt>
      <trkpt lat="41.717442370" lon="2.474227570">
        <ele>281.80</ele>
        <time>2015-10-18T08:28:12Z</time>
      </trkpt>
      <trkpt lat="41.717259900" lon="2.474237290">
        <ele>281.80</ele>
        <time>2015-10-18T08:28:18Z</time>
      </trkpt>
      <trkpt lat="41.717175910" lon="2.474181050">
        <ele>281.80</ele>
        <time>2015-10-18T08:28:22Z</time>
      </trkpt>
      <trkpt lat="41.716932670" lon="2.474084150">
        <ele>282.30</ele>
        <time>2015-10-18T08:28:31Z</time>
      </trkpt>
      <trkpt lat="41.716792100" lon="2.474072330">
        <ele>284.20</ele>
        <time>2015-10-18T08:28:38Z</time>
      </trkpt>
      <trkpt lat="41.716617420" lon="2.474080210">
        <ele>285.20</ele>
        <time>2015-10-18T08:28:46Z</time>
      </trkpt>
      <trkpt lat="41.716372670" lon="2.474154470">
        <ele>286.60</ele>
        <time>2015-10-18T08:28:57Z</time>
      </trkpt>
      <trkpt lat="41.716190280" lon="2.474223710">
        <ele>288.50</ele>
        <time>2015-10-18T08:29:06Z</time>
      </trkpt>
      <trkpt lat="41.716076870" lon="2.474289590">
        <ele>289.50</ele>
        <time>2015-10-18T08:29:13Z</time>
      </trkpt>
      <trkpt lat="41.715937570" lon="2.474348350">
        <ele>290.90</ele>
        <time>2015-10-18T08:29:21Z</time>
      </trkpt>
      <trkpt lat="41.715813680" lon="2.474416580">
        <ele>292.40</ele>
        <time>2015-10-18T08:29:28Z</time>
      </trkpt>
      <trkpt lat="41.715685610" lon="2.474460750">
        <ele>294.80</ele>
        <time>2015-10-18T08:29:36Z</time>
      </trkpt>
      <trkpt lat="41.715569690" lon="2.474467460">
        <ele>296.70</ele>
        <time>2015-10-18T08:29:43Z</time>
      </trkpt>
      <trkpt lat="41.715461890" lon="2.474349520">
        <ele>297.20</ele>
        <time>2015-10-18T08:29:50Z</time>
      </trkpt>
      <trkpt lat="41.715332060" lon="2.474317920">
        <ele>295.70</ele>
        <time>2015-10-18T08:29:56Z</time>
      </trkpt>
      <trkpt lat="41.715275400" lon="2.474336360">
        <ele>295.30</ele>
        <time>2015-10-18T08:29:58Z</time>
      </trkpt>
      <trkpt lat="41.715134080" lon="2.474432920">
        <ele>293.30</ele>
        <time>2015-10-18T08:30:02Z</time>
      </trkpt>
      <trkpt lat="41.714765530" lon="2.474595450">
        <ele>291.40</ele>
        <time>2015-10-18T08:30:10Z</time>
      </trkpt>
      <trkpt lat="41.714580960" lon="2.474709780">
        <ele>290.00</ele>
        <time>2015-10-18T08:30:14Z</time>
      </trkpt>
      <trkpt lat="41.714276020" lon="2.474897610">
        <ele>288.50</ele>
        <time>2015-10-18T08:30:20Z</time>
      </trkpt>
      <trkpt lat="41.714118950" lon="2.474957960">
        <ele>288.10</ele>
        <time>2015-10-18T08:30:23Z</time>
      </trkpt>
      <trkpt lat="41.713928090" lon="2.474968610">
        <ele>287.60</ele>
        <time>2015-10-18T08:30:27Z</time>
      </trkpt>
      <trkpt lat="41.713772940" lon="2.475025610">
        <ele>287.60</ele>
        <time>2015-10-18T08:30:33Z</time>
      </trkpt>
      <trkpt lat="41.713706890" lon="2.475038350">
        <ele>288.50</ele>
        <time>2015-10-18T08:30:36Z</time>
      </trkpt>
      <trkpt lat="41.713563480" lon="2.475052850">
        <ele>289.00</ele>
        <time>2015-10-18T08:30:43Z</time>
      </trkpt>
      <trkpt lat="41.713359630" lon="2.475111100">
        <ele>289.00</ele>
        <time>2015-10-18T08:30:50Z</time>
      </trkpt>
      <trkpt lat="41.713116390" lon="2.475290060">
        <ele>289.00</ele>
        <time>2015-10-18T08:30:57Z</time>
      </trkpt>
      <trkpt lat="41.712989820" lon="2.475367500">
        <ele>287.60</ele>
        <time>2015-10-18T08:31:00Z</time>
      </trkpt>
      <trkpt lat="41.712721930" lon="2.475589370">
        <ele>285.70</ele>
        <time>2015-10-18T08:31:05Z</time>
      </trkpt>
      <trkpt lat="41.712432930" lon="2.475846870">
        <ele>282.80</ele>
        <time>2015-10-18T08:31:10Z</time>
      </trkpt>
      <trkpt lat="41.712283980" lon="2.476011070">
        <ele>281.30</ele>
        <time>2015-10-18T08:31:13Z</time>
      </trkpt>
      <trkpt lat="41.712230420" lon="2.476075360">
        <ele>280.40</ele>
        <time>2015-10-18T08:31:14Z</time>
      </trkpt>
      <trkpt lat="41.712042580" lon="2.476230760">
        <ele>278.40</ele>
        <time>2015-10-18T08:31:17Z</time>
      </trkpt>
      <trkpt lat="41.711920120" lon="2.476344920">
        <ele>277.00</ele>
        <time>2015-10-18T08:31:19Z</time>
      </trkpt>
      <trkpt lat="41.711531200" lon="2.476670810">
        <ele>275.60</ele>
        <time>2015-10-18T08:31:25Z</time>
      </trkpt>
      <trkpt lat="41.711322240" lon="2.476790750">
        <ele>275.10</ele>
        <time>2015-10-18T08:31:28Z</time>
      </trkpt>
      <trkpt lat="41.711183020" lon="2.476856210">
        <ele>274.10</ele>
        <time>2015-10-18T08:31:30Z</time>
      </trkpt>
      <trkpt lat="41.710987550" lon="2.476973140">
        <ele>273.60</ele>
        <time>2015-10-18T08:31:33Z</time>
      </trkpt>
      <trkpt lat="41.710664340" lon="2.477266420">
        <ele>273.20</ele>
        <time>2015-10-18T08:31:39Z</time>
      </trkpt>
      <trkpt lat="41.710561920" lon="2.477336580">
        <ele>272.70</ele>
        <time>2015-10-18T08:31:41Z</time>
      </trkpt>
      <trkpt lat="41.710257990" lon="2.477630530">
        <ele>272.70</ele>
        <time>2015-10-18T08:31:48Z</time>
      </trkpt>
      <trkpt lat="41.710041320" lon="2.477875030">
        <ele>274.10</ele>
        <time>2015-10-18T08:31:55Z</time>
      </trkpt>
      <trkpt lat="41.709725820" lon="2.478081980">
        <ele>272.20</ele>
        <time>2015-10-18T08:32:01Z</time>
      </trkpt>
      <trkpt lat="41.709459030" lon="2.478273510">
        <ele>271.20</ele>
        <time>2015-10-18T08:32:05Z</time>
      </trkpt>
      <trkpt lat="41.709170690" lon="2.478378120">
        <ele>269.80</ele>
        <time>2015-10-18T08:32:09Z</time>
      </trkpt>
      <trkpt lat="41.708962480" lon="2.478410300">
        <ele>268.80</ele>
        <time>2015-10-18T08:32:12Z</time>
      </trkpt>
      <trkpt lat="41.708550680" lon="2.478581210">
        <ele>265.00</ele>
        <time>2015-10-18T08:32:18Z</time>
      </trkpt>
      <trkpt lat="41.708423610" lon="2.478633090">
        <ele>262.60</ele>
        <time>2015-10-18T08:32:20Z</time>
      </trkpt>
      <trkpt lat="41.708196540" lon="2.478807190">
        <ele>260.70</ele>
        <time>2015-10-18T08:32:24Z</time>
      </trkpt>
      <trkpt lat="41.708131420" lon="2.478844820">
        <ele>260.70</ele>
        <time>2015-10-18T08:32:25Z</time>
      </trkpt>
      <trkpt lat="41.707893120" lon="2.478932910">
        <ele>260.70</ele>
        <time>2015-10-18T08:32:29Z</time>
      </trkpt>
      <trkpt lat="41.707716010" lon="2.479084380">
        <ele>262.10</ele>
        <time>2015-10-18T08:32:34Z</time>
      </trkpt>
      <trkpt lat="41.707688100" lon="2.479121340">
        <ele>262.10</ele>
        <time>2015-10-18T08:32:35Z</time>
      </trkpt>
      <trkpt lat="41.707460780" lon="2.479372880">
        <ele>262.60</ele>
        <time>2015-10-18T08:32:42Z</time>
      </trkpt>
      <trkpt lat="41.707422730" lon="2.479412530">
        <ele>262.60</ele>
        <time>2015-10-18T08:32:43Z</time>
      </trkpt>
      <trkpt lat="41.707197920" lon="2.479523250">
        <ele>261.10</ele>
        <time>2015-10-18T08:32:47Z</time>
      </trkpt>
      <trkpt lat="41.706806070" lon="2.479651750">
        <ele>257.30</ele>
        <time>2015-10-18T08:32:53Z</time>
      </trkpt>
      <trkpt lat="41.706576160" lon="2.479772030">
        <ele>255.90</ele>
        <time>2015-10-18T08:32:58Z</time>
      </trkpt>
      <trkpt lat="41.706570370" lon="2.479801700">
        <ele>255.90</ele>
        <time>2015-10-18T08:33:01Z</time>
      </trkpt>
      <trkpt lat="41.706713620" lon="2.479801610">
        <ele>254.90</ele>
        <time>2015-10-18T08:33:07Z</time>
      </trkpt>
      <trkpt lat="41.707029030" lon="2.479807730">
        <ele>252.50</ele>
        <time>2015-10-18T08:33:14Z</time>
      </trkpt>
      <trkpt lat="41.707264390" lon="2.479842690">
        <ele>250.10</ele>
        <time>2015-10-18T08:33:20Z</time>
      </trkpt>
      <trkpt lat="41.707599920" lon="2.479867410">
        <ele>248.20</ele>
        <time>2015-10-18T08:33:27Z</time>
      </trkpt>
      <trkpt lat="41.707775350" lon="2.479851150">
        <ele>247.70</ele>
        <time>2015-10-18T08:33:30Z</time>
      </trkpt>
      <trkpt lat="41.707933940" lon="2.479738080">
        <ele>246.70</ele>
        <time>2015-10-18T08:33:34Z</time>
      </trkpt>
      <trkpt lat="41.708010550" lon="2.479653090">
        <ele>245.80</ele>
        <time>2015-10-18T08:33:36Z</time>
      </trkpt>
      <trkpt lat="41.708272990" lon="2.479525350">
        <ele>246.20</ele>
        <time>2015-10-18T08:33:42Z</time>
      </trkpt>
      <trkpt lat="41.708455710" lon="2.479529620">
        <ele>246.20</ele>
        <time>2015-10-18T08:33:46Z</time>
      </trkpt>
      <trkpt lat="41.708635250" lon="2.479465080">
        <ele>247.20</ele>
        <time>2015-10-18T08:33:51Z</time>
      </trkpt>
      <trkpt lat="41.708654530" lon="2.479443620">
        <ele>247.20</ele>
        <time>2015-10-18T08:33:52Z</time>
      </trkpt>
      <trkpt lat="41.708810690" lon="2.479255790">
        <ele>248.60</ele>
        <time>2015-10-18T08:33:58Z</time>
      </trkpt>
      <trkpt lat="41.708993330" lon="2.479156630">
        <ele>247.20</ele>
        <time>2015-10-18T08:34:02Z</time>
      </trkpt>
      <trkpt lat="41.709096930" lon="2.479159140">
        <ele>246.70</ele>
        <time>2015-10-18T08:34:04Z</time>
      </trkpt>
      <trkpt lat="41.709481830" lon="2.479168280">
        <ele>245.30</ele>
        <time>2015-10-18T08:34:11Z</time>
      </trkpt>
      <trkpt lat="41.709804450" lon="2.479075660">
        <ele>243.80</ele>
        <time>2015-10-18T08:34:16Z</time>
      </trkpt>
      <trkpt lat="41.710213150" lon="2.479050680">
        <ele>243.80</ele>
        <time>2015-10-18T08:34:23Z</time>
      </trkpt>
      <trkpt lat="41.710319180" lon="2.479046070">
        <ele>243.40</ele>
        <time>2015-10-18T08:34:25Z</time>
      </trkpt>
      <trkpt lat="41.710509030" lon="2.479107260">
        <ele>243.40</ele>
        <time>2015-10-18T08:34:29Z</time>
      </trkpt>
      <trkpt lat="41.710710190" lon="2.479126030">
        <ele>243.40</ele>
        <time>2015-10-18T08:34:33Z</time>
      </trkpt>
      <trkpt lat="41.710888060" lon="2.479088310">
        <ele>242.90</ele>
        <time>2015-10-18T08:34:37Z</time>
      </trkpt>
      <trkpt lat="41.710935250" lon="2.479187220">
        <ele>241.00</ele>
        <time>2015-10-18T08:34:42Z</time>
      </trkpt>
      <trkpt lat="41.710761160" lon="2.479499030">
        <ele>238.50</ele>
        <time>2015-10-18T08:34:48Z</time>
      </trkpt>
      <trkpt lat="41.710645570" lon="2.479744450">
        <ele>235.70</ele>
        <time>2015-10-18T08:34:52Z</time>
      </trkpt>
      <trkpt lat="41.710618410" lon="2.479806220">
        <ele>235.20</ele>
        <time>2015-10-18T08:34:53Z</time>
      </trkpt>
      <trkpt lat="41.710455720" lon="2.480003530">
        <ele>231.30</ele>
        <time>2015-10-18T08:34:58Z</time>
      </trkpt>
      <trkpt lat="41.710266790" lon="2.480119040">
        <ele>227.00</ele>
        <time>2015-10-18T08:35:04Z</time>
      </trkpt>
      <trkpt lat="41.710255390" lon="2.480140750">
        <ele>226.10</ele>
        <time>2015-10-18T08:35:05Z</time>
      </trkpt>
      <trkpt lat="41.710256230" lon="2.480184420">
        <ele>225.60</ele>
        <time>2015-10-18T08:35:07Z</time>
      </trkpt>
      <trkpt lat="41.710306350" lon="2.480229010">
        <ele>224.10</ele>
        <time>2015-10-18T08:35:10Z</time>
      </trkpt>
      <trkpt lat="41.710368460" lon="2.480246440">
        <ele>223.20</ele>
        <time>2015-10-18T08:35:12Z</time>
      </trkpt>
      <trkpt lat="41.710503330" lon="2.480279630">
        <ele>222.20</ele>
        <time>2015-10-18T08:35:15Z</time>
      </trkpt>
      <trkpt lat="41.710714050" lon="2.480278290">
        <ele>219.30</ele>
        <time>2015-10-18T08:35:19Z</time>
      </trkpt>
      <trkpt lat="41.710869370" lon="2.480235130">
        <ele>217.90</ele>
        <time>2015-10-18T08:35:22Z</time>
      </trkpt>
      <trkpt lat="41.710914710" lon="2.480215260">
        <ele>217.90</ele>
        <time>2015-10-18T08:35:23Z</time>
      </trkpt>
      <trkpt lat="41.711109340" lon="2.480112670">
        <ele>216.90</ele>
        <time>2015-10-18T08:35:28Z</time>
      </trkpt>
      <trkpt lat="41.711176650" lon="2.480220040">
        <ele>216.90</ele>
        <time>2015-10-18T08:35:32Z</time>
      </trkpt>
      <trkpt lat="41.711167680" lon="2.480247780">
        <ele>217.40</ele>
        <time>2015-10-18T08:35:33Z</time>
      </trkpt>
      <trkpt lat="41.711141860" lon="2.480297660">
        <ele>218.40</ele>
        <time>2015-10-18T08:35:35Z</time>
      </trkpt>
      <trkpt lat="41.711110680" lon="2.480365880">
        <ele>219.80</ele>
        <time>2015-10-18T08:35:38Z</time>
      </trkpt>
      <trkpt lat="41.711032650" lon="2.480541570">
        <ele>221.70</ele>
        <time>2015-10-18T08:35:45Z</time>
      </trkpt>
      <trkpt lat="41.710963330" lon="2.480623210">
        <ele>222.20</ele>
        <time>2015-10-18T08:35:49Z</time>
      </trkpt>
      <trkpt lat="41.710845060" lon="2.480765370">
        <ele>224.10</ele>
        <time>2015-10-18T08:35:56Z</time>
      </trkpt>
      <trkpt lat="41.710733160" lon="2.480984050">
        <ele>224.10</ele>
        <time>2015-10-18T08:36:02Z</time>
      </trkpt>
      <trkpt lat="41.710597710" lon="2.481095700">
        <ele>222.70</ele>
        <time>2015-10-18T08:36:07Z</time>
      </trkpt>
      <trkpt lat="41.710520340" lon="2.481157390">
        <ele>224.10</ele>
        <time>2015-10-18T08:36:10Z</time>
      </trkpt>
      <trkpt lat="41.710323120" lon="2.481333660">
        <ele>224.10</ele>
        <time>2015-10-18T08:36:17Z</time>
      </trkpt>
      <trkpt lat="41.710166460" lon="2.481325860">
        <ele>222.70</ele>
        <time>2015-10-18T08:36:23Z</time>
      </trkpt>
      <trkpt lat="41.710051800" lon="2.481332230">
        <ele>220.30</ele>
        <time>2015-10-18T08:36:27Z</time>
      </trkpt>
      <trkpt lat="41.709909300" lon="2.481456370">
        <ele>218.80</ele>
        <time>2015-10-18T08:36:31Z</time>
      </trkpt>
      <trkpt lat="41.709837640" lon="2.481583360">
        <ele>218.80</ele>
        <time>2015-10-18T08:36:35Z</time>
      </trkpt>
      <trkpt lat="41.709723140" lon="2.481659300">
        <ele>218.80</ele>
        <time>2015-10-18T08:36:41Z</time>
      </trkpt>
      <trkpt lat="41.709683660" lon="2.481707910">
        <ele>218.80</ele>
        <time>2015-10-18T08:36:43Z</time>
      </trkpt>
      <trkpt lat="41.709521390" lon="2.481911340">
        <ele>218.40</ele>
        <time>2015-10-18T08:36:51Z</time>
      </trkpt>
      <trkpt lat="41.709419880" lon="2.482075120">
        <ele>217.90</ele>
        <time>2015-10-18T08:36:56Z</time>
      </trkpt>
      <trkpt lat="41.709273370" lon="2.482178050">
        <ele>217.90</ele>
        <time>2015-10-18T08:37:01Z</time>
      </trkpt>
      <trkpt lat="41.709135820" lon="2.482136650">
        <ele>219.30</ele>
        <time>2015-10-18T08:37:06Z</time>
      </trkpt>
      <trkpt lat="41.708948650" lon="2.482214760">
        <ele>219.30</ele>
        <time>2015-10-18T08:37:12Z</time>
      </trkpt>
      <trkpt lat="41.708873470" lon="2.482365470">
        <ele>219.30</ele>
        <time>2015-10-18T08:37:17Z</time>
      </trkpt>
      <trkpt lat="41.708851340" lon="2.482459600">
        <ele>219.30</ele>
        <time>2015-10-18T08:37:20Z</time>
      </trkpt>
      <trkpt lat="41.708737930" lon="2.482581980">
        <ele>219.80</ele>
        <time>2015-10-18T08:37:27Z</time>
      </trkpt>
      <trkpt lat="41.708529220" lon="2.482644500">
        <ele>218.40</ele>
        <time>2015-10-18T08:37:34Z</time>
      </trkpt>
      <trkpt lat="41.708429810" lon="2.482701170">
        <ele>217.90</ele>
        <time>2015-10-18T08:37:38Z</time>
      </trkpt>
      <trkpt lat="41.708373570" lon="2.482827400">
        <ele>217.90</ele>
        <time>2015-10-18T08:37:44Z</time>
      </trkpt>
      <trkpt lat="41.708391680" lon="2.482913820">
        <ele>218.80</ele>
        <time>2015-10-18T08:37:49Z</time>
      </trkpt>
      <trkpt lat="41.708382120" lon="2.482986820">
        <ele>220.30</ele>
        <time>2015-10-18T08:37:53Z</time>
      </trkpt>
      <trkpt lat="41.708348090" lon="2.483113050">
        <ele>221.70</ele>
        <time>2015-10-18T08:38:00Z</time>
      </trkpt>
      <trkpt lat="41.708265440" lon="2.483284380">
        <ele>223.20</ele>
        <time>2015-10-18T08:38:09Z</time>
      </trkpt>
      <trkpt lat="41.708245490" lon="2.483487890">
        <ele>224.10</ele>
        <time>2015-10-18T08:38:16Z</time>
      </trkpt>
      <trkpt lat="41.708249600" lon="2.483632560">
        <ele>226.10</ele>
        <time>2015-10-18T08:38:23Z</time>
      </trkpt>
      <trkpt lat="41.708245660" lon="2.483671460">
        <ele>226.10</ele>
        <time>2015-10-18T08:38:25Z</time>
      </trkpt>
      <trkpt lat="41.708270050" lon="2.483797180">
        <ele>227.50</ele>
        <time>2015-10-18T08:38:32Z</time>
      </trkpt>
      <trkpt lat="41.708298640" lon="2.483869520">
        <ele>229.40</ele>
        <time>2015-10-18T08:38:36Z</time>
      </trkpt>
      <trkpt lat="41.708262930" lon="2.483944120">
        <ele>228.90</ele>
        <time>2015-10-18T08:38:40Z</time>
      </trkpt>
      <trkpt lat="41.708215570" lon="2.484005470">
        <ele>228.90</ele>
        <time>2015-10-18T08:38:47Z</time>
      </trkpt>
      <trkpt lat="41.708212550" lon="2.484031040">
        <ele>228.90</ele>
        <time>2015-10-18T08:38:52Z</time>
      </trkpt>
      <trkpt lat="41.708201150" lon="2.484141850">
        <ele>227.50</ele>
        <time>2015-10-18T08:38:56Z</time>
      </trkpt>
      <trkpt lat="41.708114650" lon="2.484368660">
        <ele>226.10</ele>
        <time>2015-10-18T08:39:04Z</time>
      </trkpt>
      <trkpt lat="41.708047180" lon="2.484557670">
        <ele>222.70</ele>
        <time>2015-10-18T08:39:11Z</time>
      </trkpt>
      <trkpt lat="41.707966290" lon="2.484793960">
        <ele>219.80</ele>
        <time>2015-10-18T08:39:18Z</time>
      </trkpt>
      <trkpt lat="41.707896140" lon="2.484893700">
        <ele>219.30</ele>
        <time>2015-10-18T08:39:20Z</time>
      </trkpt>
      <trkpt lat="41.707810060" lon="2.484967050">
        <ele>219.30</ele>
        <time>2015-10-18T08:39:22Z</time>
      </trkpt>
      <trkpt lat="41.707580980" lon="2.485166450">
        <ele>219.30</ele>
        <time>2015-10-18T08:39:30Z</time>
      </trkpt>
      <trkpt lat="41.707503860" lon="2.485193530">
        <ele>218.80</ele>
        <time>2015-10-18T08:39:33Z</time>
      </trkpt>
      <trkpt lat="41.707411080" lon="2.485339450">
        <ele>218.40</ele>
        <time>2015-10-18T08:39:39Z</time>
      </trkpt>
      <trkpt lat="41.707280490" lon="2.485531150">
        <ele>217.90</ele>
        <time>2015-10-18T08:39:46Z</time>
      </trkpt>
      <trkpt lat="41.707114270" lon="2.485594680">
        <ele>217.90</ele>
        <time>2015-10-18T08:39:52Z</time>
      </trkpt>
      <trkpt lat="41.707025760" lon="2.485702390">
        <ele>217.90</ele>
        <time>2015-10-18T08:39:57Z</time>
      </trkpt>
      <trkpt lat="41.707028690" lon="2.485924340">
        <ele>217.90</ele>
        <time>2015-10-18T08:40:02Z</time>
      </trkpt>
      <trkpt lat="41.706947310" lon="2.486174710">
        <ele>216.00</ele>
        <time>2015-10-18T08:40:08Z</time>
      </trkpt>
      <trkpt lat="41.706858370" lon="2.486255850">
        <ele>215.00</ele>
        <time>2015-10-18T08:40:11Z</time>
      </trkpt>
      <trkpt lat="41.706768600" lon="2.486355260">
        <ele>215.00</ele>
        <time>2015-10-18T08:40:16Z</time>
      </trkpt>
      <trkpt lat="41.706569450" lon="2.486543430">
        <ele>214.00</ele>
        <time>2015-10-18T08:40:24Z</time>
      </trkpt>
      <trkpt lat="41.706399800" lon="2.486633280">
        <ele>210.70</ele>
        <time>2015-10-18T08:40:30Z</time>
      </trkpt>
      <trkpt lat="41.706367860" lon="2.486635210">
        <ele>210.70</ele>
        <time>2015-10-18T08:40:31Z</time>
      </trkpt>
      <trkpt lat="41.706271310" lon="2.486619450">
        <ele>210.20</ele>
        <time>2015-10-18T08:40:34Z</time>
      </trkpt>
      <trkpt lat="41.706196960" lon="2.486736050">
        <ele>211.20</ele>
        <time>2015-10-18T08:40:40Z</time>
      </trkpt>
      <trkpt lat="41.706184890" lon="2.486803190">
        <ele>212.60</ele>
        <time>2015-10-18T08:40:43Z</time>
      </trkpt>
      <trkpt lat="41.706178010" lon="2.486977610">
        <ele>213.10</ele>
        <time>2015-10-18T08:40:50Z</time>
      </trkpt>
      <trkpt lat="41.706069890" lon="2.487110470">
        <ele>214.00</ele>
        <time>2015-10-18T08:40:57Z</time>
      </trkpt>
      <trkpt lat="41.706052870" lon="2.487121200">
        <ele>214.00</ele>
        <time>2015-10-18T08:40:58Z</time>
      </trkpt>
      <trkpt lat="41.705976260" lon="2.487161340">
        <ele>215.00</ele>
        <time>2015-10-18T08:41:02Z</time>
      </trkpt>
      <trkpt lat="41.705785910" lon="2.487258740">
        <ele>216.90</ele>
        <time>2015-10-18T08:41:11Z</time>
      </trkpt>
      <trkpt lat="41.705659930" lon="2.487309200">
        <ele>217.40</ele>
        <time>2015-10-18T08:41:18Z</time>
      </trkpt>
      <trkpt lat="41.705554150" lon="2.487468040">
        <ele>216.40</ele>
        <time>2015-10-18T08:41:24Z</time>
      </trkpt>
      <trkpt lat="41.705427670" lon="2.487707680">
        <ele>214.50</ele>
        <time>2015-10-18T08:41:30Z</time>
      </trkpt>
      <trkpt lat="41.705279810" lon="2.487886550">
        <ele>213.60</ele>
        <time>2015-10-18T08:41:36Z</time>
      </trkpt>
      <trkpt lat="41.705124410" lon="2.487992080">
        <ele>216.00</ele>
        <time>2015-10-18T08:41:43Z</time>
      </trkpt>
      <trkpt lat="41.705010160" lon="2.487971040">
        <ele>217.90</ele>
        <time>2015-10-18T08:41:49Z</time>
      </trkpt>
      <trkpt lat="41.704877560" lon="2.487902890">
        <ele>219.30</ele>
        <time>2015-10-18T08:41:58Z</time>
      </trkpt>
      <trkpt lat="41.704711520" lon="2.487874810">
        <ele>219.80</ele>
        <time>2015-10-18T08:42:06Z</time>
      </trkpt>
      <trkpt lat="41.704527280" lon="2.487946310">
        <ele>221.70</ele>
        <time>2015-10-18T08:42:15Z</time>
      </trkpt>
      <trkpt lat="41.704368530" lon="2.488038590">
        <ele>223.60</ele>
        <time>2015-10-18T08:42:23Z</time>
      </trkpt>
      <trkpt lat="41.704223270" lon="2.488101040">
        <ele>225.10</ele>
        <time>2015-10-18T08:42:30Z</time>
      </trkpt>
      <trkpt lat="41.704080280" lon="2.488211850">
        <ele>226.10</ele>
        <time>2015-10-18T08:42:38Z</time>
      </trkpt>
      <trkpt lat="41.703981030" lon="2.488441680">
        <ele>227.50</ele>
        <time>2015-10-18T08:42:47Z</time>
      </trkpt>
      <trkpt lat="41.703863690" lon="2.488603120">
        <ele>228.50</ele>
        <time>2015-10-18T08:42:55Z</time>
      </trkpt>
      <trkpt lat="41.703704770" lon="2.488613510">
        <ele>228.90</ele>
        <time>2015-10-18T08:43:02Z</time>
      </trkpt>
      <trkpt lat="41.703478040" lon="2.488600010">
        <ele>229.40</ele>
        <time>2015-10-18T08:43:11Z</time>
      </trkpt>
      <trkpt lat="41.703310060" lon="2.488545110">
        <ele>230.40</ele>
        <time>2015-10-18T08:43:18Z</time>
      </trkpt>
      <trkpt lat="41.703108140" lon="2.488472530">
        <ele>230.40</ele>
        <time>2015-10-18T08:43:26Z</time>
      </trkpt>
      <trkpt lat="41.702911250" lon="2.488430950">
        <ele>231.80</ele>
        <time>2015-10-18T08:43:34Z</time>
      </trkpt>
      <trkpt lat="41.702713360" lon="2.488462970">
        <ele>231.80</ele>
        <time>2015-10-18T08:43:41Z</time>
      </trkpt>
      <trkpt lat="41.702562310" lon="2.488578720">
        <ele>233.30</ele>
        <time>2015-10-18T08:43:48Z</time>
      </trkpt>
      <trkpt lat="41.702405490" lon="2.488755580">
        <ele>234.70</ele>
        <time>2015-10-18T08:43:57Z</time>
      </trkpt>
      <trkpt lat="41.702237010" lon="2.488970490">
        <ele>236.10</ele>
        <time>2015-10-18T08:44:07Z</time>
      </trkpt>
      <trkpt lat="41.702146400" lon="2.489180630">
        <ele>236.10</ele>
        <time>2015-10-18T08:44:14Z</time>
      </trkpt>
      <trkpt lat="41.702120340" lon="2.489314400">
        <ele>236.10</ele>
        <time>2015-10-18T08:44:17Z</time>
      </trkpt>
      <trkpt lat="41.702010280" lon="2.489529230">
        <ele>236.10</ele>
        <time>2015-10-18T08:44:25Z</time>
      </trkpt>
      <trkpt lat="41.701909530" lon="2.489627890">
        <ele>236.10</ele>
        <time>2015-10-18T08:44:32Z</time>
      </trkpt>
      <trkpt lat="41.701890590" lon="2.489634840">
        <ele>236.10</ele>
        <time>2015-10-18T08:44:38Z</time>
      </trkpt>
      <trkpt lat="41.701874240" lon="2.489640120">
        <ele>236.10</ele>
        <time>2015-10-18T08:44:46Z</time>
      </trkpt>
      <trkpt lat="41.701823280" lon="2.489712710">
        <ele>236.60</ele>
        <time>2015-10-18T08:44:52Z</time>
      </trkpt>
      <trkpt lat="41.701651280" lon="2.489940360">
        <ele>236.60</ele>
        <time>2015-10-18T08:44:59Z</time>
      </trkpt>
      <trkpt lat="41.701561510" lon="2.490066680">
        <ele>235.20</ele>
        <time>2015-10-18T08:45:02Z</time>
      </trkpt>
      <trkpt lat="41.701268570" lon="2.490430290">
        <ele>232.30</ele>
        <time>2015-10-18T08:45:10Z</time>
      </trkpt>
      <trkpt lat="41.701020040" lon="2.490663140">
        <ele>229.40</ele>
        <time>2015-10-18T08:45:15Z</time>
      </trkpt>
      <trkpt lat="41.700955840" lon="2.490718620">
        <ele>228.90</ele>
        <time>2015-10-18T08:45:17Z</time>
      </trkpt>
      <trkpt lat="41.700897830" lon="2.490733800">
        <ele>228.90</ele>
        <time>2015-10-18T08:45:19Z</time>
      </trkpt>
      <trkpt lat="41.700778640" lon="2.490831030">
        <ele>226.50</ele>
        <time>2015-10-18T08:45:24Z</time>
      </trkpt>
      <trkpt lat="41.700673120" lon="2.490918110">
        <ele>225.10</ele>
        <time>2015-10-18T08:45:28Z</time>
      </trkpt>
      <trkpt lat="41.700611930" lon="2.490984250">
        <ele>224.10</ele>
        <time>2015-10-18T08:45:31Z</time>
      </trkpt>
      <trkpt lat="41.700535820" lon="2.491056580">
        <ele>221.70</ele>
        <time>2015-10-18T08:45:35Z</time>
      </trkpt>
      <trkpt lat="41.700485110" lon="2.491086420">
        <ele>220.30</ele>
        <time>2015-10-18T08:45:37Z</time>
      </trkpt>
      <trkpt lat="41.700444210" lon="2.491110900">
        <ele>218.80</ele>
        <time>2015-10-18T08:45:40Z</time>
      </trkpt>
      <trkpt lat="41.700283690" lon="2.491179380">
        <ele>218.40</ele>
        <time>2015-10-18T08:45:45Z</time>
      </trkpt>
      <trkpt lat="41.700166090" lon="2.491306950">
        <ele>218.40</ele>
        <time>2015-10-18T08:45:49Z</time>
      </trkpt>
      <trkpt lat="41.699820930" lon="2.491546840">
        <ele>216.40</ele>
        <time>2015-10-18T08:45:57Z</time>
      </trkpt>
      <trkpt lat="41.699553040" lon="2.491669550">
        <ele>214.00</ele>
        <time>2015-10-18T08:46:01Z</time>
      </trkpt>
      <trkpt lat="41.699432340" lon="2.491713560">
        <ele>213.10</ele>
        <time>2015-10-18T08:46:03Z</time>
      </trkpt>
      <trkpt lat="41.699144420" lon="2.491928890">
        <ele>209.70</ele>
        <time>2015-10-18T08:46:09Z</time>
      </trkpt>
      <trkpt lat="41.699055410" lon="2.492017150">
        <ele>207.80</ele>
        <time>2015-10-18T08:46:11Z</time>
      </trkpt>
      <trkpt lat="41.698866730" lon="2.492054870">
        <ele>204.90</ele>
        <time>2015-10-18T08:46:16Z</time>
      </trkpt>
      <trkpt lat="41.698702530" lon="2.492110190">
        <ele>203.00</ele>
        <time>2015-10-18T08:46:20Z</time>
      </trkpt>
      <trkpt lat="41.698519220" lon="2.492199540">
        <ele>200.60</ele>
        <time>2015-10-18T08:46:24Z</time>
      </trkpt>
      <trkpt lat="41.698345550" lon="2.492278330">
        <ele>196.70</ele>
        <time>2015-10-18T08:46:29Z</time>
      </trkpt>
      <trkpt lat="41.698319310" lon="2.492287470">
        <ele>196.70</ele>
        <time>2015-10-18T08:46:30Z</time>
      </trkpt>
      <trkpt lat="41.698276730" lon="2.492293160">
        <ele>195.80</ele>
        <time>2015-10-18T08:46:32Z</time>
      </trkpt>
      <trkpt lat="41.698259300" lon="2.492179510">
        <ele>192.90</ele>
        <time>2015-10-18T08:46:37Z</time>
      </trkpt>
      <trkpt lat="41.698278070" lon="2.492128040">
        <ele>191.90</ele>
        <time>2015-10-18T08:46:38Z</time>
      </trkpt>
      <trkpt lat="41.698346050" lon="2.491967610">
        <ele>190.50</ele>
        <time>2015-10-18T08:46:41Z</time>
      </trkpt>
      <trkpt lat="41.698431880" lon="2.491635520">
        <ele>186.20</ele>
        <time>2015-10-18T08:46:46Z</time>
      </trkpt>
      <trkpt lat="41.698488620" lon="2.491495960">
        <ele>185.20</ele>
        <time>2015-10-18T08:46:48Z</time>
      </trkpt>
      <trkpt lat="41.698569760" lon="2.491315670">
        <ele>184.20</ele>
        <time>2015-10-18T08:46:51Z</time>
      </trkpt>
      <trkpt lat="41.698664640" lon="2.491047700">
        <ele>179.90</ele>
        <time>2015-10-18T08:46:57Z</time>
      </trkpt>
      <trkpt lat="41.698694230" lon="2.490909730">
        <ele>176.10</ele>
        <time>2015-10-18T08:47:00Z</time>
      </trkpt>
      <trkpt lat="41.698719210" lon="2.490759700">
        <ele>173.20</ele>
        <time>2015-10-18T08:47:04Z</time>
      </trkpt>
      <trkpt lat="41.698736980" lon="2.490689370">
        <ele>171.70</ele>
        <time>2015-10-18T08:47:06Z</time>
      </trkpt>
      <trkpt lat="41.698652160" lon="2.490675960">
        <ele>169.30</ele>
        <time>2015-10-18T08:47:11Z</time>
      </trkpt>
      <trkpt lat="41.698465740" lon="2.490853660">
        <ele>167.90</ele>
        <time>2015-10-18T08:47:16Z</time>
      </trkpt>
      <trkpt lat="41.698289390" lon="2.490969750">
        <ele>166.50</ele>
        <time>2015-10-18T08:47:20Z</time>
      </trkpt>
      <trkpt lat="41.697988900" lon="2.491222880">
        <ele>164.00</ele>
        <time>2015-10-18T08:47:27Z</time>
      </trkpt>
      <trkpt lat="41.697916560" lon="2.491283820">
        <ele>162.60</ele>
        <time>2015-10-18T08:47:29Z</time>
      </trkpt>
      <trkpt lat="41.697685140" lon="2.491449020">
        <ele>159.20</ele>
        <time>2015-10-18T08:47:35Z</time>
      </trkpt>
      <trkpt lat="41.697539790" lon="2.491578360">
        <ele>157.80</ele>
        <time>2015-10-18T08:47:38Z</time>
      </trkpt>
      <trkpt lat="41.697390010" lon="2.491782870">
        <ele>156.80</ele>
        <time>2015-10-18T08:47:42Z</time>
      </trkpt>
      <trkpt lat="41.697172250" lon="2.492031570">
        <ele>155.40</ele>
        <time>2015-10-18T08:47:47Z</time>
      </trkpt>
      <trkpt lat="41.696898740" lon="2.492392830">
        <ele>153.50</ele>
        <time>2015-10-18T08:47:54Z</time>
      </trkpt>
      <trkpt lat="41.696775530" lon="2.492647720">
        <ele>152.50</ele>
        <time>2015-10-18T08:47:58Z</time>
      </trkpt>
      <trkpt lat="41.696715010" lon="2.492800860">
        <ele>151.50</ele>
        <time>2015-10-18T08:48:00Z</time>
      </trkpt>
      <trkpt lat="41.696618450" lon="2.493266470">
        <ele>150.10</ele>
        <time>2015-10-18T08:48:07Z</time>
      </trkpt>
      <trkpt lat="41.696518370" lon="2.493468220">
        <ele>149.10</ele>
        <time>2015-10-18T08:48:13Z</time>
      </trkpt>
      <trkpt lat="41.696366580" lon="2.493596130">
        <ele>149.10</ele>
        <time>2015-10-18T08:48:19Z</time>
      </trkpt>
      <trkpt lat="41.696308830" lon="2.493807360">
        <ele>147.70</ele>
        <time>2015-10-18T08:48:24Z</time>
      </trkpt>
      <trkpt lat="41.696183010" lon="2.493993270">
        <ele>147.70</ele>
        <time>2015-10-18T08:48:30Z</time>
      </trkpt>
      <trkpt lat="41.696063400" lon="2.494139780">
        <ele>147.70</ele>
        <time>2015-10-18T08:48:35Z</time>
      </trkpt>
      <trkpt lat="41.695898780" lon="2.494264500">
        <ele>149.60</ele>
        <time>2015-10-18T08:48:42Z</time>
      </trkpt>
      <trkpt lat="41.695722600" lon="2.494239530">
        <ele>149.60</ele>
        <time>2015-10-18T08:48:48Z</time>
      </trkpt>
      <trkpt lat="41.695570630" lon="2.494036180">
        <ele>149.60</ele>
        <time>2015-10-18T08:48:55Z</time>
      </trkpt>
      <trkpt lat="41.695429230" lon="2.493845740">
        <ele>150.10</ele>
        <time>2015-10-18T08:49:02Z</time>
      </trkpt>
      <trkpt lat="41.695187410" lon="2.493860830">
        <ele>150.10</ele>
        <time>2015-10-18T08:49:08Z</time>
      </trkpt>
      <trkpt lat="41.695051540" lon="2.493866450">
        <ele>149.10</ele>
        <time>2015-10-18T08:49:11Z</time>
      </trkpt>
      <trkpt lat="41.694663710" lon="2.493922360">
        <ele>148.70</ele>
        <time>2015-10-18T08:49:20Z</time>
      </trkpt>
      <trkpt lat="41.694312090" lon="2.493968290">
        <ele>147.20</ele>
        <time>2015-10-18T08:49:27Z</time>
      </trkpt>
      <trkpt lat="41.694044200" lon="2.494074570">
        <ele>145.80</ele>
        <time>2015-10-18T08:49:32Z</time>
      </trkpt>
      <trkpt lat="41.693851420" lon="2.494189650">
        <ele>145.80</ele>
        <time>2015-10-18T08:49:36Z</time>
      </trkpt>
      <trkpt lat="41.693765510" lon="2.494235500">
        <ele>145.80</ele>
        <time>2015-10-18T08:49:38Z</time>
      </trkpt>
      <trkpt lat="41.693478170" lon="2.494467260">
        <ele>145.30</ele>
        <time>2015-10-18T08:49:46Z</time>
      </trkpt>
      <trkpt lat="41.693151870" lon="2.494699780">
        <ele>144.80</ele>
        <time>2015-10-18T08:49:55Z</time>
      </trkpt>
      <trkpt lat="41.692924630" lon="2.494815950">
        <ele>144.80</ele>
        <time>2015-10-18T08:50:02Z</time>
      </trkpt>
      <trkpt lat="41.692893870" lon="2.494825090">
        <ele>144.80</ele>
        <time>2015-10-18T08:50:03Z</time>
      </trkpt>
      <trkpt lat="41.692813570" lon="2.494752420">
        <ele>144.80</ele>
        <time>2015-10-18T08:50:08Z</time>
      </trkpt>
      <trkpt lat="41.692799910" lon="2.494721910">
        <ele>144.80</ele>
        <time>2015-10-18T08:50:09Z</time>
      </trkpt>
      <trkpt lat="41.692730090" lon="2.494564410">
        <ele>146.30</ele>
        <time>2015-10-18T08:50:14Z</time>
      </trkpt>
      <trkpt lat="41.692637550" lon="2.494282860">
        <ele>147.20</ele>
        <time>2015-10-18T08:50:22Z</time>
      </trkpt>
      <trkpt lat="41.692603770" lon="2.493961830">
        <ele>147.20</ele>
        <time>2015-10-18T08:50:29Z</time>
      </trkpt>
      <trkpt lat="41.692618610" lon="2.493690260">
        <ele>148.20</ele>
        <time>2015-10-18T08:50:35Z</time>
      </trkpt>
      <trkpt lat="41.692626070" lon="2.493269410">
        <ele>149.10</ele>
        <time>2015-10-18T08:50:44Z</time>
      </trkpt>
      <trkpt lat="41.692631690" lon="2.492909230">
        <ele>150.10</ele>
        <time>2015-10-18T08:50:52Z</time>
      </trkpt>
      <trkpt lat="41.692637970" lon="2.492589550">
        <ele>150.60</ele>
        <time>2015-10-18T08:50:59Z</time>
      </trkpt>
      <trkpt lat="41.692645180" lon="2.492056960">
        <ele>151.50</ele>
        <time>2015-10-18T08:51:11Z</time>
      </trkpt>
      <trkpt lat="41.692647360" lon="2.491691850">
        <ele>152.00</ele>
        <time>2015-10-18T08:51:19Z</time>
      </trkpt>
      <trkpt lat="41.692657250" lon="2.491272840">
        <ele>152.50</ele>
        <time>2015-10-18T08:51:28Z</time>
      </trkpt>
      <trkpt lat="41.692666810" lon="2.490856760">
        <ele>152.50</ele>
        <time>2015-10-18T08:51:37Z</time>
      </trkpt>
      <trkpt lat="41.692598830" lon="2.490556690">
        <ele>153.00</ele>
        <time>2015-10-18T08:51:44Z</time>
      </trkpt>
      <trkpt lat="41.692541410" lon="2.490473870">
        <ele>153.00</ele>
        <time>2015-10-18T08:51:47Z</time>
      </trkpt>
      <trkpt lat="41.692446030" lon="2.490482510">
        <ele>153.00</ele>
        <time>2015-10-18T08:51:51Z</time>
      </trkpt>
      <trkpt lat="41.692370340" lon="2.490620980">
        <ele>153.00</ele>
        <time>2015-10-18T08:51:56Z</time>
      </trkpt>
      <trkpt lat="41.692250310" lon="2.490652490">
        <ele>153.00</ele>
        <time>2015-10-18T08:52:00Z</time>
      </trkpt>
      <trkpt lat="41.691923250" lon="2.490559370">
        <ele>153.50</ele>
        <time>2015-10-18T08:52:09Z</time>
      </trkpt>
      <trkpt lat="41.691638350" lon="2.490465490">
        <ele>154.00</ele>
        <time>2015-10-18T08:52:17Z</time>
      </trkpt>
      <trkpt lat="41.691431310" lon="2.490409500">
        <ele>154.40</ele>
        <time>2015-10-18T08:52:23Z</time>
      </trkpt>
      <trkpt lat="41.691205760" lon="2.490363400">
        <ele>155.40</ele>
        <time>2015-10-18T08:52:30Z</time>
      </trkpt>
      <trkpt lat="41.690991770" lon="2.490296760">
        <ele>157.30</ele>
        <time>2015-10-18T08:52:37Z</time>
      </trkpt>
      <trkpt lat="41.690811560" lon="2.490236500">
        <ele>159.20</ele>
        <time>2015-10-18T08:52:44Z</time>
      </trkpt>
      <trkpt lat="41.690720190" lon="2.490123840">
        <ele>160.20</ele>
        <time>2015-10-18T08:52:49Z</time>
      </trkpt>
      <trkpt lat="41.690605610" lon="2.489953610">
        <ele>162.10</ele>
        <time>2015-10-18T08:52:56Z</time>
      </trkpt>
      <trkpt lat="41.690470750" lon="2.489733580">
        <ele>163.10</ele>
        <time>2015-10-18T08:53:03Z</time>
      </trkpt>
      <trkpt lat="41.690350970" lon="2.489509120">
        <ele>164.50</ele>
        <time>2015-10-18T08:53:10Z</time>
      </trkpt>
      <trkpt lat="41.690263710" lon="2.489384060">
        <ele>164.50</ele>
        <time>2015-10-18T08:53:15Z</time>
      </trkpt>
      <trkpt lat="41.689956600" lon="2.489345170">
        <ele>166.90</ele>
        <time>2015-10-18T08:53:26Z</time>
      </trkpt>
      <trkpt lat="41.689800950" lon="2.489278780">
        <ele>166.90</ele>
        <time>2015-10-18T08:53:33Z</time>
      </trkpt>
      <trkpt lat="41.689756110" lon="2.489210970">
        <ele>166.90</ele>
        <time>2015-10-18T08:53:39Z</time>
      </trkpt>
      <trkpt lat="41.689670950" lon="2.489029080">
        <ele>168.40</ele>
        <time>2015-10-18T08:53:45Z</time>
      </trkpt>
      <trkpt lat="41.689537930" lon="2.488712830">
        <ele>168.90</ele>
        <time>2015-10-18T08:53:54Z</time>
      </trkpt>
      <trkpt lat="41.689368190" lon="2.488402370">
        <ele>169.80</ele>
        <time>2015-10-18T08:54:02Z</time>
      </trkpt>
      <trkpt lat="41.689153530" lon="2.487975650">
        <ele>169.80</ele>
        <time>2015-10-18T08:54:10Z</time>
      </trkpt>
      <trkpt lat="41.688893690" lon="2.487751180">
        <ele>168.40</ele>
        <time>2015-10-18T08:54:16Z</time>
      </trkpt>
      <trkpt lat="41.688461610" lon="2.487487990">
        <ele>168.40</ele>
        <time>2015-10-18T08:54:25Z</time>
      </trkpt>
      <trkpt lat="41.688180140" lon="2.487303750">
        <ele>167.90</ele>
        <time>2015-10-18T08:54:31Z</time>
      </trkpt>
      <trkpt lat="41.688036310" lon="2.487228990">
        <ele>167.90</ele>
        <time>2015-10-18T08:54:35Z</time>
      </trkpt>
      <trkpt lat="41.688000600" lon="2.487194200">
        <ele>167.90</ele>
        <time>2015-10-18T08:54:38Z</time>
      </trkpt>
      <trkpt lat="41.687784350" lon="2.487106530">
        <ele>167.90</ele>
        <time>2015-10-18T08:54:44Z</time>
      </trkpt>
      <trkpt lat="41.687662140" lon="2.487050200">
        <ele>168.40</ele>
        <time>2015-10-18T08:54:47Z</time>
      </trkpt>
      <trkpt lat="41.687512350" lon="2.487136120">
        <ele>167.90</ele>
        <time>2015-10-18T08:54:51Z</time>
      </trkpt>
      <trkpt lat="41.687377240" lon="2.487665430">
        <ele>166.00</ele>
        <time>2015-10-18T08:54:57Z</time>
      </trkpt>
      <trkpt lat="41.687272380" lon="2.488101120">
        <ele>163.10</ele>
        <time>2015-10-18T08:55:02Z</time>
      </trkpt>
      <trkpt lat="41.687232230" lon="2.488170270">
        <ele>161.60</ele>
        <time>2015-10-18T08:55:04Z</time>
      </trkpt>
      <trkpt lat="41.687200630" lon="2.488191560">
        <ele>161.60</ele>
        <time>2015-10-18T08:55:05Z</time>
      </trkpt>
      <trkpt lat="41.687074820" lon="2.488187960">
        <ele>161.60</ele>
        <time>2015-10-18T08:55:08Z</time>
      </trkpt>
      <trkpt lat="41.686929390" lon="2.488187880">
        <ele>161.60</ele>
        <time>2015-10-18T08:55:11Z</time>
      </trkpt>
      <trkpt lat="41.686742390" lon="2.488185950">
        <ele>161.60</ele>
        <time>2015-10-18T08:55:15Z</time>
      </trkpt>
      <trkpt lat="41.686595880" lon="2.488174300">
        <ele>161.20</ele>
        <time>2015-10-18T08:55:21Z</time>
      </trkpt>
      <trkpt lat="41.686589590" lon="2.488188380">
        <ele>161.20</ele>
        <time>2015-10-18T08:55:28Z</time>
      </trkpt>
      <trkpt lat="41.686578280" lon="2.488186370">
        <ele>161.20</ele>
        <time>2015-10-18T08:55:39Z</time>
      </trkpt>
      <trkpt lat="41.686573750" lon="2.488185700">
        <ele>161.20</ele>
        <time>2015-10-18T08:55:50Z</time>
      </trkpt>
      <trkpt lat="41.686531670" lon="2.488197010">
        <ele>161.60</ele>
        <time>2015-10-18T08:56:02Z</time>
      </trkpt>
      <trkpt lat="41.686438300" lon="2.488181930">
        <ele>161.60</ele>
        <time>2015-10-18T08:56:05Z</time>
      </trkpt>
      <trkpt lat="41.686007380" lon="2.488165750">
        <ele>161.60</ele>
        <time>2015-10-18T08:56:14Z</time>
      </trkpt>
      <trkpt lat="41.685525760" lon="2.488141520">
        <ele>160.70</ele>
        <time>2015-10-18T08:56:23Z</time>
      </trkpt>
      <trkpt lat="41.684984790" lon="2.488117380">
        <ele>158.30</ele>
        <time>2015-10-18T08:56:32Z</time>
      </trkpt>
      <trkpt lat="41.684571230" lon="2.488118140">
        <ele>156.80</ele>
        <time>2015-10-18T08:56:39Z</time>
      </trkpt>
      <trkpt lat="41.684017350" lon="2.488092410">
        <ele>154.90</ele>
        <time>2015-10-18T08:56:47Z</time>
      </trkpt>
      <trkpt lat="41.683471770" lon="2.488071620">
        <ele>153.00</ele>
        <time>2015-10-18T08:56:54Z</time>
      </trkpt>
      <trkpt lat="41.683228030" lon="2.487887050">
        <ele>152.50</ele>
        <time>2015-10-18T08:56:58Z</time>
      </trkpt>
      <trkpt lat="41.683170280" lon="2.487815220">
        <ele>152.50</ele>
        <time>2015-10-18T08:56:59Z</time>
      </trkpt>
      <trkpt lat="41.682907250" lon="2.487676660">
        <ele>151.50</ele>
        <time>2015-10-18T08:57:03Z</time>
      </trkpt>
      <trkpt lat="41.682656380" lon="2.487804240">
        <ele>151.10</ele>
        <time>2015-10-18T08:57:07Z</time>
      </trkpt>
      <trkpt lat="41.682336610" lon="2.487991240">
        <ele>149.60</ele>
        <time>2015-10-18T08:57:12Z</time>
      </trkpt>
      <trkpt lat="41.681894380" lon="2.488020150">
        <ele>146.70</ele>
        <time>2015-10-18T08:57:17Z</time>
      </trkpt>
      <trkpt lat="41.681651310" lon="2.487979920">
        <ele>146.70</ele>
        <time>2015-10-18T08:57:20Z</time>
      </trkpt>
      <trkpt lat="41.681463970" lon="2.487812280">
        <ele>148.20</ele>
        <time>2015-10-18T08:57:24Z</time>
      </trkpt>
      <trkpt lat="41.681280160" lon="2.487605500">
        <ele>150.10</ele>
        <time>2015-10-18T08:57:29Z</time>
      </trkpt>
      <trkpt lat="41.681240680" lon="2.487600720">
        <ele>150.60</ele>
        <time>2015-10-18T08:57:30Z</time>
      </trkpt>
      <trkpt lat="41.681079500" lon="2.487632990">
        <ele>151.10</ele>
        <time>2015-10-18T08:57:35Z</time>
      </trkpt>
      <trkpt lat="41.681020400" lon="2.487900130">
        <ele>151.10</ele>
        <time>2015-10-18T08:57:40Z</time>
      </trkpt>
      <trkpt lat="41.680950250" lon="2.488098020">
        <ele>151.10</ele>
        <time>2015-10-18T08:57:43Z</time>
      </trkpt>
      <trkpt lat="41.680899700" lon="2.488144960">
        <ele>151.10</ele>
        <time>2015-10-18T08:57:44Z</time>
      </trkpt>
      <trkpt lat="41.680792670" lon="2.488244450">
        <ele>149.60</ele>
        <time>2015-10-18T08:57:46Z</time>
      </trkpt>
      <trkpt lat="41.680421940" lon="2.488802860">
        <ele>148.70</ele>
        <time>2015-10-18T08:57:54Z</time>
      </trkpt>
      <trkpt lat="41.680166040" lon="2.489212060">
        <ele>148.70</ele>
        <time>2015-10-18T08:58:01Z</time>
      </trkpt>
      <trkpt lat="41.679916670" lon="2.489326810">
        <ele>148.70</ele>
        <time>2015-10-18T08:58:06Z</time>
      </trkpt>
      <trkpt lat="41.679797990" lon="2.489284820">
        <ele>148.70</ele>
        <time>2015-10-18T08:58:08Z</time>
      </trkpt>
      <trkpt lat="41.679291890" lon="2.488914340">
        <ele>148.70</ele>
        <time>2015-10-18T08:58:18Z</time>
      </trkpt>
      <trkpt lat="41.678942950" lon="2.488643270">
        <ele>148.70</ele>
        <time>2015-10-18T08:58:25Z</time>
      </trkpt>
      <trkpt lat="41.678662740" lon="2.488421230">
        <ele>148.20</ele>
        <time>2015-10-18T08:58:31Z</time>
      </trkpt>
      <trkpt lat="41.678264010" lon="2.488124510">
        <ele>148.20</ele>
        <time>2015-10-18T08:58:39Z</time>
      </trkpt>
      <trkpt lat="41.677748280" lon="2.487657130">
        <ele>148.20</ele>
        <time>2015-10-18T08:58:50Z</time>
      </trkpt>
      <trkpt lat="41.677354070" lon="2.487286570">
        <ele>150.10</ele>
        <time>2015-10-18T08:58:59Z</time>
      </trkpt>
      <trkpt lat="41.677074290" lon="2.487030840">
        <ele>150.60</ele>
        <time>2015-10-18T08:59:06Z</time>
      </trkpt>
      <trkpt lat="41.676868340" lon="2.486794300">
        <ele>151.10</ele>
        <time>2015-10-18T08:59:12Z</time>
      </trkpt>
      <trkpt lat="41.676831710" lon="2.486756080">
        <ele>151.50</ele>
        <time>2015-10-18T08:59:13Z</time>
      </trkpt>
      <trkpt lat="41.676543800" lon="2.486421810">
        <ele>152.00</ele>
        <time>2015-10-18T08:59:21Z</time>
      </trkpt>
      <trkpt lat="41.676474810" lon="2.486338580">
        <ele>152.50</ele>
        <time>2015-10-18T08:59:23Z</time>
      </trkpt>
      <trkpt lat="41.676209270" lon="2.486023500">
        <ele>153.00</ele>
        <time>2015-10-18T08:59:31Z</time>
      </trkpt>
      <trkpt lat="41.675967710" lon="2.485774310">
        <ele>153.50</ele>
        <time>2015-10-18T08:59:38Z</time>
      </trkpt>
      <trkpt lat="41.675711560" lon="2.485530650">
        <ele>154.00</ele>
        <time>2015-10-18T08:59:46Z</time>
      </trkpt>
      <trkpt lat="41.675626400" lon="2.485352780">
        <ele>154.40</ele>
        <time>2015-10-18T08:59:50Z</time>
      </trkpt>
      <trkpt lat="41.675322720" lon="2.484870150">
        <ele>155.90</ele>
        <time>2015-10-18T09:00:01Z</time>
      </trkpt>
      <trkpt lat="41.675222140" lon="2.484672930">
        <ele>155.90</ele>
        <time>2015-10-18T09:00:05Z</time>
      </trkpt>
      <trkpt lat="41.674965650" lon="2.484221060">
        <ele>155.90</ele>
        <time>2015-10-18T09:00:14Z</time>
      </trkpt>
      <trkpt lat="41.674737240" lon="2.483860130">
        <ele>156.80</ele>
        <time>2015-10-18T09:00:22Z</time>
      </trkpt>
      <trkpt lat="41.674715370" lon="2.483782600">
        <ele>157.30</ele>
        <time>2015-10-18T09:00:24Z</time>
      </trkpt>
      <trkpt lat="41.674658960" lon="2.483634320">
        <ele>159.20</ele>
        <time>2015-10-18T09:00:29Z</time>
      </trkpt>
      <trkpt lat="41.674485120" lon="2.483684450">
        <ele>159.70</ele>
        <time>2015-10-18T09:00:35Z</time>
      </trkpt>
      <trkpt lat="41.674249670" lon="2.483710930">
        <ele>161.20</ele>
        <time>2015-10-18T09:00:43Z</time>
      </trkpt>
      <trkpt lat="41.673941130" lon="2.483657370">
        <ele>163.10</ele>
        <time>2015-10-18T09:00:53Z</time>
      </trkpt>
      <trkpt lat="41.673738790" lon="2.483565340">
        <ele>163.10</ele>
        <time>2015-10-18T09:00:59Z</time>
      </trkpt>
      <trkpt lat="41.673385830" lon="2.483270130">
        <ele>163.10</ele>
        <time>2015-10-18T09:01:09Z</time>
      </trkpt>
      <trkpt lat="41.673314840" lon="2.483187570">
        <ele>163.10</ele>
        <time>2015-10-18T09:01:11Z</time>
      </trkpt>
      <trkpt lat="41.673058010" lon="2.482843660">
        <ele>163.10</ele>
        <time>2015-10-18T09:01:18Z</time>
      </trkpt>
      <trkpt lat="41.672932030" lon="2.482703260">
        <ele>161.60</ele>
        <time>2015-10-18T09:01:21Z</time>
      </trkpt>
      <trkpt lat="41.672560630" lon="2.482355250">
        <ele>160.20</ele>
        <time>2015-10-18T09:01:29Z</time>
      </trkpt>
      <trkpt lat="41.672104740" lon="2.481999600">
        <ele>159.20</ele>
        <time>2015-10-18T09:01:38Z</time>
      </trkpt>
      <trkpt lat="41.671820090" lon="2.481594760">
        <ele>158.80</ele>
        <time>2015-10-18T09:01:45Z</time>
      </trkpt>
      <trkpt lat="41.671698050" lon="2.481091000">
        <ele>158.30</ele>
        <time>2015-10-18T09:01:51Z</time>
      </trkpt>
      <trkpt lat="41.671713220" lon="2.480736620">
        <ele>157.30</ele>
        <time>2015-10-18T09:01:55Z</time>
      </trkpt>
      <trkpt lat="41.671682120" lon="2.480384490">
        <ele>156.80</ele>
        <time>2015-10-18T09:01:59Z</time>
      </trkpt>
      <trkpt lat="41.671570310" lon="2.480080730">
        <ele>156.80</ele>
        <time>2015-10-18T09:02:03Z</time>
      </trkpt>
      <trkpt lat="41.671457240" lon="2.479809070">
        <ele>156.40</ele>
        <time>2015-10-18T09:02:07Z</time>
      </trkpt>
      <trkpt lat="41.671262690" lon="2.479504730">
        <ele>158.80</ele>
        <time>2015-10-18T09:02:14Z</time>
      </trkpt>
      <trkpt lat="41.671097820" lon="2.479239940">
        <ele>161.20</ele>
        <time>2015-10-18T09:02:22Z</time>
      </trkpt>
      <trkpt lat="41.671048870" lon="2.479196440">
        <ele>161.60</ele>
        <time>2015-10-18T09:02:24Z</time>
      </trkpt>
      <trkpt lat="41.670943760" lon="2.479282940">
        <ele>163.10</ele>
        <time>2015-10-18T09:02:29Z</time>
      </trkpt>
      <trkpt lat="41.670849550" lon="2.479582760">
        <ele>164.00</ele>
        <time>2015-10-18T09:02:37Z</time>
      </trkpt>
      <trkpt lat="41.670673780" lon="2.479963890">
        <ele>164.50</ele>
        <time>2015-10-18T09:02:46Z</time>
      </trkpt>
      <trkpt lat="41.670607230" lon="2.480096830">
        <ele>164.50</ele>
        <time>2015-10-18T09:02:49Z</time>
      </trkpt>
      <trkpt lat="41.670389130" lon="2.480394800">
        <ele>164.50</ele>
        <time>2015-10-18T09:02:56Z</time>
      </trkpt>
      <trkpt lat="41.670271450" lon="2.480493880">
        <ele>164.50</ele>
        <time>2015-10-18T09:02:59Z</time>
      </trkpt>
      <trkpt lat="41.669876160" lon="2.480657660">
        <ele>164.52</ele>
        <time>2015-10-18T09:03:08Z</time>
      </trkpt>
      <trkpt lat="41.669789490" lon="2.480649950">
        <ele>164.52</ele>
        <time>2015-10-18T09:03:10Z</time>
      </trkpt>
      <trkpt lat="41.669611210" lon="2.480594210">
        <ele>164.52</ele>
        <time>2015-10-18T09:03:14Z</time>
      </trkpt>
      <trkpt lat="41.669457990" lon="2.480489350">
        <ele>164.04</ele>
        <time>2015-10-18T09:03:18Z</time>
      </trkpt>
      <trkpt lat="41.669205520" lon="2.480146110">
        <ele>163.08</ele>
        <time>2015-10-18T09:03:27Z</time>
      </trkpt>
      <trkpt lat="41.669132100" lon="2.480052570">
        <ele>163.08</ele>
        <time>2015-10-18T09:03:30Z</time>
      </trkpt>
      <trkpt lat="41.669041660" lon="2.480071760">
        <ele>163.08</ele>
        <time>2015-10-18T09:03:34Z</time>
      </trkpt>
      <trkpt lat="41.668835880" lon="2.480170330">
        <ele>162.60</ele>
        <time>2015-10-18T09:03:41Z</time>
      </trkpt>
      <trkpt lat="41.668753660" lon="2.480253570">
        <ele>162.12</ele>
        <time>2015-10-18T09:03:44Z</time>
      </trkpt>
      <trkpt lat="41.668702610" lon="2.480347110">
        <ele>161.16</ele>
        <time>2015-10-18T09:03:46Z</time>
      </trkpt>
      <trkpt lat="41.668642010" lon="2.480578700">
        <ele>159.24</ele>
        <time>2015-10-18T09:03:50Z</time>
      </trkpt>
      <trkpt lat="41.668506980" lon="2.480665370">
        <ele>158.27</ele>
        <time>2015-10-18T09:03:53Z</time>
      </trkpt>
      <trkpt lat="41.668411930" lon="2.480726310">
        <ele>158.27</ele>
        <time>2015-10-18T09:03:55Z</time>
      </trkpt>
      <trkpt lat="41.668275300" lon="2.480795960">
        <ele>158.27</ele>
        <time>2015-10-18T09:03:58Z</time>
      </trkpt>
      <trkpt lat="41.668080760" lon="2.480825880">
        <ele>158.27</ele>
        <time>2015-10-18T09:04:03Z</time>
      </trkpt>
      <trkpt lat="41.668002970" lon="2.480859490">
        <ele>158.27</ele>
        <time>2015-10-18T09:04:05Z</time>
      </trkpt>
      <trkpt lat="41.667653450" lon="2.480965780">
        <ele>158.27</ele>
        <time>2015-10-18T09:04:14Z</time>
      </trkpt>
      <trkpt lat="41.667554370" lon="2.480952870">
        <ele>159.24</ele>
        <time>2015-10-18T09:04:17Z</time>
      </trkpt>
      <trkpt lat="41.667368800" lon="2.481012630">
        <ele>160.20</ele>
        <time>2015-10-18T09:04:23Z</time>
      </trkpt>
      <trkpt lat="41.667183980" lon="2.481092600">
        <ele>160.20</ele>
        <time>2015-10-18T09:04:29Z</time>
      </trkpt>
      <trkpt lat="41.666963620" lon="2.481179850">
        <ele>160.20</ele>
        <time>2015-10-18T09:04:36Z</time>
      </trkpt>
      <trkpt lat="41.666762370" lon="2.481265260">
        <ele>161.16</ele>
        <time>2015-10-18T09:04:42Z</time>
      </trkpt>
      <trkpt lat="41.666562790" lon="2.481364420">
        <ele>161.16</ele>
        <time>2015-10-18T09:04:47Z</time>
      </trkpt>
      <trkpt lat="41.666399010" lon="2.481431890">
        <ele>162.12</ele>
        <time>2015-10-18T09:04:52Z</time>
      </trkpt>
      <trkpt lat="41.666238830" lon="2.481538010">
        <ele>162.60</ele>
        <time>2015-10-18T09:04:57Z</time>
      </trkpt>
      <trkpt lat="41.666073040" lon="2.481648900">
        <ele>163.08</ele>
        <time>2015-10-18T09:05:02Z</time>
      </trkpt>
      <trkpt lat="41.665850160" lon="2.481882340">
        <ele>163.08</ele>
        <time>2015-10-18T09:05:09Z</time>
      </trkpt>
      <trkpt lat="41.665672640" lon="2.482029860">
        <ele>162.60</ele>
        <time>2015-10-18T09:05:15Z</time>
      </trkpt>
      <trkpt lat="41.665496870" lon="2.482064560">
        <ele>163.56</ele>
        <time>2015-10-18T09:05:21Z</time>
      </trkpt>
      <trkpt lat="41.665423360" lon="2.482069340">
        <ele>163.56</ele>
        <time>2015-10-18T09:05:24Z</time>
      </trkpt>
      <trkpt lat="41.665350520" lon="2.481921820">
        <ele>163.56</ele>
        <time>2015-10-18T09:05:29Z</time>
      </trkpt>
      <trkpt lat="41.665338110" lon="2.481842610">
        <ele>164.04</ele>
        <time>2015-10-18T09:05:31Z</time>
      </trkpt>
      <trkpt lat="41.665330070" lon="2.481558880">
        <ele>165.00</ele>
        <time>2015-10-18T09:05:39Z</time>
      </trkpt>
      <trkpt lat="41.665345490" lon="2.481305080">
        <ele>165.00</ele>
        <time>2015-10-18T09:05:46Z</time>
      </trkpt>
      <trkpt lat="41.665374660" lon="2.480957900">
        <ele>165.00</ele>
        <time>2015-10-18T09:05:54Z</time>
      </trkpt>
      <trkpt lat="41.665374990" lon="2.480660590">
        <ele>165.00</ele>
        <time>2015-10-18T09:06:01Z</time>
      </trkpt>
      <trkpt lat="41.665404750" lon="2.480277870">
        <ele>166.93</ele>
        <time>2015-10-18T09:06:10Z</time>
      </trkpt>
      <trkpt lat="41.665412460" lon="2.480062120">
        <ele>167.89</ele>
        <time>2015-10-18T09:06:16Z</time>
      </trkpt>
      <trkpt lat="41.665400060" lon="2.479851820">
        <ele>170.29</ele>
        <time>2015-10-18T09:06:23Z</time>
      </trkpt>
      <trkpt lat="41.665371140" lon="2.479561140">
        <ele>171.73</ele>
        <time>2015-10-18T09:06:31Z</time>
      </trkpt>
      <trkpt lat="41.665293610" lon="2.479222420">
        <ele>173.17</ele>
        <time>2015-10-18T09:06:39Z</time>
      </trkpt>
      <trkpt lat="41.665185230" lon="2.478905510">
        <ele>173.66</ele>
        <time>2015-10-18T09:06:47Z</time>
      </trkpt>
      <trkpt lat="41.665070900" lon="2.478719510">
        <ele>174.62</ele>
        <time>2015-10-18T09:06:53Z</time>
      </trkpt>
      <trkpt lat="41.664933440" lon="2.478564950">
        <ele>172.69</ele>
        <time>2015-10-18T09:06:58Z</time>
      </trkpt>
      <trkpt lat="41.664677030" lon="2.478451630">
        <ele>171.25</ele>
        <time>2015-10-18T09:07:04Z</time>
      </trkpt>
      <trkpt lat="41.664577960" lon="2.478437460">
        <ele>171.25</ele>
        <time>2015-10-18T09:07:06Z</time>
      </trkpt>
      <trkpt lat="41.664178640" lon="2.478521110">
        <ele>169.81</ele>
        <time>2015-10-18T09:07:15Z</time>
      </trkpt>
      <trkpt lat="41.664012850" lon="2.478563100">
        <ele>168.85</ele>
        <time>2015-10-18T09:07:18Z</time>
      </trkpt>
      <trkpt lat="41.663796350" lon="2.478558750">
        <ele>168.85</ele>
        <time>2015-10-18T09:07:23Z</time>
      </trkpt>
      <trkpt lat="41.663729370" lon="2.478601160">
        <ele>168.85</ele>
        <time>2015-10-18T09:07:25Z</time>
      </trkpt>
      <trkpt lat="41.663571630" lon="2.478751360">
        <ele>168.85</ele>
        <time>2015-10-18T09:07:31Z</time>
      </trkpt>
      <trkpt lat="41.663503310" lon="2.478892430">
        <ele>168.85</ele>
        <time>2015-10-18T09:07:38Z</time>
      </trkpt>
      <trkpt lat="41.663472300" lon="2.479063340">
        <ele>168.85</ele>
        <time>2015-10-18T09:07:44Z</time>
      </trkpt>
      <trkpt lat="41.663418070" lon="2.479289480">
        <ele>168.85</ele>
        <time>2015-10-18T09:07:50Z</time>
      </trkpt>
      <trkpt lat="41.663388320" lon="2.479553090">
        <ele>170.29</ele>
        <time>2015-10-18T09:07:56Z</time>
      </trkpt>
      <trkpt lat="41.663387810" lon="2.479591060">
        <ele>170.29</ele>
        <time>2015-10-18T09:07:57Z</time>
      </trkpt>
      <trkpt lat="41.663356300" lon="2.479838580">
        <ele>170.29</ele>
        <time>2015-10-18T09:08:03Z</time>
      </trkpt>
      <trkpt lat="41.663289410" lon="2.480135970">
        <ele>170.29</ele>
        <time>2015-10-18T09:08:10Z</time>
      </trkpt>
      <trkpt lat="41.663214640" lon="2.480318610">
        <ele>170.77</ele>
        <time>2015-10-18T09:08:15Z</time>
      </trkpt>
      <trkpt lat="41.663092690" lon="2.480531260">
        <ele>171.73</ele>
        <time>2015-10-18T09:08:21Z</time>
      </trkpt>
      <trkpt lat="41.662952370" lon="2.480782460">
        <ele>171.73</ele>
        <time>2015-10-18T09:08:28Z</time>
      </trkpt>
      <trkpt lat="41.662917000" lon="2.480839460">
        <ele>171.73</ele>
        <time>2015-10-18T09:08:30Z</time>
      </trkpt>
      <trkpt lat="41.662814070" lon="2.480861590">
        <ele>171.73</ele>
        <time>2015-10-18T09:08:35Z</time>
      </trkpt>
      <trkpt lat="41.662651460" lon="2.480803670">
        <ele>171.73</ele>
        <time>2015-10-18T09:08:43Z</time>
      </trkpt>
      <trkpt lat="41.662539060" lon="2.480764950">
        <ele>171.73</ele>
        <time>2015-10-18T09:08:49Z</time>
      </trkpt>
      <trkpt lat="41.662519030" lon="2.480779450">
        <ele>171.73</ele>
        <time>2015-10-18T09:08:57Z</time>
      </trkpt>
      <trkpt lat="41.662493800" lon="2.480762520">
        <ele>171.73</ele>
        <time>2015-10-18T09:09:04Z</time>
      </trkpt>
      <trkpt lat="41.662446190" lon="2.480748020">
        <ele>172.21</ele>
        <time>2015-10-18T09:09:11Z</time>
      </trkpt>
      <trkpt lat="41.662342420" lon="2.480679790">
        <ele>172.69</ele>
        <time>2015-10-18T09:09:17Z</time>
      </trkpt>
      <trkpt lat="41.662232950" lon="2.480567390">
        <ele>174.14</ele>
        <time>2015-10-18T09:09:24Z</time>
      </trkpt>
      <trkpt lat="41.662140500" lon="2.480506280">
        <ele>176.54</ele>
        <time>2015-10-18T09:09:31Z</time>
      </trkpt>
      <trkpt lat="41.662017870" lon="2.480451970">
        <ele>178.46</ele>
        <time>2015-10-18T09:09:37Z</time>
      </trkpt>
      <trkpt lat="41.661954590" lon="2.480457330">
        <ele>178.94</ele>
        <time>2015-10-18T09:09:40Z</time>
      </trkpt>
      <trkpt lat="41.661903710" lon="2.480531180">
        <ele>179.42</ele>
        <time>2015-10-18T09:09:44Z</time>
      </trkpt>
      <trkpt lat="41.661865990" lon="2.480656820">
        <ele>179.90</ele>
        <time>2015-10-18T09:09:49Z</time>
      </trkpt>
      <trkpt lat="41.661943530" lon="2.480847840">
        <ele>178.94</ele>
        <time>2015-10-18T09:09:55Z</time>
      </trkpt>
      <trkpt lat="41.661915030" lon="2.481001570">
        <ele>178.46</ele>
        <time>2015-10-18T09:09:59Z</time>
      </trkpt>
      <trkpt lat="41.661889210" lon="2.481043810">
        <ele>178.46</ele>
        <time>2015-10-18T09:10:01Z</time>
      </trkpt>
      <trkpt lat="41.661811760" lon="2.481148170">
        <ele>179.90</ele>
        <time>2015-10-18T09:10:06Z</time>
      </trkpt>
      <trkpt lat="41.661697430" lon="2.481308850">
        <ele>180.87</ele>
        <time>2015-10-18T09:10:13Z</time>
      </trkpt>
      <trkpt lat="41.661546890" lon="2.481500790">
        <ele>181.83</ele>
        <time>2015-10-18T09:10:22Z</time>
      </trkpt>
      <trkpt lat="41.661457710" lon="2.481740430">
        <ele>181.83</ele>
        <time>2015-10-18T09:10:28Z</time>
      </trkpt>
      <trkpt lat="41.661397280" lon="2.481874880">
        <ele>180.38</ele>
        <time>2015-10-18T09:10:31Z</time>
      </trkpt>
      <trkpt lat="41.661218320" lon="2.482048050">
        <ele>178.94</ele>
        <time>2015-10-18T09:10:37Z</time>
      </trkpt>
      <trkpt lat="41.661132240" lon="2.482101190">
        <ele>177.98</ele>
        <time>2015-10-18T09:10:39Z</time>
      </trkpt>
      <trkpt lat="41.660892350" lon="2.482181070">
        <ele>175.10</ele>
        <time>2015-10-18T09:10:43Z</time>
      </trkpt>
      <trkpt lat="41.660651200" lon="2.482149130">
        <ele>175.10</ele>
        <time>2015-10-18T09:10:47Z</time>
      </trkpt>
      <trkpt lat="41.660348790" lon="2.482130950">
        <ele>175.10</ele>
        <time>2015-10-18T09:10:54Z</time>
      </trkpt>
      <trkpt lat="41.660068410" lon="2.482180060">
        <ele>175.10</ele>
        <time>2015-10-18T09:11:02Z</time>
      </trkpt>
      <trkpt lat="41.659833130" lon="2.482180480">
        <ele>175.10</ele>
        <time>2015-10-18T09:11:09Z</time>
      </trkpt>
      <trkpt lat="41.659591730" lon="2.482138150">
        <ele>177.02</ele>
        <time>2015-10-18T09:11:16Z</time>
      </trkpt>
      <trkpt lat="41.659405990" lon="2.482126670">
        <ele>177.02</ele>
        <time>2015-10-18T09:11:22Z</time>
      </trkpt>
      <trkpt lat="41.659229890" lon="2.482071270">
        <ele>177.50</ele>
        <time>2015-10-18T09:11:27Z</time>
      </trkpt>
      <trkpt lat="41.659075490" lon="2.481992480">
        <ele>177.50</ele>
        <time>2015-10-18T09:11:32Z</time>
      </trkpt>
      <trkpt lat="41.658931320" lon="2.482023240">
        <ele>177.98</ele>
        <time>2015-10-18T09:11:37Z</time>
      </trkpt>
      <trkpt lat="41.658687070" lon="2.482116110">
        <ele>177.98</ele>
        <time>2015-10-18T09:11:45Z</time>
      </trkpt>
      <trkpt lat="41.658429410" lon="2.482250140">
        <ele>178.46</ele>
        <time>2015-10-18T09:11:53Z</time>
      </trkpt>
      <trkpt lat="41.658200080" lon="2.482356080">
        <ele>178.94</ele>
        <time>2015-10-18T09:11:59Z</time>
      </trkpt>
      <trkpt lat="41.658009060" lon="2.482404450">
        <ele>180.38</ele>
        <time>2015-10-18T09:12:05Z</time>
      </trkpt>
      <trkpt lat="41.657874030" lon="2.482433360">
        <ele>180.87</ele>
        <time>2015-10-18T09:12:09Z</time>
      </trkpt>
      <trkpt lat="41.657631540" lon="2.482448540">
        <ele>180.87</ele>
        <time>2015-10-18T09:12:14Z</time>
      </trkpt>
      <trkpt lat="41.657427020" lon="2.482503940">
        <ele>182.31</ele>
        <time>2015-10-18T09:12:20Z</time>
      </trkpt>
      <trkpt lat="41.657186210" lon="2.482677860">
        <ele>182.31</ele>
        <time>2015-10-18T09:12:28Z</time>
      </trkpt>
      <trkpt lat="41.656988400" lon="2.482788840">
        <ele>182.79</ele>
        <time>2015-10-18T09:12:34Z</time>
      </trkpt>
      <trkpt lat="41.656836520" lon="2.482806360">
        <ele>185.19</ele>
        <time>2015-10-18T09:12:40Z</time>
      </trkpt>
      <trkpt lat="41.656622190" lon="2.482873250">
        <ele>187.11</ele>
        <time>2015-10-18T09:12:48Z</time>
      </trkpt>
      <trkpt lat="41.656485400" lon="2.482990010">
        <ele>188.08</ele>
        <time>2015-10-18T09:12:54Z</time>
      </trkpt>
      <trkpt lat="41.656457740" lon="2.483013730">
        <ele>188.08</ele>
        <time>2015-10-18T09:12:55Z</time>
      </trkpt>
      <trkpt lat="41.656348190" lon="2.483022110">
        <ele>188.56</ele>
        <time>2015-10-18T09:12:59Z</time>
      </trkpt>
      <trkpt lat="41.656235120" lon="2.483018250">
        <ele>190.00</ele>
        <time>2015-10-18T09:13:04Z</time>
      </trkpt>
      <trkpt lat="41.656113160" lon="2.483101570">
        <ele>187.59</ele>
        <time>2015-10-18T09:13:07Z</time>
      </trkpt>
      <trkpt lat="41.656041830" lon="2.483288070">
        <ele>185.19</ele>
        <time>2015-10-18T09:13:10Z</time>
      </trkpt>
      <trkpt lat="41.655981900" lon="2.483559050">
        <ele>184.71</ele>
        <time>2015-10-18T09:13:14Z</time>
      </trkpt>
      <trkpt lat="41.655911240" lon="2.483931630">
        <ele>184.71</ele>
        <time>2015-10-18T09:13:21Z</time>
      </trkpt>
      <trkpt lat="41.655867480" lon="2.484144030">
        <ele>184.71</ele>
        <time>2015-10-18T09:13:27Z</time>
      </trkpt>
      <trkpt lat="41.655855420" lon="2.484418700">
        <ele>184.71</ele>
        <time>2015-10-18T09:13:33Z</time>
      </trkpt>
      <trkpt lat="41.655830690" lon="2.484783480">
        <ele>184.71</ele>
        <time>2015-10-18T09:13:40Z</time>
      </trkpt>
      <trkpt lat="41.655799090" lon="2.485098560">
        <ele>184.71</ele>
        <time>2015-10-18T09:13:47Z</time>
      </trkpt>
      <trkpt lat="41.655838320" lon="2.485488230">
        <ele>184.71</ele>
        <time>2015-10-18T09:13:54Z</time>
      </trkpt>
      <trkpt lat="41.655874360" lon="2.485671550">
        <ele>186.15</ele>
        <time>2015-10-18T09:13:58Z</time>
      </trkpt>
      <trkpt lat="41.655887940" lon="2.486111010">
        <ele>186.15</ele>
        <time>2015-10-18T09:14:07Z</time>
      </trkpt>
      <trkpt lat="41.655866230" lon="2.486199520">
        <ele>187.59</ele>
        <time>2015-10-18T09:14:11Z</time>
      </trkpt>
      <trkpt lat="41.655859520" lon="2.486360960">
        <ele>189.04</ele>
        <time>2015-10-18T09:14:17Z</time>
      </trkpt>
      <trkpt lat="41.655913750" lon="2.486687850">
        <ele>189.04</ele>
        <time>2015-10-18T09:14:25Z</time>
      </trkpt>
      <trkpt lat="41.655925240" lon="2.486739900">
        <ele>189.04</ele>
        <time>2015-10-18T09:14:26Z</time>
      </trkpt>
      <trkpt lat="41.656040570" lon="2.487074090">
        <ele>188.56</ele>
        <time>2015-10-18T09:14:33Z</time>
      </trkpt>
      <trkpt lat="41.656120620" lon="2.487344320">
        <ele>188.56</ele>
        <time>2015-10-18T09:14:39Z</time>
      </trkpt>
      <trkpt lat="41.656250620" lon="2.487604750">
        <ele>187.11</ele>
        <time>2015-10-18T09:14:45Z</time>
      </trkpt>
      <trkpt lat="41.656385320" lon="2.487851760">
        <ele>186.63</ele>
        <time>2015-10-18T09:14:50Z</time>
      </trkpt>
      <trkpt lat="41.656469890" lon="2.488185530">
        <ele>186.63</ele>
        <time>2015-10-18T09:14:55Z</time>
      </trkpt>
      <trkpt lat="41.656526720" lon="2.488515190">
        <ele>186.63</ele>
        <time>2015-10-18T09:15:01Z</time>
      </trkpt>
      <trkpt lat="41.656525050" lon="2.488746280">
        <ele>188.08</ele>
        <time>2015-10-18T09:15:06Z</time>
      </trkpt>
      <trkpt lat="41.656535020" lon="2.488975690">
        <ele>189.52</ele>
        <time>2015-10-18T09:15:12Z</time>
      </trkpt>
      <trkpt lat="41.656505520" lon="2.489181800">
        <ele>190.96</ele>
        <time>2015-10-18T09:15:18Z</time>
      </trkpt>
      <trkpt lat="41.656472740" lon="2.489266880">
        <ele>190.96</ele>
        <time>2015-10-18T09:15:21Z</time>
      </trkpt>
      <trkpt lat="41.656493190" lon="2.489431080">
        <ele>190.96</ele>
        <time>2015-10-18T09:15:25Z</time>
      </trkpt>
      <trkpt lat="41.656559080" lon="2.489560080">
        <ele>190.96</ele>
        <time>2015-10-18T09:15:28Z</time>
      </trkpt>
      <trkpt lat="41.656613470" lon="2.489684050">
        <ele>189.04</ele>
        <time>2015-10-18T09:15:30Z</time>
      </trkpt>
      <trkpt lat="41.656805760" lon="2.490042370">
        <ele>188.56</ele>
        <time>2015-10-18T09:15:37Z</time>
      </trkpt>
      <trkpt lat="41.656915890" lon="2.490344120">
        <ele>188.56</ele>
        <time>2015-10-18T09:15:44Z</time>
      </trkpt>
      <trkpt lat="41.656976750" lon="2.490686020">
        <ele>188.56</ele>
        <time>2015-10-18T09:15:51Z</time>
      </trkpt>
      <trkpt lat="41.657039950" lon="2.491073010">
        <ele>188.56</ele>
        <time>2015-10-18T09:15:59Z</time>
      </trkpt>
      <trkpt lat="41.657088480" lon="2.491470230">
        <ele>188.56</ele>
        <time>2015-10-18T09:16:07Z</time>
      </trkpt>
      <trkpt lat="41.657102060" lon="2.491567960">
        <ele>189.52</ele>
        <time>2015-10-18T09:16:09Z</time>
      </trkpt>
      <trkpt lat="41.657094180" lon="2.491790250">
        <ele>189.52</ele>
        <time>2015-10-18T09:16:14Z</time>
      </trkpt>
      <trkpt lat="41.657012870" lon="2.492056290">
        <ele>190.48</ele>
        <time>2015-10-18T09:16:21Z</time>
      </trkpt>
      <trkpt lat="41.656916310" lon="2.492323170">
        <ele>191.44</ele>
        <time>2015-10-18T09:16:28Z</time>
      </trkpt>
      <trkpt lat="41.656763340" lon="2.492723830">
        <ele>191.44</ele>
        <time>2015-10-18T09:16:37Z</time>
      </trkpt>
      <trkpt lat="41.656606680" lon="2.493137470">
        <ele>191.44</ele>
        <time>2015-10-18T09:16:46Z</time>
      </trkpt>
      <trkpt lat="41.656526720" lon="2.493305610">
        <ele>191.44</ele>
        <time>2015-10-18T09:16:50Z</time>
      </trkpt>
      <trkpt lat="41.656279370" lon="2.493357580">
        <ele>191.44</ele>
        <time>2015-10-18T09:16:57Z</time>
      </trkpt>
      <trkpt lat="41.656013410" lon="2.493340740">
        <ele>191.44</ele>
        <time>2015-10-18T09:17:04Z</time>
      </trkpt>
      <trkpt lat="41.655799930" lon="2.493311480">
        <ele>192.88</ele>
        <time>2015-10-18T09:17:10Z</time>
      </trkpt>
      <trkpt lat="41.655774780" lon="2.493310640">
        <ele>192.88</ele>
        <time>2015-10-18T09:17:11Z</time>
      </trkpt>
      <trkpt lat="41.655610330" lon="2.493290020">
        <ele>193.36</ele>
        <time>2015-10-18T09:17:17Z</time>
      </trkpt>
      <trkpt lat="41.655450230" lon="2.493231020">
        <ele>193.84</ele>
        <time>2015-10-18T09:17:23Z</time>
      </trkpt>
      <trkpt lat="41.655221320" lon="2.493060440">
        <ele>193.84</ele>
        <time>2015-10-18T09:17:30Z</time>
      </trkpt>
      <trkpt lat="41.654969780" lon="2.492962210">
        <ele>194.32</ele>
        <time>2015-10-18T09:17:37Z</time>
      </trkpt>
      <trkpt lat="41.654796360" lon="2.493000510">
        <ele>194.32</ele>
        <time>2015-10-18T09:17:43Z</time>
      </trkpt>
      <trkpt lat="41.654588570" lon="2.492925500">
        <ele>194.80</ele>
        <time>2015-10-18T09:17:51Z</time>
      </trkpt>
      <trkpt lat="41.654379360" lon="2.492889870">
        <ele>195.28</ele>
        <time>2015-10-18T09:17:57Z</time>
      </trkpt>
      <trkpt lat="41.654206280" lon="2.492887780">
        <ele>195.77</ele>
        <time>2015-10-18T09:18:03Z</time>
      </trkpt>
      <trkpt lat="41.653959600" lon="2.492919040">
        <ele>196.25</ele>
        <time>2015-10-18T09:18:10Z</time>
      </trkpt>
      <trkpt lat="41.653723650" lon="2.492985010">
        <ele>196.25</ele>
        <time>2015-10-18T09:18:17Z</time>
      </trkpt>
      <trkpt lat="41.653591550" lon="2.493021800">
        <ele>196.25</ele>
        <time>2015-10-18T09:18:22Z</time>
      </trkpt>
      <trkpt lat="41.653357100" lon="2.493129430">
        <ele>196.73</ele>
        <time>2015-10-18T09:18:30Z</time>
      </trkpt>
      <trkpt lat="41.653225430" lon="2.493187600">
        <ele>198.17</ele>
        <time>2015-10-18T09:18:35Z</time>
      </trkpt>
      <trkpt lat="41.653055190" lon="2.493280220">
        <ele>198.17</ele>
        <time>2015-10-18T09:18:41Z</time>
      </trkpt>
      <trkpt lat="41.652819070" lon="2.493451710">
        <ele>197.21</ele>
        <time>2015-10-18T09:18:47Z</time>
      </trkpt>
      <trkpt lat="41.652754700" lon="2.493486830">
        <ele>197.21</ele>
        <time>2015-10-18T09:18:50Z</time>
      </trkpt>
      <trkpt lat="41.652665510" lon="2.493540390">
        <ele>197.21</ele>
        <time>2015-10-18T09:18:55Z</time>
      </trkpt>
      <trkpt lat="41.652409030" lon="2.493562100">
        <ele>197.21</ele>
        <time>2015-10-18T09:19:02Z</time>
      </trkpt>
      <trkpt lat="41.652292270" lon="2.493484400">
        <ele>198.17</ele>
        <time>2015-10-18T09:19:07Z</time>
      </trkpt>
      <trkpt lat="41.652246750" lon="2.493450620">
        <ele>198.17</ele>
        <time>2015-10-18T09:19:09Z</time>
      </trkpt>
      <trkpt lat="41.652106940" lon="2.493384820">
        <ele>199.61</ele>
        <time>2015-10-18T09:19:16Z</time>
      </trkpt>
      <trkpt lat="41.651944670" lon="2.493322290">
        <ele>200.57</ele>
        <time>2015-10-18T09:19:23Z</time>
      </trkpt>
      <trkpt lat="41.651841490" lon="2.493278880">
        <ele>201.53</ele>
        <time>2015-10-18T09:19:29Z</time>
      </trkpt>
      <trkpt lat="41.651786000" lon="2.493281730">
        <ele>201.53</ele>
        <time>2015-10-18T09:19:32Z</time>
      </trkpt>
      <trkpt lat="41.651649630" lon="2.493421960">
        <ele>202.49</ele>
        <time>2015-10-18T09:19:40Z</time>
      </trkpt>
      <trkpt lat="41.651488610" lon="2.493584310">
        <ele>202.49</ele>
        <time>2015-10-18T09:19:46Z</time>
      </trkpt>
      <trkpt lat="41.651295740" lon="2.493791090">
        <ele>202.98</ele>
        <time>2015-10-18T09:19:54Z</time>
      </trkpt>
      <trkpt lat="41.651115110" lon="2.493930070">
        <ele>203.94</ele>
        <time>2015-10-18T09:20:02Z</time>
      </trkpt>
      <trkpt lat="41.651100610" lon="2.493952360">
        <ele>203.94</ele>
        <time>2015-10-18T09:20:09Z</time>
      </trkpt>
      <trkpt lat="41.651102540" lon="2.493961160">
        <ele>203.94</ele>
        <time>2015-10-18T09:20:20Z</time>
      </trkpt>
      <trkpt lat="41.651107150" lon="2.493959400">
        <ele>203.94</ele>
        <time>2015-10-18T09:20:32Z</time>
      </trkpt>
      <trkpt lat="41.651115870" lon="2.493980110">
        <ele>203.46</ele>
        <time>2015-10-18T09:20:46Z</time>
      </trkpt>
      <trkpt lat="41.651128270" lon="2.493993690">
        <ele>203.46</ele>
        <time>2015-10-18T09:21:01Z</time>
      </trkpt>
      <trkpt lat="41.651130790" lon="2.494014640">
        <ele>203.94</ele>
        <time>2015-10-18T09:21:10Z</time>
      </trkpt>
      <trkpt lat="41.651101620" lon="2.494026370">
        <ele>203.94</ele>
        <time>2015-10-18T09:21:21Z</time>
      </trkpt>
      <trkpt lat="41.651087700" lon="2.494031070">
        <ele>203.94</ele>
        <time>2015-10-18T09:21:22Z</time>
      </trkpt>
      <trkpt lat="41.650984100" lon="2.494021180">
        <ele>205.86</ele>
        <time>2015-10-18T09:21:28Z</time>
      </trkpt>
      <trkpt lat="41.650844210" lon="2.493985050">
        <ele>207.30</ele>
        <time>2015-10-18T09:21:35Z</time>
      </trkpt>
      <trkpt lat="41.650705740" lon="2.494013130">
        <ele>209.22</ele>
        <time>2015-10-18T09:21:41Z</time>
      </trkpt>
      <trkpt lat="41.650683030" lon="2.494025870">
        <ele>209.22</ele>
        <time>2015-10-18T09:21:42Z</time>
      </trkpt>
      <trkpt lat="41.650529810" lon="2.494090830">
        <ele>210.67</ele>
        <time>2015-10-18T09:21:49Z</time>
      </trkpt>
      <trkpt lat="41.650374490" lon="2.494263410">
        <ele>211.63</ele>
        <time>2015-10-18T09:21:58Z</time>
      </trkpt>
      <trkpt lat="41.650346660" lon="2.494290740">
        <ele>211.63</ele>
        <time>2015-10-18T09:21:59Z</time>
      </trkpt>
      <trkpt lat="41.650226460" lon="2.494354690">
        <ele>210.19</ele>
        <time>2015-10-18T09:22:02Z</time>
      </trkpt>
      <trkpt lat="41.649993610" lon="2.494517970">
        <ele>208.74</ele>
        <time>2015-10-18T09:22:07Z</time>
      </trkpt>
      <trkpt lat="41.649752050" lon="2.494614530">
        <ele>208.26</ele>
        <time>2015-10-18T09:22:13Z</time>
      </trkpt>
      <trkpt lat="41.649715590" lon="2.494634900">
        <ele>208.26</ele>
        <time>2015-10-18T09:22:14Z</time>
      </trkpt>
      <trkpt lat="41.649625310" lon="2.494821980">
        <ele>208.26</ele>
        <time>2015-10-18T09:22:19Z</time>
      </trkpt>
      <trkpt lat="41.649617940" lon="2.494952830">
        <ele>209.22</ele>
        <time>2015-10-18T09:22:23Z</time>
      </trkpt>
      <trkpt lat="41.649562370" lon="2.495271090">
        <ele>209.70</ele>
        <time>2015-10-18T09:22:31Z</time>
      </trkpt>
      <trkpt lat="41.649446110" lon="2.495594290">
        <ele>210.19</ele>
        <time>2015-10-18T09:22:40Z</time>
      </trkpt>
      <trkpt lat="41.649307980" lon="2.495899980">
        <ele>211.63</ele>
        <time>2015-10-18T09:22:50Z</time>
      </trkpt>
      <trkpt lat="41.649250390" lon="2.495997210">
        <ele>213.07</ele>
        <time>2015-10-18T09:22:54Z</time>
      </trkpt>
      <trkpt lat="41.649099850" lon="2.496124620">
        <ele>214.03</ele>
        <time>2015-10-18T09:23:01Z</time>
      </trkpt>
      <trkpt lat="41.649065400" lon="2.496260650">
        <ele>215.47</ele>
        <time>2015-10-18T09:23:06Z</time>
      </trkpt>
      <trkpt lat="41.649076470" lon="2.496578160">
        <ele>215.47</ele>
        <time>2015-10-18T09:23:13Z</time>
      </trkpt>
      <trkpt lat="41.649068760" lon="2.496918380">
        <ele>212.59</ele>
        <time>2015-10-18T09:23:19Z</time>
      </trkpt>
      <trkpt lat="41.649001530" lon="2.497192390">
        <ele>211.15</ele>
        <time>2015-10-18T09:23:23Z</time>
      </trkpt>
      <trkpt lat="41.648788210" lon="2.497600840">
        <ele>209.22</ele>
        <time>2015-10-18T09:23:30Z</time>
      </trkpt>
      <trkpt lat="41.648767090" lon="2.497642160">
        <ele>209.22</ele>
        <time>2015-10-18T09:23:31Z</time>
      </trkpt>
      <trkpt lat="41.648716300" lon="2.497803760">
        <ele>208.26</ele>
        <time>2015-10-18T09:23:34Z</time>
      </trkpt>
      <trkpt lat="41.648593920" lon="2.498064110">
        <ele>207.30</ele>
        <time>2015-10-18T09:23:40Z</time>
      </trkpt>
      <trkpt lat="41.648499540" lon="2.498084810">
        <ele>207.30</ele>
        <time>2015-10-18T09:23:46Z</time>
      </trkpt>
      <trkpt lat="41.648387560" lon="2.498107190">
        <ele>207.30</ele>
        <time>2015-10-18T09:23:52Z</time>
      </trkpt>
      <trkpt lat="41.648309770" lon="2.498168880">
        <ele>208.74</ele>
        <time>2015-10-18T09:23:56Z</time>
      </trkpt>
      <trkpt lat="41.648180610" lon="2.498294690">
        <ele>208.74</ele>
        <time>2015-10-18T09:24:02Z</time>
      </trkpt>
      <trkpt lat="41.648024290" lon="2.498426200">
        <ele>208.74</ele>
        <time>2015-10-18T09:24:09Z</time>
      </trkpt>
      <trkpt lat="41.647897220" lon="2.498595850">
        <ele>208.74</ele>
        <time>2015-10-18T09:24:15Z</time>
      </trkpt>
      <trkpt lat="41.647711390" lon="2.498821660">
        <ele>209.22</ele>
        <time>2015-10-18T09:24:23Z</time>
      </trkpt>
      <trkpt lat="41.647582730" lon="2.498947810">
        <ele>209.22</ele>
        <time>2015-10-18T09:24:28Z</time>
      </trkpt>
      <trkpt lat="41.647452810" lon="2.499057110">
        <ele>210.19</ele>
        <time>2015-10-18T09:24:33Z</time>
      </trkpt>
      <trkpt lat="41.647339230" lon="2.499260290">
        <ele>210.19</ele>
        <time>2015-10-18T09:24:39Z</time>
      </trkpt>
      <trkpt lat="41.647270500" lon="2.499505710">
        <ele>210.19</ele>
        <time>2015-10-18T09:24:44Z</time>
      </trkpt>
      <trkpt lat="41.647238400" lon="2.499834530">
        <ele>210.19</ele>
        <time>2015-10-18T09:24:50Z</time>
      </trkpt>
      <trkpt lat="41.647218530" lon="2.500144070">
        <ele>210.19</ele>
        <time>2015-10-18T09:24:57Z</time>
      </trkpt>
      <trkpt lat="41.647287430" lon="2.500445910">
        <ele>210.19</ele>
        <time>2015-10-18T09:25:03Z</time>
      </trkpt>
      <trkpt lat="41.647356420" lon="2.500837590">
        <ele>210.19</ele>
        <time>2015-10-18T09:25:10Z</time>
      </trkpt>
      <trkpt lat="41.647427160" lon="2.501227020">
        <ele>210.19</ele>
        <time>2015-10-18T09:25:18Z</time>
      </trkpt>
      <trkpt lat="41.647457920" lon="2.501478220">
        <ele>210.67</ele>
        <time>2015-10-18T09:25:24Z</time>
      </trkpt>
      <trkpt lat="41.647498070" lon="2.501730180">
        <ele>210.19</ele>
        <time>2015-10-18T09:25:29Z</time>
      </trkpt>
      <trkpt lat="41.647648440" lon="2.502153640">
        <ele>210.67</ele>
        <time>2015-10-18T09:25:38Z</time>
      </trkpt>
      <trkpt lat="41.647804010" lon="2.502424540">
        <ele>211.15</ele>
        <time>2015-10-18T09:25:45Z</time>
      </trkpt>
      <trkpt lat="41.647986740" lon="2.502583380">
        <ele>211.15</ele>
        <time>2015-10-18T09:25:51Z</time>
      </trkpt>
      <trkpt lat="41.648167780" lon="2.502757550">
        <ele>211.15</ele>
        <time>2015-10-18T09:25:58Z</time>
      </trkpt>
      <trkpt lat="41.648355710" lon="2.502956120">
        <ele>211.63</ele>
        <time>2015-10-18T09:26:05Z</time>
      </trkpt>
      <trkpt lat="41.648509680" lon="2.503135910">
        <ele>212.11</ele>
        <time>2015-10-18T09:26:12Z</time>
      </trkpt>
      <trkpt lat="41.648691070" lon="2.503347970">
        <ele>212.59</ele>
        <time>2015-10-18T09:26:20Z</time>
      </trkpt>
      <trkpt lat="41.648901540" lon="2.503576880">
        <ele>213.07</ele>
        <time>2015-10-18T09:26:27Z</time>
      </trkpt>
      <trkpt lat="41.649090880" lon="2.503815260">
        <ele>213.07</ele>
        <time>2015-10-18T09:26:34Z</time>
      </trkpt>
      <trkpt lat="41.649188280" lon="2.503981730">
        <ele>213.55</ele>
        <time>2015-10-18T09:26:40Z</time>
      </trkpt>
      <trkpt lat="41.649288530" lon="2.504270070">
        <ele>213.55</ele>
        <time>2015-10-18T09:26:45Z</time>
      </trkpt>
      <trkpt lat="41.649310320" lon="2.504477520">
        <ele>213.55</ele>
        <time>2015-10-18T09:26:50Z</time>
      </trkpt>
      <trkpt lat="41.649312840" lon="2.504710370">
        <ele>214.03</ele>
        <time>2015-10-18T09:26:56Z</time>
      </trkpt>
      <trkpt lat="41.649303950" lon="2.504927880">
        <ele>214.51</ele>
        <time>2015-10-18T09:27:02Z</time>
      </trkpt>
      <trkpt lat="41.649282070" lon="2.505174390">
        <ele>214.51</ele>
        <time>2015-10-18T09:27:09Z</time>
      </trkpt>
      <trkpt lat="41.649161710" lon="2.505483600">
        <ele>214.51</ele>
        <time>2015-10-18T09:27:17Z</time>
      </trkpt>
      <trkpt lat="41.649052410" lon="2.505746120">
        <ele>214.99</ele>
        <time>2015-10-18T09:27:24Z</time>
      </trkpt>
      <trkpt lat="41.648987870" lon="2.505979640">
        <ele>215.47</ele>
        <time>2015-10-18T09:27:30Z</time>
      </trkpt>
      <trkpt lat="41.648871360" lon="2.506169410">
        <ele>215.47</ele>
        <time>2015-10-18T09:27:36Z</time>
      </trkpt>
      <trkpt lat="41.648725270" lon="2.506297400">
        <ele>216.43</ele>
        <time>2015-10-18T09:27:41Z</time>
      </trkpt>
      <trkpt lat="41.648546650" lon="2.506365120">
        <ele>216.43</ele>
        <time>2015-10-18T09:27:47Z</time>
      </trkpt>
      <trkpt lat="41.648482020" lon="2.506410890">
        <ele>216.43</ele>
        <time>2015-10-18T09:27:49Z</time>
      </trkpt>
      <trkpt lat="41.648323940" lon="2.506563190">
        <ele>217.40</ele>
        <time>2015-10-18T09:27:56Z</time>
      </trkpt>
      <trkpt lat="41.648162500" lon="2.506692940">
        <ele>218.36</ele>
        <time>2015-10-18T09:28:03Z</time>
      </trkpt>
      <trkpt lat="41.648024200" lon="2.506875920">
        <ele>218.36</ele>
        <time>2015-10-18T09:28:10Z</time>
      </trkpt>
      <trkpt lat="41.647877520" lon="2.507166940">
        <ele>218.36</ele>
        <time>2015-10-18T09:28:18Z</time>
      </trkpt>
      <trkpt lat="41.647756480" lon="2.507460220">
        <ele>218.36</ele>
        <time>2015-10-18T09:28:25Z</time>
      </trkpt>
      <trkpt lat="41.647600580" lon="2.507749060">
        <ele>218.36</ele>
        <time>2015-10-18T09:28:32Z</time>
      </trkpt>
      <trkpt lat="41.647397490" lon="2.507957430">
        <ele>219.32</ele>
        <time>2015-10-18T09:28:40Z</time>
      </trkpt>
      <trkpt lat="41.647292460" lon="2.508011830">
        <ele>219.80</ele>
        <time>2015-10-18T09:28:44Z</time>
      </trkpt>
      <trkpt lat="41.647080480" lon="2.507981320">
        <ele>220.28</ele>
        <time>2015-10-18T09:28:52Z</time>
      </trkpt>
      <trkpt lat="41.646788710" lon="2.507894400">
        <ele>221.24</ele>
        <time>2015-10-18T09:29:02Z</time>
      </trkpt>
      <trkpt lat="41.646551840" lon="2.507862300">
        <ele>221.24</ele>
        <time>2015-10-18T09:29:09Z</time>
      </trkpt>
      <trkpt lat="41.646281020" lon="2.507785020">
        <ele>221.24</ele>
        <time>2015-10-18T09:29:17Z</time>
      </trkpt>
      <trkpt lat="41.646041380" lon="2.507700950">
        <ele>222.20</ele>
        <time>2015-10-18T09:29:25Z</time>
      </trkpt>
      <trkpt lat="41.645859740" lon="2.507670520">
        <ele>223.16</ele>
        <time>2015-10-18T09:29:32Z</time>
      </trkpt>
      <trkpt lat="41.645687580" lon="2.507649900">
        <ele>223.64</ele>
        <time>2015-10-18T09:29:38Z</time>
      </trkpt>
      <trkpt lat="41.645580460" lon="2.507633390">
        <ele>224.61</ele>
        <time>2015-10-18T09:29:42Z</time>
      </trkpt>
      <trkpt lat="41.645461020" lon="2.507754510">
        <ele>224.61</ele>
        <time>2015-10-18T09:29:47Z</time>
      </trkpt>
      <trkpt lat="41.645428080" lon="2.507797590">
        <ele>224.61</ele>
        <time>2015-10-18T09:29:48Z</time>
      </trkpt>
      <trkpt lat="41.645228840" lon="2.508095990">
        <ele>224.61</ele>
        <time>2015-10-18T09:29:55Z</time>
      </trkpt>
      <trkpt lat="41.644967830" lon="2.507994230">
        <ele>224.61</ele>
        <time>2015-10-18T09:30:03Z</time>
      </trkpt>
      <trkpt lat="41.644797920" lon="2.507910580">
        <ele>225.09</ele>
        <time>2015-10-18T09:30:09Z</time>
      </trkpt>
      <trkpt lat="41.644546220" lon="2.507788120">
        <ele>225.57</ele>
        <time>2015-10-18T09:30:17Z</time>
      </trkpt>
      <trkpt lat="41.644391490" lon="2.507680910">
        <ele>225.57</ele>
        <time>2015-10-18T09:30:22Z</time>
      </trkpt>
      <trkpt lat="41.644142460" lon="2.507510340">
        <ele>226.05</ele>
        <time>2015-10-18T09:30:31Z</time>
      </trkpt>
      <trkpt lat="41.643966020" lon="2.507342700">
        <ele>227.49</ele>
        <time>2015-10-18T09:30:38Z</time>
      </trkpt>
      <trkpt lat="41.643829480" lon="2.507263660">
        <ele>228.93</ele>
        <time>2015-10-18T09:30:44Z</time>
      </trkpt>
      <trkpt lat="41.643651110" lon="2.507298950">
        <ele>231.33</ele>
        <time>2015-10-18T09:30:52Z</time>
      </trkpt>
      <trkpt lat="41.643485740" lon="2.507328290">
        <ele>232.30</ele>
        <time>2015-10-18T09:30:59Z</time>
      </trkpt>
      <trkpt lat="41.643326230" lon="2.507331640">
        <ele>232.78</ele>
        <time>2015-10-18T09:31:05Z</time>
      </trkpt>
      <trkpt lat="41.643173180" lon="2.507346900">
        <ele>233.74</ele>
        <time>2015-10-18T09:31:11Z</time>
      </trkpt>
      <trkpt lat="41.643022300" lon="2.507359470">
        <ele>234.22</ele>
        <time>2015-10-18T09:31:17Z</time>
      </trkpt>
      <trkpt lat="41.642804290" lon="2.507370950">
        <ele>235.18</ele>
        <time>2015-10-18T09:31:25Z</time>
      </trkpt>
      <trkpt lat="41.642683420" lon="2.507364500">
        <ele>236.14</ele>
        <time>2015-10-18T09:31:30Z</time>
      </trkpt>
      <trkpt lat="41.642492480" lon="2.507354270">
        <ele>236.62</ele>
        <time>2015-10-18T09:31:37Z</time>
      </trkpt>
      <trkpt lat="41.642300450" lon="2.507330630">
        <ele>237.58</ele>
        <time>2015-10-18T09:31:44Z</time>
      </trkpt>
      <trkpt lat="41.642041030" lon="2.507308760">
        <ele>238.06</ele>
        <time>2015-10-18T09:31:53Z</time>
      </trkpt>
      <trkpt lat="41.641816150" lon="2.507251760">
        <ele>238.54</ele>
        <time>2015-10-18T09:32:01Z</time>
      </trkpt>
      <trkpt lat="41.641610290" lon="2.507191580">
        <ele>238.06</ele>
        <time>2015-10-18T09:32:07Z</time>
      </trkpt>
      <trkpt lat="41.641348520" lon="2.507190070">
        <ele>238.06</ele>
        <time>2015-10-18T09:32:14Z</time>
      </trkpt>
      <trkpt lat="41.641081300" lon="2.507296180">
        <ele>238.06</ele>
        <time>2015-10-18T09:32:22Z</time>
      </trkpt>
      <trkpt lat="41.640762120" lon="2.507383610">
        <ele>238.54</ele>
        <time>2015-10-18T09:32:31Z</time>
      </trkpt>
      <trkpt lat="41.640424830" lon="2.507392740">
        <ele>238.54</ele>
        <time>2015-10-18T09:32:40Z</time>
      </trkpt>
      <trkpt lat="41.640220900" lon="2.507467680">
        <ele>239.51</ele>
        <time>2015-10-18T09:32:47Z</time>
      </trkpt>
      <trkpt lat="41.640033570" lon="2.507518140">
        <ele>239.99</ele>
        <time>2015-10-18T09:32:54Z</time>
      </trkpt>
      <trkpt lat="41.639769290" lon="2.507586370">
        <ele>239.99</ele>
        <time>2015-10-18T09:33:02Z</time>
      </trkpt>
      <trkpt lat="41.639476420" lon="2.507642610">
        <ele>240.95</ele>
        <time>2015-10-18T09:33:11Z</time>
      </trkpt>
      <trkpt lat="41.639222700" lon="2.507654510">
        <ele>241.91</ele>
        <time>2015-10-18T09:33:19Z</time>
      </trkpt>
      <trkpt lat="41.639010560" lon="2.507627860">
        <ele>242.39</ele>
        <time>2015-10-18T09:33:26Z</time>
      </trkpt>
      <trkpt lat="41.638728090" lon="2.507627100">
        <ele>242.87</ele>
        <time>2015-10-18T09:33:35Z</time>
      </trkpt>
      <trkpt lat="41.638485350" lon="2.507651160">
        <ele>243.35</ele>
        <time>2015-10-18T09:33:42Z</time>
      </trkpt>
      <trkpt lat="41.638236320" lon="2.507594660">
        <ele>243.83</ele>
        <time>2015-10-18T09:33:50Z</time>
      </trkpt>
      <trkpt lat="41.638091400" lon="2.507542110">
        <ele>243.83</ele>
        <time>2015-10-18T09:33:55Z</time>
      </trkpt>
      <trkpt lat="41.637936830" lon="2.507539430">
        <ele>243.83</ele>
        <time>2015-10-18T09:34:02Z</time>
      </trkpt>
      <trkpt lat="41.637911440" lon="2.507650740">
        <ele>243.83</ele>
        <time>2015-10-18T09:34:06Z</time>
      </trkpt>
      <trkpt lat="41.637885700" lon="2.507776720">
        <ele>245.75</ele>
        <time>2015-10-18T09:34:11Z</time>
      </trkpt>
      <trkpt lat="41.637863070" lon="2.507813850">
        <ele>246.23</ele>
        <time>2015-10-18T09:34:13Z</time>
      </trkpt>
      <trkpt lat="41.637733910" lon="2.507943440">
        <ele>247.68</ele>
        <time>2015-10-18T09:34:21Z</time>
      </trkpt>
      <trkpt lat="41.637601050" lon="2.508069580">
        <ele>249.12</ele>
        <time>2015-10-18T09:34:28Z</time>
      </trkpt>
      <trkpt lat="41.637466530" lon="2.508252560">
        <ele>250.56</ele>
        <time>2015-10-18T09:34:37Z</time>
      </trkpt>
      <trkpt lat="41.637326720" lon="2.508343840">
        <ele>251.52</ele>
        <time>2015-10-18T09:34:44Z</time>
      </trkpt>
      <trkpt lat="41.637122110" lon="2.508328420">
        <ele>253.44</ele>
        <time>2015-10-18T09:34:53Z</time>
      </trkpt>
      <trkpt lat="41.636956230" lon="2.508420110">
        <ele>253.93</ele>
        <time>2015-10-18T09:35:01Z</time>
      </trkpt>
      <trkpt lat="41.636789020" lon="2.508485160">
        <ele>254.89</ele>
        <time>2015-10-18T09:35:09Z</time>
      </trkpt>
      <trkpt lat="41.636591960" lon="2.508573000">
        <ele>255.85</ele>
        <time>2015-10-18T09:35:18Z</time>
      </trkpt>
      <trkpt lat="41.636463800" lon="2.508686990">
        <ele>257.29</ele>
        <time>2015-10-18T09:35:25Z</time>
      </trkpt>
      <trkpt lat="41.636336560" lon="2.508728070">
        <ele>258.25</ele>
        <time>2015-10-18T09:35:32Z</time>
      </trkpt>
      <trkpt lat="41.636187610" lon="2.508726640">
        <ele>260.17</ele>
        <time>2015-10-18T09:35:40Z</time>
      </trkpt>
      <trkpt lat="41.636170600" lon="2.508724880">
        <ele>260.65</ele>
        <time>2015-10-18T09:35:41Z</time>
      </trkpt>
      <trkpt lat="41.636140090" lon="2.508713730">
        <ele>260.65</ele>
        <time>2015-10-18T09:35:43Z</time>
      </trkpt>
      <trkpt lat="41.635991060" lon="2.508684140">
        <ele>262.10</ele>
        <time>2015-10-18T09:35:51Z</time>
      </trkpt>
      <trkpt lat="41.635808420" lon="2.508674170">
        <ele>263.06</ele>
        <time>2015-10-18T09:35:59Z</time>
      </trkpt>
      <trkpt lat="41.635648570" lon="2.508660170">
        <ele>264.02</ele>
        <time>2015-10-18T09:36:06Z</time>
      </trkpt>
      <trkpt lat="41.635568690" lon="2.508669560">
        <ele>264.02</ele>
        <time>2015-10-18T09:36:08Z</time>
      </trkpt>
      <trkpt lat="41.635403740" lon="2.508775590">
        <ele>263.06</ele>
        <time>2015-10-18T09:36:12Z</time>
      </trkpt>
      <trkpt lat="41.635176340" lon="2.508990330">
        <ele>263.06</ele>
        <time>2015-10-18T09:36:20Z</time>
      </trkpt>
      <trkpt lat="41.634995880" lon="2.509148330">
        <ele>263.06</ele>
        <time>2015-10-18T09:36:29Z</time>
      </trkpt>
      <trkpt lat="41.634921700" lon="2.509207260">
        <ele>264.02</ele>
        <time>2015-10-18T09:36:34Z</time>
      </trkpt>
      <trkpt lat="41.634922950" lon="2.509199550">
        <ele>264.02</ele>
        <time>2015-10-18T09:36:40Z</time>
      </trkpt>
      <trkpt lat="41.634910800" lon="2.509168870">
        <ele>264.50</ele>
        <time>2015-10-18T09:37:00Z</time>
      </trkpt>
      <trkpt lat="41.634899150" lon="2.509161580">
        <ele>264.50</ele>
        <time>2015-10-18T09:37:21Z</time>
      </trkpt>
      <trkpt lat="41.634905020" lon="2.509166350">
        <ele>264.50</ele>
        <time>2015-10-18T09:37:34Z</time>
      </trkpt>
      <trkpt lat="41.634908540" lon="2.509172980">
        <ele>264.50</ele>
        <time>2015-10-18T09:37:42Z</time>
      </trkpt>
      <trkpt lat="41.634922700" lon="2.509177080">
        <ele>264.50</ele>
        <time>2015-10-18T09:37:52Z</time>
      </trkpt>
      <trkpt lat="41.634895800" lon="2.509174320">
        <ele>264.50</ele>
        <time>2015-10-18T09:38:02Z</time>
      </trkpt>
      <trkpt lat="41.634882300" lon="2.509170960">
        <ele>264.50</ele>
        <time>2015-10-18T09:38:20Z</time>
      </trkpt>
      <trkpt lat="41.634880960" lon="2.509180770">
        <ele>264.50</ele>
        <time>2015-10-18T09:38:32Z</time>
      </trkpt>
      <trkpt lat="41.634865370" lon="2.509197870">
        <ele>264.50</ele>
        <time>2015-10-18T09:38:38Z</time>
      </trkpt>
      <trkpt lat="41.634829330" lon="2.509248500">
        <ele>264.50</ele>
        <time>2015-10-18T09:38:43Z</time>
      </trkpt>
      <trkpt lat="41.634726480" lon="2.509379840">
        <ele>264.50</ele>
        <time>2015-10-18T09:38:50Z</time>
      </trkpt>
      <trkpt lat="41.634581390" lon="2.509478080">
        <ele>264.50</ele>
        <time>2015-10-18T09:38:56Z</time>
      </trkpt>
      <trkpt lat="41.634510730" lon="2.509497520">
        <ele>264.98</ele>
        <time>2015-10-18T09:39:00Z</time>
      </trkpt>
      <trkpt lat="41.634384080" lon="2.509513200">
        <ele>265.94</ele>
        <time>2015-10-18T09:39:08Z</time>
      </trkpt>
      <trkpt lat="41.634259610" lon="2.509477830">
        <ele>266.42</ele>
        <time>2015-10-18T09:39:14Z</time>
      </trkpt>
      <trkpt lat="41.634101860" lon="2.509459130">
        <ele>266.42</ele>
        <time>2015-10-18T09:39:21Z</time>
      </trkpt>
      <trkpt lat="41.633978310" lon="2.509481100">
        <ele>267.38</ele>
        <time>2015-10-18T09:39:27Z</time>
      </trkpt>
      <trkpt lat="41.633801290" lon="2.509527450">
        <ele>268.83</ele>
        <time>2015-10-18T09:39:35Z</time>
      </trkpt>
      <trkpt lat="41.633692910" lon="2.509557370">
        <ele>270.27</ele>
        <time>2015-10-18T09:39:42Z</time>
      </trkpt>
      <trkpt lat="41.633574720" lon="2.509625680">
        <ele>271.71</ele>
        <time>2015-10-18T09:39:49Z</time>
      </trkpt>
      <trkpt lat="41.633414290" lon="2.509694580">
        <ele>274.59</ele>
        <time>2015-10-18T09:39:58Z</time>
      </trkpt>
      <trkpt lat="41.633281270" lon="2.509723080">
        <ele>277.00</ele>
        <time>2015-10-18T09:40:06Z</time>
      </trkpt>
      <trkpt lat="41.633267780" lon="2.509723250">
        <ele>277.00</ele>
        <time>2015-10-18T09:40:07Z</time>
      </trkpt>
      <trkpt lat="41.633225620" lon="2.509746220">
        <ele>277.96</ele>
        <time>2015-10-18T09:40:10Z</time>
      </trkpt>
      <trkpt lat="41.633137270" lon="2.509759040">
        <ele>278.92</ele>
        <time>2015-10-18T09:40:15Z</time>
      </trkpt>
      <trkpt lat="41.633099970" lon="2.509761470">
        <ele>279.40</ele>
        <time>2015-10-18T09:40:17Z</time>
      </trkpt>
      <trkpt lat="41.632958150" lon="2.509763230">
        <ele>280.84</ele>
        <time>2015-10-18T09:40:25Z</time>
      </trkpt>
      <trkpt lat="41.632885730" lon="2.509754430">
        <ele>281.80</ele>
        <time>2015-10-18T09:40:30Z</time>
      </trkpt>
      <trkpt lat="41.632716000" lon="2.509719060">
        <ele>283.25</ele>
        <time>2015-10-18T09:40:38Z</time>
      </trkpt>
      <trkpt lat="41.632556410" lon="2.509700030">
        <ele>283.25</ele>
        <time>2015-10-18T09:40:44Z</time>
      </trkpt>
      <trkpt lat="41.632405780" lon="2.509731300">
        <ele>284.21</ele>
        <time>2015-10-18T09:40:51Z</time>
      </trkpt>
      <trkpt lat="41.632234790" lon="2.509760380">
        <ele>285.65</ele>
        <time>2015-10-18T09:40:59Z</time>
      </trkpt>
      <trkpt lat="41.632071680" lon="2.509749740">
        <ele>287.57</ele>
        <time>2015-10-18T09:41:07Z</time>
      </trkpt>
      <trkpt lat="41.631907060" lon="2.509689390">
        <ele>288.53</ele>
        <time>2015-10-18T09:41:14Z</time>
      </trkpt>
      <trkpt lat="41.631771020" lon="2.509643960">
        <ele>289.49</ele>
        <time>2015-10-18T09:41:21Z</time>
      </trkpt>
      <trkpt lat="41.631660550" lon="2.509595680">
        <ele>291.42</ele>
        <time>2015-10-18T09:41:27Z</time>
      </trkpt>
      <trkpt lat="41.631558040" lon="2.509569020">
        <ele>292.38</ele>
        <time>2015-10-18T09:41:32Z</time>
      </trkpt>
      <trkpt lat="41.631388720" lon="2.509498280">
        <ele>294.30</ele>
        <time>2015-10-18T09:41:40Z</time>
      </trkpt>
      <trkpt lat="41.631227870" lon="2.509430050">
        <ele>296.70</ele>
        <time>2015-10-18T09:41:48Z</time>
      </trkpt>
      <trkpt lat="41.631135170" lon="2.509362660">
        <ele>297.67</ele>
        <time>2015-10-18T09:41:54Z</time>
      </trkpt>
      <trkpt lat="41.631095270" lon="2.509328290">
        <ele>298.63</ele>
        <time>2015-10-18T09:41:57Z</time>
      </trkpt>
      <trkpt lat="41.630959820" lon="2.509161580">
        <ele>301.03</ele>
        <time>2015-10-18T09:42:07Z</time>
      </trkpt>
      <trkpt lat="41.630827470" lon="2.509021680">
        <ele>302.95</ele>
        <time>2015-10-18T09:42:16Z</time>
      </trkpt>
      <trkpt lat="41.630731830" lon="2.508922440">
        <ele>303.91</ele>
        <time>2015-10-18T09:42:22Z</time>
      </trkpt>
      <trkpt lat="41.630678270" lon="2.508766120">
        <ele>304.88</ele>
        <time>2015-10-18T09:42:29Z</time>
      </trkpt>
      <trkpt lat="41.630652620" lon="2.508614990">
        <ele>305.84</ele>
        <time>2015-10-18T09:42:36Z</time>
      </trkpt>
      <trkpt lat="41.630560930" lon="2.508432770">
        <ele>307.28</ele>
        <time>2015-10-18T09:42:45Z</time>
      </trkpt>
      <trkpt lat="41.630495720" lon="2.508316430">
        <ele>309.68</ele>
        <time>2015-10-18T09:42:52Z</time>
      </trkpt>
      <trkpt lat="41.630482720" lon="2.508223640">
        <ele>310.64</ele>
        <time>2015-10-18T09:42:57Z</time>
      </trkpt>
      <trkpt lat="41.630400830" lon="2.508136050">
        <ele>311.60</ele>
        <time>2015-10-18T09:43:02Z</time>
      </trkpt>
      <trkpt lat="41.630301930" lon="2.508057090">
        <ele>314.01</ele>
        <time>2015-10-18T09:43:09Z</time>
      </trkpt>
      <trkpt lat="41.630224560" lon="2.507966320">
        <ele>315.93</ele>
        <time>2015-10-18T09:43:17Z</time>
      </trkpt>
      <trkpt lat="41.630185580" lon="2.507908570">
        <ele>316.89</ele>
        <time>2015-10-18T09:43:22Z</time>
      </trkpt>
      <trkpt lat="41.630055250" lon="2.507785520">
        <ele>318.81</ele>
        <time>2015-10-18T09:43:31Z</time>
      </trkpt>
      <trkpt lat="41.629949800" lon="2.507702540">
        <ele>321.22</ele>
        <time>2015-10-18T09:43:38Z</time>
      </trkpt>
      <trkpt lat="41.629807980" lon="2.507590560">
        <ele>322.66</ele>
        <time>2015-10-18T09:43:46Z</time>
      </trkpt>
      <trkpt lat="41.629734390" lon="2.507523250">
        <ele>324.10</ele>
        <time>2015-10-18T09:43:53Z</time>
      </trkpt>
      <trkpt lat="41.629669600" lon="2.507458960">
        <ele>326.50</ele>
        <time>2015-10-18T09:44:00Z</time>
      </trkpt>
      <trkpt lat="41.629562470" lon="2.507362320">
        <ele>326.99</ele>
        <time>2015-10-18T09:44:07Z</time>
      </trkpt>
      <trkpt lat="41.629501290" lon="2.507299790">
        <ele>326.99</ele>
        <time>2015-10-18T09:44:11Z</time>
      </trkpt>
      <trkpt lat="41.629318640" lon="2.507152180">
        <ele>328.43</ele>
        <time>2015-10-18T09:44:21Z</time>
      </trkpt>
      <trkpt lat="41.629174980" lon="2.507009360">
        <ele>329.87</ele>
        <time>2015-10-18T09:44:29Z</time>
      </trkpt>
      <trkpt lat="41.629075070" lon="2.506875160">
        <ele>332.27</ele>
        <time>2015-10-18T09:44:38Z</time>
      </trkpt>
      <trkpt lat="41.628951940" lon="2.506866530">
        <ele>333.23</ele>
        <time>2015-10-18T09:44:45Z</time>
      </trkpt>
      <trkpt lat="41.628942050" lon="2.506946410">
        <ele>334.20</ele>
        <time>2015-10-18T09:44:50Z</time>
      </trkpt>
      <trkpt lat="41.628989150" lon="2.507062080">
        <ele>334.68</ele>
        <time>2015-10-18T09:44:58Z</time>
      </trkpt>
      <trkpt lat="41.629055290" lon="2.507194760">
        <ele>337.08</ele>
        <time>2015-10-18T09:45:07Z</time>
      </trkpt>
      <trkpt lat="41.629120750" lon="2.507361230">
        <ele>339.00</ele>
        <time>2015-10-18T09:45:16Z</time>
      </trkpt>
      <trkpt lat="41.629118990" lon="2.507437080">
        <ele>339.96</ele>
        <time>2015-10-18T09:45:21Z</time>
      </trkpt>
      <trkpt lat="41.629074310" lon="2.507468680">
        <ele>341.89</ele>
        <time>2015-10-18T09:45:26Z</time>
      </trkpt>
      <trkpt lat="41.628995270" lon="2.507428620">
        <ele>343.81</ele>
        <time>2015-10-18T09:45:34Z</time>
      </trkpt>
      <trkpt lat="41.628987060" lon="2.507420910">
        <ele>344.29</ele>
        <time>2015-10-18T09:45:36Z</time>
      </trkpt>
      <trkpt lat="41.628932160" lon="2.507371710">
        <ele>346.69</ele>
        <time>2015-10-18T09:45:42Z</time>
      </trkpt>
      <trkpt lat="41.628874740" lon="2.507346900">
        <ele>347.65</ele>
        <time>2015-10-18T09:45:47Z</time>
      </trkpt>
      <trkpt lat="41.628757640" lon="2.507262820">
        <ele>349.58</ele>
        <time>2015-10-18T09:45:55Z</time>
      </trkpt>
      <trkpt lat="41.628676930" lon="2.507128300">
        <ele>351.98</ele>
        <time>2015-10-18T09:46:04Z</time>
      </trkpt>
      <trkpt lat="41.628597300" lon="2.507017990">
        <ele>353.42</ele>
        <time>2015-10-18T09:46:12Z</time>
      </trkpt>
      <trkpt lat="41.628559330" lon="2.506956630">
        <ele>354.86</ele>
        <time>2015-10-18T09:46:17Z</time>
      </trkpt>
      <trkpt lat="41.628510040" lon="2.506845490">
        <ele>356.31</ele>
        <time>2015-10-18T09:46:24Z</time>
      </trkpt>
      <trkpt lat="41.628474840" lon="2.506778430">
        <ele>357.27</ele>
        <time>2015-10-18T09:46:29Z</time>
      </trkpt>
      <trkpt lat="41.628400320" lon="2.506721770">
        <ele>359.19</ele>
        <time>2015-10-18T09:46:37Z</time>
      </trkpt>
      <trkpt lat="41.628389590" lon="2.506718420">
        <ele>359.67</ele>
        <time>2015-10-18T09:46:38Z</time>
      </trkpt>
      <trkpt lat="41.628330840" lon="2.506703840">
        <ele>359.67</ele>
        <time>2015-10-18T09:46:42Z</time>
      </trkpt>
      <trkpt lat="41.628209220" lon="2.506595370">
        <ele>363.04</ele>
        <time>2015-10-18T09:46:53Z</time>
      </trkpt>
      <trkpt lat="41.628182060" lon="2.506571900">
        <ele>363.04</ele>
        <time>2015-10-18T09:46:56Z</time>
      </trkpt>
      <trkpt lat="41.628054910" lon="2.506518850">
        <ele>365.44</ele>
        <time>2015-10-18T09:47:06Z</time>
      </trkpt>
      <trkpt lat="41.628029510" lon="2.506517340">
        <ele>365.44</ele>
        <time>2015-10-18T09:47:08Z</time>
      </trkpt>
      <trkpt lat="41.627936720" lon="2.506458330">
        <ele>367.84</ele>
        <time>2015-10-18T09:47:17Z</time>
      </trkpt>
      <trkpt lat="41.627837980" lon="2.506365210">
        <ele>368.80</ele>
        <time>2015-10-18T09:47:25Z</time>
      </trkpt>
      <trkpt lat="41.627749720" lon="2.506294040">
        <ele>370.24</ele>
        <time>2015-10-18T09:47:33Z</time>
      </trkpt>
      <trkpt lat="41.627625080" lon="2.506253810">
        <ele>371.21</ele>
        <time>2015-10-18T09:47:41Z</time>
      </trkpt>
      <trkpt lat="41.627504880" lon="2.506246770">
        <ele>371.69</ele>
        <time>2015-10-18T09:47:48Z</time>
      </trkpt>
      <trkpt lat="41.627405730" lon="2.506240820">
        <ele>372.65</ele>
        <time>2015-10-18T09:47:55Z</time>
      </trkpt>
      <trkpt lat="41.627236580" lon="2.506216510">
        <ele>374.57</ele>
        <time>2015-10-18T09:48:05Z</time>
      </trkpt>
      <trkpt lat="41.627093000" lon="2.506240820">
        <ele>376.49</ele>
        <time>2015-10-18T09:48:13Z</time>
      </trkpt>
      <trkpt lat="41.627058380" lon="2.506265800">
        <ele>377.45</ele>
        <time>2015-10-18T09:48:16Z</time>
      </trkpt>
      <trkpt lat="41.626962160" lon="2.506371660">
        <ele>379.38</ele>
        <time>2015-10-18T09:48:24Z</time>
      </trkpt>
      <trkpt lat="41.626934920" lon="2.506404270">
        <ele>379.86</ele>
        <time>2015-10-18T09:48:26Z</time>
      </trkpt>
      <trkpt lat="41.626851600" lon="2.506486910">
        <ele>381.30</ele>
        <time>2015-10-18T09:48:33Z</time>
      </trkpt>
      <trkpt lat="41.626743300" lon="2.506502840">
        <ele>382.26</ele>
        <time>2015-10-18T09:48:40Z</time>
      </trkpt>
      <trkpt lat="41.626686730" lon="2.506432350">
        <ele>383.22</ele>
        <time>2015-10-18T09:48:46Z</time>
      </trkpt>
      <trkpt lat="41.626678930" lon="2.506383900">
        <ele>384.18</ele>
        <time>2015-10-18T09:48:50Z</time>
      </trkpt>
      <trkpt lat="41.626681280" lon="2.506256910">
        <ele>385.15</ele>
        <time>2015-10-18T09:48:57Z</time>
      </trkpt>
      <trkpt lat="41.626669630" lon="2.506189020">
        <ele>386.11</ele>
        <time>2015-10-18T09:49:00Z</time>
      </trkpt>
      <trkpt lat="41.626596290" lon="2.506083160">
        <ele>386.11</ele>
        <time>2015-10-18T09:49:06Z</time>
      </trkpt>
      <trkpt lat="41.626510710" lon="2.505984840">
        <ele>387.07</ele>
        <time>2015-10-18T09:49:14Z</time>
      </trkpt>
      <trkpt lat="41.626410290" lon="2.505881400">
        <ele>387.55</ele>
        <time>2015-10-18T09:49:20Z</time>
      </trkpt>
      <trkpt lat="41.626324460" lon="2.505735060">
        <ele>388.51</ele>
        <time>2015-10-18T09:49:28Z</time>
      </trkpt>
      <trkpt lat="41.626310970" lon="2.505652740">
        <ele>388.99</ele>
        <time>2015-10-18T09:49:31Z</time>
      </trkpt>
      <trkpt lat="41.626327560" lon="2.505578230">
        <ele>389.47</ele>
        <time>2015-10-18T09:49:35Z</time>
      </trkpt>
      <trkpt lat="41.626426720" lon="2.505434060">
        <ele>390.43</ele>
        <time>2015-10-18T09:49:43Z</time>
      </trkpt>
      <trkpt lat="41.626443320" lon="2.505407830">
        <ele>390.91</ele>
        <time>2015-10-18T09:49:45Z</time>
      </trkpt>
      <trkpt lat="41.626449270" lon="2.505265920">
        <ele>391.87</ele>
        <time>2015-10-18T09:49:51Z</time>
      </trkpt>
      <trkpt lat="41.626379450" lon="2.505208670">
        <ele>392.36</ele>
        <time>2015-10-18T09:49:56Z</time>
      </trkpt>
      <trkpt lat="41.626296970" lon="2.505322000">
        <ele>394.76</ele>
        <time>2015-10-18T09:50:05Z</time>
      </trkpt>
      <trkpt lat="41.626189510" lon="2.505354100">
        <ele>397.16</ele>
        <time>2015-10-18T09:50:14Z</time>
      </trkpt>
      <trkpt lat="41.626088760" lon="2.505400030">
        <ele>397.64</ele>
        <time>2015-10-18T09:50:20Z</time>
      </trkpt>
      <trkpt lat="41.625997570" lon="2.505519470">
        <ele>398.12</ele>
        <time>2015-10-18T09:50:27Z</time>
      </trkpt>
      <trkpt lat="41.626030930" lon="2.505677050">
        <ele>400.05</ele>
        <time>2015-10-18T09:50:35Z</time>
      </trkpt>
      <trkpt lat="41.626088340" lon="2.505812500">
        <ele>401.49</ele>
        <time>2015-10-18T09:50:42Z</time>
      </trkpt>
      <trkpt lat="41.626115920" lon="2.505960530">
        <ele>402.93</ele>
        <time>2015-10-18T09:50:50Z</time>
      </trkpt>
      <trkpt lat="41.626100920" lon="2.506044180">
        <ele>404.37</ele>
        <time>2015-10-18T09:50:54Z</time>
      </trkpt>
      <trkpt lat="41.626048780" lon="2.506193550">
        <ele>404.85</ele>
        <time>2015-10-18T09:51:02Z</time>
      </trkpt>
      <trkpt lat="41.625992370" lon="2.506274260">
        <ele>405.81</ele>
        <time>2015-10-18T09:51:08Z</time>
      </trkpt>
      <trkpt lat="41.625934030" lon="2.506483890">
        <ele>406.29</ele>
        <time>2015-10-18T09:51:15Z</time>
      </trkpt>
      <trkpt lat="41.625926400" lon="2.506612220">
        <ele>406.77</ele>
        <time>2015-10-18T09:51:20Z</time>
      </trkpt>
      <trkpt lat="41.625909890" lon="2.506731500">
        <ele>408.22</ele>
        <time>2015-10-18T09:51:27Z</time>
      </trkpt>
      <trkpt lat="41.625869410" lon="2.506837020">
        <ele>409.66</ele>
        <time>2015-10-18T09:51:34Z</time>
      </trkpt>
      <trkpt lat="41.625791620" lon="2.507012620">
        <ele>411.10</ele>
        <time>2015-10-18T09:51:43Z</time>
      </trkpt>
      <trkpt lat="41.625736720" lon="2.507131060">
        <ele>412.06</ele>
        <time>2015-10-18T09:51:50Z</time>
      </trkpt>
      <trkpt lat="41.625692630" lon="2.507264840">
        <ele>413.50</ele>
        <time>2015-10-18T09:51:57Z</time>
      </trkpt>
      <trkpt lat="41.625630020" lon="2.507483600">
        <ele>413.98</ele>
        <time>2015-10-18T09:52:05Z</time>
      </trkpt>
      <trkpt lat="41.625545700" lon="2.507679150">
        <ele>415.43</ele>
        <time>2015-10-18T09:52:14Z</time>
      </trkpt>
      <trkpt lat="41.625447630" lon="2.507800520">
        <ele>417.35</ele>
        <time>2015-10-18T09:52:23Z</time>
      </trkpt>
      <trkpt lat="41.625404130" lon="2.507712260">
        <ele>418.31</ele>
        <time>2015-10-18T09:52:29Z</time>
      </trkpt>
      <trkpt lat="41.625403370" lon="2.507615540">
        <ele>417.83</ele>
        <time>2015-10-18T09:52:33Z</time>
      </trkpt>
      <trkpt lat="41.625388710" lon="2.507508750">
        <ele>418.31</ele>
        <time>2015-10-18T09:52:40Z</time>
      </trkpt>
      <trkpt lat="41.625386950" lon="2.507453930">
        <ele>418.31</ele>
        <time>2015-10-18T09:52:43Z</time>
      </trkpt>
      <trkpt lat="41.625381580" lon="2.507425690">
        <ele>418.31</ele>
        <time>2015-10-18T09:52:48Z</time>
      </trkpt>
      <trkpt lat="41.625382000" lon="2.507435320">
        <ele>418.79</ele>
        <time>2015-10-18T09:52:59Z</time>
      </trkpt>
      <trkpt lat="41.625385350" lon="2.507443200">
        <ele>418.31</ele>
        <time>2015-10-18T09:53:12Z</time>
      </trkpt>
      <trkpt lat="41.625387950" lon="2.507424260">
        <ele>418.31</ele>
        <time>2015-10-18T09:53:21Z</time>
      </trkpt>
      <trkpt lat="41.625357940" lon="2.507303310">
        <ele>418.31</ele>
        <time>2015-10-18T09:53:27Z</time>
      </trkpt>
      <trkpt lat="41.625321060" lon="2.507121000">
        <ele>419.27</ele>
        <time>2015-10-18T09:53:35Z</time>
      </trkpt>
      <trkpt lat="41.625276970" lon="2.506967700">
        <ele>419.75</ele>
        <time>2015-10-18T09:53:43Z</time>
      </trkpt>
      <trkpt lat="41.625220150" lon="2.506819250">
        <ele>420.71</ele>
        <time>2015-10-18T09:53:51Z</time>
      </trkpt>
      <trkpt lat="41.625147060" lon="2.506741810">
        <ele>422.64</ele>
        <time>2015-10-18T09:53:58Z</time>
      </trkpt>
      <trkpt lat="41.625164070" lon="2.506727720">
        <ele>422.16</ele>
        <time>2015-10-18T09:54:06Z</time>
      </trkpt>
      <trkpt lat="41.625171700" lon="2.506732330">
        <ele>422.16</ele>
        <time>2015-10-18T09:54:07Z</time>
      </trkpt>
      <trkpt lat="41.625223410" lon="2.506827380">
        <ele>421.19</ele>
        <time>2015-10-18T09:54:13Z</time>
      </trkpt>
      <trkpt lat="41.625259210" lon="2.506789000">
        <ele>420.23</ele>
        <time>2015-10-18T09:54:17Z</time>
      </trkpt>
      <trkpt lat="41.625234980" lon="2.506652450">
        <ele>420.23</ele>
        <time>2015-10-18T09:54:26Z</time>
      </trkpt>
      <trkpt lat="41.625220060" lon="2.506587580">
        <ele>421.19</ele>
        <time>2015-10-18T09:54:31Z</time>
      </trkpt>
      <trkpt lat="41.625218390" lon="2.506554130">
        <ele>421.68</ele>
        <time>2015-10-18T09:54:37Z</time>
      </trkpt>
      <trkpt lat="41.625205730" lon="2.506551620">
        <ele>421.68</ele>
        <time>2015-10-18T09:54:40Z</time>
      </trkpt>
      <trkpt lat="41.625174880" lon="2.506536370">
        <ele>422.16</ele>
        <time>2015-10-18T09:54:47Z</time>
      </trkpt>
      <trkpt lat="41.625144120" lon="2.506492020">
        <ele>422.64</ele>
        <time>2015-10-18T09:54:52Z</time>
      </trkpt>
      <trkpt lat="41.625066670" lon="2.506368310">
        <ele>423.60</ele>
        <time>2015-10-18T09:55:01Z</time>
      </trkpt>
      <trkpt lat="41.625029210" lon="2.506297900">
        <ele>424.08</ele>
        <time>2015-10-18T09:55:06Z</time>
      </trkpt>
      <trkpt lat="41.624998780" lon="2.506196400">
        <ele>425.04</ele>
        <time>2015-10-18T09:55:13Z</time>
      </trkpt>
      <trkpt lat="41.624927870" lon="2.506143510">
        <ele>426.00</ele>
        <time>2015-10-18T09:55:20Z</time>
      </trkpt>
      <trkpt lat="41.624812370" lon="2.506162780">
        <ele>428.40</ele>
        <time>2015-10-18T09:55:29Z</time>
      </trkpt>
      <trkpt lat="41.624712790" lon="2.506221290">
        <ele>429.85</ele>
        <time>2015-10-18T09:55:37Z</time>
      </trkpt>
      <trkpt lat="41.624598380" lon="2.506260430">
        <ele>431.77</ele>
        <time>2015-10-18T09:55:45Z</time>
      </trkpt>
      <trkpt lat="41.624534840" lon="2.506266050">
        <ele>432.73</ele>
        <time>2015-10-18T09:55:49Z</time>
      </trkpt>
      <trkpt lat="41.624453540" lon="2.506277950">
        <ele>433.21</ele>
        <time>2015-10-18T09:55:54Z</time>
      </trkpt>
      <trkpt lat="41.624305850" lon="2.506307620">
        <ele>435.61</ele>
        <time>2015-10-18T09:56:04Z</time>
      </trkpt>
      <trkpt lat="41.624182130" lon="2.506302590">
        <ele>437.06</ele>
        <time>2015-10-18T09:56:12Z</time>
      </trkpt>
      <trkpt lat="41.624049360" lon="2.506272250">
        <ele>437.54</ele>
        <time>2015-10-18T09:56:20Z</time>
      </trkpt>
      <trkpt lat="41.623908380" lon="2.506183320">
        <ele>439.46</ele>
        <time>2015-10-18T09:56:30Z</time>
      </trkpt>
      <trkpt lat="41.623788350" lon="2.506113000">
        <ele>439.46</ele>
        <time>2015-10-18T09:56:37Z</time>
      </trkpt>
      <trkpt lat="41.623664130" lon="2.506017610">
        <ele>441.38</ele>
        <time>2015-10-18T09:56:46Z</time>
      </trkpt>
      <trkpt lat="41.623639150" lon="2.505977880">
        <ele>442.34</ele>
        <time>2015-10-18T09:56:49Z</time>
      </trkpt>
      <trkpt lat="41.623585090" lon="2.505907140">
        <ele>442.82</ele>
        <time>2015-10-18T09:56:53Z</time>
      </trkpt>
      <trkpt lat="41.623580140" lon="2.505806470">
        <ele>442.82</ele>
        <time>2015-10-18T09:56:57Z</time>
      </trkpt>
      <trkpt lat="41.623606130" lon="2.505725500">
        <ele>443.31</ele>
        <time>2015-10-18T09:57:01Z</time>
      </trkpt>
      <trkpt lat="41.623680810" lon="2.505581750">
        <ele>443.79</ele>
        <time>2015-10-18T09:57:09Z</time>
      </trkpt>
      <trkpt lat="41.623745350" lon="2.505467500">
        <ele>444.75</ele>
        <time>2015-10-18T09:57:15Z</time>
      </trkpt>
      <trkpt lat="41.623840820" lon="2.505320400">
        <ele>446.19</ele>
        <time>2015-10-18T09:57:24Z</time>
      </trkpt>
      <trkpt lat="41.623931430" lon="2.505188810">
        <ele>447.63</ele>
        <time>2015-10-18T09:57:31Z</time>
      </trkpt>
      <trkpt lat="41.624028910" lon="2.505078170">
        <ele>450.03</ele>
        <time>2015-10-18T09:57:40Z</time>
      </trkpt>
      <trkpt lat="41.624151290" lon="2.504962330">
        <ele>450.52</ele>
        <time>2015-10-18T09:57:47Z</time>
      </trkpt>
      <trkpt lat="41.624238370" lon="2.504780110">
        <ele>451.00</ele>
        <time>2015-10-18T09:57:54Z</time>
      </trkpt>
      <trkpt lat="41.624287490" lon="2.504629820">
        <ele>451.00</ele>
        <time>2015-10-18T09:58:00Z</time>
      </trkpt>
      <trkpt lat="41.624315240" lon="2.504427060">
        <ele>451.96</ele>
        <time>2015-10-18T09:58:08Z</time>
      </trkpt>
      <trkpt lat="41.624297800" lon="2.504345340">
        <ele>452.44</ele>
        <time>2015-10-18T09:58:11Z</time>
      </trkpt>
      <trkpt lat="41.624210460" lon="2.504293700">
        <ele>452.92</ele>
        <time>2015-10-18T09:58:15Z</time>
      </trkpt>
      <trkpt lat="41.624024970" lon="2.504296890">
        <ele>453.88</ele>
        <time>2015-10-18T09:58:23Z</time>
      </trkpt>
      <trkpt lat="41.623940230" lon="2.504264530">
        <ele>453.88</ele>
        <time>2015-10-18T09:58:25Z</time>
      </trkpt>
      <trkpt lat="41.623849960" lon="2.504205440">
        <ele>452.44</ele>
        <time>2015-10-18T09:58:27Z</time>
      </trkpt>
      <trkpt lat="41.623708390" lon="2.504054320">
        <ele>451.48</ele>
        <time>2015-10-18T09:58:31Z</time>
      </trkpt>
      <trkpt lat="41.623599590" lon="2.504112990">
        <ele>450.52</ele>
        <time>2015-10-18T09:58:34Z</time>
      </trkpt>
      <trkpt lat="41.623572600" lon="2.504166210">
        <ele>450.03</ele>
        <time>2015-10-18T09:58:35Z</time>
      </trkpt>
      <trkpt lat="41.623332040" lon="2.504328660">
        <ele>446.19</ele>
        <time>2015-10-18T09:58:40Z</time>
      </trkpt>
      <trkpt lat="41.623094660" lon="2.504302090">
        <ele>443.31</ele>
        <time>2015-10-18T09:58:44Z</time>
      </trkpt>
      <trkpt lat="41.622855530" lon="2.504219770">
        <ele>439.46</ele>
        <time>2015-10-18T09:58:48Z</time>
      </trkpt>
      <trkpt lat="41.622764830" lon="2.504020620">
        <ele>438.02</ele>
        <time>2015-10-18T09:58:51Z</time>
      </trkpt>
      <trkpt lat="41.622761310" lon="2.503927580">
        <ele>437.06</ele>
        <time>2015-10-18T09:58:52Z</time>
      </trkpt>
      <trkpt lat="41.622767010" lon="2.503670340">
        <ele>436.58</ele>
        <time>2015-10-18T09:58:55Z</time>
      </trkpt>
      <trkpt lat="41.622797360" lon="2.503410670">
        <ele>436.58</ele>
        <time>2015-10-18T09:58:59Z</time>
      </trkpt>
      <trkpt lat="41.622674650" lon="2.503134150">
        <ele>436.10</ele>
        <time>2015-10-18T09:59:04Z</time>
      </trkpt>
      <trkpt lat="41.622519660" lon="2.503087460">
        <ele>435.13</ele>
        <time>2015-10-18T09:59:07Z</time>
      </trkpt>
      <trkpt lat="41.622311120" lon="2.503145470">
        <ele>433.21</ele>
        <time>2015-10-18T09:59:11Z</time>
      </trkpt>
      <trkpt lat="41.622242060" lon="2.503118900">
        <ele>432.73</ele>
        <time>2015-10-18T09:59:12Z</time>
      </trkpt>
      <trkpt lat="41.622109030" lon="2.503056280">
        <ele>431.77</ele>
        <time>2015-10-18T09:59:14Z</time>
      </trkpt>
      <trkpt lat="41.621956900" lon="2.503011270">
        <ele>430.33</ele>
        <time>2015-10-18T09:59:16Z</time>
      </trkpt>
      <trkpt lat="41.621802340" lon="2.502862580">
        <ele>427.44</ele>
        <time>2015-10-18T09:59:19Z</time>
      </trkpt>
      <trkpt lat="41.621743920" lon="2.502695610">
        <ele>425.52</ele>
        <time>2015-10-18T09:59:21Z</time>
      </trkpt>
      <trkpt lat="41.621703600" lon="2.502506260">
        <ele>423.12</ele>
        <time>2015-10-18T09:59:23Z</time>
      </trkpt>
      <trkpt lat="41.621712070" lon="2.502119100">
        <ele>419.27</ele>
        <time>2015-10-18T09:59:27Z</time>
      </trkpt>
      <trkpt lat="41.621744590" lon="2.501710820">
        <ele>416.87</ele>
        <time>2015-10-18T09:59:32Z</time>
      </trkpt>
      <trkpt lat="41.621648700" lon="2.501635050">
        <ele>416.39</ele>
        <time>2015-10-18T09:59:34Z</time>
      </trkpt>
      <trkpt lat="41.621360530" lon="2.501391890">
        <ele>415.91</ele>
        <time>2015-10-18T09:59:42Z</time>
      </trkpt>
      <trkpt lat="41.621265560" lon="2.501241520">
        <ele>416.87</ele>
        <time>2015-10-18T09:59:47Z</time>
      </trkpt>
      <trkpt lat="41.621168170" lon="2.501034480">
        <ele>417.83</ele>
        <time>2015-10-18T09:59:54Z</time>
      </trkpt>
      <trkpt lat="41.621022740" lon="2.500888810">
        <ele>414.95</ele>
        <time>2015-10-18T09:59:59Z</time>
      </trkpt>
      <trkpt lat="41.620990050" lon="2.500889140">
        <ele>413.98</ele>
        <time>2015-10-18T10:00:00Z</time>
      </trkpt>
      <trkpt lat="41.620927690" lon="2.500907670">
        <ele>413.50</ele>
        <time>2015-10-18T10:00:02Z</time>
      </trkpt>
      <trkpt lat="41.620752670" lon="2.501042030">
        <ele>411.10</ele>
        <time>2015-10-18T10:00:06Z</time>
      </trkpt>
      <trkpt lat="41.620653270" lon="2.501207820">
        <ele>409.18</ele>
        <time>2015-10-18T10:00:09Z</time>
      </trkpt>
      <trkpt lat="41.620488480" lon="2.501404710">
        <ele>407.74</ele>
        <time>2015-10-18T10:00:13Z</time>
      </trkpt>
      <trkpt lat="41.620220760" lon="2.501516360">
        <ele>406.29</ele>
        <time>2015-10-18T10:00:18Z</time>
      </trkpt>
      <trkpt lat="41.620045580" lon="2.501373360">
        <ele>404.37</ele>
        <time>2015-10-18T10:00:21Z</time>
      </trkpt>
      <trkpt lat="41.619954050" lon="2.501216120">
        <ele>403.41</ele>
        <time>2015-10-18T10:00:23Z</time>
      </trkpt>
      <trkpt lat="41.619870730" lon="2.501078660">
        <ele>402.45</ele>
        <time>2015-10-18T10:00:25Z</time>
      </trkpt>
      <trkpt lat="41.619828400" lon="2.501033230">
        <ele>401.01</ele>
        <time>2015-10-18T10:00:26Z</time>
      </trkpt>
      <trkpt lat="41.619702930" lon="2.500900210">
        <ele>399.08</ele>
        <time>2015-10-18T10:00:29Z</time>
      </trkpt>
      <trkpt lat="41.619617850" lon="2.500728210">
        <ele>396.20</ele>
        <time>2015-10-18T10:00:32Z</time>
      </trkpt>
      <trkpt lat="41.619453730" lon="2.500652940">
        <ele>392.84</ele>
        <time>2015-10-18T10:00:36Z</time>
      </trkpt>
      <trkpt lat="41.619352900" lon="2.500711360">
        <ele>391.39</ele>
        <time>2015-10-18T10:00:39Z</time>
      </trkpt>
      <trkpt lat="41.619383410" lon="2.500867680">
        <ele>388.03</ele>
        <time>2015-10-18T10:00:43Z</time>
      </trkpt>
      <trkpt lat="41.619439230" lon="2.500968850">
        <ele>387.07</ele>
        <time>2015-10-18T10:00:45Z</time>
      </trkpt>
      <trkpt lat="41.619514750" lon="2.501124090">
        <ele>383.70</ele>
        <time>2015-10-18T10:00:48Z</time>
      </trkpt>
      <trkpt lat="41.619565800" lon="2.501252080">
        <ele>381.30</ele>
        <time>2015-10-18T10:00:50Z</time>
      </trkpt>
      <trkpt lat="41.619579880" lon="2.501523570">
        <ele>377.45</ele>
        <time>2015-10-18T10:00:54Z</time>
      </trkpt>
      <trkpt lat="41.619561770" lon="2.501603110">
        <ele>376.01</ele>
        <time>2015-10-18T10:00:55Z</time>
      </trkpt>
      <trkpt lat="41.619524390" lon="2.501740410">
        <ele>373.61</ele>
        <time>2015-10-18T10:00:57Z</time>
      </trkpt>
      <trkpt lat="41.619541150" lon="2.501988090">
        <ele>369.28</ele>
        <time>2015-10-18T10:01:01Z</time>
      </trkpt>
      <trkpt lat="41.619558760" lon="2.502251540">
        <ele>364.48</ele>
        <time>2015-10-18T10:01:06Z</time>
      </trkpt>
      <trkpt lat="41.619568230" lon="2.502356560">
        <ele>362.55</ele>
        <time>2015-10-18T10:01:08Z</time>
      </trkpt>
      <trkpt lat="41.619581640" lon="2.502615310">
        <ele>359.67</ele>
        <time>2015-10-18T10:01:12Z</time>
      </trkpt>
      <trkpt lat="41.619529670" lon="2.502921750">
        <ele>354.38</ele>
        <time>2015-10-18T10:01:16Z</time>
      </trkpt>
      <trkpt lat="41.619511570" lon="2.503141610">
        <ele>351.02</ele>
        <time>2015-10-18T10:01:20Z</time>
      </trkpt>
      <trkpt lat="41.619449120" lon="2.503112270">
        <ele>349.10</ele>
        <time>2015-10-18T10:01:24Z</time>
      </trkpt>
      <trkpt lat="41.619447860" lon="2.503054940">
        <ele>349.10</ele>
        <time>2015-10-18T10:01:25Z</time>
      </trkpt>
      <trkpt lat="41.619441910" lon="2.502918740">
        <ele>348.13</ele>
        <time>2015-10-18T10:01:27Z</time>
      </trkpt>
      <trkpt lat="41.619428000" lon="2.502746320">
        <ele>346.21</ele>
        <time>2015-10-18T10:01:30Z</time>
      </trkpt>
      <trkpt lat="41.619348040" lon="2.502753190">
        <ele>345.25</ele>
        <time>2015-10-18T10:01:34Z</time>
      </trkpt>
      <trkpt lat="41.619323390" lon="2.502995510">
        <ele>342.37</ele>
        <time>2015-10-18T10:01:38Z</time>
      </trkpt>
      <trkpt lat="41.619286600" lon="2.503148400">
        <ele>341.41</ele>
        <time>2015-10-18T10:01:40Z</time>
      </trkpt>
      <trkpt lat="41.619119290" lon="2.503597920">
        <ele>337.08</ele>
        <time>2015-10-18T10:01:45Z</time>
      </trkpt>
      <trkpt lat="41.619041090" lon="2.503842920">
        <ele>334.20</ele>
        <time>2015-10-18T10:01:48Z</time>
      </trkpt>
      <trkpt lat="41.618983670" lon="2.504014500">
        <ele>330.83</ele>
        <time>2015-10-18T10:01:51Z</time>
      </trkpt>
      <trkpt lat="41.618936570" lon="2.504069320">
        <ele>329.87</ele>
        <time>2015-10-18T10:01:53Z</time>
      </trkpt>
      <trkpt lat="41.618884600" lon="2.503968070">
        <ele>327.95</ele>
        <time>2015-10-18T10:01:56Z</time>
      </trkpt>
      <trkpt lat="41.618866330" lon="2.503720460">
        <ele>325.06</ele>
        <time>2015-10-18T10:01:59Z</time>
      </trkpt>
      <trkpt lat="41.618908820" lon="2.503367920">
        <ele>320.74</ele>
        <time>2015-10-18T10:02:03Z</time>
      </trkpt>
      <trkpt lat="41.618903880" lon="2.503129370">
        <ele>318.33</ele>
        <time>2015-10-18T10:02:07Z</time>
      </trkpt>
      <trkpt lat="41.618811170" lon="2.503128950">
        <ele>316.89</ele>
        <time>2015-10-18T10:02:09Z</time>
      </trkpt>
      <trkpt lat="41.618556950" lon="2.503237250">
        <ele>312.57</ele>
        <time>2015-10-18T10:02:13Z</time>
      </trkpt>
      <trkpt lat="41.618338690" lon="2.503532210">
        <ele>310.16</ele>
        <time>2015-10-18T10:02:18Z</time>
      </trkpt>
      <trkpt lat="41.618250260" lon="2.503691970">
        <ele>308.24</ele>
        <time>2015-10-18T10:02:20Z</time>
      </trkpt>
      <trkpt lat="41.618175740" lon="2.503964630">
        <ele>304.39</ele>
        <time>2015-10-18T10:02:23Z</time>
      </trkpt>
      <trkpt lat="41.618081030" lon="2.504280800">
        <ele>300.55</ele>
        <time>2015-10-18T10:02:26Z</time>
      </trkpt>
      <trkpt lat="41.617906350" lon="2.504686480">
        <ele>295.74</ele>
        <time>2015-10-18T10:02:30Z</time>
      </trkpt>
      <trkpt lat="41.617798470" lon="2.504867610">
        <ele>293.82</ele>
        <time>2015-10-18T10:02:32Z</time>
      </trkpt>
      <trkpt lat="41.617676430" lon="2.505150840">
        <ele>290.46</ele>
        <time>2015-10-18T10:02:35Z</time>
      </trkpt>
      <trkpt lat="41.617629240" lon="2.505482010">
        <ele>285.65</ele>
        <time>2015-10-18T10:02:39Z</time>
      </trkpt>
      <trkpt lat="41.617553640" lon="2.505746540">
        <ele>280.84</ele>
        <time>2015-10-18T10:02:42Z</time>
      </trkpt>
      <trkpt lat="41.617526560" lon="2.505841420">
        <ele>279.40</ele>
        <time>2015-10-18T10:02:43Z</time>
      </trkpt>
      <trkpt lat="41.617492870" lon="2.506031770">
        <ele>277.00</ele>
        <time>2015-10-18T10:02:45Z</time>
      </trkpt>
      <trkpt lat="41.617523300" lon="2.506398480">
        <ele>273.63</ele>
        <time>2015-10-18T10:02:49Z</time>
      </trkpt>
      <trkpt lat="41.617487170" lon="2.506815900">
        <ele>268.35</ele>
        <time>2015-10-18T10:02:53Z</time>
      </trkpt>
      <trkpt lat="41.617467300" lon="2.507026040">
        <ele>264.98</ele>
        <time>2015-10-18T10:02:55Z</time>
      </trkpt>
      <trkpt lat="41.617479960" lon="2.507366090">
        <ele>262.58</ele>
        <time>2015-10-18T10:02:59Z</time>
      </trkpt>
      <trkpt lat="41.617438810" lon="2.507662140">
        <ele>260.17</ele>
        <time>2015-10-18T10:03:03Z</time>
      </trkpt>
      <trkpt lat="41.617427660" lon="2.507938150">
        <ele>257.77</ele>
        <time>2015-10-18T10:03:06Z</time>
      </trkpt>
      <trkpt lat="41.617373340" lon="2.508257340">
        <ele>254.41</ele>
        <time>2015-10-18T10:03:09Z</time>
      </trkpt>
      <trkpt lat="41.617261280" lon="2.508545090">
        <ele>252.00</ele>
        <time>2015-10-18T10:03:12Z</time>
      </trkpt>
      <trkpt lat="41.617096070" lon="2.509057050">
        <ele>249.12</ele>
        <time>2015-10-18T10:03:17Z</time>
      </trkpt>
      <trkpt lat="41.616977630" lon="2.509364500">
        <ele>246.72</ele>
        <time>2015-10-18T10:03:21Z</time>
      </trkpt>
      <trkpt lat="41.616805220" lon="2.509809000">
        <ele>245.27</ele>
        <time>2015-10-18T10:03:27Z</time>
      </trkpt>
      <trkpt lat="41.616777390" lon="2.510214600">
        <ele>241.91</ele>
        <time>2015-10-18T10:03:32Z</time>
      </trkpt>
      <trkpt lat="41.616660130" lon="2.510546270">
        <ele>238.54</ele>
        <time>2015-10-18T10:03:36Z</time>
      </trkpt>
      <trkpt lat="41.616612850" lon="2.510610390">
        <ele>237.58</ele>
        <time>2015-10-18T10:03:37Z</time>
      </trkpt>
      <trkpt lat="41.616499030" lon="2.510752210">
        <ele>235.66</ele>
        <time>2015-10-18T10:03:39Z</time>
      </trkpt>
      <trkpt lat="41.616397350" lon="2.511018920">
        <ele>234.22</ele>
        <time>2015-10-18T10:03:42Z</time>
      </trkpt>
      <trkpt lat="41.616374300" lon="2.511116320">
        <ele>233.26</ele>
        <time>2015-10-18T10:03:43Z</time>
      </trkpt>
      <trkpt lat="41.616343790" lon="2.511359900">
        <ele>231.81</ele>
        <time>2015-10-18T10:03:46Z</time>
      </trkpt>
      <trkpt lat="41.616342120" lon="2.511484870">
        <ele>231.81</ele>
        <time>2015-10-18T10:03:48Z</time>
      </trkpt>
      <trkpt lat="41.616427950" lon="2.511733310">
        <ele>230.85</ele>
        <time>2015-10-18T10:03:53Z</time>
      </trkpt>
      <trkpt lat="41.616507070" lon="2.511876640">
        <ele>229.89</ele>
        <time>2015-10-18T10:03:56Z</time>
      </trkpt>
      <trkpt lat="41.616662390" lon="2.512160450">
        <ele>229.89</ele>
        <time>2015-10-18T10:04:01Z</time>
      </trkpt>
      <trkpt lat="41.616770180" lon="2.512456920">
        <ele>228.45</ele>
        <time>2015-10-18T10:04:05Z</time>
      </trkpt>
      <trkpt lat="41.616850230" lon="2.512871830">
        <ele>227.49</ele>
        <time>2015-10-18T10:04:10Z</time>
      </trkpt>
      <trkpt lat="41.616874280" lon="2.513578000">
        <ele>225.57</ele>
        <time>2015-10-18T10:04:18Z</time>
      </trkpt>
      <trkpt lat="41.616857270" lon="2.514347290">
        <ele>223.16</ele>
        <time>2015-10-18T10:04:26Z</time>
      </trkpt>
      <trkpt lat="41.616851150" lon="2.514929500">
        <ele>220.28</ele>
        <time>2015-10-18T10:04:32Z</time>
      </trkpt>
      <trkpt lat="41.616842600" lon="2.515786630">
        <ele>217.88</ele>
        <time>2015-10-18T10:04:40Z</time>
      </trkpt>
      <trkpt lat="41.616796170" lon="2.516640580">
        <ele>215.47</ele>
        <time>2015-10-18T10:04:48Z</time>
      </trkpt>
      <trkpt lat="41.616737660" lon="2.517269560">
        <ele>214.03</ele>
        <time>2015-10-18T10:04:54Z</time>
      </trkpt>
      <trkpt lat="41.616722240" lon="2.517929220">
        <ele>211.63</ele>
        <time>2015-10-18T10:05:00Z</time>
      </trkpt>
      <trkpt lat="41.616720230" lon="2.518222410">
        <ele>210.67</ele>
        <time>2015-10-18T10:05:03Z</time>
      </trkpt>
      <trkpt lat="41.616616790" lon="2.518645450">
        <ele>208.74</ele>
        <time>2015-10-18T10:05:08Z</time>
      </trkpt>
      <trkpt lat="41.616510340" lon="2.518980890">
        <ele>208.74</ele>
        <time>2015-10-18T10:05:13Z</time>
      </trkpt>
      <trkpt lat="41.616410510" lon="2.519562680">
        <ele>208.26</ele>
        <time>2015-10-18T10:05:20Z</time>
      </trkpt>
      <trkpt lat="41.616352760" lon="2.519822440">
        <ele>207.30</ele>
        <time>2015-10-18T10:05:23Z</time>
      </trkpt>
      <trkpt lat="41.616237010" lon="2.520162660">
        <ele>205.86</ele>
        <time>2015-10-18T10:05:27Z</time>
      </trkpt>
      <trkpt lat="41.616141960" lon="2.520405820">
        <ele>205.38</ele>
        <time>2015-10-18T10:05:30Z</time>
      </trkpt>
      <trkpt lat="41.616042720" lon="2.520716530">
        <ele>204.42</ele>
        <time>2015-10-18T10:05:34Z</time>
      </trkpt>
      <trkpt lat="41.615996620" lon="2.520946700">
        <ele>203.46</ele>
        <time>2015-10-18T10:05:37Z</time>
      </trkpt>
      <trkpt lat="41.615981700" lon="2.521086930">
        <ele>203.46</ele>
        <time>2015-10-18T10:05:39Z</time>
      </trkpt>
      <trkpt lat="41.615900640" lon="2.521607280">
        <ele>202.98</ele>
        <time>2015-10-18T10:05:46Z</time>
      </trkpt>
      <trkpt lat="41.615886390" lon="2.521690430">
        <ele>202.98</ele>
        <time>2015-10-18T10:05:47Z</time>
      </trkpt>
      <trkpt lat="41.615822520" lon="2.522173140">
        <ele>201.53</ele>
        <time>2015-10-18T10:05:54Z</time>
      </trkpt>
      <trkpt lat="41.615733760" lon="2.522839500">
        <ele>198.65</ele>
        <time>2015-10-18T10:06:02Z</time>
      </trkpt>
      <trkpt lat="41.615642400" lon="2.523544000">
        <ele>196.73</ele>
        <time>2015-10-18T10:06:10Z</time>
      </trkpt>
      <trkpt lat="41.615588250" lon="2.524218830">
        <ele>193.36</ele>
        <time>2015-10-18T10:06:17Z</time>
      </trkpt>
      <trkpt lat="41.615575340" lon="2.524325780">
        <ele>192.88</ele>
        <time>2015-10-18T10:06:18Z</time>
      </trkpt>
      <trkpt lat="41.615528570" lon="2.525094230">
        <ele>190.48</ele>
        <time>2015-10-18T10:06:25Z</time>
      </trkpt>
      <trkpt lat="41.615515240" lon="2.525410400">
        <ele>189.04</ele>
        <time>2015-10-18T10:06:28Z</time>
      </trkpt>
      <trkpt lat="41.615522450" lon="2.526090930">
        <ele>187.11</ele>
        <time>2015-10-18T10:06:35Z</time>
      </trkpt>
      <trkpt lat="41.615561430" lon="2.526792490">
        <ele>184.71</ele>
        <time>2015-10-18T10:06:42Z</time>
      </trkpt>
      <trkpt lat="41.615557400" lon="2.526905480">
        <ele>183.27</ele>
        <time>2015-10-18T10:06:43Z</time>
      </trkpt>
      <trkpt lat="41.615422960" lon="2.527806620">
        <ele>180.87</ele>
        <time>2015-10-18T10:06:51Z</time>
      </trkpt>
      <trkpt lat="41.615300160" lon="2.528437270">
        <ele>179.42</ele>
        <time>2015-10-18T10:06:57Z</time>
      </trkpt>
      <trkpt lat="41.615194550" lon="2.529137830">
        <ele>177.98</ele>
        <time>2015-10-18T10:07:04Z</time>
      </trkpt>
      <trkpt lat="41.615172260" lon="2.529545700">
        <ele>176.54</ele>
        <time>2015-10-18T10:07:08Z</time>
      </trkpt>
      <trkpt lat="41.615166470" lon="2.529952970">
        <ele>175.10</ele>
        <time>2015-10-18T10:07:12Z</time>
      </trkpt>
      <trkpt lat="41.615165050" lon="2.530051630">
        <ele>175.10</ele>
        <time>2015-10-18T10:07:13Z</time>
      </trkpt>
      <trkpt lat="41.615184580" lon="2.530344160">
        <ele>174.14</ele>
        <time>2015-10-18T10:07:16Z</time>
      </trkpt>
      <trkpt lat="41.615120200" lon="2.531049160">
        <ele>171.73</ele>
        <time>2015-10-18T10:07:23Z</time>
      </trkpt>
      <trkpt lat="41.615146610" lon="2.531424160">
        <ele>170.29</ele>
        <time>2015-10-18T10:07:27Z</time>
      </trkpt>
      <trkpt lat="41.615193960" lon="2.531604540">
        <ele>169.81</ele>
        <time>2015-10-18T10:07:29Z</time>
      </trkpt>
      <trkpt lat="41.615198490" lon="2.532162940">
        <ele>168.37</ele>
        <time>2015-10-18T10:07:34Z</time>
      </trkpt>
      <trkpt lat="41.614982990" lon="2.532966010">
        <ele>165.96</ele>
        <time>2015-10-18T10:07:42Z</time>
      </trkpt>
      <trkpt lat="41.614785430" lon="2.533670260">
        <ele>163.56</ele>
        <time>2015-10-18T10:07:49Z</time>
      </trkpt>
      <trkpt lat="41.614555430" lon="2.534338550">
        <ele>161.16</ele>
        <time>2015-10-18T10:07:56Z</time>
      </trkpt>
      <trkpt lat="41.614322080" lon="2.535102650">
        <ele>158.75</ele>
        <time>2015-10-18T10:08:04Z</time>
      </trkpt>
      <trkpt lat="41.614049000" lon="2.535899350">
        <ele>156.35</ele>
        <time>2015-10-18T10:08:13Z</time>
      </trkpt>
      <trkpt lat="41.613875660" lon="2.536347780">
        <ele>153.95</ele>
        <time>2015-10-18T10:08:19Z</time>
      </trkpt>
      <trkpt lat="41.613779850" lon="2.536542070">
        <ele>152.51</ele>
        <time>2015-10-18T10:08:24Z</time>
      </trkpt>
      <trkpt lat="41.613755460" lon="2.536593280">
        <ele>152.51</ele>
        <time>2015-10-18T10:08:26Z</time>
      </trkpt>
      <trkpt lat="41.613727800" lon="2.536603430">
        <ele>152.51</ele>
        <time>2015-10-18T10:08:32Z</time>
      </trkpt>
      <trkpt lat="41.613713300" lon="2.536591770">
        <ele>151.54</ele>
        <time>2015-10-18T10:08:45Z</time>
      </trkpt>
      <trkpt lat="41.613708780" lon="2.536600830">
        <ele>151.54</ele>
        <time>2015-10-18T10:08:58Z</time>
      </trkpt>
      <trkpt lat="41.613666030" lon="2.536572410">
        <ele>151.54</ele>
        <time>2015-10-18T10:09:03Z</time>
      </trkpt>
      <trkpt lat="41.613527140" lon="2.536526900">
        <ele>151.54</ele>
        <time>2015-10-18T10:09:10Z</time>
      </trkpt>
      <trkpt lat="41.613316000" lon="2.536385910">
        <ele>151.54</ele>
        <time>2015-10-18T10:09:18Z</time>
      </trkpt>
      <trkpt lat="41.613233520" lon="2.536324810">
        <ele>152.99</ele>
        <time>2015-10-18T10:09:21Z</time>
      </trkpt>
      <trkpt lat="41.613213070" lon="2.536310650">
        <ele>152.99</ele>
        <time>2015-10-18T10:09:22Z</time>
      </trkpt>
      <trkpt lat="41.613151380" lon="2.536259680">
        <ele>152.99</ele>
        <time>2015-10-18T10:09:26Z</time>
      </trkpt>
      <trkpt lat="41.613064460" lon="2.536401340">
        <ele>153.95</ele>
        <time>2015-10-18T10:09:32Z</time>
      </trkpt>
      <trkpt lat="41.612925740" lon="2.536651030">
        <ele>153.95</ele>
        <time>2015-10-18T10:09:38Z</time>
      </trkpt>
      <trkpt lat="41.612897160" lon="2.536702420">
        <ele>153.95</ele>
        <time>2015-10-18T10:09:39Z</time>
      </trkpt>
      <trkpt lat="41.612840910" lon="2.536790340">
        <ele>152.51</ele>
        <time>2015-10-18T10:09:41Z</time>
      </trkpt>
      <trkpt lat="41.612696410" lon="2.536948010">
        <ele>152.51</ele>
        <time>2015-10-18T10:09:45Z</time>
      </trkpt>
      <trkpt lat="41.612627260" lon="2.537027210">
        <ele>152.51</ele>
        <time>2015-10-18T10:09:47Z</time>
      </trkpt>
      <trkpt lat="41.612333810" lon="2.537318070">
        <ele>151.54</ele>
        <time>2015-10-18T10:09:55Z</time>
      </trkpt>
      <trkpt lat="41.612229700" lon="2.537466590">
        <ele>150.10</ele>
        <time>2015-10-18T10:09:59Z</time>
      </trkpt>
      <trkpt lat="41.612208000" lon="2.537952330">
        <ele>148.66</ele>
        <time>2015-10-18T10:10:06Z</time>
      </trkpt>
      <trkpt lat="41.612194000" lon="2.538210820">
        <ele>147.22</ele>
        <time>2015-10-18T10:10:10Z</time>
      </trkpt>
      <trkpt lat="41.612187790" lon="2.538322550">
        <ele>145.78</ele>
        <time>2015-10-18T10:10:13Z</time>
      </trkpt>
      <trkpt lat="41.612261390" lon="2.538476280">
        <ele>145.30</ele>
        <time>2015-10-18T10:10:19Z</time>
      </trkpt>
      <trkpt lat="41.612229290" lon="2.538558090">
        <ele>144.82</ele>
        <time>2015-10-18T10:10:21Z</time>
      </trkpt>
      <trkpt lat="41.612077320" lon="2.538831750">
        <ele>143.85</ele>
        <time>2015-10-18T10:10:28Z</time>
      </trkpt>
      <trkpt lat="41.611952180" lon="2.538997550">
        <ele>143.37</ele>
        <time>2015-10-18T10:10:33Z</time>
      </trkpt>
      <trkpt lat="41.611925530" lon="2.539050860">
        <ele>142.89</ele>
        <time>2015-10-18T10:10:35Z</time>
      </trkpt>
      <trkpt lat="41.611900210" lon="2.538856820">
        <ele>142.89</ele>
        <time>2015-10-18T10:10:40Z</time>
      </trkpt>
      <trkpt lat="41.611863250" lon="2.538748770">
        <ele>144.34</ele>
        <time>2015-10-18T10:10:43Z</time>
      </trkpt>
      <trkpt lat="41.611630060" lon="2.538739470">
        <ele>145.30</ele>
        <time>2015-10-18T10:10:49Z</time>
      </trkpt>
      <trkpt lat="41.611585390" lon="2.538746680">
        <ele>145.30</ele>
        <time>2015-10-18T10:10:50Z</time>
      </trkpt>
      <trkpt lat="41.611398970" lon="2.538773420">
        <ele>143.85</ele>
        <time>2015-10-18T10:10:54Z</time>
      </trkpt>
      <trkpt lat="41.611083310" lon="2.538805940">
        <ele>142.41</ele>
        <time>2015-10-18T10:11:00Z</time>
      </trkpt>
      <trkpt lat="41.610796320" lon="2.538924370">
        <ele>141.45</ele>
        <time>2015-10-18T10:11:05Z</time>
      </trkpt>
      <trkpt lat="41.610450810" lon="2.539103410">
        <ele>139.05</ele>
        <time>2015-10-18T10:11:11Z</time>
      </trkpt>
      <trkpt lat="41.610048230" lon="2.539336430">
        <ele>136.16</ele>
        <time>2015-10-18T10:11:19Z</time>
      </trkpt>
      <trkpt lat="41.610014790" lon="2.539357380">
        <ele>136.16</ele>
        <time>2015-10-18T10:11:20Z</time>
      </trkpt>
      <trkpt lat="41.609889810" lon="2.539428210">
        <ele>135.68</ele>
        <time>2015-10-18T10:11:24Z</time>
      </trkpt>
      <trkpt lat="41.609776070" lon="2.539514960">
        <ele>135.68</ele>
        <time>2015-10-18T10:11:27Z</time>
      </trkpt>
      <trkpt lat="41.609644050" lon="2.539587720">
        <ele>135.20</ele>
        <time>2015-10-18T10:11:30Z</time>
      </trkpt>
      <trkpt lat="41.609335180" lon="2.539777070">
        <ele>133.28</ele>
        <time>2015-10-18T10:11:38Z</time>
      </trkpt>
      <trkpt lat="41.609190510" lon="2.539945540">
        <ele>132.32</ele>
        <time>2015-10-18T10:11:44Z</time>
      </trkpt>
      <trkpt lat="41.609132760" lon="2.540040930">
        <ele>131.84</ele>
        <time>2015-10-18T10:11:49Z</time>
      </trkpt>
      <trkpt lat="41.609106520" lon="2.540145200">
        <ele>131.84</ele>
        <time>2015-10-18T10:11:56Z</time>
      </trkpt>
      <trkpt lat="41.609028910" lon="2.540227680">
        <ele>131.36</ele>
        <time>2015-10-18T10:12:01Z</time>
      </trkpt>
      <trkpt lat="41.609005940" lon="2.540260200">
        <ele>131.36</ele>
        <time>2015-10-18T10:12:02Z</time>
      </trkpt>
      <trkpt lat="41.608881050" lon="2.540453740">
        <ele>131.36</ele>
        <time>2015-10-18T10:12:09Z</time>
      </trkpt>
      <trkpt lat="41.608869480" lon="2.540467820">
        <ele>131.36</ele>
        <time>2015-10-18T10:12:10Z</time>
      </trkpt>
      <trkpt lat="41.608823720" lon="2.540402860">
        <ele>130.88</ele>
        <time>2015-10-18T10:12:15Z</time>
      </trkpt>
      <trkpt lat="41.608736800" lon="2.540318280">
        <ele>129.43</ele>
        <time>2015-10-18T10:12:19Z</time>
      </trkpt>
      <trkpt lat="41.608697150" lon="2.540322890">
        <ele>129.43</ele>
        <time>2015-10-18T10:12:20Z</time>
      </trkpt>
      <trkpt lat="41.608419540" lon="2.540354160">
        <ele>128.95</ele>
        <time>2015-10-18T10:12:27Z</time>
      </trkpt>
      <trkpt lat="41.608212510" lon="2.540363130">
        <ele>128.47</ele>
        <time>2015-10-18T10:12:32Z</time>
      </trkpt>
      <trkpt lat="41.607941100" lon="2.540390450">
        <ele>127.99</ele>
        <time>2015-10-18T10:12:39Z</time>
      </trkpt>
      <trkpt lat="41.607659140" lon="2.540431440">
        <ele>127.51</ele>
        <time>2015-10-18T10:12:47Z</time>
      </trkpt>
      <trkpt lat="41.607520330" lon="2.540680970">
        <ele>127.03</ele>
        <time>2015-10-18T10:12:54Z</time>
      </trkpt>
      <trkpt lat="41.607451850" lon="2.540783650">
        <ele>127.03</ele>
        <time>2015-10-18T10:12:58Z</time>
      </trkpt>
      <trkpt lat="41.607360410" lon="2.540797390">
        <ele>126.55</ele>
        <time>2015-10-18T10:13:02Z</time>
      </trkpt>
      <trkpt lat="41.607098550" lon="2.540743160">
        <ele>125.59</ele>
        <time>2015-10-18T10:13:10Z</time>
      </trkpt>
      <trkpt lat="41.606806950" lon="2.540655740">
        <ele>124.15</ele>
        <time>2015-10-18T10:13:18Z</time>
      </trkpt>
      <trkpt lat="41.606465890" lon="2.540495560">
        <ele>123.19</ele>
        <time>2015-10-18T10:13:27Z</time>
      </trkpt>
      <trkpt lat="41.606229020" lon="2.540367650">
        <ele>122.22</ele>
        <time>2015-10-18T10:13:34Z</time>
      </trkpt>
      <trkpt lat="41.606223650" lon="2.540364550">
        <ele>121.74</ele>
        <time>2015-10-18T10:13:39Z</time>
      </trkpt>
      <trkpt lat="41.606168250" lon="2.540335720">
        <ele>121.74</ele>
        <time>2015-10-18T10:13:46Z</time>
      </trkpt>
      <trkpt lat="41.606070680" lon="2.540334290">
        <ele>121.74</ele>
        <time>2015-10-18T10:13:50Z</time>
      </trkpt>
      <trkpt lat="41.605932800" lon="2.540370760">
        <ele>121.74</ele>
        <time>2015-10-18T10:13:57Z</time>
      </trkpt>
      <trkpt lat="41.605911340" lon="2.540386930">
        <ele>121.74</ele>
        <time>2015-10-18T10:13:59Z</time>
      </trkpt>
      <trkpt lat="41.605947550" lon="2.540443340">
        <ele>121.74</ele>
        <time>2015-10-18T10:14:04Z</time>
      </trkpt>
      <trkpt lat="41.605950320" lon="2.540457340">
        <ele>121.74</ele>
        <time>2015-10-18T10:14:08Z</time>
      </trkpt>
      <trkpt lat="41.605961300" lon="2.540586760">
        <ele>121.74</ele>
        <time>2015-10-18T10:14:14Z</time>
      </trkpt>
      <trkpt lat="41.606094240" lon="2.540647860">
        <ele>123.19</ele>
        <time>2015-10-18T10:14:20Z</time>
      </trkpt>
      <trkpt lat="41.606327420" lon="2.540707120">
        <ele>123.67</ele>
        <time>2015-10-18T10:14:29Z</time>
      </trkpt>
      <trkpt lat="41.606496060" lon="2.540810890">
        <ele>124.63</ele>
        <time>2015-10-18T10:14:37Z</time>
      </trkpt>
      <trkpt lat="41.606583320" lon="2.540974250">
        <ele>125.59</ele>
        <time>2015-10-18T10:14:43Z</time>
      </trkpt>
      <trkpt lat="41.606670740" lon="2.541239790">
        <ele>127.03</ele>
        <time>2015-10-18T10:14:51Z</time>
      </trkpt>
      <trkpt lat="41.606717510" lon="2.541434080">
        <ele>127.99</ele>
        <time>2015-10-18T10:14:57Z</time>
      </trkpt>
      <trkpt lat="41.606767800" lon="2.541655280">
        <ele>129.43</ele>
        <time>2015-10-18T10:15:04Z</time>
      </trkpt>
      <trkpt lat="41.606843330" lon="2.541891480">
        <ele>130.40</ele>
        <time>2015-10-18T10:15:11Z</time>
      </trkpt>
      <trkpt lat="41.606929490" lon="2.542102120">
        <ele>131.84</ele>
        <time>2015-10-18T10:15:18Z</time>
      </trkpt>
      <trkpt lat="41.607041470" lon="2.542298430">
        <ele>133.28</ele>
        <time>2015-10-18T10:15:26Z</time>
      </trkpt>
      <trkpt lat="41.607069640" lon="2.542338990">
        <ele>133.76</ele>
        <time>2015-10-18T10:15:31Z</time>
      </trkpt>
      <trkpt lat="41.607081460" lon="2.542356090">
        <ele>134.24</ele>
        <time>2015-10-18T10:15:39Z</time>
      </trkpt>
      <trkpt lat="41.607075760" lon="2.542371100">
        <ele>134.72</ele>
        <time>2015-10-18T10:15:46Z</time>
      </trkpt>
      <trkpt lat="41.607089420" lon="2.542377800">
        <ele>134.24</ele>
        <time>2015-10-18T10:15:58Z</time>
      </trkpt>
      <trkpt lat="41.607090420" lon="2.542373280">
        <ele>134.24</ele>
        <time>2015-10-18T10:16:11Z</time>
      </trkpt>
    </trkseg>
  </trk>
</gpx>
